<?xml version="1.0" encoding="UTF-8" standalone="no" ?>
<gpx xmlns="http://www.topografix.com/GPX/1/1" xmlns:xsi="http://www.w3.org/2001/XMLSchema-instance" xsi:schemaLocation="http://www.topografix.com/GPX/1/1 http://www.topografix.com/GPX/1/1/gpx.xsd" version="1.1" creator="VisuGPX - https://www.visugpx.com">
  <metadata>
    <name>20/05/2020 08:32:29</name>
    <desc><![CDATA[boucle au départ du parking des restaurants de Payolle puis direction hourquette d'ancizan et bois jusqu'au col d'aspin, descente puis chemin forestier jusqu'au col de Beyrède remontée puis descente par le bois jusqu'à la carrière de Payolle et parking]]></desc>
  </metadata>
  <trk>
    <name><![CDATA[20/05/2020 08:32:29]]></name>
    <trkseg>
      <trkpt lat="42.94216" lon="0.285">
        <ele>1082.4000244141</ele>
        <time>2020-05-20T06:32:29Z</time>
      </trkpt>
      <trkpt lat="42.94212" lon="0.28505">
        <ele>1082.4000244141</ele>
        <time>2020-05-20T06:32:32Z</time>
      </trkpt>
      <trkpt lat="42.9421" lon="0.28506">
        <ele>1083.8000488281</ele>
        <time>2020-05-20T06:32:33Z</time>
      </trkpt>
      <trkpt lat="42.94209" lon="0.28507">
        <ele>1084.5999755859</ele>
        <time>2020-05-20T06:32:34Z</time>
      </trkpt>
      <trkpt lat="42.94207" lon="0.28507">
        <ele>1085.1999511719</ele>
        <time>2020-05-20T06:32:35Z</time>
      </trkpt>
      <trkpt lat="42.94205" lon="0.28508">
        <ele>1086</ele>
        <time>2020-05-20T06:32:36Z</time>
      </trkpt>
      <trkpt lat="42.94194" lon="0.2852">
        <ele>1086</ele>
        <time>2020-05-20T06:32:41Z</time>
      </trkpt>
      <trkpt lat="42.94173" lon="0.28542">
        <ele>1086</ele>
        <time>2020-05-20T06:32:49Z</time>
      </trkpt>
      <trkpt lat="42.9415" lon="0.28565">
        <ele>1086</ele>
        <time>2020-05-20T06:32:58Z</time>
      </trkpt>
      <trkpt lat="42.94137" lon="0.28581">
        <ele>1085.8000488281</ele>
        <time>2020-05-20T06:33:03Z</time>
      </trkpt>
      <trkpt lat="42.94134" lon="0.28585">
        <ele>1085.5999755859</ele>
        <time>2020-05-20T06:33:04Z</time>
      </trkpt>
      <trkpt lat="42.94131" lon="0.28588">
        <ele>1085.4000244141</ele>
        <time>2020-05-20T06:33:05Z</time>
      </trkpt>
      <trkpt lat="42.94129" lon="0.28591">
        <ele>1085.4000244141</ele>
        <time>2020-05-20T06:33:06Z</time>
      </trkpt>
      <trkpt lat="42.94126" lon="0.28594">
        <ele>1085.1999511719</ele>
        <time>2020-05-20T06:33:07Z</time>
      </trkpt>
      <trkpt lat="42.94106" lon="0.28619">
        <ele>1085.1999511719</ele>
        <time>2020-05-20T06:33:14Z</time>
      </trkpt>
      <trkpt lat="42.94092" lon="0.28643">
        <ele>1085.1999511719</ele>
        <time>2020-05-20T06:33:20Z</time>
      </trkpt>
      <trkpt lat="42.94082" lon="0.28658">
        <ele>1085.5999755859</ele>
        <time>2020-05-20T06:33:24Z</time>
      </trkpt>
      <trkpt lat="42.9408" lon="0.28662">
        <ele>1086</ele>
        <time>2020-05-20T06:33:25Z</time>
      </trkpt>
      <trkpt lat="42.94078" lon="0.28666">
        <ele>1086.4000244141</ele>
        <time>2020-05-20T06:33:26Z</time>
      </trkpt>
      <trkpt lat="42.94076" lon="0.2867">
        <ele>1086.8000488281</ele>
        <time>2020-05-20T06:33:27Z</time>
      </trkpt>
      <trkpt lat="42.94075" lon="0.28674">
        <ele>1087.1999511719</ele>
        <time>2020-05-20T06:33:28Z</time>
      </trkpt>
      <trkpt lat="42.94067" lon="0.28713">
        <ele>1087.1999511719</ele>
        <time>2020-05-20T06:33:36Z</time>
      </trkpt>
      <trkpt lat="42.94065" lon="0.28722">
        <ele>1087.5999755859</ele>
        <time>2020-05-20T06:33:38Z</time>
      </trkpt>
      <trkpt lat="42.94064" lon="0.28726">
        <ele>1088.1999511719</ele>
        <time>2020-05-20T06:33:39Z</time>
      </trkpt>
      <trkpt lat="42.94064" lon="0.2873">
        <ele>1088.5999755859</ele>
        <time>2020-05-20T06:33:40Z</time>
      </trkpt>
      <trkpt lat="42.94063" lon="0.28735">
        <ele>1089</ele>
        <time>2020-05-20T06:33:41Z</time>
      </trkpt>
      <trkpt lat="42.94063" lon="0.28739">
        <ele>1089.4000244141</ele>
        <time>2020-05-20T06:33:42Z</time>
      </trkpt>
      <trkpt lat="42.94059" lon="0.28751">
        <ele>1089.4000244141</ele>
        <time>2020-05-20T06:33:45Z</time>
      </trkpt>
      <trkpt lat="42.94058" lon="0.28755">
        <ele>1089.8000488281</ele>
        <time>2020-05-20T06:33:46Z</time>
      </trkpt>
      <trkpt lat="42.94058" lon="0.28759">
        <ele>1090.1999511719</ele>
        <time>2020-05-20T06:33:47Z</time>
      </trkpt>
      <trkpt lat="42.94057" lon="0.28764">
        <ele>1090.5999755859</ele>
        <time>2020-05-20T06:33:48Z</time>
      </trkpt>
      <trkpt lat="42.94056" lon="0.28768">
        <ele>1091</ele>
        <time>2020-05-20T06:33:49Z</time>
      </trkpt>
      <trkpt lat="42.94054" lon="0.28771">
        <ele>1091.4000244141</ele>
        <time>2020-05-20T06:33:50Z</time>
      </trkpt>
      <trkpt lat="42.94052" lon="0.28775">
        <ele>1091.4000244141</ele>
        <time>2020-05-20T06:33:51Z</time>
      </trkpt>
      <trkpt lat="42.94041" lon="0.28807">
        <ele>1091.8000488281</ele>
        <time>2020-05-20T06:33:59Z</time>
      </trkpt>
      <trkpt lat="42.9404" lon="0.28811">
        <ele>1092.1999511719</ele>
        <time>2020-05-20T06:34:00Z</time>
      </trkpt>
      <trkpt lat="42.94039" lon="0.28814">
        <ele>1092.8000488281</ele>
        <time>2020-05-20T06:34:01Z</time>
      </trkpt>
      <trkpt lat="42.94037" lon="0.28818">
        <ele>1093.1999511719</ele>
        <time>2020-05-20T06:34:02Z</time>
      </trkpt>
      <trkpt lat="42.94036" lon="0.28822">
        <ele>1093.5999755859</ele>
        <time>2020-05-20T06:34:03Z</time>
      </trkpt>
      <trkpt lat="42.94029" lon="0.28841">
        <ele>1094</ele>
        <time>2020-05-20T06:34:08Z</time>
      </trkpt>
      <trkpt lat="42.94028" lon="0.28845">
        <ele>1094.4000244141</ele>
        <time>2020-05-20T06:34:09Z</time>
      </trkpt>
      <trkpt lat="42.94027" lon="0.28849">
        <ele>1094.8000488281</ele>
        <time>2020-05-20T06:34:10Z</time>
      </trkpt>
      <trkpt lat="42.94026" lon="0.28852">
        <ele>1095.1999511719</ele>
        <time>2020-05-20T06:34:11Z</time>
      </trkpt>
      <trkpt lat="42.94025" lon="0.28856">
        <ele>1095.5999755859</ele>
        <time>2020-05-20T06:34:12Z</time>
      </trkpt>
      <trkpt lat="42.94017" lon="0.28885">
        <ele>1096</ele>
        <time>2020-05-20T06:34:19Z</time>
      </trkpt>
      <trkpt lat="42.94017" lon="0.28889">
        <ele>1096.4000244141</ele>
        <time>2020-05-20T06:34:20Z</time>
      </trkpt>
      <trkpt lat="42.94016" lon="0.28893">
        <ele>1096.8000488281</ele>
        <time>2020-05-20T06:34:21Z</time>
      </trkpt>
      <trkpt lat="42.94016" lon="0.28898">
        <ele>1097.1999511719</ele>
        <time>2020-05-20T06:34:22Z</time>
      </trkpt>
      <trkpt lat="42.94015" lon="0.28902">
        <ele>1097.5999755859</ele>
        <time>2020-05-20T06:34:23Z</time>
      </trkpt>
      <trkpt lat="42.9401" lon="0.2893">
        <ele>1097.5999755859</ele>
        <time>2020-05-20T06:34:30Z</time>
      </trkpt>
      <trkpt lat="42.94006" lon="0.28955">
        <ele>1097.5999755859</ele>
        <time>2020-05-20T06:34:36Z</time>
      </trkpt>
      <trkpt lat="42.94004" lon="0.28964">
        <ele>1097.5999755859</ele>
        <time>2020-05-20T06:34:38Z</time>
      </trkpt>
      <trkpt lat="42.94004" lon="0.28977">
        <ele>1098</ele>
        <time>2020-05-20T06:34:41Z</time>
      </trkpt>
      <trkpt lat="42.94004" lon="0.28982">
        <ele>1098.4000244141</ele>
        <time>2020-05-20T06:34:42Z</time>
      </trkpt>
      <trkpt lat="42.94004" lon="0.28986">
        <ele>1098.8000488281</ele>
        <time>2020-05-20T06:34:43Z</time>
      </trkpt>
      <trkpt lat="42.94005" lon="0.2899">
        <ele>1099.1999511719</ele>
        <time>2020-05-20T06:34:44Z</time>
      </trkpt>
      <trkpt lat="42.94005" lon="0.28995">
        <ele>1099.5999755859</ele>
        <time>2020-05-20T06:34:45Z</time>
      </trkpt>
      <trkpt lat="42.94004" lon="0.29026">
        <ele>1099.5999755859</ele>
        <time>2020-05-20T06:34:52Z</time>
      </trkpt>
      <trkpt lat="42.93999" lon="0.29056">
        <ele>1100</ele>
        <time>2020-05-20T06:34:59Z</time>
      </trkpt>
      <trkpt lat="42.93998" lon="0.2906">
        <ele>1100.4000244141</ele>
        <time>2020-05-20T06:35:00Z</time>
      </trkpt>
      <trkpt lat="42.93997" lon="0.29064">
        <ele>1100.8000488281</ele>
        <time>2020-05-20T06:35:01Z</time>
      </trkpt>
      <trkpt lat="42.93995" lon="0.29068">
        <ele>1101.1999511719</ele>
        <time>2020-05-20T06:35:02Z</time>
      </trkpt>
      <trkpt lat="42.93995" lon="0.29072">
        <ele>1101.5999755859</ele>
        <time>2020-05-20T06:35:03Z</time>
      </trkpt>
      <trkpt lat="42.93989" lon="0.29088">
        <ele>1101.5999755859</ele>
        <time>2020-05-20T06:35:07Z</time>
      </trkpt>
      <trkpt lat="42.93974" lon="0.29111">
        <ele>1101.5999755859</ele>
        <time>2020-05-20T06:35:14Z</time>
      </trkpt>
      <trkpt lat="42.9396" lon="0.29124">
        <ele>1102</ele>
        <time>2020-05-20T06:35:19Z</time>
      </trkpt>
      <trkpt lat="42.93957" lon="0.29126">
        <ele>1102.4000244141</ele>
        <time>2020-05-20T06:35:20Z</time>
      </trkpt>
      <trkpt lat="42.93954" lon="0.29128">
        <ele>1102.8000488281</ele>
        <time>2020-05-20T06:35:21Z</time>
      </trkpt>
      <trkpt lat="42.9395" lon="0.29129">
        <ele>1103.1999511719</ele>
        <time>2020-05-20T06:35:22Z</time>
      </trkpt>
      <trkpt lat="42.93947" lon="0.29131">
        <ele>1103.5999755859</ele>
        <time>2020-05-20T06:35:23Z</time>
      </trkpt>
      <trkpt lat="42.93943" lon="0.29131">
        <ele>1103.5999755859</ele>
        <time>2020-05-20T06:35:24Z</time>
      </trkpt>
      <trkpt lat="42.93925" lon="0.29131">
        <ele>1103.5999755859</ele>
        <time>2020-05-20T06:35:28Z</time>
      </trkpt>
      <trkpt lat="42.93905" lon="0.29132">
        <ele>1103.1999511719</ele>
        <time>2020-05-20T06:35:32Z</time>
      </trkpt>
      <trkpt lat="42.93899" lon="0.29132">
        <ele>1102.8000488281</ele>
        <time>2020-05-20T06:35:33Z</time>
      </trkpt>
      <trkpt lat="42.93893" lon="0.29132">
        <ele>1102.4000244141</ele>
        <time>2020-05-20T06:35:34Z</time>
      </trkpt>
      <trkpt lat="42.93887" lon="0.29131">
        <ele>1102</ele>
        <time>2020-05-20T06:35:35Z</time>
      </trkpt>
      <trkpt lat="42.93881" lon="0.2913">
        <ele>1101.5999755859</ele>
        <time>2020-05-20T06:35:36Z</time>
      </trkpt>
      <trkpt lat="42.93851" lon="0.29122">
        <ele>1101.1999511719</ele>
        <time>2020-05-20T06:35:41Z</time>
      </trkpt>
      <trkpt lat="42.93846" lon="0.29121">
        <ele>1100.8000488281</ele>
        <time>2020-05-20T06:35:42Z</time>
      </trkpt>
      <trkpt lat="42.9384" lon="0.29122">
        <ele>1100.4000244141</ele>
        <time>2020-05-20T06:35:43Z</time>
      </trkpt>
      <trkpt lat="42.93835" lon="0.29124">
        <ele>1100</ele>
        <time>2020-05-20T06:35:44Z</time>
      </trkpt>
      <trkpt lat="42.93831" lon="0.29126">
        <ele>1099.5999755859</ele>
        <time>2020-05-20T06:35:45Z</time>
      </trkpt>
      <trkpt lat="42.93821" lon="0.29142">
        <ele>1100</ele>
        <time>2020-05-20T06:35:49Z</time>
      </trkpt>
      <trkpt lat="42.93819" lon="0.29145">
        <ele>1100.4000244141</ele>
        <time>2020-05-20T06:35:50Z</time>
      </trkpt>
      <trkpt lat="42.93817" lon="0.29148">
        <ele>1100.8000488281</ele>
        <time>2020-05-20T06:35:51Z</time>
      </trkpt>
      <trkpt lat="42.93815" lon="0.29151">
        <ele>1101.1999511719</ele>
        <time>2020-05-20T06:35:52Z</time>
      </trkpt>
      <trkpt lat="42.93813" lon="0.29154">
        <ele>1101.5999755859</ele>
        <time>2020-05-20T06:35:53Z</time>
      </trkpt>
      <trkpt lat="42.93811" lon="0.29156">
        <ele>1101.5999755859</ele>
        <time>2020-05-20T06:35:54Z</time>
      </trkpt>
      <trkpt lat="42.93802" lon="0.29166">
        <ele>1102</ele>
        <time>2020-05-20T06:35:58Z</time>
      </trkpt>
      <trkpt lat="42.93799" lon="0.29169">
        <ele>1102.4000244141</ele>
        <time>2020-05-20T06:35:59Z</time>
      </trkpt>
      <trkpt lat="42.93797" lon="0.29171">
        <ele>1102.8000488281</ele>
        <time>2020-05-20T06:36:00Z</time>
      </trkpt>
      <trkpt lat="42.93795" lon="0.29173">
        <ele>1103.1999511719</ele>
        <time>2020-05-20T06:36:01Z</time>
      </trkpt>
      <trkpt lat="42.93792" lon="0.29176">
        <ele>1103.5999755859</ele>
        <time>2020-05-20T06:36:02Z</time>
      </trkpt>
      <trkpt lat="42.9379" lon="0.29177">
        <ele>1103.5999755859</ele>
        <time>2020-05-20T06:36:03Z</time>
      </trkpt>
      <trkpt lat="42.93779" lon="0.29186">
        <ele>1104.1999511719</ele>
        <time>2020-05-20T06:36:08Z</time>
      </trkpt>
      <trkpt lat="42.93777" lon="0.29188">
        <ele>1104.5999755859</ele>
        <time>2020-05-20T06:36:09Z</time>
      </trkpt>
      <trkpt lat="42.93775" lon="0.2919">
        <ele>1105</ele>
        <time>2020-05-20T06:36:10Z</time>
      </trkpt>
      <trkpt lat="42.93773" lon="0.29193">
        <ele>1105.4000244141</ele>
        <time>2020-05-20T06:36:11Z</time>
      </trkpt>
      <trkpt lat="42.93771" lon="0.29195">
        <ele>1105.8000488281</ele>
        <time>2020-05-20T06:36:12Z</time>
      </trkpt>
      <trkpt lat="42.93762" lon="0.29204">
        <ele>1105.8000488281</ele>
        <time>2020-05-20T06:36:17Z</time>
      </trkpt>
      <trkpt lat="42.93755" lon="0.29213">
        <ele>1106.1999511719</ele>
        <time>2020-05-20T06:36:21Z</time>
      </trkpt>
      <trkpt lat="42.93753" lon="0.29215">
        <ele>1106.5999755859</ele>
        <time>2020-05-20T06:36:22Z</time>
      </trkpt>
      <trkpt lat="42.93751" lon="0.29218">
        <ele>1107</ele>
        <time>2020-05-20T06:36:23Z</time>
      </trkpt>
      <trkpt lat="42.93749" lon="0.2922">
        <ele>1107.4000244141</ele>
        <time>2020-05-20T06:36:24Z</time>
      </trkpt>
      <trkpt lat="42.93747" lon="0.29222">
        <ele>1108</ele>
        <time>2020-05-20T06:36:25Z</time>
      </trkpt>
      <trkpt lat="42.93742" lon="0.29228">
        <ele>1108</ele>
        <time>2020-05-20T06:36:28Z</time>
      </trkpt>
      <trkpt lat="42.93736" lon="0.29233">
        <ele>1108</ele>
        <time>2020-05-20T06:36:31Z</time>
      </trkpt>
      <trkpt lat="42.93726" lon="0.29242">
        <ele>1108</ele>
        <time>2020-05-20T06:36:37Z</time>
      </trkpt>
      <trkpt lat="42.93721" lon="0.29245">
        <ele>1108.4000244141</ele>
        <time>2020-05-20T06:36:40Z</time>
      </trkpt>
      <trkpt lat="42.93719" lon="0.29247">
        <ele>1108.8000488281</ele>
        <time>2020-05-20T06:36:41Z</time>
      </trkpt>
      <trkpt lat="42.93718" lon="0.29248">
        <ele>1109.1999511719</ele>
        <time>2020-05-20T06:36:42Z</time>
      </trkpt>
      <trkpt lat="42.93716" lon="0.29249">
        <ele>1109.5999755859</ele>
        <time>2020-05-20T06:36:43Z</time>
      </trkpt>
      <trkpt lat="42.93714" lon="0.2925">
        <ele>1110</ele>
        <time>2020-05-20T06:36:44Z</time>
      </trkpt>
      <trkpt lat="42.93712" lon="0.2925">
        <ele>1110</ele>
        <time>2020-05-20T06:36:45Z</time>
      </trkpt>
      <trkpt lat="42.93703" lon="0.2925">
        <ele>1110</ele>
        <time>2020-05-20T06:36:49Z</time>
      </trkpt>
      <trkpt lat="42.937" lon="0.2925">
        <ele>1110</ele>
        <time>2020-05-20T06:36:50Z</time>
      </trkpt>
      <trkpt lat="42.93683" lon="0.29247">
        <ele>1110</ele>
        <time>2020-05-20T06:36:56Z</time>
      </trkpt>
      <trkpt lat="42.93666" lon="0.29236">
        <ele>1110</ele>
        <time>2020-05-20T06:37:02Z</time>
      </trkpt>
      <trkpt lat="42.93646" lon="0.29218">
        <ele>1110</ele>
        <time>2020-05-20T06:37:09Z</time>
      </trkpt>
      <trkpt lat="42.93637" lon="0.29211">
        <ele>1110.5999755859</ele>
        <time>2020-05-20T06:37:12Z</time>
      </trkpt>
      <trkpt lat="42.93634" lon="0.29209">
        <ele>1111</ele>
        <time>2020-05-20T06:37:13Z</time>
      </trkpt>
      <trkpt lat="42.93632" lon="0.29206">
        <ele>1111.4000244141</ele>
        <time>2020-05-20T06:37:14Z</time>
      </trkpt>
      <trkpt lat="42.93629" lon="0.29204">
        <ele>1111.8000488281</ele>
        <time>2020-05-20T06:37:15Z</time>
      </trkpt>
      <trkpt lat="42.93627" lon="0.29202">
        <ele>1112.1999511719</ele>
        <time>2020-05-20T06:37:16Z</time>
      </trkpt>
      <trkpt lat="42.93621" lon="0.29197">
        <ele>1112.1999511719</ele>
        <time>2020-05-20T06:37:18Z</time>
      </trkpt>
      <trkpt lat="42.93598" lon="0.29177">
        <ele>1112.1999511719</ele>
        <time>2020-05-20T06:37:26Z</time>
      </trkpt>
      <trkpt lat="42.93593" lon="0.29172">
        <ele>1112.5999755859</ele>
        <time>2020-05-20T06:37:28Z</time>
      </trkpt>
      <trkpt lat="42.9359" lon="0.2917">
        <ele>1113</ele>
        <time>2020-05-20T06:37:29Z</time>
      </trkpt>
      <trkpt lat="42.93588" lon="0.29167">
        <ele>1113.4000244141</ele>
        <time>2020-05-20T06:37:30Z</time>
      </trkpt>
      <trkpt lat="42.93585" lon="0.29164">
        <ele>1113.8000488281</ele>
        <time>2020-05-20T06:37:31Z</time>
      </trkpt>
      <trkpt lat="42.93582" lon="0.29161">
        <ele>1114.1999511719</ele>
        <time>2020-05-20T06:37:32Z</time>
      </trkpt>
      <trkpt lat="42.93579" lon="0.29159">
        <ele>1114.1999511719</ele>
        <time>2020-05-20T06:37:33Z</time>
      </trkpt>
      <trkpt lat="42.93557" lon="0.29141">
        <ele>1114.1999511719</ele>
        <time>2020-05-20T06:37:40Z</time>
      </trkpt>
      <trkpt lat="42.93546" lon="0.29131">
        <ele>1114.5999755859</ele>
        <time>2020-05-20T06:37:44Z</time>
      </trkpt>
      <trkpt lat="42.93542" lon="0.29129">
        <ele>1115</ele>
        <time>2020-05-20T06:37:45Z</time>
      </trkpt>
      <trkpt lat="42.93539" lon="0.29127">
        <ele>1115.4000244141</ele>
        <time>2020-05-20T06:37:46Z</time>
      </trkpt>
      <trkpt lat="42.93536" lon="0.29125">
        <ele>1116</ele>
        <time>2020-05-20T06:37:47Z</time>
      </trkpt>
      <trkpt lat="42.93532" lon="0.29123">
        <ele>1116.4000244141</ele>
        <time>2020-05-20T06:37:48Z</time>
      </trkpt>
      <trkpt lat="42.93518" lon="0.29114">
        <ele>1116.4000244141</ele>
        <time>2020-05-20T06:37:53Z</time>
      </trkpt>
      <trkpt lat="42.93501" lon="0.29117">
        <ele>1116.4000244141</ele>
        <time>2020-05-20T06:37:58Z</time>
      </trkpt>
      <trkpt lat="42.9348" lon="0.29129">
        <ele>1116.8000488281</ele>
        <time>2020-05-20T06:38:05Z</time>
      </trkpt>
      <trkpt lat="42.93477" lon="0.2913">
        <ele>1117.1999511719</ele>
        <time>2020-05-20T06:38:06Z</time>
      </trkpt>
      <trkpt lat="42.93474" lon="0.29131">
        <ele>1117.5999755859</ele>
        <time>2020-05-20T06:38:07Z</time>
      </trkpt>
      <trkpt lat="42.93471" lon="0.29132">
        <ele>1118</ele>
        <time>2020-05-20T06:38:08Z</time>
      </trkpt>
      <trkpt lat="42.93468" lon="0.29133">
        <ele>1118.4000244141</ele>
        <time>2020-05-20T06:38:09Z</time>
      </trkpt>
      <trkpt lat="42.93446" lon="0.29147">
        <ele>1118.4000244141</ele>
        <time>2020-05-20T06:38:17Z</time>
      </trkpt>
      <trkpt lat="42.93432" lon="0.29156">
        <ele>1118.8000488281</ele>
        <time>2020-05-20T06:38:22Z</time>
      </trkpt>
      <trkpt lat="42.93429" lon="0.29158">
        <ele>1119.1999511719</ele>
        <time>2020-05-20T06:38:23Z</time>
      </trkpt>
      <trkpt lat="42.93427" lon="0.2916">
        <ele>1119.5999755859</ele>
        <time>2020-05-20T06:38:24Z</time>
      </trkpt>
      <trkpt lat="42.93424" lon="0.29163">
        <ele>1120</ele>
        <time>2020-05-20T06:38:25Z</time>
      </trkpt>
      <trkpt lat="42.93422" lon="0.29165">
        <ele>1120.4000244141</ele>
        <time>2020-05-20T06:38:26Z</time>
      </trkpt>
      <trkpt lat="42.93408" lon="0.29173">
        <ele>1120.4000244141</ele>
        <time>2020-05-20T06:38:31Z</time>
      </trkpt>
      <trkpt lat="42.93393" lon="0.29185">
        <ele>1120.8000488281</ele>
        <time>2020-05-20T06:38:37Z</time>
      </trkpt>
      <trkpt lat="42.93391" lon="0.29187">
        <ele>1121.1999511719</ele>
        <time>2020-05-20T06:38:38Z</time>
      </trkpt>
      <trkpt lat="42.93388" lon="0.29188">
        <ele>1122</ele>
        <time>2020-05-20T06:38:39Z</time>
      </trkpt>
      <trkpt lat="42.93386" lon="0.2919">
        <ele>1122.5999755859</ele>
        <time>2020-05-20T06:38:40Z</time>
      </trkpt>
      <trkpt lat="42.93362" lon="0.29208">
        <ele>1122.5999755859</ele>
        <time>2020-05-20T06:38:50Z</time>
      </trkpt>
      <trkpt lat="42.93357" lon="0.29212">
        <ele>1123</ele>
        <time>2020-05-20T06:38:52Z</time>
      </trkpt>
      <trkpt lat="42.93355" lon="0.29214">
        <ele>1123.4000244141</ele>
        <time>2020-05-20T06:38:53Z</time>
      </trkpt>
      <trkpt lat="42.93353" lon="0.29216">
        <ele>1123.8000488281</ele>
        <time>2020-05-20T06:38:54Z</time>
      </trkpt>
      <trkpt lat="42.93351" lon="0.29218">
        <ele>1124.1999511719</ele>
        <time>2020-05-20T06:38:55Z</time>
      </trkpt>
      <trkpt lat="42.93348" lon="0.2922">
        <ele>1124.5999755859</ele>
        <time>2020-05-20T06:38:56Z</time>
      </trkpt>
      <trkpt lat="42.93342" lon="0.29226">
        <ele>1124.5999755859</ele>
        <time>2020-05-20T06:38:59Z</time>
      </trkpt>
      <trkpt lat="42.93333" lon="0.29239">
        <ele>1125</ele>
        <time>2020-05-20T06:39:04Z</time>
      </trkpt>
      <trkpt lat="42.93332" lon="0.29242">
        <ele>1125.4000244141</ele>
        <time>2020-05-20T06:39:05Z</time>
      </trkpt>
      <trkpt lat="42.93331" lon="0.29245">
        <ele>1125.8000488281</ele>
        <time>2020-05-20T06:39:06Z</time>
      </trkpt>
      <trkpt lat="42.93329" lon="0.29248">
        <ele>1126.1999511719</ele>
        <time>2020-05-20T06:39:07Z</time>
      </trkpt>
      <trkpt lat="42.93328" lon="0.29251">
        <ele>1126.5999755859</ele>
        <time>2020-05-20T06:39:08Z</time>
      </trkpt>
      <trkpt lat="42.93316" lon="0.29268">
        <ele>1126.5999755859</ele>
        <time>2020-05-20T06:39:15Z</time>
      </trkpt>
      <trkpt lat="42.93315" lon="0.2927">
        <ele>1127</ele>
        <time>2020-05-20T06:39:16Z</time>
      </trkpt>
      <trkpt lat="42.93313" lon="0.29272">
        <ele>1127.4000244141</ele>
        <time>2020-05-20T06:39:17Z</time>
      </trkpt>
      <trkpt lat="42.93311" lon="0.29274">
        <ele>1127.8000488281</ele>
        <time>2020-05-20T06:39:18Z</time>
      </trkpt>
      <trkpt lat="42.93309" lon="0.29277">
        <ele>1128.4000244141</ele>
        <time>2020-05-20T06:39:19Z</time>
      </trkpt>
      <trkpt lat="42.93307" lon="0.29279">
        <ele>1128.8000488281</ele>
        <time>2020-05-20T06:39:20Z</time>
      </trkpt>
      <trkpt lat="42.93304" lon="0.29284">
        <ele>1128.8000488281</ele>
        <time>2020-05-20T06:39:22Z</time>
      </trkpt>
      <trkpt lat="42.93288" lon="0.293">
        <ele>1128.8000488281</ele>
        <time>2020-05-20T06:39:30Z</time>
      </trkpt>
      <trkpt lat="42.93284" lon="0.29304">
        <ele>1129.1999511719</ele>
        <time>2020-05-20T06:39:32Z</time>
      </trkpt>
      <trkpt lat="42.93281" lon="0.29306">
        <ele>1129.5999755859</ele>
        <time>2020-05-20T06:39:33Z</time>
      </trkpt>
      <trkpt lat="42.93279" lon="0.29308">
        <ele>1130</ele>
        <time>2020-05-20T06:39:34Z</time>
      </trkpt>
      <trkpt lat="42.93276" lon="0.29309">
        <ele>1130.4000244141</ele>
        <time>2020-05-20T06:39:35Z</time>
      </trkpt>
      <trkpt lat="42.93274" lon="0.29312">
        <ele>1130.8000488281</ele>
        <time>2020-05-20T06:39:36Z</time>
      </trkpt>
      <trkpt lat="42.93269" lon="0.29315">
        <ele>1130.8000488281</ele>
        <time>2020-05-20T06:39:38Z</time>
      </trkpt>
      <trkpt lat="42.93249" lon="0.29328">
        <ele>1130.8000488281</ele>
        <time>2020-05-20T06:39:46Z</time>
      </trkpt>
      <trkpt lat="42.93228" lon="0.29341">
        <ele>1131.1999511719</ele>
        <time>2020-05-20T06:39:54Z</time>
      </trkpt>
      <trkpt lat="42.93226" lon="0.29343">
        <ele>1131.5999755859</ele>
        <time>2020-05-20T06:39:55Z</time>
      </trkpt>
      <trkpt lat="42.93224" lon="0.29345">
        <ele>1132.1999511719</ele>
        <time>2020-05-20T06:39:56Z</time>
      </trkpt>
      <trkpt lat="42.93222" lon="0.29347">
        <ele>1132.5999755859</ele>
        <time>2020-05-20T06:39:57Z</time>
      </trkpt>
      <trkpt lat="42.93219" lon="0.29349">
        <ele>1133</ele>
        <time>2020-05-20T06:39:58Z</time>
      </trkpt>
      <trkpt lat="42.93211" lon="0.29355">
        <ele>1133</ele>
        <time>2020-05-20T06:40:02Z</time>
      </trkpt>
      <trkpt lat="42.93204" lon="0.29359">
        <ele>1133.4000244141</ele>
        <time>2020-05-20T06:40:06Z</time>
      </trkpt>
      <trkpt lat="42.93202" lon="0.29361">
        <ele>1133.8000488281</ele>
        <time>2020-05-20T06:40:07Z</time>
      </trkpt>
      <trkpt lat="42.932" lon="0.29361">
        <ele>1134.1999511719</ele>
        <time>2020-05-20T06:40:08Z</time>
      </trkpt>
      <trkpt lat="42.93198" lon="0.29362">
        <ele>1134.5999755859</ele>
        <time>2020-05-20T06:40:09Z</time>
      </trkpt>
      <trkpt lat="42.93196" lon="0.29363">
        <ele>1135</ele>
        <time>2020-05-20T06:40:10Z</time>
      </trkpt>
      <trkpt lat="42.93184" lon="0.29368">
        <ele>1135</ele>
        <time>2020-05-20T06:40:16Z</time>
      </trkpt>
      <trkpt lat="42.93179" lon="0.29369">
        <ele>1135.4000244141</ele>
        <time>2020-05-20T06:40:19Z</time>
      </trkpt>
      <trkpt lat="42.93177" lon="0.29369">
        <ele>1135.8000488281</ele>
        <time>2020-05-20T06:40:20Z</time>
      </trkpt>
      <trkpt lat="42.93176" lon="0.29371">
        <ele>1136.1999511719</ele>
        <time>2020-05-20T06:40:21Z</time>
      </trkpt>
      <trkpt lat="42.93174" lon="0.29372">
        <ele>1136.8000488281</ele>
        <time>2020-05-20T06:40:22Z</time>
      </trkpt>
      <trkpt lat="42.93172" lon="0.29372">
        <ele>1137.1999511719</ele>
        <time>2020-05-20T06:40:23Z</time>
      </trkpt>
      <trkpt lat="42.93161" lon="0.29375">
        <ele>1137.1999511719</ele>
        <time>2020-05-20T06:40:29Z</time>
      </trkpt>
      <trkpt lat="42.93158" lon="0.29375">
        <ele>1137.5999755859</ele>
        <time>2020-05-20T06:40:31Z</time>
      </trkpt>
      <trkpt lat="42.93156" lon="0.29376">
        <ele>1138</ele>
        <time>2020-05-20T06:40:32Z</time>
      </trkpt>
      <trkpt lat="42.93154" lon="0.29376">
        <ele>1138.4000244141</ele>
        <time>2020-05-20T06:40:33Z</time>
      </trkpt>
      <trkpt lat="42.93152" lon="0.29377">
        <ele>1138.8000488281</ele>
        <time>2020-05-20T06:40:34Z</time>
      </trkpt>
      <trkpt lat="42.93151" lon="0.29377">
        <ele>1139.4000244141</ele>
        <time>2020-05-20T06:40:35Z</time>
      </trkpt>
      <trkpt lat="42.93149" lon="0.29377">
        <ele>1139.4000244141</ele>
        <time>2020-05-20T06:40:36Z</time>
      </trkpt>
      <trkpt lat="42.9314" lon="0.29378">
        <ele>1139.8000488281</ele>
        <time>2020-05-20T06:40:41Z</time>
      </trkpt>
      <trkpt lat="42.93138" lon="0.29378">
        <ele>1140.5999755859</ele>
        <time>2020-05-20T06:40:42Z</time>
      </trkpt>
      <trkpt lat="42.93136" lon="0.29378">
        <ele>1141</ele>
        <time>2020-05-20T06:40:43Z</time>
      </trkpt>
      <trkpt lat="42.93134" lon="0.29378">
        <ele>1141.4000244141</ele>
        <time>2020-05-20T06:40:44Z</time>
      </trkpt>
      <trkpt lat="42.93123" lon="0.29377">
        <ele>1141.4000244141</ele>
        <time>2020-05-20T06:40:50Z</time>
      </trkpt>
      <trkpt lat="42.93115" lon="0.29377">
        <ele>1141.8000488281</ele>
        <time>2020-05-20T06:40:54Z</time>
      </trkpt>
      <trkpt lat="42.93113" lon="0.29378">
        <ele>1142.1999511719</ele>
        <time>2020-05-20T06:40:55Z</time>
      </trkpt>
      <trkpt lat="42.93111" lon="0.29378">
        <ele>1142.5999755859</ele>
        <time>2020-05-20T06:40:56Z</time>
      </trkpt>
      <trkpt lat="42.93109" lon="0.29378">
        <ele>1143.1999511719</ele>
        <time>2020-05-20T06:40:57Z</time>
      </trkpt>
      <trkpt lat="42.93107" lon="0.29378">
        <ele>1143.5999755859</ele>
        <time>2020-05-20T06:40:58Z</time>
      </trkpt>
      <trkpt lat="42.93097" lon="0.2938">
        <ele>1143.5999755859</ele>
        <time>2020-05-20T06:41:03Z</time>
      </trkpt>
      <trkpt lat="42.93085" lon="0.29383">
        <ele>1143.5999755859</ele>
        <time>2020-05-20T06:41:09Z</time>
      </trkpt>
      <trkpt lat="42.93081" lon="0.29383">
        <ele>1144</ele>
        <time>2020-05-20T06:41:11Z</time>
      </trkpt>
      <trkpt lat="42.93079" lon="0.29383">
        <ele>1144.4000244141</ele>
        <time>2020-05-20T06:41:12Z</time>
      </trkpt>
      <trkpt lat="42.93077" lon="0.29383">
        <ele>1144.8000488281</ele>
        <time>2020-05-20T06:41:13Z</time>
      </trkpt>
      <trkpt lat="42.93075" lon="0.29383">
        <ele>1145.1999511719</ele>
        <time>2020-05-20T06:41:14Z</time>
      </trkpt>
      <trkpt lat="42.93072" lon="0.29383">
        <ele>1145.5999755859</ele>
        <time>2020-05-20T06:41:15Z</time>
      </trkpt>
      <trkpt lat="42.93057" lon="0.29382">
        <ele>1145.5999755859</ele>
        <time>2020-05-20T06:41:22Z</time>
      </trkpt>
      <trkpt lat="42.93042" lon="0.29382">
        <ele>1146</ele>
        <time>2020-05-20T06:41:29Z</time>
      </trkpt>
      <trkpt lat="42.9304" lon="0.29382">
        <ele>1146.4000244141</ele>
        <time>2020-05-20T06:41:30Z</time>
      </trkpt>
      <trkpt lat="42.93038" lon="0.29382">
        <ele>1147.1999511719</ele>
        <time>2020-05-20T06:41:31Z</time>
      </trkpt>
      <trkpt lat="42.93036" lon="0.29381">
        <ele>1147.5999755859</ele>
        <time>2020-05-20T06:41:32Z</time>
      </trkpt>
      <trkpt lat="42.93024" lon="0.29381">
        <ele>1147.5999755859</ele>
        <time>2020-05-20T06:41:37Z</time>
      </trkpt>
      <trkpt lat="42.93011" lon="0.29378">
        <ele>1148</ele>
        <time>2020-05-20T06:41:43Z</time>
      </trkpt>
      <trkpt lat="42.93009" lon="0.29377">
        <ele>1148.4000244141</ele>
        <time>2020-05-20T06:41:44Z</time>
      </trkpt>
      <trkpt lat="42.93007" lon="0.29377">
        <ele>1148.8000488281</ele>
        <time>2020-05-20T06:41:45Z</time>
      </trkpt>
      <trkpt lat="42.93005" lon="0.29376">
        <ele>1149.1999511719</ele>
        <time>2020-05-20T06:41:46Z</time>
      </trkpt>
      <trkpt lat="42.93003" lon="0.29376">
        <ele>1149.5999755859</ele>
        <time>2020-05-20T06:41:47Z</time>
      </trkpt>
      <trkpt lat="42.92992" lon="0.29375">
        <ele>1149.5999755859</ele>
        <time>2020-05-20T06:41:52Z</time>
      </trkpt>
      <trkpt lat="42.92977" lon="0.29375">
        <ele>1150</ele>
        <time>2020-05-20T06:41:58Z</time>
      </trkpt>
      <trkpt lat="42.92975" lon="0.29375">
        <ele>1150.5999755859</ele>
        <time>2020-05-20T06:41:59Z</time>
      </trkpt>
      <trkpt lat="42.92972" lon="0.29374">
        <ele>1151</ele>
        <time>2020-05-20T06:42:00Z</time>
      </trkpt>
      <trkpt lat="42.9297" lon="0.29374">
        <ele>1151.4000244141</ele>
        <time>2020-05-20T06:42:01Z</time>
      </trkpt>
      <trkpt lat="42.92969" lon="0.29373">
        <ele>1151.8000488281</ele>
        <time>2020-05-20T06:42:02Z</time>
      </trkpt>
      <trkpt lat="42.92958" lon="0.29373">
        <ele>1151.8000488281</ele>
        <time>2020-05-20T06:42:07Z</time>
      </trkpt>
      <trkpt lat="42.9295" lon="0.29373">
        <ele>1152.1999511719</ele>
        <time>2020-05-20T06:42:11Z</time>
      </trkpt>
      <trkpt lat="42.92948" lon="0.29373">
        <ele>1152.5999755859</ele>
        <time>2020-05-20T06:42:12Z</time>
      </trkpt>
      <trkpt lat="42.92946" lon="0.29372">
        <ele>1153</ele>
        <time>2020-05-20T06:42:13Z</time>
      </trkpt>
      <trkpt lat="42.92944" lon="0.29372">
        <ele>1153.4000244141</ele>
        <time>2020-05-20T06:42:14Z</time>
      </trkpt>
      <trkpt lat="42.92942" lon="0.29372">
        <ele>1153.8000488281</ele>
        <time>2020-05-20T06:42:15Z</time>
      </trkpt>
      <trkpt lat="42.92926" lon="0.29369">
        <ele>1154.1999511719</ele>
        <time>2020-05-20T06:42:23Z</time>
      </trkpt>
      <trkpt lat="42.92924" lon="0.29368">
        <ele>1154.5999755859</ele>
        <time>2020-05-20T06:42:24Z</time>
      </trkpt>
      <trkpt lat="42.92922" lon="0.29368">
        <ele>1155</ele>
        <time>2020-05-20T06:42:25Z</time>
      </trkpt>
      <trkpt lat="42.9292" lon="0.29368">
        <ele>1155.5999755859</ele>
        <time>2020-05-20T06:42:26Z</time>
      </trkpt>
      <trkpt lat="42.92918" lon="0.29368">
        <ele>1156</ele>
        <time>2020-05-20T06:42:27Z</time>
      </trkpt>
      <trkpt lat="42.92909" lon="0.29366">
        <ele>1156</ele>
        <time>2020-05-20T06:42:32Z</time>
      </trkpt>
      <trkpt lat="42.92905" lon="0.29364">
        <ele>1156.4000244141</ele>
        <time>2020-05-20T06:42:35Z</time>
      </trkpt>
      <trkpt lat="42.92903" lon="0.29364">
        <ele>1156.8000488281</ele>
        <time>2020-05-20T06:42:36Z</time>
      </trkpt>
      <trkpt lat="42.92901" lon="0.29363">
        <ele>1157.1999511719</ele>
        <time>2020-05-20T06:42:37Z</time>
      </trkpt>
      <trkpt lat="42.92899" lon="0.29363">
        <ele>1157.5999755859</ele>
        <time>2020-05-20T06:42:38Z</time>
      </trkpt>
      <trkpt lat="42.92897" lon="0.29362">
        <ele>1158</ele>
        <time>2020-05-20T06:42:39Z</time>
      </trkpt>
      <trkpt lat="42.92883" lon="0.2936">
        <ele>1158</ele>
        <time>2020-05-20T06:42:46Z</time>
      </trkpt>
      <trkpt lat="42.92881" lon="0.29359">
        <ele>1158.4000244141</ele>
        <time>2020-05-20T06:42:47Z</time>
      </trkpt>
      <trkpt lat="42.92879" lon="0.29359">
        <ele>1158.8000488281</ele>
        <time>2020-05-20T06:42:48Z</time>
      </trkpt>
      <trkpt lat="42.92877" lon="0.29359">
        <ele>1159.1999511719</ele>
        <time>2020-05-20T06:42:49Z</time>
      </trkpt>
      <trkpt lat="42.92875" lon="0.29359">
        <ele>1159.5999755859</ele>
        <time>2020-05-20T06:42:50Z</time>
      </trkpt>
      <trkpt lat="42.92873" lon="0.29359">
        <ele>1160.1999511719</ele>
        <time>2020-05-20T06:42:51Z</time>
      </trkpt>
      <trkpt lat="42.92868" lon="0.29359">
        <ele>1160.1999511719</ele>
        <time>2020-05-20T06:42:54Z</time>
      </trkpt>
      <trkpt lat="42.92857" lon="0.29358">
        <ele>1160.5999755859</ele>
        <time>2020-05-20T06:43:00Z</time>
      </trkpt>
      <trkpt lat="42.92855" lon="0.29358">
        <ele>1161</ele>
        <time>2020-05-20T06:43:01Z</time>
      </trkpt>
      <trkpt lat="42.92853" lon="0.29358">
        <ele>1161.4000244141</ele>
        <time>2020-05-20T06:43:02Z</time>
      </trkpt>
      <trkpt lat="42.92852" lon="0.29358">
        <ele>1161.8000488281</ele>
        <time>2020-05-20T06:43:03Z</time>
      </trkpt>
      <trkpt lat="42.9285" lon="0.29359">
        <ele>1162.1999511719</ele>
        <time>2020-05-20T06:43:04Z</time>
      </trkpt>
      <trkpt lat="42.92845" lon="0.29358">
        <ele>1162.1999511719</ele>
        <time>2020-05-20T06:43:07Z</time>
      </trkpt>
      <trkpt lat="42.92841" lon="0.29359">
        <ele>1162.1999511719</ele>
        <time>2020-05-20T06:43:09Z</time>
      </trkpt>
      <trkpt lat="42.9284" lon="0.2936">
        <ele>1163</ele>
        <time>2020-05-20T06:43:10Z</time>
      </trkpt>
      <trkpt lat="42.92838" lon="0.2936">
        <ele>1163.4000244141</ele>
        <time>2020-05-20T06:43:11Z</time>
      </trkpt>
      <trkpt lat="42.92836" lon="0.2936">
        <ele>1163.8000488281</ele>
        <time>2020-05-20T06:43:12Z</time>
      </trkpt>
      <trkpt lat="42.92835" lon="0.2936">
        <ele>1164.1999511719</ele>
        <time>2020-05-20T06:43:13Z</time>
      </trkpt>
      <trkpt lat="42.9283" lon="0.29359">
        <ele>1164.1999511719</ele>
        <time>2020-05-20T06:43:16Z</time>
      </trkpt>
      <trkpt lat="42.92822" lon="0.2936">
        <ele>1164.5999755859</ele>
        <time>2020-05-20T06:43:20Z</time>
      </trkpt>
      <trkpt lat="42.9282" lon="0.29361">
        <ele>1165</ele>
        <time>2020-05-20T06:43:21Z</time>
      </trkpt>
      <trkpt lat="42.92819" lon="0.29361">
        <ele>1165.5999755859</ele>
        <time>2020-05-20T06:43:22Z</time>
      </trkpt>
      <trkpt lat="42.92817" lon="0.29362">
        <ele>1166</ele>
        <time>2020-05-20T06:43:23Z</time>
      </trkpt>
      <trkpt lat="42.92816" lon="0.29363">
        <ele>1166.4000244141</ele>
        <time>2020-05-20T06:43:24Z</time>
      </trkpt>
      <trkpt lat="42.92808" lon="0.29365">
        <ele>1166.4000244141</ele>
        <time>2020-05-20T06:43:29Z</time>
      </trkpt>
      <trkpt lat="42.92806" lon="0.29365">
        <ele>1166.8000488281</ele>
        <time>2020-05-20T06:43:30Z</time>
      </trkpt>
      <trkpt lat="42.92804" lon="0.29365">
        <ele>1167.1999511719</ele>
        <time>2020-05-20T06:43:31Z</time>
      </trkpt>
      <trkpt lat="42.92803" lon="0.29366">
        <ele>1167.5999755859</ele>
        <time>2020-05-20T06:43:32Z</time>
      </trkpt>
      <trkpt lat="42.92801" lon="0.29366">
        <ele>1168</ele>
        <time>2020-05-20T06:43:33Z</time>
      </trkpt>
      <trkpt lat="42.928" lon="0.29366">
        <ele>1168.5999755859</ele>
        <time>2020-05-20T06:43:34Z</time>
      </trkpt>
      <trkpt lat="42.92796" lon="0.29366">
        <ele>1168.5999755859</ele>
        <time>2020-05-20T06:43:36Z</time>
      </trkpt>
      <trkpt lat="42.9279" lon="0.29365">
        <ele>1169</ele>
        <time>2020-05-20T06:43:40Z</time>
      </trkpt>
      <trkpt lat="42.92788" lon="0.29366">
        <ele>1169.4000244141</ele>
        <time>2020-05-20T06:43:41Z</time>
      </trkpt>
      <trkpt lat="42.92787" lon="0.29365">
        <ele>1169.8000488281</ele>
        <time>2020-05-20T06:43:42Z</time>
      </trkpt>
      <trkpt lat="42.92785" lon="0.29365">
        <ele>1170.1999511719</ele>
        <time>2020-05-20T06:43:43Z</time>
      </trkpt>
      <trkpt lat="42.92783" lon="0.29364">
        <ele>1170.5999755859</ele>
        <time>2020-05-20T06:43:44Z</time>
      </trkpt>
      <trkpt lat="42.9277" lon="0.29362">
        <ele>1171</ele>
        <time>2020-05-20T06:43:52Z</time>
      </trkpt>
      <trkpt lat="42.92768" lon="0.29361">
        <ele>1171.4000244141</ele>
        <time>2020-05-20T06:43:53Z</time>
      </trkpt>
      <trkpt lat="42.92767" lon="0.2936">
        <ele>1171.8000488281</ele>
        <time>2020-05-20T06:43:54Z</time>
      </trkpt>
      <trkpt lat="42.92765" lon="0.29359">
        <ele>1172.1999511719</ele>
        <time>2020-05-20T06:43:55Z</time>
      </trkpt>
      <trkpt lat="42.92763" lon="0.29358">
        <ele>1172.5999755859</ele>
        <time>2020-05-20T06:43:56Z</time>
      </trkpt>
      <trkpt lat="42.92754" lon="0.29355">
        <ele>1172.5999755859</ele>
        <time>2020-05-20T06:44:01Z</time>
      </trkpt>
      <trkpt lat="42.9275" lon="0.29354">
        <ele>1173</ele>
        <time>2020-05-20T06:44:03Z</time>
      </trkpt>
      <trkpt lat="42.92749" lon="0.29354">
        <ele>1173.4000244141</ele>
        <time>2020-05-20T06:44:04Z</time>
      </trkpt>
      <trkpt lat="42.92747" lon="0.29353">
        <ele>1173.8000488281</ele>
        <time>2020-05-20T06:44:05Z</time>
      </trkpt>
      <trkpt lat="42.92745" lon="0.29352">
        <ele>1174.1999511719</ele>
        <time>2020-05-20T06:44:06Z</time>
      </trkpt>
      <trkpt lat="42.92743" lon="0.29352">
        <ele>1174.8000488281</ele>
        <time>2020-05-20T06:44:07Z</time>
      </trkpt>
      <trkpt lat="42.92739" lon="0.2935">
        <ele>1174.8000488281</ele>
        <time>2020-05-20T06:44:09Z</time>
      </trkpt>
      <trkpt lat="42.92724" lon="0.29346">
        <ele>1174.8000488281</ele>
        <time>2020-05-20T06:44:16Z</time>
      </trkpt>
      <trkpt lat="42.92715" lon="0.29344">
        <ele>1175.1999511719</ele>
        <time>2020-05-20T06:44:20Z</time>
      </trkpt>
      <trkpt lat="42.92714" lon="0.29343">
        <ele>1175.5999755859</ele>
        <time>2020-05-20T06:44:21Z</time>
      </trkpt>
      <trkpt lat="42.92712" lon="0.29343">
        <ele>1176</ele>
        <time>2020-05-20T06:44:22Z</time>
      </trkpt>
      <trkpt lat="42.9271" lon="0.29342">
        <ele>1176.4000244141</ele>
        <time>2020-05-20T06:44:23Z</time>
      </trkpt>
      <trkpt lat="42.92708" lon="0.29342">
        <ele>1176.8000488281</ele>
        <time>2020-05-20T06:44:24Z</time>
      </trkpt>
      <trkpt lat="42.92691" lon="0.29339">
        <ele>1176.8000488281</ele>
        <time>2020-05-20T06:44:33Z</time>
      </trkpt>
      <trkpt lat="42.92688" lon="0.29338">
        <ele>1177.1999511719</ele>
        <time>2020-05-20T06:44:35Z</time>
      </trkpt>
      <trkpt lat="42.92686" lon="0.29338">
        <ele>1177.5999755859</ele>
        <time>2020-05-20T06:44:36Z</time>
      </trkpt>
      <trkpt lat="42.92684" lon="0.29337">
        <ele>1178</ele>
        <time>2020-05-20T06:44:37Z</time>
      </trkpt>
      <trkpt lat="42.92682" lon="0.29337">
        <ele>1178.4000244141</ele>
        <time>2020-05-20T06:44:38Z</time>
      </trkpt>
      <trkpt lat="42.9268" lon="0.29336">
        <ele>1178.8000488281</ele>
        <time>2020-05-20T06:44:39Z</time>
      </trkpt>
      <trkpt lat="42.92677" lon="0.29334">
        <ele>1178.8000488281</ele>
        <time>2020-05-20T06:44:41Z</time>
      </trkpt>
      <trkpt lat="42.92675" lon="0.29334">
        <ele>1178.8000488281</ele>
        <time>2020-05-20T06:44:42Z</time>
      </trkpt>
      <trkpt lat="42.92667" lon="0.29332">
        <ele>1178.8000488281</ele>
        <time>2020-05-20T06:44:47Z</time>
      </trkpt>
      <trkpt lat="42.92666" lon="0.29331">
        <ele>1179.1999511719</ele>
        <time>2020-05-20T06:44:48Z</time>
      </trkpt>
      <trkpt lat="42.92664" lon="0.29331">
        <ele>1180</ele>
        <time>2020-05-20T06:44:49Z</time>
      </trkpt>
      <trkpt lat="42.92662" lon="0.29331">
        <ele>1180.4000244141</ele>
        <time>2020-05-20T06:44:50Z</time>
      </trkpt>
      <trkpt lat="42.92661" lon="0.2933">
        <ele>1180.8000488281</ele>
        <time>2020-05-20T06:44:51Z</time>
      </trkpt>
      <trkpt lat="42.9265" lon="0.29326">
        <ele>1180.8000488281</ele>
        <time>2020-05-20T06:44:58Z</time>
      </trkpt>
      <trkpt lat="42.92647" lon="0.29326">
        <ele>1181.4000244141</ele>
        <time>2020-05-20T06:45:00Z</time>
      </trkpt>
      <trkpt lat="42.92646" lon="0.29325">
        <ele>1181.8000488281</ele>
        <time>2020-05-20T06:45:01Z</time>
      </trkpt>
      <trkpt lat="42.92644" lon="0.29325">
        <ele>1182.1999511719</ele>
        <time>2020-05-20T06:45:02Z</time>
      </trkpt>
      <trkpt lat="42.92643" lon="0.29325">
        <ele>1182.5999755859</ele>
        <time>2020-05-20T06:45:03Z</time>
      </trkpt>
      <trkpt lat="42.92642" lon="0.29324">
        <ele>1183</ele>
        <time>2020-05-20T06:45:04Z</time>
      </trkpt>
      <trkpt lat="42.92633" lon="0.29321">
        <ele>1183</ele>
        <time>2020-05-20T06:45:10Z</time>
      </trkpt>
      <trkpt lat="42.92629" lon="0.2932">
        <ele>1183.4000244141</ele>
        <time>2020-05-20T06:45:13Z</time>
      </trkpt>
      <trkpt lat="42.92627" lon="0.2932">
        <ele>1184.1999511719</ele>
        <time>2020-05-20T06:45:14Z</time>
      </trkpt>
      <trkpt lat="42.92625" lon="0.2932">
        <ele>1184.5999755859</ele>
        <time>2020-05-20T06:45:15Z</time>
      </trkpt>
      <trkpt lat="42.92624" lon="0.2932">
        <ele>1185</ele>
        <time>2020-05-20T06:45:16Z</time>
      </trkpt>
      <trkpt lat="42.92612" lon="0.29315">
        <ele>1185</ele>
        <time>2020-05-20T06:45:24Z</time>
      </trkpt>
      <trkpt lat="42.92608" lon="0.29314">
        <ele>1185.4000244141</ele>
        <time>2020-05-20T06:45:26Z</time>
      </trkpt>
      <trkpt lat="42.92607" lon="0.29313">
        <ele>1185.8000488281</ele>
        <time>2020-05-20T06:45:27Z</time>
      </trkpt>
      <trkpt lat="42.92605" lon="0.29311">
        <ele>1186.1999511719</ele>
        <time>2020-05-20T06:45:28Z</time>
      </trkpt>
      <trkpt lat="42.92603" lon="0.2931">
        <ele>1186.8000488281</ele>
        <time>2020-05-20T06:45:29Z</time>
      </trkpt>
      <trkpt lat="42.92602" lon="0.29309">
        <ele>1187.1999511719</ele>
        <time>2020-05-20T06:45:30Z</time>
      </trkpt>
      <trkpt lat="42.92599" lon="0.29307">
        <ele>1187.1999511719</ele>
        <time>2020-05-20T06:45:32Z</time>
      </trkpt>
      <trkpt lat="42.92586" lon="0.29301">
        <ele>1187.1999511719</ele>
        <time>2020-05-20T06:45:40Z</time>
      </trkpt>
      <trkpt lat="42.92584" lon="0.293">
        <ele>1187.5999755859</ele>
        <time>2020-05-20T06:45:41Z</time>
      </trkpt>
      <trkpt lat="42.92583" lon="0.29299">
        <ele>1188</ele>
        <time>2020-05-20T06:45:42Z</time>
      </trkpt>
      <trkpt lat="42.92582" lon="0.29299">
        <ele>1188.4000244141</ele>
        <time>2020-05-20T06:45:43Z</time>
      </trkpt>
      <trkpt lat="42.9258" lon="0.29298">
        <ele>1188.8000488281</ele>
        <time>2020-05-20T06:45:44Z</time>
      </trkpt>
      <trkpt lat="42.92579" lon="0.29297">
        <ele>1189.4000244141</ele>
        <time>2020-05-20T06:45:45Z</time>
      </trkpt>
      <trkpt lat="42.92575" lon="0.29297">
        <ele>1189.4000244141</ele>
        <time>2020-05-20T06:45:47Z</time>
      </trkpt>
      <trkpt lat="42.92565" lon="0.29292">
        <ele>1189.4000244141</ele>
        <time>2020-05-20T06:45:54Z</time>
      </trkpt>
      <trkpt lat="42.92563" lon="0.29291">
        <ele>1189.8000488281</ele>
        <time>2020-05-20T06:45:55Z</time>
      </trkpt>
      <trkpt lat="42.92561" lon="0.29291">
        <ele>1190.1999511719</ele>
        <time>2020-05-20T06:45:56Z</time>
      </trkpt>
      <trkpt lat="42.92559" lon="0.29291">
        <ele>1190.5999755859</ele>
        <time>2020-05-20T06:45:57Z</time>
      </trkpt>
      <trkpt lat="42.92558" lon="0.2929">
        <ele>1191</ele>
        <time>2020-05-20T06:45:58Z</time>
      </trkpt>
      <trkpt lat="42.92556" lon="0.2929">
        <ele>1191.4000244141</ele>
        <time>2020-05-20T06:45:59Z</time>
      </trkpt>
      <trkpt lat="42.92555" lon="0.29289">
        <ele>1191.4000244141</ele>
        <time>2020-05-20T06:46:00Z</time>
      </trkpt>
      <trkpt lat="42.92543" lon="0.29287">
        <ele>1191.8000488281</ele>
        <time>2020-05-20T06:46:07Z</time>
      </trkpt>
      <trkpt lat="42.92542" lon="0.29287">
        <ele>1192.1999511719</ele>
        <time>2020-05-20T06:46:08Z</time>
      </trkpt>
      <trkpt lat="42.9254" lon="0.29286">
        <ele>1192.5999755859</ele>
        <time>2020-05-20T06:46:09Z</time>
      </trkpt>
      <trkpt lat="42.92538" lon="0.29286">
        <ele>1193.1999511719</ele>
        <time>2020-05-20T06:46:10Z</time>
      </trkpt>
      <trkpt lat="42.92537" lon="0.29287">
        <ele>1193.5999755859</ele>
        <time>2020-05-20T06:46:11Z</time>
      </trkpt>
      <trkpt lat="42.92532" lon="0.29286">
        <ele>1193.5999755859</ele>
        <time>2020-05-20T06:46:14Z</time>
      </trkpt>
      <trkpt lat="42.92522" lon="0.29286">
        <ele>1194</ele>
        <time>2020-05-20T06:46:20Z</time>
      </trkpt>
      <trkpt lat="42.9252" lon="0.29286">
        <ele>1194.4000244141</ele>
        <time>2020-05-20T06:46:21Z</time>
      </trkpt>
      <trkpt lat="42.92518" lon="0.29286">
        <ele>1194.8000488281</ele>
        <time>2020-05-20T06:46:22Z</time>
      </trkpt>
      <trkpt lat="42.92517" lon="0.29286">
        <ele>1195.1999511719</ele>
        <time>2020-05-20T06:46:23Z</time>
      </trkpt>
      <trkpt lat="42.92515" lon="0.29286">
        <ele>1195.5999755859</ele>
        <time>2020-05-20T06:46:24Z</time>
      </trkpt>
      <trkpt lat="42.92508" lon="0.29285">
        <ele>1195.5999755859</ele>
        <time>2020-05-20T06:46:28Z</time>
      </trkpt>
      <trkpt lat="42.92498" lon="0.29285">
        <ele>1196</ele>
        <time>2020-05-20T06:46:34Z</time>
      </trkpt>
      <trkpt lat="42.92496" lon="0.29285">
        <ele>1196.4000244141</ele>
        <time>2020-05-20T06:46:35Z</time>
      </trkpt>
      <trkpt lat="42.92494" lon="0.29285">
        <ele>1196.8000488281</ele>
        <time>2020-05-20T06:46:36Z</time>
      </trkpt>
      <trkpt lat="42.92493" lon="0.29286">
        <ele>1197.1999511719</ele>
        <time>2020-05-20T06:46:37Z</time>
      </trkpt>
      <trkpt lat="42.92491" lon="0.29287">
        <ele>1197.5999755859</ele>
        <time>2020-05-20T06:46:38Z</time>
      </trkpt>
      <trkpt lat="42.92488" lon="0.29288">
        <ele>1197.5999755859</ele>
        <time>2020-05-20T06:46:40Z</time>
      </trkpt>
      <trkpt lat="42.92478" lon="0.29288">
        <ele>1197.5999755859</ele>
        <time>2020-05-20T06:46:46Z</time>
      </trkpt>
      <trkpt lat="42.92476" lon="0.29288">
        <ele>1198</ele>
        <time>2020-05-20T06:46:47Z</time>
      </trkpt>
      <trkpt lat="42.92475" lon="0.29288">
        <ele>1198.5999755859</ele>
        <time>2020-05-20T06:46:48Z</time>
      </trkpt>
      <trkpt lat="42.92473" lon="0.29289">
        <ele>1199</ele>
        <time>2020-05-20T06:46:49Z</time>
      </trkpt>
      <trkpt lat="42.92471" lon="0.29289">
        <ele>1199.4000244141</ele>
        <time>2020-05-20T06:46:50Z</time>
      </trkpt>
      <trkpt lat="42.9247" lon="0.29289">
        <ele>1199.8000488281</ele>
        <time>2020-05-20T06:46:51Z</time>
      </trkpt>
      <trkpt lat="42.92465" lon="0.29289">
        <ele>1199.8000488281</ele>
        <time>2020-05-20T06:46:54Z</time>
      </trkpt>
      <trkpt lat="42.92463" lon="0.29289">
        <ele>1199.8000488281</ele>
        <time>2020-05-20T06:46:55Z</time>
      </trkpt>
      <trkpt lat="42.92453" lon="0.29293">
        <ele>1200.1999511719</ele>
        <time>2020-05-20T06:47:02Z</time>
      </trkpt>
      <trkpt lat="42.92451" lon="0.29293">
        <ele>1200.5999755859</ele>
        <time>2020-05-20T06:47:03Z</time>
      </trkpt>
      <trkpt lat="42.9245" lon="0.29293">
        <ele>1201.1999511719</ele>
        <time>2020-05-20T06:47:04Z</time>
      </trkpt>
      <trkpt lat="42.92448" lon="0.29295">
        <ele>1201.5999755859</ele>
        <time>2020-05-20T06:47:05Z</time>
      </trkpt>
      <trkpt lat="42.92447" lon="0.29295">
        <ele>1202</ele>
        <time>2020-05-20T06:47:06Z</time>
      </trkpt>
      <trkpt lat="42.9244" lon="0.29297">
        <ele>1202</ele>
        <time>2020-05-20T06:47:10Z</time>
      </trkpt>
      <trkpt lat="42.92439" lon="0.29298">
        <ele>1202</ele>
        <time>2020-05-20T06:47:11Z</time>
      </trkpt>
      <trkpt lat="42.92433" lon="0.29301">
        <ele>1202</ele>
        <time>2020-05-20T06:47:15Z</time>
      </trkpt>
      <trkpt lat="42.9243" lon="0.29302">
        <ele>1202.8000488281</ele>
        <time>2020-05-20T06:47:17Z</time>
      </trkpt>
      <trkpt lat="42.92429" lon="0.29303">
        <ele>1203.1999511719</ele>
        <time>2020-05-20T06:47:18Z</time>
      </trkpt>
      <trkpt lat="42.92427" lon="0.29303">
        <ele>1203.5999755859</ele>
        <time>2020-05-20T06:47:19Z</time>
      </trkpt>
      <trkpt lat="42.92426" lon="0.29304">
        <ele>1204</ele>
        <time>2020-05-20T06:47:20Z</time>
      </trkpt>
      <trkpt lat="42.92418" lon="0.29306">
        <ele>1204</ele>
        <time>2020-05-20T06:47:25Z</time>
      </trkpt>
      <trkpt lat="42.92407" lon="0.29309">
        <ele>1204.4000244141</ele>
        <time>2020-05-20T06:47:32Z</time>
      </trkpt>
      <trkpt lat="42.92406" lon="0.2931">
        <ele>1204.8000488281</ele>
        <time>2020-05-20T06:47:33Z</time>
      </trkpt>
      <trkpt lat="42.92404" lon="0.2931">
        <ele>1205.1999511719</ele>
        <time>2020-05-20T06:47:34Z</time>
      </trkpt>
      <trkpt lat="42.92402" lon="0.2931">
        <ele>1205.5999755859</ele>
        <time>2020-05-20T06:47:35Z</time>
      </trkpt>
      <trkpt lat="42.92401" lon="0.29311">
        <ele>1206</ele>
        <time>2020-05-20T06:47:36Z</time>
      </trkpt>
      <trkpt lat="42.92394" lon="0.29314">
        <ele>1206</ele>
        <time>2020-05-20T06:47:40Z</time>
      </trkpt>
      <trkpt lat="42.92383" lon="0.29317">
        <ele>1206.5999755859</ele>
        <time>2020-05-20T06:47:47Z</time>
      </trkpt>
      <trkpt lat="42.92381" lon="0.29318">
        <ele>1207</ele>
        <time>2020-05-20T06:47:48Z</time>
      </trkpt>
      <trkpt lat="42.92379" lon="0.29318">
        <ele>1207.4000244141</ele>
        <time>2020-05-20T06:47:49Z</time>
      </trkpt>
      <trkpt lat="42.92378" lon="0.29319">
        <ele>1207.8000488281</ele>
        <time>2020-05-20T06:47:50Z</time>
      </trkpt>
      <trkpt lat="42.92377" lon="0.29319">
        <ele>1208.1999511719</ele>
        <time>2020-05-20T06:47:51Z</time>
      </trkpt>
      <trkpt lat="42.92369" lon="0.29323">
        <ele>1208.1999511719</ele>
        <time>2020-05-20T06:47:56Z</time>
      </trkpt>
      <trkpt lat="42.92356" lon="0.29326">
        <ele>1208.5999755859</ele>
        <time>2020-05-20T06:48:04Z</time>
      </trkpt>
      <trkpt lat="42.92355" lon="0.29326">
        <ele>1209</ele>
        <time>2020-05-20T06:48:05Z</time>
      </trkpt>
      <trkpt lat="42.92353" lon="0.29327">
        <ele>1209.4000244141</ele>
        <time>2020-05-20T06:48:06Z</time>
      </trkpt>
      <trkpt lat="42.92351" lon="0.29327">
        <ele>1210.1999511719</ele>
        <time>2020-05-20T06:48:07Z</time>
      </trkpt>
      <trkpt lat="42.9235" lon="0.29329">
        <ele>1210.1999511719</ele>
        <time>2020-05-20T06:48:08Z</time>
      </trkpt>
      <trkpt lat="42.9235" lon="0.2933">
        <ele>1210.1999511719</ele>
        <time>2020-05-20T06:48:09Z</time>
      </trkpt>
      <trkpt lat="42.92351" lon="0.29336">
        <ele>1210.1999511719</ele>
        <time>2020-05-20T06:48:12Z</time>
      </trkpt>
      <trkpt lat="42.92352" lon="0.29337">
        <ele>1210.1999511719</ele>
        <time>2020-05-20T06:48:13Z</time>
      </trkpt>
      <trkpt lat="42.92363" lon="0.29341">
        <ele>1210.1999511719</ele>
        <time>2020-05-20T06:48:20Z</time>
      </trkpt>
      <trkpt lat="42.92368" lon="0.29342">
        <ele>1210.5999755859</ele>
        <time>2020-05-20T06:48:25Z</time>
      </trkpt>
      <trkpt lat="42.9237" lon="0.29342">
        <ele>1211</ele>
        <time>2020-05-20T06:48:26Z</time>
      </trkpt>
      <trkpt lat="42.92371" lon="0.29343">
        <ele>1211.4000244141</ele>
        <time>2020-05-20T06:48:27Z</time>
      </trkpt>
      <trkpt lat="42.92373" lon="0.29343">
        <ele>1211.8000488281</ele>
        <time>2020-05-20T06:48:28Z</time>
      </trkpt>
      <trkpt lat="42.92375" lon="0.29343">
        <ele>1212.1999511719</ele>
        <time>2020-05-20T06:48:29Z</time>
      </trkpt>
      <trkpt lat="42.92381" lon="0.29344">
        <ele>1212.1999511719</ele>
        <time>2020-05-20T06:48:34Z</time>
      </trkpt>
      <trkpt lat="42.92382" lon="0.29343">
        <ele>1212.1999511719</ele>
        <time>2020-05-20T06:48:35Z</time>
      </trkpt>
      <trkpt lat="42.92385" lon="0.29344">
        <ele>1212.1999511719</ele>
        <time>2020-05-20T06:48:38Z</time>
      </trkpt>
      <trkpt lat="42.92387" lon="0.29346">
        <ele>1212.1999511719</ele>
        <time>2020-05-20T06:48:40Z</time>
      </trkpt>
      <trkpt lat="42.92389" lon="0.29348">
        <ele>1212.1999511719</ele>
        <time>2020-05-20T06:48:42Z</time>
      </trkpt>
      <trkpt lat="42.92392" lon="0.29349">
        <ele>1212.5999755859</ele>
        <time>2020-05-20T06:48:44Z</time>
      </trkpt>
      <trkpt lat="42.92393" lon="0.2935">
        <ele>1213.1999511719</ele>
        <time>2020-05-20T06:48:45Z</time>
      </trkpt>
      <trkpt lat="42.92394" lon="0.2935">
        <ele>1213.5999755859</ele>
        <time>2020-05-20T06:48:46Z</time>
      </trkpt>
      <trkpt lat="42.92395" lon="0.29351">
        <ele>1214</ele>
        <time>2020-05-20T06:48:47Z</time>
      </trkpt>
      <trkpt lat="42.92396" lon="0.29352">
        <ele>1214.4000244141</ele>
        <time>2020-05-20T06:48:48Z</time>
      </trkpt>
      <trkpt lat="42.92401" lon="0.29355">
        <ele>1214.4000244141</ele>
        <time>2020-05-20T06:48:54Z</time>
      </trkpt>
      <trkpt lat="42.92404" lon="0.29357">
        <ele>1215.1999511719</ele>
        <time>2020-05-20T06:48:56Z</time>
      </trkpt>
      <trkpt lat="42.92405" lon="0.29356">
        <ele>1215.5999755859</ele>
        <time>2020-05-20T06:48:57Z</time>
      </trkpt>
      <trkpt lat="42.92406" lon="0.29356">
        <ele>1216</ele>
        <time>2020-05-20T06:48:58Z</time>
      </trkpt>
      <trkpt lat="42.92408" lon="0.29357">
        <ele>1216.4000244141</ele>
        <time>2020-05-20T06:48:59Z</time>
      </trkpt>
      <trkpt lat="42.92411" lon="0.29358">
        <ele>1216.4000244141</ele>
        <time>2020-05-20T06:49:01Z</time>
      </trkpt>
      <trkpt lat="42.92421" lon="0.29361">
        <ele>1217</ele>
        <time>2020-05-20T06:49:07Z</time>
      </trkpt>
      <trkpt lat="42.92422" lon="0.29361">
        <ele>1217.4000244141</ele>
        <time>2020-05-20T06:49:08Z</time>
      </trkpt>
      <trkpt lat="42.92423" lon="0.29361">
        <ele>1217.8000488281</ele>
        <time>2020-05-20T06:49:09Z</time>
      </trkpt>
      <trkpt lat="42.92424" lon="0.29361">
        <ele>1218.1999511719</ele>
        <time>2020-05-20T06:49:10Z</time>
      </trkpt>
      <trkpt lat="42.92425" lon="0.29362">
        <ele>1218.5999755859</ele>
        <time>2020-05-20T06:49:11Z</time>
      </trkpt>
      <trkpt lat="42.92435" lon="0.29368">
        <ele>1218.5999755859</ele>
        <time>2020-05-20T06:49:19Z</time>
      </trkpt>
      <trkpt lat="42.92436" lon="0.2937">
        <ele>1219</ele>
        <time>2020-05-20T06:49:20Z</time>
      </trkpt>
      <trkpt lat="42.92437" lon="0.29371">
        <ele>1219.8000488281</ele>
        <time>2020-05-20T06:49:21Z</time>
      </trkpt>
      <trkpt lat="42.92438" lon="0.29372">
        <ele>1220.1999511719</ele>
        <time>2020-05-20T06:49:22Z</time>
      </trkpt>
      <trkpt lat="42.92439" lon="0.29373">
        <ele>1220.5999755859</ele>
        <time>2020-05-20T06:49:23Z</time>
      </trkpt>
      <trkpt lat="42.92442" lon="0.29375">
        <ele>1220.5999755859</ele>
        <time>2020-05-20T06:49:25Z</time>
      </trkpt>
      <trkpt lat="42.9245" lon="0.2938">
        <ele>1221</ele>
        <time>2020-05-20T06:49:33Z</time>
      </trkpt>
      <trkpt lat="42.9245" lon="0.2938">
        <ele>1221.4000244141</ele>
        <time>2020-05-20T06:49:34Z</time>
      </trkpt>
      <trkpt lat="42.92452" lon="0.29382">
        <ele>1221.8000488281</ele>
        <time>2020-05-20T06:49:35Z</time>
      </trkpt>
      <trkpt lat="42.92453" lon="0.29383">
        <ele>1222.1999511719</ele>
        <time>2020-05-20T06:49:36Z</time>
      </trkpt>
      <trkpt lat="42.92454" lon="0.29385">
        <ele>1222.5999755859</ele>
        <time>2020-05-20T06:49:37Z</time>
      </trkpt>
      <trkpt lat="42.92455" lon="0.29386">
        <ele>1222.5999755859</ele>
        <time>2020-05-20T06:49:38Z</time>
      </trkpt>
      <trkpt lat="42.92463" lon="0.29395">
        <ele>1222.5999755859</ele>
        <time>2020-05-20T06:49:45Z</time>
      </trkpt>
      <trkpt lat="42.92463" lon="0.29397">
        <ele>1223.5999755859</ele>
        <time>2020-05-20T06:49:46Z</time>
      </trkpt>
      <trkpt lat="42.92465" lon="0.29398">
        <ele>1224</ele>
        <time>2020-05-20T06:49:47Z</time>
      </trkpt>
      <trkpt lat="42.92466" lon="0.29399">
        <ele>1224.4000244141</ele>
        <time>2020-05-20T06:49:48Z</time>
      </trkpt>
      <trkpt lat="42.92467" lon="0.294">
        <ele>1224.8000488281</ele>
        <time>2020-05-20T06:49:49Z</time>
      </trkpt>
      <trkpt lat="42.92468" lon="0.29403">
        <ele>1224.8000488281</ele>
        <time>2020-05-20T06:49:51Z</time>
      </trkpt>
      <trkpt lat="42.92474" lon="0.29413">
        <ele>1225.1999511719</ele>
        <time>2020-05-20T06:49:58Z</time>
      </trkpt>
      <trkpt lat="42.92475" lon="0.29414">
        <ele>1225.5999755859</ele>
        <time>2020-05-20T06:49:59Z</time>
      </trkpt>
      <trkpt lat="42.92476" lon="0.29415">
        <ele>1226</ele>
        <time>2020-05-20T06:50:00Z</time>
      </trkpt>
      <trkpt lat="42.92477" lon="0.29416">
        <ele>1226.4000244141</ele>
        <time>2020-05-20T06:50:01Z</time>
      </trkpt>
      <trkpt lat="42.92478" lon="0.29417">
        <ele>1226.8000488281</ele>
        <time>2020-05-20T06:50:02Z</time>
      </trkpt>
      <trkpt lat="42.9248" lon="0.29422">
        <ele>1226.8000488281</ele>
        <time>2020-05-20T06:50:05Z</time>
      </trkpt>
      <trkpt lat="42.92484" lon="0.29431">
        <ele>1227.5999755859</ele>
        <time>2020-05-20T06:50:11Z</time>
      </trkpt>
      <trkpt lat="42.92485" lon="0.29432">
        <ele>1228</ele>
        <time>2020-05-20T06:50:12Z</time>
      </trkpt>
      <trkpt lat="42.92485" lon="0.29434">
        <ele>1228.5999755859</ele>
        <time>2020-05-20T06:50:13Z</time>
      </trkpt>
      <trkpt lat="42.92486" lon="0.29436">
        <ele>1229</ele>
        <time>2020-05-20T06:50:14Z</time>
      </trkpt>
      <trkpt lat="42.92493" lon="0.29445">
        <ele>1229</ele>
        <time>2020-05-20T06:50:20Z</time>
      </trkpt>
      <trkpt lat="42.92497" lon="0.29451">
        <ele>1229.4000244141</ele>
        <time>2020-05-20T06:50:24Z</time>
      </trkpt>
      <trkpt lat="42.92498" lon="0.29452">
        <ele>1229.8000488281</ele>
        <time>2020-05-20T06:50:25Z</time>
      </trkpt>
      <trkpt lat="42.92499" lon="0.29454">
        <ele>1230.1999511719</ele>
        <time>2020-05-20T06:50:26Z</time>
      </trkpt>
      <trkpt lat="42.92499" lon="0.29456">
        <ele>1230.5999755859</ele>
        <time>2020-05-20T06:50:27Z</time>
      </trkpt>
      <trkpt lat="42.925" lon="0.29458">
        <ele>1231</ele>
        <time>2020-05-20T06:50:28Z</time>
      </trkpt>
      <trkpt lat="42.92506" lon="0.29462">
        <ele>1231</ele>
        <time>2020-05-20T06:50:33Z</time>
      </trkpt>
      <trkpt lat="42.9251" lon="0.29468">
        <ele>1231.4000244141</ele>
        <time>2020-05-20T06:50:38Z</time>
      </trkpt>
      <trkpt lat="42.92511" lon="0.29469">
        <ele>1231.8000488281</ele>
        <time>2020-05-20T06:50:39Z</time>
      </trkpt>
      <trkpt lat="42.92511" lon="0.2947">
        <ele>1232.1999511719</ele>
        <time>2020-05-20T06:50:40Z</time>
      </trkpt>
      <trkpt lat="42.92512" lon="0.29471">
        <ele>1232.5999755859</ele>
        <time>2020-05-20T06:50:41Z</time>
      </trkpt>
      <trkpt lat="42.92513" lon="0.29472">
        <ele>1233</ele>
        <time>2020-05-20T06:50:42Z</time>
      </trkpt>
      <trkpt lat="42.92518" lon="0.29479">
        <ele>1233</ele>
        <time>2020-05-20T06:50:47Z</time>
      </trkpt>
      <trkpt lat="42.92522" lon="0.29486">
        <ele>1233</ele>
        <time>2020-05-20T06:50:52Z</time>
      </trkpt>
      <trkpt lat="42.92525" lon="0.29492">
        <ele>1233.4000244141</ele>
        <time>2020-05-20T06:50:56Z</time>
      </trkpt>
      <trkpt lat="42.92526" lon="0.29494">
        <ele>1233.8000488281</ele>
        <time>2020-05-20T06:50:57Z</time>
      </trkpt>
      <trkpt lat="42.92527" lon="0.29496">
        <ele>1234.1999511719</ele>
        <time>2020-05-20T06:50:58Z</time>
      </trkpt>
      <trkpt lat="42.92527" lon="0.29497">
        <ele>1234.8000488281</ele>
        <time>2020-05-20T06:50:59Z</time>
      </trkpt>
      <trkpt lat="42.92527" lon="0.29499">
        <ele>1235.1999511719</ele>
        <time>2020-05-20T06:51:00Z</time>
      </trkpt>
      <trkpt lat="42.92531" lon="0.29507">
        <ele>1235.1999511719</ele>
        <time>2020-05-20T06:51:04Z</time>
      </trkpt>
      <trkpt lat="42.92535" lon="0.29514">
        <ele>1235.5999755859</ele>
        <time>2020-05-20T06:51:09Z</time>
      </trkpt>
      <trkpt lat="42.92537" lon="0.29515">
        <ele>1236</ele>
        <time>2020-05-20T06:51:10Z</time>
      </trkpt>
      <trkpt lat="42.92538" lon="0.29516">
        <ele>1236.4000244141</ele>
        <time>2020-05-20T06:51:11Z</time>
      </trkpt>
      <trkpt lat="42.92539" lon="0.29518">
        <ele>1236.8000488281</ele>
        <time>2020-05-20T06:51:12Z</time>
      </trkpt>
      <trkpt lat="42.92539" lon="0.29519">
        <ele>1237.1999511719</ele>
        <time>2020-05-20T06:51:13Z</time>
      </trkpt>
      <trkpt lat="42.92544" lon="0.29523">
        <ele>1237.1999511719</ele>
        <time>2020-05-20T06:51:17Z</time>
      </trkpt>
      <trkpt lat="42.92549" lon="0.29534">
        <ele>1237.1999511719</ele>
        <time>2020-05-20T06:51:25Z</time>
      </trkpt>
      <trkpt lat="42.9255" lon="0.29535">
        <ele>1237.5999755859</ele>
        <time>2020-05-20T06:51:26Z</time>
      </trkpt>
      <trkpt lat="42.92551" lon="0.29536">
        <ele>1238</ele>
        <time>2020-05-20T06:51:27Z</time>
      </trkpt>
      <trkpt lat="42.92552" lon="0.29537">
        <ele>1238.4000244141</ele>
        <time>2020-05-20T06:51:28Z</time>
      </trkpt>
      <trkpt lat="42.92553" lon="0.29538">
        <ele>1239</ele>
        <time>2020-05-20T06:51:29Z</time>
      </trkpt>
      <trkpt lat="42.92555" lon="0.29539">
        <ele>1239.4000244141</ele>
        <time>2020-05-20T06:51:30Z</time>
      </trkpt>
      <trkpt lat="42.92557" lon="0.2954">
        <ele>1239.4000244141</ele>
        <time>2020-05-20T06:51:32Z</time>
      </trkpt>
      <trkpt lat="42.92564" lon="0.29546">
        <ele>1239.4000244141</ele>
        <time>2020-05-20T06:51:38Z</time>
      </trkpt>
      <trkpt lat="42.92568" lon="0.29552">
        <ele>1239.4000244141</ele>
        <time>2020-05-20T06:51:43Z</time>
      </trkpt>
      <trkpt lat="42.92569" lon="0.29553">
        <ele>1239.8000488281</ele>
        <time>2020-05-20T06:51:44Z</time>
      </trkpt>
      <trkpt lat="42.9257" lon="0.29554">
        <ele>1240.1999511719</ele>
        <time>2020-05-20T06:51:45Z</time>
      </trkpt>
      <trkpt lat="42.9257" lon="0.29556">
        <ele>1240.5999755859</ele>
        <time>2020-05-20T06:51:46Z</time>
      </trkpt>
      <trkpt lat="42.92571" lon="0.29557">
        <ele>1241</ele>
        <time>2020-05-20T06:51:47Z</time>
      </trkpt>
      <trkpt lat="42.92572" lon="0.29558">
        <ele>1241.4000244141</ele>
        <time>2020-05-20T06:51:48Z</time>
      </trkpt>
      <trkpt lat="42.92575" lon="0.29561">
        <ele>1241.4000244141</ele>
        <time>2020-05-20T06:51:51Z</time>
      </trkpt>
      <trkpt lat="42.92578" lon="0.29563">
        <ele>1241.4000244141</ele>
        <time>2020-05-20T06:51:53Z</time>
      </trkpt>
      <trkpt lat="42.92587" lon="0.29568">
        <ele>1241.4000244141</ele>
        <time>2020-05-20T06:52:00Z</time>
      </trkpt>
      <trkpt lat="42.92588" lon="0.29569">
        <ele>1242</ele>
        <time>2020-05-20T06:52:01Z</time>
      </trkpt>
      <trkpt lat="42.92589" lon="0.29569">
        <ele>1242.4000244141</ele>
        <time>2020-05-20T06:52:02Z</time>
      </trkpt>
      <trkpt lat="42.9259" lon="0.2957">
        <ele>1242.8000488281</ele>
        <time>2020-05-20T06:52:03Z</time>
      </trkpt>
      <trkpt lat="42.92591" lon="0.29571">
        <ele>1243.1999511719</ele>
        <time>2020-05-20T06:52:04Z</time>
      </trkpt>
      <trkpt lat="42.92593" lon="0.29572">
        <ele>1243.5999755859</ele>
        <time>2020-05-20T06:52:05Z</time>
      </trkpt>
      <trkpt lat="42.92595" lon="0.29572">
        <ele>1243.5999755859</ele>
        <time>2020-05-20T06:52:07Z</time>
      </trkpt>
      <trkpt lat="42.92601" lon="0.29576">
        <ele>1243.5999755859</ele>
        <time>2020-05-20T06:52:14Z</time>
      </trkpt>
      <trkpt lat="42.92609" lon="0.29584">
        <ele>1244</ele>
        <time>2020-05-20T06:52:21Z</time>
      </trkpt>
      <trkpt lat="42.92611" lon="0.29585">
        <ele>1244.4000244141</ele>
        <time>2020-05-20T06:52:22Z</time>
      </trkpt>
      <trkpt lat="42.92613" lon="0.29586">
        <ele>1244.8000488281</ele>
        <time>2020-05-20T06:52:23Z</time>
      </trkpt>
      <trkpt lat="42.92615" lon="0.29586">
        <ele>1245.1999511719</ele>
        <time>2020-05-20T06:52:24Z</time>
      </trkpt>
      <trkpt lat="42.92616" lon="0.29587">
        <ele>1245.5999755859</ele>
        <time>2020-05-20T06:52:25Z</time>
      </trkpt>
      <trkpt lat="42.92618" lon="0.29587">
        <ele>1245.5999755859</ele>
        <time>2020-05-20T06:52:26Z</time>
      </trkpt>
      <trkpt lat="42.92625" lon="0.29588">
        <ele>1245.5999755859</ele>
        <time>2020-05-20T06:52:30Z</time>
      </trkpt>
      <trkpt lat="42.92632" lon="0.29592">
        <ele>1246</ele>
        <time>2020-05-20T06:52:36Z</time>
      </trkpt>
      <trkpt lat="42.92633" lon="0.29592">
        <ele>1247</ele>
        <time>2020-05-20T06:52:37Z</time>
      </trkpt>
      <trkpt lat="42.92634" lon="0.29592">
        <ele>1247.4000244141</ele>
        <time>2020-05-20T06:52:38Z</time>
      </trkpt>
      <trkpt lat="42.92635" lon="0.29593">
        <ele>1247.8000488281</ele>
        <time>2020-05-20T06:52:39Z</time>
      </trkpt>
      <trkpt lat="42.92643" lon="0.29599">
        <ele>1247.8000488281</ele>
        <time>2020-05-20T06:52:46Z</time>
      </trkpt>
      <trkpt lat="42.92648" lon="0.29603">
        <ele>1247.8000488281</ele>
        <time>2020-05-20T06:52:52Z</time>
      </trkpt>
      <trkpt lat="42.92649" lon="0.29604">
        <ele>1248.1999511719</ele>
        <time>2020-05-20T06:52:53Z</time>
      </trkpt>
      <trkpt lat="42.9265" lon="0.29605">
        <ele>1248.5999755859</ele>
        <time>2020-05-20T06:52:54Z</time>
      </trkpt>
      <trkpt lat="42.92652" lon="0.29606">
        <ele>1249</ele>
        <time>2020-05-20T06:52:55Z</time>
      </trkpt>
      <trkpt lat="42.92653" lon="0.29607">
        <ele>1249.4000244141</ele>
        <time>2020-05-20T06:52:56Z</time>
      </trkpt>
      <trkpt lat="42.92654" lon="0.29607">
        <ele>1249.8000488281</ele>
        <time>2020-05-20T06:52:57Z</time>
      </trkpt>
      <trkpt lat="42.92655" lon="0.29608">
        <ele>1249.8000488281</ele>
        <time>2020-05-20T06:52:58Z</time>
      </trkpt>
      <trkpt lat="42.92663" lon="0.29615">
        <ele>1249.8000488281</ele>
        <time>2020-05-20T06:53:05Z</time>
      </trkpt>
      <trkpt lat="42.92667" lon="0.29617">
        <ele>1250.1999511719</ele>
        <time>2020-05-20T06:53:09Z</time>
      </trkpt>
      <trkpt lat="42.92668" lon="0.29617">
        <ele>1250.5999755859</ele>
        <time>2020-05-20T06:53:10Z</time>
      </trkpt>
      <trkpt lat="42.92669" lon="0.29617">
        <ele>1251</ele>
        <time>2020-05-20T06:53:11Z</time>
      </trkpt>
      <trkpt lat="42.92671" lon="0.29616">
        <ele>1251.4000244141</ele>
        <time>2020-05-20T06:53:12Z</time>
      </trkpt>
      <trkpt lat="42.92673" lon="0.29616">
        <ele>1252</ele>
        <time>2020-05-20T06:53:13Z</time>
      </trkpt>
      <trkpt lat="42.92681" lon="0.29616">
        <ele>1252</ele>
        <time>2020-05-20T06:53:19Z</time>
      </trkpt>
      <trkpt lat="42.92682" lon="0.29617">
        <ele>1252</ele>
        <time>2020-05-20T06:53:20Z</time>
      </trkpt>
      <trkpt lat="42.92689" lon="0.29614">
        <ele>1252.4000244141</ele>
        <time>2020-05-20T06:53:24Z</time>
      </trkpt>
      <trkpt lat="42.9269" lon="0.29615">
        <ele>1252.8000488281</ele>
        <time>2020-05-20T06:53:25Z</time>
      </trkpt>
      <trkpt lat="42.92691" lon="0.29616">
        <ele>1253.5999755859</ele>
        <time>2020-05-20T06:53:26Z</time>
      </trkpt>
      <trkpt lat="42.92693" lon="0.29617">
        <ele>1254</ele>
        <time>2020-05-20T06:53:27Z</time>
      </trkpt>
      <trkpt lat="42.92698" lon="0.29621">
        <ele>1254</ele>
        <time>2020-05-20T06:53:32Z</time>
      </trkpt>
      <trkpt lat="42.92713" lon="0.29595">
        <ele>1254</ele>
        <time>2020-05-20T06:53:38Z</time>
      </trkpt>
      <trkpt lat="42.92718" lon="0.29597">
        <ele>1254.4000244141</ele>
        <time>2020-05-20T06:53:42Z</time>
      </trkpt>
      <trkpt lat="42.9272" lon="0.29597">
        <ele>1254.8000488281</ele>
        <time>2020-05-20T06:53:43Z</time>
      </trkpt>
      <trkpt lat="42.92721" lon="0.29599">
        <ele>1255.1999511719</ele>
        <time>2020-05-20T06:53:44Z</time>
      </trkpt>
      <trkpt lat="42.92722" lon="0.296">
        <ele>1255.5999755859</ele>
        <time>2020-05-20T06:53:45Z</time>
      </trkpt>
      <trkpt lat="42.92723" lon="0.29601">
        <ele>1256</ele>
        <time>2020-05-20T06:53:46Z</time>
      </trkpt>
      <trkpt lat="42.92726" lon="0.29608">
        <ele>1256</ele>
        <time>2020-05-20T06:53:51Z</time>
      </trkpt>
      <trkpt lat="42.92726" lon="0.2962">
        <ele>1256</ele>
        <time>2020-05-20T06:53:57Z</time>
      </trkpt>
      <trkpt lat="42.92725" lon="0.29621">
        <ele>1256</ele>
        <time>2020-05-20T06:53:58Z</time>
      </trkpt>
      <trkpt lat="42.92724" lon="0.29623">
        <ele>1256.4000244141</ele>
        <time>2020-05-20T06:53:59Z</time>
      </trkpt>
      <trkpt lat="42.92724" lon="0.29624">
        <ele>1256.8000488281</ele>
        <time>2020-05-20T06:54:00Z</time>
      </trkpt>
      <trkpt lat="42.92723" lon="0.29626">
        <ele>1257.1999511719</ele>
        <time>2020-05-20T06:54:01Z</time>
      </trkpt>
      <trkpt lat="42.92722" lon="0.29627">
        <ele>1257.5999755859</ele>
        <time>2020-05-20T06:54:02Z</time>
      </trkpt>
      <trkpt lat="42.92721" lon="0.29629">
        <ele>1258</ele>
        <time>2020-05-20T06:54:03Z</time>
      </trkpt>
      <trkpt lat="42.9272" lon="0.29631">
        <ele>1258</ele>
        <time>2020-05-20T06:54:04Z</time>
      </trkpt>
      <trkpt lat="42.92719" lon="0.29632">
        <ele>1258</ele>
        <time>2020-05-20T06:54:09Z</time>
      </trkpt>
      <trkpt lat="42.92719" lon="0.29632">
        <ele>1258</ele>
        <time>2020-05-20T06:54:16Z</time>
      </trkpt>
      <trkpt lat="42.92719" lon="0.29632">
        <ele>1258</ele>
        <time>2020-05-20T06:54:28Z</time>
      </trkpt>
      <trkpt lat="42.92719" lon="0.29632">
        <ele>1258</ele>
        <time>2020-05-20T06:54:42Z</time>
      </trkpt>
      <trkpt lat="42.92719" lon="0.29632">
        <ele>1258</ele>
        <time>2020-05-20T06:54:56Z</time>
      </trkpt>
      <trkpt lat="42.92718" lon="0.29633">
        <ele>1258</ele>
        <time>2020-05-20T06:55:02Z</time>
      </trkpt>
      <trkpt lat="42.92711" lon="0.2964">
        <ele>1258</ele>
        <time>2020-05-20T06:55:09Z</time>
      </trkpt>
      <trkpt lat="42.92705" lon="0.29644">
        <ele>1258</ele>
        <time>2020-05-20T06:55:12Z</time>
      </trkpt>
      <trkpt lat="42.92701" lon="0.29649">
        <ele>1258</ele>
        <time>2020-05-20T06:55:15Z</time>
      </trkpt>
      <trkpt lat="42.92689" lon="0.29657">
        <ele>1258</ele>
        <time>2020-05-20T06:55:22Z</time>
      </trkpt>
      <trkpt lat="42.92678" lon="0.29668">
        <ele>1258</ele>
        <time>2020-05-20T06:55:29Z</time>
      </trkpt>
      <trkpt lat="42.92667" lon="0.29678">
        <ele>1258</ele>
        <time>2020-05-20T06:55:36Z</time>
      </trkpt>
      <trkpt lat="42.92657" lon="0.29689">
        <ele>1258</ele>
        <time>2020-05-20T06:55:42Z</time>
      </trkpt>
      <trkpt lat="42.9265" lon="0.29699">
        <ele>1258</ele>
        <time>2020-05-20T06:55:48Z</time>
      </trkpt>
      <trkpt lat="42.9264" lon="0.2971">
        <ele>1258</ele>
        <time>2020-05-20T06:55:54Z</time>
      </trkpt>
      <trkpt lat="42.92631" lon="0.29723">
        <ele>1258</ele>
        <time>2020-05-20T06:56:00Z</time>
      </trkpt>
      <trkpt lat="42.92626" lon="0.2973">
        <ele>1258.4000244141</ele>
        <time>2020-05-20T06:56:03Z</time>
      </trkpt>
      <trkpt lat="42.92624" lon="0.29732">
        <ele>1258.8000488281</ele>
        <time>2020-05-20T06:56:04Z</time>
      </trkpt>
      <trkpt lat="42.92622" lon="0.29735">
        <ele>1259.4000244141</ele>
        <time>2020-05-20T06:56:05Z</time>
      </trkpt>
      <trkpt lat="42.9262" lon="0.29739">
        <ele>1259.8000488281</ele>
        <time>2020-05-20T06:56:06Z</time>
      </trkpt>
      <trkpt lat="42.92617" lon="0.29742">
        <ele>1260.1999511719</ele>
        <time>2020-05-20T06:56:07Z</time>
      </trkpt>
      <trkpt lat="42.92608" lon="0.2975">
        <ele>1260.1999511719</ele>
        <time>2020-05-20T06:56:11Z</time>
      </trkpt>
      <trkpt lat="42.92599" lon="0.29761">
        <ele>1260.1999511719</ele>
        <time>2020-05-20T06:56:17Z</time>
      </trkpt>
      <trkpt lat="42.92591" lon="0.29773">
        <ele>1260.1999511719</ele>
        <time>2020-05-20T06:56:23Z</time>
      </trkpt>
      <trkpt lat="42.9258" lon="0.29784">
        <ele>1260.1999511719</ele>
        <time>2020-05-20T06:56:30Z</time>
      </trkpt>
      <trkpt lat="42.9258" lon="0.29785">
        <ele>1260.1999511719</ele>
        <time>2020-05-20T06:56:38Z</time>
      </trkpt>
      <trkpt lat="42.92578" lon="0.29791">
        <ele>1260.1999511719</ele>
        <time>2020-05-20T06:56:43Z</time>
      </trkpt>
      <trkpt lat="42.92574" lon="0.29798">
        <ele>1260.1999511719</ele>
        <time>2020-05-20T06:56:46Z</time>
      </trkpt>
      <trkpt lat="42.9257" lon="0.29802">
        <ele>1260.1999511719</ele>
        <time>2020-05-20T06:56:48Z</time>
      </trkpt>
      <trkpt lat="42.92569" lon="0.29807">
        <ele>1260.1999511719</ele>
        <time>2020-05-20T06:56:50Z</time>
      </trkpt>
      <trkpt lat="42.92566" lon="0.2981">
        <ele>1260.1999511719</ele>
        <time>2020-05-20T06:56:52Z</time>
      </trkpt>
      <trkpt lat="42.92563" lon="0.29815">
        <ele>1260.1999511719</ele>
        <time>2020-05-20T06:56:54Z</time>
      </trkpt>
      <trkpt lat="42.92558" lon="0.29824">
        <ele>1260.1999511719</ele>
        <time>2020-05-20T06:56:57Z</time>
      </trkpt>
      <trkpt lat="42.92548" lon="0.29836">
        <ele>1260.1999511719</ele>
        <time>2020-05-20T06:57:02Z</time>
      </trkpt>
      <trkpt lat="42.92539" lon="0.2985">
        <ele>1260.1999511719</ele>
        <time>2020-05-20T06:57:07Z</time>
      </trkpt>
      <trkpt lat="42.92532" lon="0.29868">
        <ele>1260.1999511719</ele>
        <time>2020-05-20T06:57:13Z</time>
      </trkpt>
      <trkpt lat="42.92525" lon="0.29893">
        <ele>1260.1999511719</ele>
        <time>2020-05-20T06:57:20Z</time>
      </trkpt>
      <trkpt lat="42.92519" lon="0.29914">
        <ele>1260.1999511719</ele>
        <time>2020-05-20T06:57:26Z</time>
      </trkpt>
      <trkpt lat="42.92511" lon="0.29947">
        <ele>1260.5999755859</ele>
        <time>2020-05-20T06:57:33Z</time>
      </trkpt>
      <trkpt lat="42.92511" lon="0.29951">
        <ele>1261</ele>
        <time>2020-05-20T06:57:34Z</time>
      </trkpt>
      <trkpt lat="42.92511" lon="0.29954">
        <ele>1261.4000244141</ele>
        <time>2020-05-20T06:57:35Z</time>
      </trkpt>
      <trkpt lat="42.92511" lon="0.29958">
        <ele>1261.8000488281</ele>
        <time>2020-05-20T06:57:36Z</time>
      </trkpt>
      <trkpt lat="42.92511" lon="0.2996">
        <ele>1262.1999511719</ele>
        <time>2020-05-20T06:57:37Z</time>
      </trkpt>
      <trkpt lat="42.92511" lon="0.29964">
        <ele>1262.1999511719</ele>
        <time>2020-05-20T06:57:38Z</time>
      </trkpt>
      <trkpt lat="42.92509" lon="0.29984">
        <ele>1262.1999511719</ele>
        <time>2020-05-20T06:57:44Z</time>
      </trkpt>
      <trkpt lat="42.92509" lon="0.29988">
        <ele>1262.1999511719</ele>
        <time>2020-05-20T06:57:45Z</time>
      </trkpt>
      <trkpt lat="42.92505" lon="0.30008">
        <ele>1262.1999511719</ele>
        <time>2020-05-20T06:57:51Z</time>
      </trkpt>
      <trkpt lat="42.92498" lon="0.30032">
        <ele>1262.1999511719</ele>
        <time>2020-05-20T06:57:57Z</time>
      </trkpt>
      <trkpt lat="42.92497" lon="0.30035">
        <ele>1262.5999755859</ele>
        <time>2020-05-20T06:57:58Z</time>
      </trkpt>
      <trkpt lat="42.92497" lon="0.30039">
        <ele>1263</ele>
        <time>2020-05-20T06:57:59Z</time>
      </trkpt>
      <trkpt lat="42.92497" lon="0.30042">
        <ele>1263.4000244141</ele>
        <time>2020-05-20T06:58:00Z</time>
      </trkpt>
      <trkpt lat="42.92496" lon="0.30045">
        <ele>1263.8000488281</ele>
        <time>2020-05-20T06:58:01Z</time>
      </trkpt>
      <trkpt lat="42.92495" lon="0.30048">
        <ele>1264.1999511719</ele>
        <time>2020-05-20T06:58:02Z</time>
      </trkpt>
      <trkpt lat="42.92494" lon="0.30051">
        <ele>1264.1999511719</ele>
        <time>2020-05-20T06:58:03Z</time>
      </trkpt>
      <trkpt lat="42.92491" lon="0.30074">
        <ele>1264.1999511719</ele>
        <time>2020-05-20T06:58:10Z</time>
      </trkpt>
      <trkpt lat="42.92489" lon="0.30086">
        <ele>1264.5999755859</ele>
        <time>2020-05-20T06:58:14Z</time>
      </trkpt>
      <trkpt lat="42.92488" lon="0.30089">
        <ele>1265</ele>
        <time>2020-05-20T06:58:15Z</time>
      </trkpt>
      <trkpt lat="42.92487" lon="0.30092">
        <ele>1265.4000244141</ele>
        <time>2020-05-20T06:58:16Z</time>
      </trkpt>
      <trkpt lat="42.92486" lon="0.30095">
        <ele>1265.8000488281</ele>
        <time>2020-05-20T06:58:17Z</time>
      </trkpt>
      <trkpt lat="42.92485" lon="0.30098">
        <ele>1266.1999511719</ele>
        <time>2020-05-20T06:58:18Z</time>
      </trkpt>
      <trkpt lat="42.92483" lon="0.30111">
        <ele>1266.1999511719</ele>
        <time>2020-05-20T06:58:23Z</time>
      </trkpt>
      <trkpt lat="42.92481" lon="0.30119">
        <ele>1266.5999755859</ele>
        <time>2020-05-20T06:58:26Z</time>
      </trkpt>
      <trkpt lat="42.9248" lon="0.30122">
        <ele>1267</ele>
        <time>2020-05-20T06:58:27Z</time>
      </trkpt>
      <trkpt lat="42.92479" lon="0.30124">
        <ele>1267.5999755859</ele>
        <time>2020-05-20T06:58:28Z</time>
      </trkpt>
      <trkpt lat="42.92478" lon="0.30126">
        <ele>1268</ele>
        <time>2020-05-20T06:58:29Z</time>
      </trkpt>
      <trkpt lat="42.92477" lon="0.30128">
        <ele>1268.4000244141</ele>
        <time>2020-05-20T06:58:30Z</time>
      </trkpt>
      <trkpt lat="42.92467" lon="0.30142">
        <ele>1268.4000244141</ele>
        <time>2020-05-20T06:58:37Z</time>
      </trkpt>
      <trkpt lat="42.92462" lon="0.30148">
        <ele>1268.8000488281</ele>
        <time>2020-05-20T06:58:41Z</time>
      </trkpt>
      <trkpt lat="42.92461" lon="0.30149">
        <ele>1269.1999511719</ele>
        <time>2020-05-20T06:58:42Z</time>
      </trkpt>
      <trkpt lat="42.9246" lon="0.30152">
        <ele>1269.5999755859</ele>
        <time>2020-05-20T06:58:43Z</time>
      </trkpt>
      <trkpt lat="42.92458" lon="0.30154">
        <ele>1270</ele>
        <time>2020-05-20T06:58:44Z</time>
      </trkpt>
      <trkpt lat="42.92457" lon="0.30155">
        <ele>1270.4000244141</ele>
        <time>2020-05-20T06:58:45Z</time>
      </trkpt>
      <trkpt lat="42.92455" lon="0.30159">
        <ele>1270.4000244141</ele>
        <time>2020-05-20T06:58:47Z</time>
      </trkpt>
      <trkpt lat="42.92454" lon="0.30166">
        <ele>1270.4000244141</ele>
        <time>2020-05-20T06:58:50Z</time>
      </trkpt>
      <trkpt lat="42.92457" lon="0.30173">
        <ele>1270.8000488281</ele>
        <time>2020-05-20T06:58:53Z</time>
      </trkpt>
      <trkpt lat="42.92459" lon="0.30175">
        <ele>1271.1999511719</ele>
        <time>2020-05-20T06:58:54Z</time>
      </trkpt>
      <trkpt lat="42.9246" lon="0.30176">
        <ele>1271.5999755859</ele>
        <time>2020-05-20T06:58:55Z</time>
      </trkpt>
      <trkpt lat="42.92461" lon="0.30179">
        <ele>1272</ele>
        <time>2020-05-20T06:58:56Z</time>
      </trkpt>
      <trkpt lat="42.92462" lon="0.3018">
        <ele>1272.4000244141</ele>
        <time>2020-05-20T06:58:57Z</time>
      </trkpt>
      <trkpt lat="42.92469" lon="0.30189">
        <ele>1272.4000244141</ele>
        <time>2020-05-20T06:59:02Z</time>
      </trkpt>
      <trkpt lat="42.92473" lon="0.30196">
        <ele>1272.8000488281</ele>
        <time>2020-05-20T06:59:06Z</time>
      </trkpt>
      <trkpt lat="42.92474" lon="0.30198">
        <ele>1273.1999511719</ele>
        <time>2020-05-20T06:59:07Z</time>
      </trkpt>
      <trkpt lat="42.92475" lon="0.302">
        <ele>1273.5999755859</ele>
        <time>2020-05-20T06:59:08Z</time>
      </trkpt>
      <trkpt lat="42.92476" lon="0.30202">
        <ele>1274</ele>
        <time>2020-05-20T06:59:09Z</time>
      </trkpt>
      <trkpt lat="42.92477" lon="0.30204">
        <ele>1274.4000244141</ele>
        <time>2020-05-20T06:59:10Z</time>
      </trkpt>
      <trkpt lat="42.92486" lon="0.30212">
        <ele>1274.8000488281</ele>
        <time>2020-05-20T06:59:17Z</time>
      </trkpt>
      <trkpt lat="42.92487" lon="0.30213">
        <ele>1275.1999511719</ele>
        <time>2020-05-20T06:59:18Z</time>
      </trkpt>
      <trkpt lat="42.92489" lon="0.30214">
        <ele>1275.5999755859</ele>
        <time>2020-05-20T06:59:19Z</time>
      </trkpt>
      <trkpt lat="42.92489" lon="0.30215">
        <ele>1276.1999511719</ele>
        <time>2020-05-20T06:59:20Z</time>
      </trkpt>
      <trkpt lat="42.92491" lon="0.30216">
        <ele>1276.5999755859</ele>
        <time>2020-05-20T06:59:21Z</time>
      </trkpt>
      <trkpt lat="42.92496" lon="0.30218">
        <ele>1276.5999755859</ele>
        <time>2020-05-20T06:59:24Z</time>
      </trkpt>
      <trkpt lat="42.92504" lon="0.30222">
        <ele>1277</ele>
        <time>2020-05-20T06:59:30Z</time>
      </trkpt>
      <trkpt lat="42.92505" lon="0.30222">
        <ele>1277.4000244141</ele>
        <time>2020-05-20T06:59:31Z</time>
      </trkpt>
      <trkpt lat="42.92506" lon="0.30223">
        <ele>1277.8000488281</ele>
        <time>2020-05-20T06:59:32Z</time>
      </trkpt>
      <trkpt lat="42.92507" lon="0.30224">
        <ele>1278.1999511719</ele>
        <time>2020-05-20T06:59:33Z</time>
      </trkpt>
      <trkpt lat="42.92508" lon="0.30225">
        <ele>1278.5999755859</ele>
        <time>2020-05-20T06:59:34Z</time>
      </trkpt>
      <trkpt lat="42.92513" lon="0.30225">
        <ele>1278.5999755859</ele>
        <time>2020-05-20T06:59:38Z</time>
      </trkpt>
      <trkpt lat="42.92518" lon="0.30226">
        <ele>1279</ele>
        <time>2020-05-20T06:59:41Z</time>
      </trkpt>
      <trkpt lat="42.92518" lon="0.30226">
        <ele>1279.4000244141</ele>
        <time>2020-05-20T06:59:42Z</time>
      </trkpt>
      <trkpt lat="42.92519" lon="0.30226">
        <ele>1279.8000488281</ele>
        <time>2020-05-20T06:59:43Z</time>
      </trkpt>
      <trkpt lat="42.9252" lon="0.30227">
        <ele>1280.1999511719</ele>
        <time>2020-05-20T06:59:44Z</time>
      </trkpt>
      <trkpt lat="42.92521" lon="0.30227">
        <ele>1280.5999755859</ele>
        <time>2020-05-20T06:59:45Z</time>
      </trkpt>
      <trkpt lat="42.92522" lon="0.30227">
        <ele>1280.5999755859</ele>
        <time>2020-05-20T06:59:46Z</time>
      </trkpt>
      <trkpt lat="42.92531" lon="0.30229">
        <ele>1280.5999755859</ele>
        <time>2020-05-20T06:59:52Z</time>
      </trkpt>
      <trkpt lat="42.92534" lon="0.30228">
        <ele>1281</ele>
        <time>2020-05-20T06:59:54Z</time>
      </trkpt>
      <trkpt lat="42.92535" lon="0.30228">
        <ele>1281.4000244141</ele>
        <time>2020-05-20T06:59:55Z</time>
      </trkpt>
      <trkpt lat="42.92537" lon="0.30227">
        <ele>1281.8000488281</ele>
        <time>2020-05-20T06:59:56Z</time>
      </trkpt>
      <trkpt lat="42.92538" lon="0.30227">
        <ele>1282.1999511719</ele>
        <time>2020-05-20T06:59:57Z</time>
      </trkpt>
      <trkpt lat="42.92539" lon="0.30227">
        <ele>1282.5999755859</ele>
        <time>2020-05-20T06:59:58Z</time>
      </trkpt>
      <trkpt lat="42.92545" lon="0.30226">
        <ele>1282.5999755859</ele>
        <time>2020-05-20T07:00:02Z</time>
      </trkpt>
      <trkpt lat="42.9255" lon="0.30225">
        <ele>1283</ele>
        <time>2020-05-20T07:00:06Z</time>
      </trkpt>
      <trkpt lat="42.92552" lon="0.30226">
        <ele>1283.4000244141</ele>
        <time>2020-05-20T07:00:07Z</time>
      </trkpt>
      <trkpt lat="42.92553" lon="0.30226">
        <ele>1283.8000488281</ele>
        <time>2020-05-20T07:00:08Z</time>
      </trkpt>
      <trkpt lat="42.92554" lon="0.30226">
        <ele>1284.1999511719</ele>
        <time>2020-05-20T07:00:09Z</time>
      </trkpt>
      <trkpt lat="42.92556" lon="0.30226">
        <ele>1284.5999755859</ele>
        <time>2020-05-20T07:00:10Z</time>
      </trkpt>
      <trkpt lat="42.92565" lon="0.30226">
        <ele>1284.5999755859</ele>
        <time>2020-05-20T07:00:16Z</time>
      </trkpt>
      <trkpt lat="42.9257" lon="0.30229">
        <ele>1285</ele>
        <time>2020-05-20T07:00:21Z</time>
      </trkpt>
      <trkpt lat="42.92572" lon="0.30229">
        <ele>1285.5999755859</ele>
        <time>2020-05-20T07:00:22Z</time>
      </trkpt>
      <trkpt lat="42.92573" lon="0.30229">
        <ele>1286</ele>
        <time>2020-05-20T07:00:23Z</time>
      </trkpt>
      <trkpt lat="42.92574" lon="0.3023">
        <ele>1286.4000244141</ele>
        <time>2020-05-20T07:00:24Z</time>
      </trkpt>
      <trkpt lat="42.92575" lon="0.3023">
        <ele>1286.8000488281</ele>
        <time>2020-05-20T07:00:25Z</time>
      </trkpt>
      <trkpt lat="42.92584" lon="0.30233">
        <ele>1286.8000488281</ele>
        <time>2020-05-20T07:00:33Z</time>
      </trkpt>
      <trkpt lat="42.92586" lon="0.30233">
        <ele>1287.4000244141</ele>
        <time>2020-05-20T07:00:34Z</time>
      </trkpt>
      <trkpt lat="42.92586" lon="0.30233">
        <ele>1287.8000488281</ele>
        <time>2020-05-20T07:00:35Z</time>
      </trkpt>
      <trkpt lat="42.92586" lon="0.30233">
        <ele>1288.1999511719</ele>
        <time>2020-05-20T07:00:36Z</time>
      </trkpt>
      <trkpt lat="42.92587" lon="0.30233">
        <ele>1288.5999755859</ele>
        <time>2020-05-20T07:00:37Z</time>
      </trkpt>
      <trkpt lat="42.9259" lon="0.30232">
        <ele>1289</ele>
        <time>2020-05-20T07:00:38Z</time>
      </trkpt>
      <trkpt lat="42.92592" lon="0.30231">
        <ele>1289</ele>
        <time>2020-05-20T07:00:39Z</time>
      </trkpt>
      <trkpt lat="42.92603" lon="0.3023">
        <ele>1289</ele>
        <time>2020-05-20T07:00:46Z</time>
      </trkpt>
      <trkpt lat="42.92611" lon="0.30229">
        <ele>1289.8000488281</ele>
        <time>2020-05-20T07:00:50Z</time>
      </trkpt>
      <trkpt lat="42.92613" lon="0.30228">
        <ele>1290.1999511719</ele>
        <time>2020-05-20T07:00:51Z</time>
      </trkpt>
      <trkpt lat="42.92614" lon="0.30227">
        <ele>1290.8000488281</ele>
        <time>2020-05-20T07:00:52Z</time>
      </trkpt>
      <trkpt lat="42.92616" lon="0.30227">
        <ele>1291.1999511719</ele>
        <time>2020-05-20T07:00:53Z</time>
      </trkpt>
      <trkpt lat="42.92625" lon="0.3023">
        <ele>1291.1999511719</ele>
        <time>2020-05-20T07:00:59Z</time>
      </trkpt>
      <trkpt lat="42.92631" lon="0.30235">
        <ele>1291.1999511719</ele>
        <time>2020-05-20T07:01:05Z</time>
      </trkpt>
      <trkpt lat="42.92632" lon="0.30236">
        <ele>1291.5999755859</ele>
        <time>2020-05-20T07:01:06Z</time>
      </trkpt>
      <trkpt lat="42.92633" lon="0.30237">
        <ele>1292</ele>
        <time>2020-05-20T07:01:07Z</time>
      </trkpt>
      <trkpt lat="42.92635" lon="0.30238">
        <ele>1292.4000244141</ele>
        <time>2020-05-20T07:01:08Z</time>
      </trkpt>
      <trkpt lat="42.92636" lon="0.30239">
        <ele>1292.8000488281</ele>
        <time>2020-05-20T07:01:09Z</time>
      </trkpt>
      <trkpt lat="42.92638" lon="0.30239">
        <ele>1293.4000244141</ele>
        <time>2020-05-20T07:01:10Z</time>
      </trkpt>
      <trkpt lat="42.92641" lon="0.3024">
        <ele>1293.4000244141</ele>
        <time>2020-05-20T07:01:12Z</time>
      </trkpt>
      <trkpt lat="42.9265" lon="0.30246">
        <ele>1293.8000488281</ele>
        <time>2020-05-20T07:01:19Z</time>
      </trkpt>
      <trkpt lat="42.92651" lon="0.30248">
        <ele>1294.1999511719</ele>
        <time>2020-05-20T07:01:20Z</time>
      </trkpt>
      <trkpt lat="42.92652" lon="0.3025">
        <ele>1294.5999755859</ele>
        <time>2020-05-20T07:01:21Z</time>
      </trkpt>
      <trkpt lat="42.92653" lon="0.30251">
        <ele>1295</ele>
        <time>2020-05-20T07:01:22Z</time>
      </trkpt>
      <trkpt lat="42.92654" lon="0.30252">
        <ele>1295.4000244141</ele>
        <time>2020-05-20T07:01:23Z</time>
      </trkpt>
      <trkpt lat="42.92658" lon="0.30255">
        <ele>1295.4000244141</ele>
        <time>2020-05-20T07:01:26Z</time>
      </trkpt>
      <trkpt lat="42.92665" lon="0.30261">
        <ele>1295.8000488281</ele>
        <time>2020-05-20T07:01:32Z</time>
      </trkpt>
      <trkpt lat="42.92666" lon="0.30262">
        <ele>1296.1999511719</ele>
        <time>2020-05-20T07:01:33Z</time>
      </trkpt>
      <trkpt lat="42.92668" lon="0.30263">
        <ele>1296.5999755859</ele>
        <time>2020-05-20T07:01:34Z</time>
      </trkpt>
      <trkpt lat="42.92669" lon="0.30264">
        <ele>1297</ele>
        <time>2020-05-20T07:01:35Z</time>
      </trkpt>
      <trkpt lat="42.9267" lon="0.30265">
        <ele>1297.4000244141</ele>
        <time>2020-05-20T07:01:36Z</time>
      </trkpt>
      <trkpt lat="42.92674" lon="0.30266">
        <ele>1297.4000244141</ele>
        <time>2020-05-20T07:01:39Z</time>
      </trkpt>
      <trkpt lat="42.92682" lon="0.30274">
        <ele>1297.8000488281</ele>
        <time>2020-05-20T07:01:47Z</time>
      </trkpt>
      <trkpt lat="42.92683" lon="0.30276">
        <ele>1298.1999511719</ele>
        <time>2020-05-20T07:01:48Z</time>
      </trkpt>
      <trkpt lat="42.92684" lon="0.30277">
        <ele>1298.5999755859</ele>
        <time>2020-05-20T07:01:49Z</time>
      </trkpt>
      <trkpt lat="42.92684" lon="0.30279">
        <ele>1299</ele>
        <time>2020-05-20T07:01:50Z</time>
      </trkpt>
      <trkpt lat="42.92686" lon="0.30277">
        <ele>1299.4000244141</ele>
        <time>2020-05-20T07:01:51Z</time>
      </trkpt>
      <trkpt lat="42.9269" lon="0.30275">
        <ele>1299.4000244141</ele>
        <time>2020-05-20T07:01:54Z</time>
      </trkpt>
      <trkpt lat="42.9269" lon="0.30275">
        <ele>1299.4000244141</ele>
        <time>2020-05-20T07:01:55Z</time>
      </trkpt>
      <trkpt lat="42.92692" lon="0.30276">
        <ele>1299.4000244141</ele>
        <time>2020-05-20T07:01:57Z</time>
      </trkpt>
      <trkpt lat="42.92694" lon="0.30278">
        <ele>1300</ele>
        <time>2020-05-20T07:01:59Z</time>
      </trkpt>
      <trkpt lat="42.92695" lon="0.30279">
        <ele>1300.4000244141</ele>
        <time>2020-05-20T07:02:00Z</time>
      </trkpt>
      <trkpt lat="42.92696" lon="0.30281">
        <ele>1300.8000488281</ele>
        <time>2020-05-20T07:02:01Z</time>
      </trkpt>
      <trkpt lat="42.92697" lon="0.30282">
        <ele>1301.1999511719</ele>
        <time>2020-05-20T07:02:02Z</time>
      </trkpt>
      <trkpt lat="42.92698" lon="0.30283">
        <ele>1301.5999755859</ele>
        <time>2020-05-20T07:02:03Z</time>
      </trkpt>
      <trkpt lat="42.92698" lon="0.30286">
        <ele>1301.5999755859</ele>
        <time>2020-05-20T07:02:05Z</time>
      </trkpt>
      <trkpt lat="42.92703" lon="0.30296">
        <ele>1302</ele>
        <time>2020-05-20T07:02:11Z</time>
      </trkpt>
      <trkpt lat="42.92703" lon="0.30297">
        <ele>1302.4000244141</ele>
        <time>2020-05-20T07:02:12Z</time>
      </trkpt>
      <trkpt lat="42.92704" lon="0.30298">
        <ele>1302.8000488281</ele>
        <time>2020-05-20T07:02:13Z</time>
      </trkpt>
      <trkpt lat="42.92704" lon="0.303">
        <ele>1303.1999511719</ele>
        <time>2020-05-20T07:02:14Z</time>
      </trkpt>
      <trkpt lat="42.92706" lon="0.30301">
        <ele>1303.5999755859</ele>
        <time>2020-05-20T07:02:15Z</time>
      </trkpt>
      <trkpt lat="42.92707" lon="0.30306">
        <ele>1303.5999755859</ele>
        <time>2020-05-20T07:02:19Z</time>
      </trkpt>
      <trkpt lat="42.92708" lon="0.30316">
        <ele>1304</ele>
        <time>2020-05-20T07:02:25Z</time>
      </trkpt>
      <trkpt lat="42.92708" lon="0.30317">
        <ele>1304.4000244141</ele>
        <time>2020-05-20T07:02:26Z</time>
      </trkpt>
      <trkpt lat="42.92707" lon="0.30318">
        <ele>1304.8000488281</ele>
        <time>2020-05-20T07:02:27Z</time>
      </trkpt>
      <trkpt lat="42.92707" lon="0.3032">
        <ele>1305.1999511719</ele>
        <time>2020-05-20T07:02:28Z</time>
      </trkpt>
      <trkpt lat="42.92707" lon="0.30322">
        <ele>1305.5999755859</ele>
        <time>2020-05-20T07:02:29Z</time>
      </trkpt>
      <trkpt lat="42.92707" lon="0.30328">
        <ele>1305.5999755859</ele>
        <time>2020-05-20T07:02:32Z</time>
      </trkpt>
      <trkpt lat="42.92707" lon="0.30341">
        <ele>1306</ele>
        <time>2020-05-20T07:02:38Z</time>
      </trkpt>
      <trkpt lat="42.92707" lon="0.30343">
        <ele>1306.5999755859</ele>
        <time>2020-05-20T07:02:39Z</time>
      </trkpt>
      <trkpt lat="42.92707" lon="0.30346">
        <ele>1307</ele>
        <time>2020-05-20T07:02:40Z</time>
      </trkpt>
      <trkpt lat="42.92706" lon="0.30348">
        <ele>1307.4000244141</ele>
        <time>2020-05-20T07:02:41Z</time>
      </trkpt>
      <trkpt lat="42.92706" lon="0.30349">
        <ele>1307.8000488281</ele>
        <time>2020-05-20T07:02:42Z</time>
      </trkpt>
      <trkpt lat="42.92706" lon="0.30356">
        <ele>1307.8000488281</ele>
        <time>2020-05-20T07:02:46Z</time>
      </trkpt>
      <trkpt lat="42.92706" lon="0.30359">
        <ele>1307.8000488281</ele>
        <time>2020-05-20T07:02:48Z</time>
      </trkpt>
      <trkpt lat="42.92706" lon="0.30365">
        <ele>1307.8000488281</ele>
        <time>2020-05-20T07:02:51Z</time>
      </trkpt>
      <trkpt lat="42.92706" lon="0.30369">
        <ele>1308.1999511719</ele>
        <time>2020-05-20T07:02:53Z</time>
      </trkpt>
      <trkpt lat="42.92706" lon="0.30371">
        <ele>1309</ele>
        <time>2020-05-20T07:02:54Z</time>
      </trkpt>
      <trkpt lat="42.92705" lon="0.30373">
        <ele>1309.4000244141</ele>
        <time>2020-05-20T07:02:55Z</time>
      </trkpt>
      <trkpt lat="42.92706" lon="0.30373">
        <ele>1309.8000488281</ele>
        <time>2020-05-20T07:02:56Z</time>
      </trkpt>
      <trkpt lat="42.92706" lon="0.30379">
        <ele>1309.8000488281</ele>
        <time>2020-05-20T07:02:59Z</time>
      </trkpt>
      <trkpt lat="42.92707" lon="0.30384">
        <ele>1309.8000488281</ele>
        <time>2020-05-20T07:03:02Z</time>
      </trkpt>
      <trkpt lat="42.92706" lon="0.30388">
        <ele>1310.1999511719</ele>
        <time>2020-05-20T07:03:05Z</time>
      </trkpt>
      <trkpt lat="42.92706" lon="0.3039">
        <ele>1310.5999755859</ele>
        <time>2020-05-20T07:03:06Z</time>
      </trkpt>
      <trkpt lat="42.92705" lon="0.30392">
        <ele>1311</ele>
        <time>2020-05-20T07:03:07Z</time>
      </trkpt>
      <trkpt lat="42.92705" lon="0.30392">
        <ele>1311.4000244141</ele>
        <time>2020-05-20T07:03:08Z</time>
      </trkpt>
      <trkpt lat="42.92704" lon="0.30394">
        <ele>1311.8000488281</ele>
        <time>2020-05-20T07:03:09Z</time>
      </trkpt>
      <trkpt lat="42.92703" lon="0.30403">
        <ele>1311.8000488281</ele>
        <time>2020-05-20T07:03:13Z</time>
      </trkpt>
      <trkpt lat="42.92704" lon="0.30413">
        <ele>1312.4000244141</ele>
        <time>2020-05-20T07:03:18Z</time>
      </trkpt>
      <trkpt lat="42.92704" lon="0.30415">
        <ele>1312.8000488281</ele>
        <time>2020-05-20T07:03:19Z</time>
      </trkpt>
      <trkpt lat="42.92705" lon="0.30417">
        <ele>1313.1999511719</ele>
        <time>2020-05-20T07:03:20Z</time>
      </trkpt>
      <trkpt lat="42.92705" lon="0.30418">
        <ele>1313.5999755859</ele>
        <time>2020-05-20T07:03:21Z</time>
      </trkpt>
      <trkpt lat="42.92705" lon="0.3042">
        <ele>1314</ele>
        <time>2020-05-20T07:03:22Z</time>
      </trkpt>
      <trkpt lat="42.92707" lon="0.30429">
        <ele>1314</ele>
        <time>2020-05-20T07:03:27Z</time>
      </trkpt>
      <trkpt lat="42.92708" lon="0.30437">
        <ele>1314.4000244141</ele>
        <time>2020-05-20T07:03:33Z</time>
      </trkpt>
      <trkpt lat="42.92709" lon="0.30438">
        <ele>1314.8000488281</ele>
        <time>2020-05-20T07:03:34Z</time>
      </trkpt>
      <trkpt lat="42.92711" lon="0.30441">
        <ele>1315.1999511719</ele>
        <time>2020-05-20T07:03:35Z</time>
      </trkpt>
      <trkpt lat="42.92711" lon="0.30442">
        <ele>1315.5999755859</ele>
        <time>2020-05-20T07:03:36Z</time>
      </trkpt>
      <trkpt lat="42.92711" lon="0.30445">
        <ele>1316.1999511719</ele>
        <time>2020-05-20T07:03:37Z</time>
      </trkpt>
      <trkpt lat="42.92711" lon="0.30446">
        <ele>1316.1999511719</ele>
        <time>2020-05-20T07:03:38Z</time>
      </trkpt>
      <trkpt lat="42.92712" lon="0.30458">
        <ele>1316.1999511719</ele>
        <time>2020-05-20T07:03:44Z</time>
      </trkpt>
      <trkpt lat="42.92713" lon="0.3046">
        <ele>1316.5999755859</ele>
        <time>2020-05-20T07:03:46Z</time>
      </trkpt>
      <trkpt lat="42.92713" lon="0.30462">
        <ele>1317</ele>
        <time>2020-05-20T07:03:47Z</time>
      </trkpt>
      <trkpt lat="42.92714" lon="0.30464">
        <ele>1317.4000244141</ele>
        <time>2020-05-20T07:03:48Z</time>
      </trkpt>
      <trkpt lat="42.92714" lon="0.30466">
        <ele>1317.8000488281</ele>
        <time>2020-05-20T07:03:49Z</time>
      </trkpt>
      <trkpt lat="42.92714" lon="0.30468">
        <ele>1318.1999511719</ele>
        <time>2020-05-20T07:03:50Z</time>
      </trkpt>
      <trkpt lat="42.92715" lon="0.30471">
        <ele>1318.1999511719</ele>
        <time>2020-05-20T07:03:51Z</time>
      </trkpt>
      <trkpt lat="42.92715" lon="0.30478">
        <ele>1318.1999511719</ele>
        <time>2020-05-20T07:03:55Z</time>
      </trkpt>
      <trkpt lat="42.92716" lon="0.3048">
        <ele>1318.1999511719</ele>
        <time>2020-05-20T07:03:56Z</time>
      </trkpt>
      <trkpt lat="42.92716" lon="0.30481">
        <ele>1318.1999511719</ele>
        <time>2020-05-20T07:03:57Z</time>
      </trkpt>
      <trkpt lat="42.92716" lon="0.30485">
        <ele>1318.5999755859</ele>
        <time>2020-05-20T07:03:59Z</time>
      </trkpt>
      <trkpt lat="42.92716" lon="0.30487">
        <ele>1319</ele>
        <time>2020-05-20T07:04:00Z</time>
      </trkpt>
      <trkpt lat="42.92716" lon="0.30489">
        <ele>1319.4000244141</ele>
        <time>2020-05-20T07:04:01Z</time>
      </trkpt>
      <trkpt lat="42.92715" lon="0.30491">
        <ele>1319.8000488281</ele>
        <time>2020-05-20T07:04:02Z</time>
      </trkpt>
      <trkpt lat="42.92715" lon="0.30493">
        <ele>1320.4000244141</ele>
        <time>2020-05-20T07:04:03Z</time>
      </trkpt>
      <trkpt lat="42.92716" lon="0.30496">
        <ele>1320.4000244141</ele>
        <time>2020-05-20T07:04:05Z</time>
      </trkpt>
      <trkpt lat="42.92717" lon="0.30504">
        <ele>1320.4000244141</ele>
        <time>2020-05-20T07:04:09Z</time>
      </trkpt>
      <trkpt lat="42.92717" lon="0.3051">
        <ele>1320.4000244141</ele>
        <time>2020-05-20T07:04:12Z</time>
      </trkpt>
      <trkpt lat="42.92717" lon="0.30512">
        <ele>1320.8000488281</ele>
        <time>2020-05-20T07:04:13Z</time>
      </trkpt>
      <trkpt lat="42.92716" lon="0.30513">
        <ele>1321.1999511719</ele>
        <time>2020-05-20T07:04:14Z</time>
      </trkpt>
      <trkpt lat="42.92716" lon="0.30515">
        <ele>1321.5999755859</ele>
        <time>2020-05-20T07:04:15Z</time>
      </trkpt>
      <trkpt lat="42.92716" lon="0.30516">
        <ele>1322</ele>
        <time>2020-05-20T07:04:16Z</time>
      </trkpt>
      <trkpt lat="42.92716" lon="0.30518">
        <ele>1322.4000244141</ele>
        <time>2020-05-20T07:04:17Z</time>
      </trkpt>
      <trkpt lat="42.92714" lon="0.30529">
        <ele>1322.4000244141</ele>
        <time>2020-05-20T07:04:23Z</time>
      </trkpt>
      <trkpt lat="42.92714" lon="0.30535">
        <ele>1322.8000488281</ele>
        <time>2020-05-20T07:04:26Z</time>
      </trkpt>
      <trkpt lat="42.92714" lon="0.30537">
        <ele>1323.1999511719</ele>
        <time>2020-05-20T07:04:27Z</time>
      </trkpt>
      <trkpt lat="42.92714" lon="0.30537">
        <ele>1323.5999755859</ele>
        <time>2020-05-20T07:04:28Z</time>
      </trkpt>
      <trkpt lat="42.92714" lon="0.30538">
        <ele>1324</ele>
        <time>2020-05-20T07:04:29Z</time>
      </trkpt>
      <trkpt lat="42.92714" lon="0.3054">
        <ele>1324.5999755859</ele>
        <time>2020-05-20T07:04:30Z</time>
      </trkpt>
      <trkpt lat="42.92712" lon="0.30552">
        <ele>1324.5999755859</ele>
        <time>2020-05-20T07:04:36Z</time>
      </trkpt>
      <trkpt lat="42.92712" lon="0.30555">
        <ele>1325</ele>
        <time>2020-05-20T07:04:38Z</time>
      </trkpt>
      <trkpt lat="42.92713" lon="0.30555">
        <ele>1325.4000244141</ele>
        <time>2020-05-20T07:04:39Z</time>
      </trkpt>
      <trkpt lat="42.92712" lon="0.30556">
        <ele>1325.8000488281</ele>
        <time>2020-05-20T07:04:40Z</time>
      </trkpt>
      <trkpt lat="42.92712" lon="0.30557">
        <ele>1326.1999511719</ele>
        <time>2020-05-20T07:04:41Z</time>
      </trkpt>
      <trkpt lat="42.92711" lon="0.30559">
        <ele>1326.5999755859</ele>
        <time>2020-05-20T07:04:42Z</time>
      </trkpt>
      <trkpt lat="42.92709" lon="0.30563">
        <ele>1326.5999755859</ele>
        <time>2020-05-20T07:04:48Z</time>
      </trkpt>
      <trkpt lat="42.92709" lon="0.30564">
        <ele>1327</ele>
        <time>2020-05-20T07:04:51Z</time>
      </trkpt>
      <trkpt lat="42.92708" lon="0.30565">
        <ele>1327.4000244141</ele>
        <time>2020-05-20T07:04:52Z</time>
      </trkpt>
      <trkpt lat="42.92708" lon="0.30565">
        <ele>1327.8000488281</ele>
        <time>2020-05-20T07:04:53Z</time>
      </trkpt>
      <trkpt lat="42.92708" lon="0.30566">
        <ele>1328.1999511719</ele>
        <time>2020-05-20T07:04:54Z</time>
      </trkpt>
      <trkpt lat="42.92706" lon="0.30569">
        <ele>1328.8000488281</ele>
        <time>2020-05-20T07:04:55Z</time>
      </trkpt>
      <trkpt lat="42.92701" lon="0.30575">
        <ele>1329.1999511719</ele>
        <time>2020-05-20T07:05:02Z</time>
      </trkpt>
      <trkpt lat="42.92701" lon="0.30576">
        <ele>1329.5999755859</ele>
        <time>2020-05-20T07:05:03Z</time>
      </trkpt>
      <trkpt lat="42.92701" lon="0.30576">
        <ele>1330</ele>
        <time>2020-05-20T07:05:04Z</time>
      </trkpt>
      <trkpt lat="42.92698" lon="0.30581">
        <ele>1330.4000244141</ele>
        <time>2020-05-20T07:05:05Z</time>
      </trkpt>
      <trkpt lat="42.92696" lon="0.30584">
        <ele>1330.8000488281</ele>
        <time>2020-05-20T07:05:06Z</time>
      </trkpt>
      <trkpt lat="42.92688" lon="0.30594">
        <ele>1330.8000488281</ele>
        <time>2020-05-20T07:05:09Z</time>
      </trkpt>
      <trkpt lat="42.92683" lon="0.306">
        <ele>1331.1999511719</ele>
        <time>2020-05-20T07:05:14Z</time>
      </trkpt>
      <trkpt lat="42.92682" lon="0.30601">
        <ele>1331.5999755859</ele>
        <time>2020-05-20T07:05:15Z</time>
      </trkpt>
      <trkpt lat="42.9268" lon="0.30603">
        <ele>1332</ele>
        <time>2020-05-20T07:05:16Z</time>
      </trkpt>
      <trkpt lat="42.92678" lon="0.30605">
        <ele>1332.4000244141</ele>
        <time>2020-05-20T07:05:17Z</time>
      </trkpt>
      <trkpt lat="42.92678" lon="0.30605">
        <ele>1332.8000488281</ele>
        <time>2020-05-20T07:05:18Z</time>
      </trkpt>
      <trkpt lat="42.92671" lon="0.30618">
        <ele>1333.1999511719</ele>
        <time>2020-05-20T07:05:26Z</time>
      </trkpt>
      <trkpt lat="42.9267" lon="0.30619">
        <ele>1333.8000488281</ele>
        <time>2020-05-20T07:05:27Z</time>
      </trkpt>
      <trkpt lat="42.9267" lon="0.3062">
        <ele>1334.1999511719</ele>
        <time>2020-05-20T07:05:28Z</time>
      </trkpt>
      <trkpt lat="42.92669" lon="0.30622">
        <ele>1334.5999755859</ele>
        <time>2020-05-20T07:05:29Z</time>
      </trkpt>
      <trkpt lat="42.92668" lon="0.30623">
        <ele>1335</ele>
        <time>2020-05-20T07:05:30Z</time>
      </trkpt>
      <trkpt lat="42.92666" lon="0.30626">
        <ele>1335</ele>
        <time>2020-05-20T07:05:34Z</time>
      </trkpt>
      <trkpt lat="42.92665" lon="0.30628">
        <ele>1335.4000244141</ele>
        <time>2020-05-20T07:05:38Z</time>
      </trkpt>
      <trkpt lat="42.92665" lon="0.30629">
        <ele>1335.8000488281</ele>
        <time>2020-05-20T07:05:39Z</time>
      </trkpt>
      <trkpt lat="42.92664" lon="0.30632">
        <ele>1336.1999511719</ele>
        <time>2020-05-20T07:05:40Z</time>
      </trkpt>
      <trkpt lat="42.92663" lon="0.30633">
        <ele>1336.5999755859</ele>
        <time>2020-05-20T07:05:41Z</time>
      </trkpt>
      <trkpt lat="42.92663" lon="0.30634">
        <ele>1337</ele>
        <time>2020-05-20T07:05:42Z</time>
      </trkpt>
      <trkpt lat="42.92661" lon="0.30639">
        <ele>1337</ele>
        <time>2020-05-20T07:05:46Z</time>
      </trkpt>
      <trkpt lat="42.92656" lon="0.30649">
        <ele>1337.4000244141</ele>
        <time>2020-05-20T07:05:51Z</time>
      </trkpt>
      <trkpt lat="42.92656" lon="0.30649">
        <ele>1337.8000488281</ele>
        <time>2020-05-20T07:05:52Z</time>
      </trkpt>
      <trkpt lat="42.92655" lon="0.3065">
        <ele>1338.1999511719</ele>
        <time>2020-05-20T07:05:53Z</time>
      </trkpt>
      <trkpt lat="42.92655" lon="0.3065">
        <ele>1338.5999755859</ele>
        <time>2020-05-20T07:05:54Z</time>
      </trkpt>
      <trkpt lat="42.92655" lon="0.3065">
        <ele>1339</ele>
        <time>2020-05-20T07:05:55Z</time>
      </trkpt>
      <trkpt lat="42.92653" lon="0.30654">
        <ele>1339</ele>
        <time>2020-05-20T07:06:00Z</time>
      </trkpt>
      <trkpt lat="42.92652" lon="0.30659">
        <ele>1339.5999755859</ele>
        <time>2020-05-20T07:06:03Z</time>
      </trkpt>
      <trkpt lat="42.92651" lon="0.3066">
        <ele>1340</ele>
        <time>2020-05-20T07:06:04Z</time>
      </trkpt>
      <trkpt lat="42.9265" lon="0.30662">
        <ele>1340.4000244141</ele>
        <time>2020-05-20T07:06:05Z</time>
      </trkpt>
      <trkpt lat="42.9265" lon="0.30663">
        <ele>1340.8000488281</ele>
        <time>2020-05-20T07:06:06Z</time>
      </trkpt>
      <trkpt lat="42.92649" lon="0.30664">
        <ele>1341.1999511719</ele>
        <time>2020-05-20T07:06:07Z</time>
      </trkpt>
      <trkpt lat="42.9264" lon="0.30677">
        <ele>1341.1999511719</ele>
        <time>2020-05-20T07:06:16Z</time>
      </trkpt>
      <trkpt lat="42.92639" lon="0.30679">
        <ele>1341.5999755859</ele>
        <time>2020-05-20T07:06:17Z</time>
      </trkpt>
      <trkpt lat="42.92638" lon="0.30681">
        <ele>1342</ele>
        <time>2020-05-20T07:06:18Z</time>
      </trkpt>
      <trkpt lat="42.92636" lon="0.30683">
        <ele>1342.5999755859</ele>
        <time>2020-05-20T07:06:19Z</time>
      </trkpt>
      <trkpt lat="42.92635" lon="0.30685">
        <ele>1343</ele>
        <time>2020-05-20T07:06:20Z</time>
      </trkpt>
      <trkpt lat="42.92633" lon="0.30687">
        <ele>1343.4000244141</ele>
        <time>2020-05-20T07:06:21Z</time>
      </trkpt>
      <trkpt lat="42.92632" lon="0.30689">
        <ele>1343.4000244141</ele>
        <time>2020-05-20T07:06:23Z</time>
      </trkpt>
      <trkpt lat="42.92626" lon="0.30699">
        <ele>1343.8000488281</ele>
        <time>2020-05-20T07:06:30Z</time>
      </trkpt>
      <trkpt lat="42.92625" lon="0.307">
        <ele>1344.1999511719</ele>
        <time>2020-05-20T07:06:31Z</time>
      </trkpt>
      <trkpt lat="42.92624" lon="0.30701">
        <ele>1344.5999755859</ele>
        <time>2020-05-20T07:06:32Z</time>
      </trkpt>
      <trkpt lat="42.92623" lon="0.30701">
        <ele>1345</ele>
        <time>2020-05-20T07:06:33Z</time>
      </trkpt>
      <trkpt lat="42.92622" lon="0.30702">
        <ele>1345.5999755859</ele>
        <time>2020-05-20T07:06:34Z</time>
      </trkpt>
      <trkpt lat="42.92617" lon="0.30707">
        <ele>1345.5999755859</ele>
        <time>2020-05-20T07:06:38Z</time>
      </trkpt>
      <trkpt lat="42.92612" lon="0.30709">
        <ele>1346</ele>
        <time>2020-05-20T07:06:42Z</time>
      </trkpt>
      <trkpt lat="42.92611" lon="0.30709">
        <ele>1346.4000244141</ele>
        <time>2020-05-20T07:06:43Z</time>
      </trkpt>
      <trkpt lat="42.92609" lon="0.30711">
        <ele>1346.8000488281</ele>
        <time>2020-05-20T07:06:44Z</time>
      </trkpt>
      <trkpt lat="42.92605" lon="0.30713">
        <ele>1347.1999511719</ele>
        <time>2020-05-20T07:06:45Z</time>
      </trkpt>
      <trkpt lat="42.92603" lon="0.30715">
        <ele>1347.5999755859</ele>
        <time>2020-05-20T07:06:46Z</time>
      </trkpt>
      <trkpt lat="42.92591" lon="0.30721">
        <ele>1347.5999755859</ele>
        <time>2020-05-20T07:06:52Z</time>
      </trkpt>
      <trkpt lat="42.92586" lon="0.30723">
        <ele>1348</ele>
        <time>2020-05-20T07:06:56Z</time>
      </trkpt>
      <trkpt lat="42.92585" lon="0.30724">
        <ele>1348.4000244141</ele>
        <time>2020-05-20T07:06:57Z</time>
      </trkpt>
      <trkpt lat="42.92584" lon="0.30725">
        <ele>1348.8000488281</ele>
        <time>2020-05-20T07:06:58Z</time>
      </trkpt>
      <trkpt lat="42.92583" lon="0.30726">
        <ele>1349.8000488281</ele>
        <time>2020-05-20T07:06:59Z</time>
      </trkpt>
      <trkpt lat="42.92581" lon="0.30726">
        <ele>1349.8000488281</ele>
        <time>2020-05-20T07:07:00Z</time>
      </trkpt>
      <trkpt lat="42.92571" lon="0.30729">
        <ele>1349.8000488281</ele>
        <time>2020-05-20T07:07:08Z</time>
      </trkpt>
      <trkpt lat="42.92568" lon="0.30731">
        <ele>1350.1999511719</ele>
        <time>2020-05-20T07:07:11Z</time>
      </trkpt>
      <trkpt lat="42.92567" lon="0.30732">
        <ele>1350.5999755859</ele>
        <time>2020-05-20T07:07:12Z</time>
      </trkpt>
      <trkpt lat="42.92567" lon="0.30732">
        <ele>1351</ele>
        <time>2020-05-20T07:07:13Z</time>
      </trkpt>
      <trkpt lat="42.92567" lon="0.30732">
        <ele>1351.4000244141</ele>
        <time>2020-05-20T07:07:14Z</time>
      </trkpt>
      <trkpt lat="42.92566" lon="0.30733">
        <ele>1351.8000488281</ele>
        <time>2020-05-20T07:07:15Z</time>
      </trkpt>
      <trkpt lat="42.92562" lon="0.30736">
        <ele>1351.8000488281</ele>
        <time>2020-05-20T07:07:18Z</time>
      </trkpt>
      <trkpt lat="42.92558" lon="0.30739">
        <ele>1351.8000488281</ele>
        <time>2020-05-20T07:07:22Z</time>
      </trkpt>
      <trkpt lat="42.92556" lon="0.30741">
        <ele>1352.1999511719</ele>
        <time>2020-05-20T07:07:24Z</time>
      </trkpt>
      <trkpt lat="42.92554" lon="0.30742">
        <ele>1352.5999755859</ele>
        <time>2020-05-20T07:07:25Z</time>
      </trkpt>
      <trkpt lat="42.92552" lon="0.30743">
        <ele>1353</ele>
        <time>2020-05-20T07:07:26Z</time>
      </trkpt>
      <trkpt lat="42.92551" lon="0.30745">
        <ele>1353.4000244141</ele>
        <time>2020-05-20T07:07:27Z</time>
      </trkpt>
      <trkpt lat="42.9255" lon="0.30745">
        <ele>1353.8000488281</ele>
        <time>2020-05-20T07:07:28Z</time>
      </trkpt>
      <trkpt lat="42.92548" lon="0.30745">
        <ele>1353.8000488281</ele>
        <time>2020-05-20T07:07:30Z</time>
      </trkpt>
      <trkpt lat="42.9254" lon="0.30747">
        <ele>1353.8000488281</ele>
        <time>2020-05-20T07:07:37Z</time>
      </trkpt>
      <trkpt lat="42.92538" lon="0.30749">
        <ele>1354.4000244141</ele>
        <time>2020-05-20T07:07:39Z</time>
      </trkpt>
      <trkpt lat="42.92537" lon="0.3075">
        <ele>1354.8000488281</ele>
        <time>2020-05-20T07:07:40Z</time>
      </trkpt>
      <trkpt lat="42.92537" lon="0.30751">
        <ele>1355.1999511719</ele>
        <time>2020-05-20T07:07:41Z</time>
      </trkpt>
      <trkpt lat="42.92535" lon="0.30752">
        <ele>1355.5999755859</ele>
        <time>2020-05-20T07:07:42Z</time>
      </trkpt>
      <trkpt lat="42.92535" lon="0.30752">
        <ele>1356</ele>
        <time>2020-05-20T07:07:43Z</time>
      </trkpt>
      <trkpt lat="42.92533" lon="0.30752">
        <ele>1356</ele>
        <time>2020-05-20T07:07:44Z</time>
      </trkpt>
      <trkpt lat="42.92527" lon="0.30755">
        <ele>1356</ele>
        <time>2020-05-20T07:07:50Z</time>
      </trkpt>
      <trkpt lat="42.92523" lon="0.30756">
        <ele>1356.4000244141</ele>
        <time>2020-05-20T07:07:54Z</time>
      </trkpt>
      <trkpt lat="42.92522" lon="0.30756">
        <ele>1356.8000488281</ele>
        <time>2020-05-20T07:07:55Z</time>
      </trkpt>
      <trkpt lat="42.9252" lon="0.30757">
        <ele>1357.1999511719</ele>
        <time>2020-05-20T07:07:56Z</time>
      </trkpt>
      <trkpt lat="42.92518" lon="0.30758">
        <ele>1357.8000488281</ele>
        <time>2020-05-20T07:07:57Z</time>
      </trkpt>
      <trkpt lat="42.92517" lon="0.30759">
        <ele>1358.1999511719</ele>
        <time>2020-05-20T07:07:58Z</time>
      </trkpt>
      <trkpt lat="42.92515" lon="0.30762">
        <ele>1358.1999511719</ele>
        <time>2020-05-20T07:08:03Z</time>
      </trkpt>
      <trkpt lat="42.92515" lon="0.30765">
        <ele>1358.5999755859</ele>
        <time>2020-05-20T07:08:07Z</time>
      </trkpt>
      <trkpt lat="42.92514" lon="0.30766">
        <ele>1359</ele>
        <time>2020-05-20T07:08:08Z</time>
      </trkpt>
      <trkpt lat="42.92514" lon="0.30766">
        <ele>1359.4000244141</ele>
        <time>2020-05-20T07:08:09Z</time>
      </trkpt>
      <trkpt lat="42.92513" lon="0.30768">
        <ele>1359.8000488281</ele>
        <time>2020-05-20T07:08:10Z</time>
      </trkpt>
      <trkpt lat="42.92512" lon="0.3077">
        <ele>1360.4000244141</ele>
        <time>2020-05-20T07:08:11Z</time>
      </trkpt>
      <trkpt lat="42.92511" lon="0.30777">
        <ele>1360.4000244141</ele>
        <time>2020-05-20T07:08:15Z</time>
      </trkpt>
      <trkpt lat="42.9251" lon="0.30793">
        <ele>1360.4000244141</ele>
        <time>2020-05-20T07:08:22Z</time>
      </trkpt>
      <trkpt lat="42.92511" lon="0.30794">
        <ele>1360.8000488281</ele>
        <time>2020-05-20T07:08:23Z</time>
      </trkpt>
      <trkpt lat="42.92512" lon="0.30794">
        <ele>1361.1999511719</ele>
        <time>2020-05-20T07:08:24Z</time>
      </trkpt>
      <trkpt lat="42.92513" lon="0.30795">
        <ele>1361.5999755859</ele>
        <time>2020-05-20T07:08:25Z</time>
      </trkpt>
      <trkpt lat="42.92514" lon="0.30795">
        <ele>1362</ele>
        <time>2020-05-20T07:08:26Z</time>
      </trkpt>
      <trkpt lat="42.92514" lon="0.30796">
        <ele>1362.4000244141</ele>
        <time>2020-05-20T07:08:27Z</time>
      </trkpt>
      <trkpt lat="42.92514" lon="0.30815">
        <ele>1362.4000244141</ele>
        <time>2020-05-20T07:08:35Z</time>
      </trkpt>
      <trkpt lat="42.92516" lon="0.30818">
        <ele>1363</ele>
        <time>2020-05-20T07:08:37Z</time>
      </trkpt>
      <trkpt lat="42.92516" lon="0.3082">
        <ele>1363.4000244141</ele>
        <time>2020-05-20T07:08:38Z</time>
      </trkpt>
      <trkpt lat="42.92517" lon="0.30822">
        <ele>1364.1999511719</ele>
        <time>2020-05-20T07:08:39Z</time>
      </trkpt>
      <trkpt lat="42.92518" lon="0.30824">
        <ele>1364.5999755859</ele>
        <time>2020-05-20T07:08:40Z</time>
      </trkpt>
      <trkpt lat="42.92521" lon="0.30828">
        <ele>1364.5999755859</ele>
        <time>2020-05-20T07:08:43Z</time>
      </trkpt>
      <trkpt lat="42.92525" lon="0.30835">
        <ele>1365</ele>
        <time>2020-05-20T07:08:48Z</time>
      </trkpt>
      <trkpt lat="42.92526" lon="0.30836">
        <ele>1365.4000244141</ele>
        <time>2020-05-20T07:08:49Z</time>
      </trkpt>
      <trkpt lat="42.92526" lon="0.30837">
        <ele>1365.8000488281</ele>
        <time>2020-05-20T07:08:50Z</time>
      </trkpt>
      <trkpt lat="42.92527" lon="0.30839">
        <ele>1366.1999511719</ele>
        <time>2020-05-20T07:08:51Z</time>
      </trkpt>
      <trkpt lat="42.92528" lon="0.3084">
        <ele>1366.5999755859</ele>
        <time>2020-05-20T07:08:52Z</time>
      </trkpt>
      <trkpt lat="42.9253" lon="0.30846">
        <ele>1366.5999755859</ele>
        <time>2020-05-20T07:08:56Z</time>
      </trkpt>
      <trkpt lat="42.9253" lon="0.3085">
        <ele>1366.5999755859</ele>
        <time>2020-05-20T07:08:58Z</time>
      </trkpt>
      <trkpt lat="42.9253" lon="0.30856">
        <ele>1366.5999755859</ele>
        <time>2020-05-20T07:09:01Z</time>
      </trkpt>
      <trkpt lat="42.9253" lon="0.30862">
        <ele>1367.4000244141</ele>
        <time>2020-05-20T07:09:04Z</time>
      </trkpt>
      <trkpt lat="42.9253" lon="0.30865">
        <ele>1367.8000488281</ele>
        <time>2020-05-20T07:09:05Z</time>
      </trkpt>
      <trkpt lat="42.9253" lon="0.30867">
        <ele>1368.1999511719</ele>
        <time>2020-05-20T07:09:06Z</time>
      </trkpt>
      <trkpt lat="42.92529" lon="0.30869">
        <ele>1368.5999755859</ele>
        <time>2020-05-20T07:09:07Z</time>
      </trkpt>
      <trkpt lat="42.92531" lon="0.30877">
        <ele>1368.5999755859</ele>
        <time>2020-05-20T07:09:11Z</time>
      </trkpt>
      <trkpt lat="42.92533" lon="0.30887">
        <ele>1369.1999511719</ele>
        <time>2020-05-20T07:09:16Z</time>
      </trkpt>
      <trkpt lat="42.92533" lon="0.30888">
        <ele>1369.5999755859</ele>
        <time>2020-05-20T07:09:17Z</time>
      </trkpt>
      <trkpt lat="42.92533" lon="0.3089">
        <ele>1370</ele>
        <time>2020-05-20T07:09:18Z</time>
      </trkpt>
      <trkpt lat="42.92533" lon="0.30891">
        <ele>1370.4000244141</ele>
        <time>2020-05-20T07:09:19Z</time>
      </trkpt>
      <trkpt lat="42.92534" lon="0.30893">
        <ele>1370.8000488281</ele>
        <time>2020-05-20T07:09:20Z</time>
      </trkpt>
      <trkpt lat="42.92534" lon="0.30896">
        <ele>1370.8000488281</ele>
        <time>2020-05-20T07:09:23Z</time>
      </trkpt>
      <trkpt lat="42.92534" lon="0.30898">
        <ele>1370.8000488281</ele>
        <time>2020-05-20T07:09:24Z</time>
      </trkpt>
      <trkpt lat="42.92536" lon="0.30909">
        <ele>1371.1999511719</ele>
        <time>2020-05-20T07:09:30Z</time>
      </trkpt>
      <trkpt lat="42.92537" lon="0.30911">
        <ele>1371.5999755859</ele>
        <time>2020-05-20T07:09:31Z</time>
      </trkpt>
      <trkpt lat="42.92537" lon="0.30912">
        <ele>1372</ele>
        <time>2020-05-20T07:09:32Z</time>
      </trkpt>
      <trkpt lat="42.92538" lon="0.30914">
        <ele>1372.4000244141</ele>
        <time>2020-05-20T07:09:33Z</time>
      </trkpt>
      <trkpt lat="42.92538" lon="0.30916">
        <ele>1372.8000488281</ele>
        <time>2020-05-20T07:09:34Z</time>
      </trkpt>
      <trkpt lat="42.92539" lon="0.30921">
        <ele>1372.8000488281</ele>
        <time>2020-05-20T07:09:37Z</time>
      </trkpt>
      <trkpt lat="42.92541" lon="0.30929">
        <ele>1372.8000488281</ele>
        <time>2020-05-20T07:09:42Z</time>
      </trkpt>
      <trkpt lat="42.92541" lon="0.30932">
        <ele>1373.4000244141</ele>
        <time>2020-05-20T07:09:43Z</time>
      </trkpt>
      <trkpt lat="42.92542" lon="0.30933">
        <ele>1373.8000488281</ele>
        <time>2020-05-20T07:09:44Z</time>
      </trkpt>
      <trkpt lat="42.92542" lon="0.30935">
        <ele>1374.1999511719</ele>
        <time>2020-05-20T07:09:45Z</time>
      </trkpt>
      <trkpt lat="42.92543" lon="0.30937">
        <ele>1374.5999755859</ele>
        <time>2020-05-20T07:09:46Z</time>
      </trkpt>
      <trkpt lat="42.92544" lon="0.30938">
        <ele>1375</ele>
        <time>2020-05-20T07:09:47Z</time>
      </trkpt>
      <trkpt lat="42.92546" lon="0.30943">
        <ele>1375</ele>
        <time>2020-05-20T07:09:50Z</time>
      </trkpt>
      <trkpt lat="42.92548" lon="0.30947">
        <ele>1375.4000244141</ele>
        <time>2020-05-20T07:09:53Z</time>
      </trkpt>
      <trkpt lat="42.92549" lon="0.30948">
        <ele>1375.8000488281</ele>
        <time>2020-05-20T07:09:54Z</time>
      </trkpt>
      <trkpt lat="42.9255" lon="0.30948">
        <ele>1376.1999511719</ele>
        <time>2020-05-20T07:09:55Z</time>
      </trkpt>
      <trkpt lat="42.92551" lon="0.30949">
        <ele>1376.5999755859</ele>
        <time>2020-05-20T07:09:56Z</time>
      </trkpt>
      <trkpt lat="42.92552" lon="0.30951">
        <ele>1377</ele>
        <time>2020-05-20T07:09:57Z</time>
      </trkpt>
      <trkpt lat="42.92557" lon="0.30959">
        <ele>1377</ele>
        <time>2020-05-20T07:10:03Z</time>
      </trkpt>
      <trkpt lat="42.92561" lon="0.30964">
        <ele>1377.4000244141</ele>
        <time>2020-05-20T07:10:07Z</time>
      </trkpt>
      <trkpt lat="42.92561" lon="0.30966">
        <ele>1378</ele>
        <time>2020-05-20T07:10:08Z</time>
      </trkpt>
      <trkpt lat="42.92562" lon="0.30967">
        <ele>1378.4000244141</ele>
        <time>2020-05-20T07:10:09Z</time>
      </trkpt>
      <trkpt lat="42.92562" lon="0.30969">
        <ele>1378.8000488281</ele>
        <time>2020-05-20T07:10:10Z</time>
      </trkpt>
      <trkpt lat="42.92562" lon="0.30972">
        <ele>1379.1999511719</ele>
        <time>2020-05-20T07:10:11Z</time>
      </trkpt>
      <trkpt lat="42.92562" lon="0.30973">
        <ele>1379.1999511719</ele>
        <time>2020-05-20T07:10:12Z</time>
      </trkpt>
      <trkpt lat="42.92565" lon="0.3098">
        <ele>1379.1999511719</ele>
        <time>2020-05-20T07:10:16Z</time>
      </trkpt>
      <trkpt lat="42.92566" lon="0.30982">
        <ele>1379.5999755859</ele>
        <time>2020-05-20T07:10:18Z</time>
      </trkpt>
      <trkpt lat="42.92566" lon="0.30983">
        <ele>1380</ele>
        <time>2020-05-20T07:10:19Z</time>
      </trkpt>
      <trkpt lat="42.92567" lon="0.30984">
        <ele>1380.4000244141</ele>
        <time>2020-05-20T07:10:20Z</time>
      </trkpt>
      <trkpt lat="42.92567" lon="0.30984">
        <ele>1380.8000488281</ele>
        <time>2020-05-20T07:10:21Z</time>
      </trkpt>
      <trkpt lat="42.92567" lon="0.30984">
        <ele>1381.1999511719</ele>
        <time>2020-05-20T07:10:22Z</time>
      </trkpt>
      <trkpt lat="42.92567" lon="0.30984">
        <ele>1381.1999511719</ele>
        <time>2020-05-20T07:10:24Z</time>
      </trkpt>
      <trkpt lat="42.92566" lon="0.3098">
        <ele>1381.1999511719</ele>
        <time>2020-05-20T07:10:31Z</time>
      </trkpt>
      <trkpt lat="42.92566" lon="0.30978">
        <ele>1381.1999511719</ele>
        <time>2020-05-20T07:10:36Z</time>
      </trkpt>
      <trkpt lat="42.92566" lon="0.30978">
        <ele>1381.1999511719</ele>
        <time>2020-05-20T07:10:51Z</time>
      </trkpt>
      <trkpt lat="42.92566" lon="0.30978">
        <ele>1381.1999511719</ele>
        <time>2020-05-20T07:11:04Z</time>
      </trkpt>
      <trkpt lat="42.92566" lon="0.30978">
        <ele>1381.1999511719</ele>
        <time>2020-05-20T07:11:19Z</time>
      </trkpt>
      <trkpt lat="42.92566" lon="0.30978">
        <ele>1381.1999511719</ele>
        <time>2020-05-20T07:11:36Z</time>
      </trkpt>
      <trkpt lat="42.92566" lon="0.30978">
        <ele>1381.1999511719</ele>
        <time>2020-05-20T07:11:50Z</time>
      </trkpt>
      <trkpt lat="42.92566" lon="0.30978">
        <ele>1381.1999511719</ele>
        <time>2020-05-20T07:12:00Z</time>
      </trkpt>
      <trkpt lat="42.92567" lon="0.30981">
        <ele>1381.1999511719</ele>
        <time>2020-05-20T07:12:08Z</time>
      </trkpt>
      <trkpt lat="42.9257" lon="0.30986">
        <ele>1381.1999511719</ele>
        <time>2020-05-20T07:12:11Z</time>
      </trkpt>
      <trkpt lat="42.92572" lon="0.30987">
        <ele>1381.5999755859</ele>
        <time>2020-05-20T07:12:13Z</time>
      </trkpt>
      <trkpt lat="42.92573" lon="0.30987">
        <ele>1382</ele>
        <time>2020-05-20T07:12:14Z</time>
      </trkpt>
      <trkpt lat="42.92574" lon="0.30987">
        <ele>1382.5999755859</ele>
        <time>2020-05-20T07:12:15Z</time>
      </trkpt>
      <trkpt lat="42.92575" lon="0.30988">
        <ele>1383</ele>
        <time>2020-05-20T07:12:16Z</time>
      </trkpt>
      <trkpt lat="42.92575" lon="0.30989">
        <ele>1383.4000244141</ele>
        <time>2020-05-20T07:12:17Z</time>
      </trkpt>
      <trkpt lat="42.92581" lon="0.30992">
        <ele>1383.4000244141</ele>
        <time>2020-05-20T07:12:22Z</time>
      </trkpt>
      <trkpt lat="42.92589" lon="0.30999">
        <ele>1383.8000488281</ele>
        <time>2020-05-20T07:12:28Z</time>
      </trkpt>
      <trkpt lat="42.9259" lon="0.31">
        <ele>1384.1999511719</ele>
        <time>2020-05-20T07:12:29Z</time>
      </trkpt>
      <trkpt lat="42.92592" lon="0.31002">
        <ele>1384.5999755859</ele>
        <time>2020-05-20T07:12:30Z</time>
      </trkpt>
      <trkpt lat="42.92593" lon="0.31003">
        <ele>1385.1999511719</ele>
        <time>2020-05-20T07:12:31Z</time>
      </trkpt>
      <trkpt lat="42.92594" lon="0.31004">
        <ele>1385.5999755859</ele>
        <time>2020-05-20T07:12:32Z</time>
      </trkpt>
      <trkpt lat="42.926" lon="0.31012">
        <ele>1385.5999755859</ele>
        <time>2020-05-20T07:12:38Z</time>
      </trkpt>
      <trkpt lat="42.92608" lon="0.31019">
        <ele>1385.5999755859</ele>
        <time>2020-05-20T07:12:44Z</time>
      </trkpt>
      <trkpt lat="42.9261" lon="0.3102">
        <ele>1386</ele>
        <time>2020-05-20T07:12:45Z</time>
      </trkpt>
      <trkpt lat="42.92611" lon="0.31022">
        <ele>1386.4000244141</ele>
        <time>2020-05-20T07:12:46Z</time>
      </trkpt>
      <trkpt lat="42.92612" lon="0.31024">
        <ele>1386.8000488281</ele>
        <time>2020-05-20T07:12:47Z</time>
      </trkpt>
      <trkpt lat="42.92614" lon="0.31026">
        <ele>1387.1999511719</ele>
        <time>2020-05-20T07:12:48Z</time>
      </trkpt>
      <trkpt lat="42.92615" lon="0.31028">
        <ele>1387.8000488281</ele>
        <time>2020-05-20T07:12:49Z</time>
      </trkpt>
      <trkpt lat="42.92618" lon="0.31031">
        <ele>1387.8000488281</ele>
        <time>2020-05-20T07:12:51Z</time>
      </trkpt>
      <trkpt lat="42.92628" lon="0.31039">
        <ele>1387.8000488281</ele>
        <time>2020-05-20T07:12:57Z</time>
      </trkpt>
      <trkpt lat="42.92638" lon="0.31049">
        <ele>1387.8000488281</ele>
        <time>2020-05-20T07:13:04Z</time>
      </trkpt>
      <trkpt lat="42.92647" lon="0.31061">
        <ele>1388.1999511719</ele>
        <time>2020-05-20T07:13:12Z</time>
      </trkpt>
      <trkpt lat="42.92647" lon="0.31063">
        <ele>1388.5999755859</ele>
        <time>2020-05-20T07:13:13Z</time>
      </trkpt>
      <trkpt lat="42.92649" lon="0.31064">
        <ele>1389</ele>
        <time>2020-05-20T07:13:14Z</time>
      </trkpt>
      <trkpt lat="42.9265" lon="0.31066">
        <ele>1389.4000244141</ele>
        <time>2020-05-20T07:13:15Z</time>
      </trkpt>
      <trkpt lat="42.92651" lon="0.31067">
        <ele>1390</ele>
        <time>2020-05-20T07:13:16Z</time>
      </trkpt>
      <trkpt lat="42.92653" lon="0.3107">
        <ele>1390</ele>
        <time>2020-05-20T07:13:18Z</time>
      </trkpt>
      <trkpt lat="42.92655" lon="0.31072">
        <ele>1390</ele>
        <time>2020-05-20T07:13:20Z</time>
      </trkpt>
      <trkpt lat="42.92659" lon="0.31078">
        <ele>1390</ele>
        <time>2020-05-20T07:13:24Z</time>
      </trkpt>
      <trkpt lat="42.92664" lon="0.31081">
        <ele>1390.4000244141</ele>
        <time>2020-05-20T07:13:28Z</time>
      </trkpt>
      <trkpt lat="42.92665" lon="0.31082">
        <ele>1390.8000488281</ele>
        <time>2020-05-20T07:13:29Z</time>
      </trkpt>
      <trkpt lat="42.92666" lon="0.31083">
        <ele>1391.1999511719</ele>
        <time>2020-05-20T07:13:30Z</time>
      </trkpt>
      <trkpt lat="42.92668" lon="0.31084">
        <ele>1391.5999755859</ele>
        <time>2020-05-20T07:13:31Z</time>
      </trkpt>
      <trkpt lat="42.9267" lon="0.31085">
        <ele>1392</ele>
        <time>2020-05-20T07:13:32Z</time>
      </trkpt>
      <trkpt lat="42.92673" lon="0.31089">
        <ele>1392</ele>
        <time>2020-05-20T07:13:35Z</time>
      </trkpt>
      <trkpt lat="42.92687" lon="0.31096">
        <ele>1392</ele>
        <time>2020-05-20T07:13:43Z</time>
      </trkpt>
      <trkpt lat="42.92692" lon="0.31099">
        <ele>1392.4000244141</ele>
        <time>2020-05-20T07:13:46Z</time>
      </trkpt>
      <trkpt lat="42.92694" lon="0.311">
        <ele>1392.8000488281</ele>
        <time>2020-05-20T07:13:47Z</time>
      </trkpt>
      <trkpt lat="42.92696" lon="0.31101">
        <ele>1393.1999511719</ele>
        <time>2020-05-20T07:13:48Z</time>
      </trkpt>
      <trkpt lat="42.92697" lon="0.31102">
        <ele>1393.5999755859</ele>
        <time>2020-05-20T07:13:49Z</time>
      </trkpt>
      <trkpt lat="42.92699" lon="0.31102">
        <ele>1394</ele>
        <time>2020-05-20T07:13:50Z</time>
      </trkpt>
      <trkpt lat="42.92709" lon="0.3111">
        <ele>1394</ele>
        <time>2020-05-20T07:13:57Z</time>
      </trkpt>
      <trkpt lat="42.92716" lon="0.31116">
        <ele>1394.4000244141</ele>
        <time>2020-05-20T07:14:02Z</time>
      </trkpt>
      <trkpt lat="42.92717" lon="0.31118">
        <ele>1394.8000488281</ele>
        <time>2020-05-20T07:14:03Z</time>
      </trkpt>
      <trkpt lat="42.92718" lon="0.31119">
        <ele>1395.1999511719</ele>
        <time>2020-05-20T07:14:04Z</time>
      </trkpt>
      <trkpt lat="42.92719" lon="0.31121">
        <ele>1395.5999755859</ele>
        <time>2020-05-20T07:14:05Z</time>
      </trkpt>
      <trkpt lat="42.9272" lon="0.31122">
        <ele>1396</ele>
        <time>2020-05-20T07:14:06Z</time>
      </trkpt>
      <trkpt lat="42.92725" lon="0.31135">
        <ele>1396</ele>
        <time>2020-05-20T07:14:13Z</time>
      </trkpt>
      <trkpt lat="42.92727" lon="0.31139">
        <ele>1396.4000244141</ele>
        <time>2020-05-20T07:14:15Z</time>
      </trkpt>
      <trkpt lat="42.92727" lon="0.3114">
        <ele>1396.8000488281</ele>
        <time>2020-05-20T07:14:16Z</time>
      </trkpt>
      <trkpt lat="42.92728" lon="0.31142">
        <ele>1397.1999511719</ele>
        <time>2020-05-20T07:14:17Z</time>
      </trkpt>
      <trkpt lat="42.92729" lon="0.31143">
        <ele>1397.5999755859</ele>
        <time>2020-05-20T07:14:18Z</time>
      </trkpt>
      <trkpt lat="42.9273" lon="0.31145">
        <ele>1398</ele>
        <time>2020-05-20T07:14:19Z</time>
      </trkpt>
      <trkpt lat="42.92733" lon="0.31156">
        <ele>1398</ele>
        <time>2020-05-20T07:14:25Z</time>
      </trkpt>
      <trkpt lat="42.92734" lon="0.3116">
        <ele>1398</ele>
        <time>2020-05-20T07:14:27Z</time>
      </trkpt>
      <trkpt lat="42.92733" lon="0.31162">
        <ele>1398</ele>
        <time>2020-05-20T07:14:28Z</time>
      </trkpt>
      <trkpt lat="42.92733" lon="0.31164">
        <ele>1398.5999755859</ele>
        <time>2020-05-20T07:14:29Z</time>
      </trkpt>
      <trkpt lat="42.92732" lon="0.31166">
        <ele>1399</ele>
        <time>2020-05-20T07:14:30Z</time>
      </trkpt>
      <trkpt lat="42.92731" lon="0.31168">
        <ele>1399.4000244141</ele>
        <time>2020-05-20T07:14:31Z</time>
      </trkpt>
      <trkpt lat="42.92731" lon="0.3117">
        <ele>1399.8000488281</ele>
        <time>2020-05-20T07:14:32Z</time>
      </trkpt>
      <trkpt lat="42.92731" lon="0.31172">
        <ele>1400.1999511719</ele>
        <time>2020-05-20T07:14:33Z</time>
      </trkpt>
      <trkpt lat="42.92731" lon="0.31176">
        <ele>1400.1999511719</ele>
        <time>2020-05-20T07:14:35Z</time>
      </trkpt>
      <trkpt lat="42.92732" lon="0.3118">
        <ele>1400.1999511719</ele>
        <time>2020-05-20T07:14:37Z</time>
      </trkpt>
      <trkpt lat="42.92732" lon="0.31187">
        <ele>1400.1999511719</ele>
        <time>2020-05-20T07:14:40Z</time>
      </trkpt>
      <trkpt lat="42.92732" lon="0.31191">
        <ele>1400.5999755859</ele>
        <time>2020-05-20T07:14:42Z</time>
      </trkpt>
      <trkpt lat="42.92732" lon="0.31193">
        <ele>1401</ele>
        <time>2020-05-20T07:14:43Z</time>
      </trkpt>
      <trkpt lat="42.92732" lon="0.31195">
        <ele>1401.4000244141</ele>
        <time>2020-05-20T07:14:44Z</time>
      </trkpt>
      <trkpt lat="42.92732" lon="0.31197">
        <ele>1401.8000488281</ele>
        <time>2020-05-20T07:14:45Z</time>
      </trkpt>
      <trkpt lat="42.92733" lon="0.31199">
        <ele>1402.1999511719</ele>
        <time>2020-05-20T07:14:46Z</time>
      </trkpt>
      <trkpt lat="42.92734" lon="0.3121">
        <ele>1402.1999511719</ele>
        <time>2020-05-20T07:14:51Z</time>
      </trkpt>
      <trkpt lat="42.92737" lon="0.31221">
        <ele>1402.5999755859</ele>
        <time>2020-05-20T07:14:56Z</time>
      </trkpt>
      <trkpt lat="42.92736" lon="0.31223">
        <ele>1403</ele>
        <time>2020-05-20T07:14:57Z</time>
      </trkpt>
      <trkpt lat="42.92736" lon="0.31226">
        <ele>1403.5999755859</ele>
        <time>2020-05-20T07:14:58Z</time>
      </trkpt>
      <trkpt lat="42.92736" lon="0.31229">
        <ele>1404</ele>
        <time>2020-05-20T07:14:59Z</time>
      </trkpt>
      <trkpt lat="42.92736" lon="0.31231">
        <ele>1404.4000244141</ele>
        <time>2020-05-20T07:15:00Z</time>
      </trkpt>
      <trkpt lat="42.92736" lon="0.31238">
        <ele>1404.4000244141</ele>
        <time>2020-05-20T07:15:03Z</time>
      </trkpt>
      <trkpt lat="42.92737" lon="0.31253">
        <ele>1404.4000244141</ele>
        <time>2020-05-20T07:15:10Z</time>
      </trkpt>
      <trkpt lat="42.92741" lon="0.31258">
        <ele>1404.8000488281</ele>
        <time>2020-05-20T07:15:13Z</time>
      </trkpt>
      <trkpt lat="42.92742" lon="0.31259">
        <ele>1405.5999755859</ele>
        <time>2020-05-20T07:15:14Z</time>
      </trkpt>
      <trkpt lat="42.92743" lon="0.31261">
        <ele>1406</ele>
        <time>2020-05-20T07:15:15Z</time>
      </trkpt>
      <trkpt lat="42.92743" lon="0.31262">
        <ele>1406.4000244141</ele>
        <time>2020-05-20T07:15:16Z</time>
      </trkpt>
      <trkpt lat="42.92743" lon="0.31265">
        <ele>1406.4000244141</ele>
        <time>2020-05-20T07:15:21Z</time>
      </trkpt>
      <trkpt lat="42.92744" lon="0.31265">
        <ele>1406.4000244141</ele>
        <time>2020-05-20T07:15:27Z</time>
      </trkpt>
      <trkpt lat="42.92744" lon="0.31265">
        <ele>1406.4000244141</ele>
        <time>2020-05-20T07:15:39Z</time>
      </trkpt>
      <trkpt lat="42.92744" lon="0.31265">
        <ele>1406.4000244141</ele>
        <time>2020-05-20T07:15:54Z</time>
      </trkpt>
      <trkpt lat="42.92744" lon="0.31265">
        <ele>1406.4000244141</ele>
        <time>2020-05-20T07:16:09Z</time>
      </trkpt>
      <trkpt lat="42.92744" lon="0.31265">
        <ele>1406.4000244141</ele>
        <time>2020-05-20T07:16:25Z</time>
      </trkpt>
      <trkpt lat="42.92744" lon="0.31265">
        <ele>1406.4000244141</ele>
        <time>2020-05-20T07:16:43Z</time>
      </trkpt>
      <trkpt lat="42.92744" lon="0.31265">
        <ele>1406.4000244141</ele>
        <time>2020-05-20T07:16:59Z</time>
      </trkpt>
      <trkpt lat="42.92744" lon="0.31265">
        <ele>1406.4000244141</ele>
        <time>2020-05-20T07:17:17Z</time>
      </trkpt>
      <trkpt lat="42.92744" lon="0.31265">
        <ele>1406.4000244141</ele>
        <time>2020-05-20T07:17:33Z</time>
      </trkpt>
      <trkpt lat="42.92744" lon="0.31265">
        <ele>1406.4000244141</ele>
        <time>2020-05-20T07:17:49Z</time>
      </trkpt>
      <trkpt lat="42.92744" lon="0.31265">
        <ele>1406.4000244141</ele>
        <time>2020-05-20T07:18:03Z</time>
      </trkpt>
      <trkpt lat="42.92744" lon="0.31265">
        <ele>1406.4000244141</ele>
        <time>2020-05-20T07:18:09Z</time>
      </trkpt>
      <trkpt lat="42.92745" lon="0.31265">
        <ele>1406.4000244141</ele>
        <time>2020-05-20T07:18:11Z</time>
      </trkpt>
      <trkpt lat="42.92749" lon="0.31268">
        <ele>1406.4000244141</ele>
        <time>2020-05-20T07:18:14Z</time>
      </trkpt>
      <trkpt lat="42.92757" lon="0.31279">
        <ele>1406.4000244141</ele>
        <time>2020-05-20T07:18:20Z</time>
      </trkpt>
      <trkpt lat="42.92768" lon="0.31295">
        <ele>1406.4000244141</ele>
        <time>2020-05-20T07:18:27Z</time>
      </trkpt>
      <trkpt lat="42.92779" lon="0.3131">
        <ele>1406.4000244141</ele>
        <time>2020-05-20T07:18:33Z</time>
      </trkpt>
      <trkpt lat="42.92791" lon="0.31319">
        <ele>1406.4000244141</ele>
        <time>2020-05-20T07:18:38Z</time>
      </trkpt>
      <trkpt lat="42.92803" lon="0.31325">
        <ele>1406.4000244141</ele>
        <time>2020-05-20T07:18:42Z</time>
      </trkpt>
      <trkpt lat="42.92822" lon="0.31342">
        <ele>1406.4000244141</ele>
        <time>2020-05-20T07:18:49Z</time>
      </trkpt>
      <trkpt lat="42.92835" lon="0.31357">
        <ele>1406.4000244141</ele>
        <time>2020-05-20T07:18:55Z</time>
      </trkpt>
      <trkpt lat="42.92849" lon="0.31373">
        <ele>1406.4000244141</ele>
        <time>2020-05-20T07:19:01Z</time>
      </trkpt>
      <trkpt lat="42.92851" lon="0.31376">
        <ele>1406.8000488281</ele>
        <time>2020-05-20T07:19:02Z</time>
      </trkpt>
      <trkpt lat="42.92854" lon="0.31379">
        <ele>1407.1999511719</ele>
        <time>2020-05-20T07:19:03Z</time>
      </trkpt>
      <trkpt lat="42.92856" lon="0.31382">
        <ele>1407.5999755859</ele>
        <time>2020-05-20T07:19:04Z</time>
      </trkpt>
      <trkpt lat="42.92857" lon="0.31385">
        <ele>1408</ele>
        <time>2020-05-20T07:19:05Z</time>
      </trkpt>
      <trkpt lat="42.9286" lon="0.31388">
        <ele>1408.4000244141</ele>
        <time>2020-05-20T07:19:06Z</time>
      </trkpt>
      <trkpt lat="42.92863" lon="0.3139">
        <ele>1408.4000244141</ele>
        <time>2020-05-20T07:19:07Z</time>
      </trkpt>
      <trkpt lat="42.92882" lon="0.31394">
        <ele>1408.4000244141</ele>
        <time>2020-05-20T07:19:13Z</time>
      </trkpt>
      <trkpt lat="42.92901" lon="0.31394">
        <ele>1408.4000244141</ele>
        <time>2020-05-20T07:19:19Z</time>
      </trkpt>
      <trkpt lat="42.92918" lon="0.31395">
        <ele>1408.4000244141</ele>
        <time>2020-05-20T07:19:24Z</time>
      </trkpt>
      <trkpt lat="42.92936" lon="0.31402">
        <ele>1408.4000244141</ele>
        <time>2020-05-20T07:19:29Z</time>
      </trkpt>
      <trkpt lat="42.92959" lon="0.31412">
        <ele>1408.4000244141</ele>
        <time>2020-05-20T07:19:34Z</time>
      </trkpt>
      <trkpt lat="42.92978" lon="0.31424">
        <ele>1408</ele>
        <time>2020-05-20T07:19:38Z</time>
      </trkpt>
      <trkpt lat="42.92983" lon="0.3143">
        <ele>1407.5999755859</ele>
        <time>2020-05-20T07:19:39Z</time>
      </trkpt>
      <trkpt lat="42.92988" lon="0.31435">
        <ele>1407</ele>
        <time>2020-05-20T07:19:40Z</time>
      </trkpt>
      <trkpt lat="42.92992" lon="0.31441">
        <ele>1406.5999755859</ele>
        <time>2020-05-20T07:19:41Z</time>
      </trkpt>
      <trkpt lat="42.92996" lon="0.31445">
        <ele>1406.1999511719</ele>
        <time>2020-05-20T07:19:42Z</time>
      </trkpt>
      <trkpt lat="42.93" lon="0.31449">
        <ele>1406.1999511719</ele>
        <time>2020-05-20T07:19:43Z</time>
      </trkpt>
      <trkpt lat="42.93004" lon="0.31453">
        <ele>1406.1999511719</ele>
        <time>2020-05-20T07:19:44Z</time>
      </trkpt>
      <trkpt lat="42.9301" lon="0.31456">
        <ele>1405.8000488281</ele>
        <time>2020-05-20T07:19:45Z</time>
      </trkpt>
      <trkpt lat="42.93016" lon="0.31459">
        <ele>1404.8000488281</ele>
        <time>2020-05-20T07:19:46Z</time>
      </trkpt>
      <trkpt lat="42.93021" lon="0.31463">
        <ele>1404.4000244141</ele>
        <time>2020-05-20T07:19:47Z</time>
      </trkpt>
      <trkpt lat="42.93027" lon="0.31467">
        <ele>1404</ele>
        <time>2020-05-20T07:19:48Z</time>
      </trkpt>
      <trkpt lat="42.93033" lon="0.31471">
        <ele>1403.5999755859</ele>
        <time>2020-05-20T07:19:49Z</time>
      </trkpt>
      <trkpt lat="42.93039" lon="0.31477">
        <ele>1403.1999511719</ele>
        <time>2020-05-20T07:19:50Z</time>
      </trkpt>
      <trkpt lat="42.93045" lon="0.31482">
        <ele>1402.8000488281</ele>
        <time>2020-05-20T07:19:51Z</time>
      </trkpt>
      <trkpt lat="42.93051" lon="0.31485">
        <ele>1402.1999511719</ele>
        <time>2020-05-20T07:19:52Z</time>
      </trkpt>
      <trkpt lat="42.93057" lon="0.31486">
        <ele>1401.8000488281</ele>
        <time>2020-05-20T07:19:53Z</time>
      </trkpt>
      <trkpt lat="42.93064" lon="0.31484">
        <ele>1401.1999511719</ele>
        <time>2020-05-20T07:19:54Z</time>
      </trkpt>
      <trkpt lat="42.93071" lon="0.3148">
        <ele>1400.5999755859</ele>
        <time>2020-05-20T07:19:55Z</time>
      </trkpt>
      <trkpt lat="42.93078" lon="0.31474">
        <ele>1400</ele>
        <time>2020-05-20T07:19:56Z</time>
      </trkpt>
      <trkpt lat="42.93083" lon="0.31468">
        <ele>1399.5999755859</ele>
        <time>2020-05-20T07:19:57Z</time>
      </trkpt>
      <trkpt lat="42.93088" lon="0.31461">
        <ele>1399.5999755859</ele>
        <time>2020-05-20T07:19:58Z</time>
      </trkpt>
      <trkpt lat="42.93092" lon="0.31454">
        <ele>1399.5999755859</ele>
        <time>2020-05-20T07:19:59Z</time>
      </trkpt>
      <trkpt lat="42.93096" lon="0.31449">
        <ele>1399.5999755859</ele>
        <time>2020-05-20T07:20:00Z</time>
      </trkpt>
      <trkpt lat="42.93113" lon="0.31427">
        <ele>1399.5999755859</ele>
        <time>2020-05-20T07:20:04Z</time>
      </trkpt>
      <trkpt lat="42.93118" lon="0.31421">
        <ele>1399.5999755859</ele>
        <time>2020-05-20T07:20:05Z</time>
      </trkpt>
      <trkpt lat="42.93122" lon="0.31413">
        <ele>1399.5999755859</ele>
        <time>2020-05-20T07:20:06Z</time>
      </trkpt>
      <trkpt lat="42.93125" lon="0.31405">
        <ele>1399</ele>
        <time>2020-05-20T07:20:07Z</time>
      </trkpt>
      <trkpt lat="42.93127" lon="0.31397">
        <ele>1398.5999755859</ele>
        <time>2020-05-20T07:20:08Z</time>
      </trkpt>
      <trkpt lat="42.93128" lon="0.31389">
        <ele>1398.1999511719</ele>
        <time>2020-05-20T07:20:09Z</time>
      </trkpt>
      <trkpt lat="42.93129" lon="0.31381">
        <ele>1397.4000244141</ele>
        <time>2020-05-20T07:20:10Z</time>
      </trkpt>
      <trkpt lat="42.93135" lon="0.31366">
        <ele>1397</ele>
        <time>2020-05-20T07:20:12Z</time>
      </trkpt>
      <trkpt lat="42.93139" lon="0.3136">
        <ele>1396.4000244141</ele>
        <time>2020-05-20T07:20:13Z</time>
      </trkpt>
      <trkpt lat="42.93144" lon="0.31355">
        <ele>1395.8000488281</ele>
        <time>2020-05-20T07:20:14Z</time>
      </trkpt>
      <trkpt lat="42.93148" lon="0.31351">
        <ele>1395.1999511719</ele>
        <time>2020-05-20T07:20:15Z</time>
      </trkpt>
      <trkpt lat="42.93154" lon="0.31347">
        <ele>1394.5999755859</ele>
        <time>2020-05-20T07:20:16Z</time>
      </trkpt>
      <trkpt lat="42.9316" lon="0.31343">
        <ele>1394</ele>
        <time>2020-05-20T07:20:17Z</time>
      </trkpt>
      <trkpt lat="42.93167" lon="0.31339">
        <ele>1393.1999511719</ele>
        <time>2020-05-20T07:20:18Z</time>
      </trkpt>
      <trkpt lat="42.93173" lon="0.31334">
        <ele>1392.4000244141</ele>
        <time>2020-05-20T07:20:19Z</time>
      </trkpt>
      <trkpt lat="42.9318" lon="0.31328">
        <ele>1391.5999755859</ele>
        <time>2020-05-20T07:20:20Z</time>
      </trkpt>
      <trkpt lat="42.93188" lon="0.31321">
        <ele>1390.8000488281</ele>
        <time>2020-05-20T07:20:21Z</time>
      </trkpt>
      <trkpt lat="42.93197" lon="0.31313">
        <ele>1389.8000488281</ele>
        <time>2020-05-20T07:20:22Z</time>
      </trkpt>
      <trkpt lat="42.93205" lon="0.31306">
        <ele>1389</ele>
        <time>2020-05-20T07:20:23Z</time>
      </trkpt>
      <trkpt lat="42.93213" lon="0.31298">
        <ele>1388.1999511719</ele>
        <time>2020-05-20T07:20:24Z</time>
      </trkpt>
      <trkpt lat="42.9322" lon="0.31291">
        <ele>1387.4000244141</ele>
        <time>2020-05-20T07:20:25Z</time>
      </trkpt>
      <trkpt lat="42.9323" lon="0.31283">
        <ele>1386.4000244141</ele>
        <time>2020-05-20T07:20:26Z</time>
      </trkpt>
      <trkpt lat="42.93238" lon="0.31276">
        <ele>1385.5999755859</ele>
        <time>2020-05-20T07:20:27Z</time>
      </trkpt>
      <trkpt lat="42.93246" lon="0.31271">
        <ele>1384.5999755859</ele>
        <time>2020-05-20T07:20:28Z</time>
      </trkpt>
      <trkpt lat="42.93253" lon="0.31265">
        <ele>1383.8000488281</ele>
        <time>2020-05-20T07:20:29Z</time>
      </trkpt>
      <trkpt lat="42.9326" lon="0.31258">
        <ele>1383.1999511719</ele>
        <time>2020-05-20T07:20:30Z</time>
      </trkpt>
      <trkpt lat="42.93267" lon="0.31252">
        <ele>1382.5999755859</ele>
        <time>2020-05-20T07:20:31Z</time>
      </trkpt>
      <trkpt lat="42.93274" lon="0.31245">
        <ele>1382</ele>
        <time>2020-05-20T07:20:32Z</time>
      </trkpt>
      <trkpt lat="42.93281" lon="0.31237">
        <ele>1381.4000244141</ele>
        <time>2020-05-20T07:20:33Z</time>
      </trkpt>
      <trkpt lat="42.93287" lon="0.31228">
        <ele>1380.8000488281</ele>
        <time>2020-05-20T07:20:34Z</time>
      </trkpt>
      <trkpt lat="42.93292" lon="0.3122">
        <ele>1379.4000244141</ele>
        <time>2020-05-20T07:20:35Z</time>
      </trkpt>
      <trkpt lat="42.93297" lon="0.31212">
        <ele>1378.8000488281</ele>
        <time>2020-05-20T07:20:36Z</time>
      </trkpt>
      <trkpt lat="42.93301" lon="0.31205">
        <ele>1378</ele>
        <time>2020-05-20T07:20:37Z</time>
      </trkpt>
      <trkpt lat="42.93313" lon="0.31183">
        <ele>1378</ele>
        <time>2020-05-20T07:20:40Z</time>
      </trkpt>
      <trkpt lat="42.93319" lon="0.31171">
        <ele>1378</ele>
        <time>2020-05-20T07:20:42Z</time>
      </trkpt>
      <trkpt lat="42.93327" lon="0.31149">
        <ele>1378.5999755859</ele>
        <time>2020-05-20T07:20:46Z</time>
      </trkpt>
      <trkpt lat="42.93328" lon="0.31143">
        <ele>1379</ele>
        <time>2020-05-20T07:20:47Z</time>
      </trkpt>
      <trkpt lat="42.9333" lon="0.31139">
        <ele>1379.4000244141</ele>
        <time>2020-05-20T07:20:48Z</time>
      </trkpt>
      <trkpt lat="42.9333" lon="0.31133">
        <ele>1379.8000488281</ele>
        <time>2020-05-20T07:20:49Z</time>
      </trkpt>
      <trkpt lat="42.93331" lon="0.31128">
        <ele>1380.1999511719</ele>
        <time>2020-05-20T07:20:50Z</time>
      </trkpt>
      <trkpt lat="42.93331" lon="0.31116">
        <ele>1380.1999511719</ele>
        <time>2020-05-20T07:20:53Z</time>
      </trkpt>
      <trkpt lat="42.93332" lon="0.31109">
        <ele>1380.5999755859</ele>
        <time>2020-05-20T07:20:55Z</time>
      </trkpt>
      <trkpt lat="42.93332" lon="0.31105">
        <ele>1381</ele>
        <time>2020-05-20T07:20:56Z</time>
      </trkpt>
      <trkpt lat="42.93333" lon="0.311">
        <ele>1381.4000244141</ele>
        <time>2020-05-20T07:20:57Z</time>
      </trkpt>
      <trkpt lat="42.93334" lon="0.31097">
        <ele>1381.8000488281</ele>
        <time>2020-05-20T07:20:58Z</time>
      </trkpt>
      <trkpt lat="42.93336" lon="0.31094">
        <ele>1382.1999511719</ele>
        <time>2020-05-20T07:20:59Z</time>
      </trkpt>
      <trkpt lat="42.93344" lon="0.31086">
        <ele>1382.8000488281</ele>
        <time>2020-05-20T07:21:03Z</time>
      </trkpt>
      <trkpt lat="42.93346" lon="0.31085">
        <ele>1383.1999511719</ele>
        <time>2020-05-20T07:21:04Z</time>
      </trkpt>
      <trkpt lat="42.93348" lon="0.31084">
        <ele>1383.5999755859</ele>
        <time>2020-05-20T07:21:05Z</time>
      </trkpt>
      <trkpt lat="42.93351" lon="0.31082">
        <ele>1384</ele>
        <time>2020-05-20T07:21:06Z</time>
      </trkpt>
      <trkpt lat="42.93353" lon="0.31081">
        <ele>1384.4000244141</ele>
        <time>2020-05-20T07:21:07Z</time>
      </trkpt>
      <trkpt lat="42.93363" lon="0.31082">
        <ele>1384.4000244141</ele>
        <time>2020-05-20T07:21:11Z</time>
      </trkpt>
      <trkpt lat="42.93373" lon="0.31088">
        <ele>1384.8000488281</ele>
        <time>2020-05-20T07:21:16Z</time>
      </trkpt>
      <trkpt lat="42.93374" lon="0.3109">
        <ele>1385.4000244141</ele>
        <time>2020-05-20T07:21:17Z</time>
      </trkpt>
      <trkpt lat="42.93376" lon="0.31091">
        <ele>1385.8000488281</ele>
        <time>2020-05-20T07:21:18Z</time>
      </trkpt>
      <trkpt lat="42.93378" lon="0.31093">
        <ele>1386.1999511719</ele>
        <time>2020-05-20T07:21:19Z</time>
      </trkpt>
      <trkpt lat="42.93379" lon="0.31095">
        <ele>1386.5999755859</ele>
        <time>2020-05-20T07:21:20Z</time>
      </trkpt>
      <trkpt lat="42.93383" lon="0.31101">
        <ele>1386.5999755859</ele>
        <time>2020-05-20T07:21:23Z</time>
      </trkpt>
      <trkpt lat="42.93387" lon="0.31108">
        <ele>1387</ele>
        <time>2020-05-20T07:21:27Z</time>
      </trkpt>
      <trkpt lat="42.93388" lon="0.3111">
        <ele>1387.4000244141</ele>
        <time>2020-05-20T07:21:28Z</time>
      </trkpt>
      <trkpt lat="42.93389" lon="0.31112">
        <ele>1387.8000488281</ele>
        <time>2020-05-20T07:21:29Z</time>
      </trkpt>
      <trkpt lat="42.9339" lon="0.31114">
        <ele>1388.1999511719</ele>
        <time>2020-05-20T07:21:30Z</time>
      </trkpt>
      <trkpt lat="42.93391" lon="0.31117">
        <ele>1388.5999755859</ele>
        <time>2020-05-20T07:21:31Z</time>
      </trkpt>
      <trkpt lat="42.93395" lon="0.31128">
        <ele>1388.5999755859</ele>
        <time>2020-05-20T07:21:36Z</time>
      </trkpt>
      <trkpt lat="42.93397" lon="0.31134">
        <ele>1389</ele>
        <time>2020-05-20T07:21:39Z</time>
      </trkpt>
      <trkpt lat="42.93398" lon="0.31137">
        <ele>1389.4000244141</ele>
        <time>2020-05-20T07:21:40Z</time>
      </trkpt>
      <trkpt lat="42.93398" lon="0.31139">
        <ele>1389.8000488281</ele>
        <time>2020-05-20T07:21:41Z</time>
      </trkpt>
      <trkpt lat="42.93399" lon="0.31141">
        <ele>1390.4000244141</ele>
        <time>2020-05-20T07:21:42Z</time>
      </trkpt>
      <trkpt lat="42.934" lon="0.31144">
        <ele>1390.8000488281</ele>
        <time>2020-05-20T07:21:43Z</time>
      </trkpt>
      <trkpt lat="42.93401" lon="0.31146">
        <ele>1390.8000488281</ele>
        <time>2020-05-20T07:21:44Z</time>
      </trkpt>
      <trkpt lat="42.93403" lon="0.31156">
        <ele>1390.8000488281</ele>
        <time>2020-05-20T07:21:48Z</time>
      </trkpt>
      <trkpt lat="42.93407" lon="0.31169">
        <ele>1391.1999511719</ele>
        <time>2020-05-20T07:21:53Z</time>
      </trkpt>
      <trkpt lat="42.93408" lon="0.31171">
        <ele>1391.5999755859</ele>
        <time>2020-05-20T07:21:54Z</time>
      </trkpt>
      <trkpt lat="42.93409" lon="0.31174">
        <ele>1392</ele>
        <time>2020-05-20T07:21:55Z</time>
      </trkpt>
      <trkpt lat="42.9341" lon="0.31177">
        <ele>1392.4000244141</ele>
        <time>2020-05-20T07:21:56Z</time>
      </trkpt>
      <trkpt lat="42.93411" lon="0.3118">
        <ele>1392.8000488281</ele>
        <time>2020-05-20T07:21:57Z</time>
      </trkpt>
      <trkpt lat="42.93411" lon="0.31195">
        <ele>1392.8000488281</ele>
        <time>2020-05-20T07:22:02Z</time>
      </trkpt>
      <trkpt lat="42.93413" lon="0.31204">
        <ele>1393.1999511719</ele>
        <time>2020-05-20T07:22:06Z</time>
      </trkpt>
      <trkpt lat="42.93413" lon="0.31207">
        <ele>1393.5999755859</ele>
        <time>2020-05-20T07:22:07Z</time>
      </trkpt>
      <trkpt lat="42.93414" lon="0.31209">
        <ele>1394.1999511719</ele>
        <time>2020-05-20T07:22:08Z</time>
      </trkpt>
      <trkpt lat="42.93415" lon="0.31211">
        <ele>1394.5999755859</ele>
        <time>2020-05-20T07:22:09Z</time>
      </trkpt>
      <trkpt lat="42.93415" lon="0.31214">
        <ele>1395</ele>
        <time>2020-05-20T07:22:10Z</time>
      </trkpt>
      <trkpt lat="42.93418" lon="0.31227">
        <ele>1395</ele>
        <time>2020-05-20T07:22:16Z</time>
      </trkpt>
      <trkpt lat="42.93419" lon="0.31232">
        <ele>1395.4000244141</ele>
        <time>2020-05-20T07:22:18Z</time>
      </trkpt>
      <trkpt lat="42.9342" lon="0.31235">
        <ele>1395.8000488281</ele>
        <time>2020-05-20T07:22:19Z</time>
      </trkpt>
      <trkpt lat="42.93421" lon="0.31238">
        <ele>1396.1999511719</ele>
        <time>2020-05-20T07:22:20Z</time>
      </trkpt>
      <trkpt lat="42.93422" lon="0.3124">
        <ele>1396.5999755859</ele>
        <time>2020-05-20T07:22:21Z</time>
      </trkpt>
      <trkpt lat="42.93423" lon="0.31242">
        <ele>1397</ele>
        <time>2020-05-20T07:22:22Z</time>
      </trkpt>
      <trkpt lat="42.93427" lon="0.31249">
        <ele>1397</ele>
        <time>2020-05-20T07:22:25Z</time>
      </trkpt>
      <trkpt lat="42.93427" lon="0.3125">
        <ele>1397</ele>
        <time>2020-05-20T07:22:26Z</time>
      </trkpt>
      <trkpt lat="42.93428" lon="0.3126">
        <ele>1397.4000244141</ele>
        <time>2020-05-20T07:22:30Z</time>
      </trkpt>
      <trkpt lat="42.93429" lon="0.31262">
        <ele>1397.8000488281</ele>
        <time>2020-05-20T07:22:31Z</time>
      </trkpt>
      <trkpt lat="42.9343" lon="0.31264">
        <ele>1398.1999511719</ele>
        <time>2020-05-20T07:22:32Z</time>
      </trkpt>
      <trkpt lat="42.9343" lon="0.31266">
        <ele>1398.8000488281</ele>
        <time>2020-05-20T07:22:33Z</time>
      </trkpt>
      <trkpt lat="42.93431" lon="0.31268">
        <ele>1399.1999511719</ele>
        <time>2020-05-20T07:22:34Z</time>
      </trkpt>
      <trkpt lat="42.93439" lon="0.3128">
        <ele>1399.1999511719</ele>
        <time>2020-05-20T07:22:41Z</time>
      </trkpt>
      <trkpt lat="42.93441" lon="0.31284">
        <ele>1399.5999755859</ele>
        <time>2020-05-20T07:22:43Z</time>
      </trkpt>
      <trkpt lat="42.93442" lon="0.31286">
        <ele>1400</ele>
        <time>2020-05-20T07:22:44Z</time>
      </trkpt>
      <trkpt lat="42.93443" lon="0.31288">
        <ele>1400.4000244141</ele>
        <time>2020-05-20T07:22:45Z</time>
      </trkpt>
      <trkpt lat="42.93444" lon="0.3129">
        <ele>1400.8000488281</ele>
        <time>2020-05-20T07:22:46Z</time>
      </trkpt>
      <trkpt lat="42.93445" lon="0.31292">
        <ele>1401.1999511719</ele>
        <time>2020-05-20T07:22:47Z</time>
      </trkpt>
      <trkpt lat="42.93448" lon="0.31295">
        <ele>1401.1999511719</ele>
        <time>2020-05-20T07:22:49Z</time>
      </trkpt>
      <trkpt lat="42.93454" lon="0.31306">
        <ele>1401.1999511719</ele>
        <time>2020-05-20T07:22:55Z</time>
      </trkpt>
      <trkpt lat="42.93454" lon="0.31309">
        <ele>1401.1999511719</ele>
        <time>2020-05-20T07:22:56Z</time>
      </trkpt>
      <trkpt lat="42.93457" lon="0.31314">
        <ele>1401.5999755859</ele>
        <time>2020-05-20T07:22:59Z</time>
      </trkpt>
      <trkpt lat="42.93458" lon="0.31316">
        <ele>1402</ele>
        <time>2020-05-20T07:23:00Z</time>
      </trkpt>
      <trkpt lat="42.93458" lon="0.31318">
        <ele>1402.4000244141</ele>
        <time>2020-05-20T07:23:01Z</time>
      </trkpt>
      <trkpt lat="42.93459" lon="0.3132">
        <ele>1402.8000488281</ele>
        <time>2020-05-20T07:23:02Z</time>
      </trkpt>
      <trkpt lat="42.93459" lon="0.31323">
        <ele>1403.1999511719</ele>
        <time>2020-05-20T07:23:03Z</time>
      </trkpt>
      <trkpt lat="42.93465" lon="0.3134">
        <ele>1403.1999511719</ele>
        <time>2020-05-20T07:23:12Z</time>
      </trkpt>
      <trkpt lat="42.93467" lon="0.31343">
        <ele>1403.8000488281</ele>
        <time>2020-05-20T07:23:14Z</time>
      </trkpt>
      <trkpt lat="42.93468" lon="0.31345">
        <ele>1404.1999511719</ele>
        <time>2020-05-20T07:23:15Z</time>
      </trkpt>
      <trkpt lat="42.93469" lon="0.31347">
        <ele>1404.5999755859</ele>
        <time>2020-05-20T07:23:16Z</time>
      </trkpt>
      <trkpt lat="42.9347" lon="0.31349">
        <ele>1405</ele>
        <time>2020-05-20T07:23:17Z</time>
      </trkpt>
      <trkpt lat="42.9347" lon="0.31351">
        <ele>1405.4000244141</ele>
        <time>2020-05-20T07:23:18Z</time>
      </trkpt>
      <trkpt lat="42.93471" lon="0.31352">
        <ele>1405.4000244141</ele>
        <time>2020-05-20T07:23:19Z</time>
      </trkpt>
      <trkpt lat="42.93475" lon="0.3137">
        <ele>1405.4000244141</ele>
        <time>2020-05-20T07:23:27Z</time>
      </trkpt>
      <trkpt lat="42.93476" lon="0.31375">
        <ele>1405.8000488281</ele>
        <time>2020-05-20T07:23:29Z</time>
      </trkpt>
      <trkpt lat="42.93476" lon="0.31377">
        <ele>1406.8000488281</ele>
        <time>2020-05-20T07:23:30Z</time>
      </trkpt>
      <trkpt lat="42.93477" lon="0.31379">
        <ele>1407.1999511719</ele>
        <time>2020-05-20T07:23:31Z</time>
      </trkpt>
      <trkpt lat="42.93477" lon="0.31381">
        <ele>1407.5999755859</ele>
        <time>2020-05-20T07:23:32Z</time>
      </trkpt>
      <trkpt lat="42.93478" lon="0.31383">
        <ele>1407.5999755859</ele>
        <time>2020-05-20T07:23:33Z</time>
      </trkpt>
      <trkpt lat="42.93481" lon="0.31397">
        <ele>1407.5999755859</ele>
        <time>2020-05-20T07:23:39Z</time>
      </trkpt>
      <trkpt lat="42.93481" lon="0.314">
        <ele>1407.5999755859</ele>
        <time>2020-05-20T07:23:40Z</time>
      </trkpt>
      <trkpt lat="42.93482" lon="0.31402">
        <ele>1408</ele>
        <time>2020-05-20T07:23:41Z</time>
      </trkpt>
      <trkpt lat="42.93483" lon="0.31403">
        <ele>1408.4000244141</ele>
        <time>2020-05-20T07:23:42Z</time>
      </trkpt>
      <trkpt lat="42.93483" lon="0.31405">
        <ele>1408.8000488281</ele>
        <time>2020-05-20T07:23:43Z</time>
      </trkpt>
      <trkpt lat="42.93483" lon="0.31406">
        <ele>1409.1999511719</ele>
        <time>2020-05-20T07:23:44Z</time>
      </trkpt>
      <trkpt lat="42.93483" lon="0.31408">
        <ele>1409.5999755859</ele>
        <time>2020-05-20T07:23:45Z</time>
      </trkpt>
      <trkpt lat="42.93482" lon="0.3141">
        <ele>1409.5999755859</ele>
        <time>2020-05-20T07:23:46Z</time>
      </trkpt>
      <trkpt lat="42.93482" lon="0.31425">
        <ele>1409.5999755859</ele>
        <time>2020-05-20T07:23:53Z</time>
      </trkpt>
      <trkpt lat="42.93481" lon="0.31427">
        <ele>1410</ele>
        <time>2020-05-20T07:23:54Z</time>
      </trkpt>
      <trkpt lat="42.9348" lon="0.3143">
        <ele>1410.4000244141</ele>
        <time>2020-05-20T07:23:55Z</time>
      </trkpt>
      <trkpt lat="42.93479" lon="0.31432">
        <ele>1410.8000488281</ele>
        <time>2020-05-20T07:23:56Z</time>
      </trkpt>
      <trkpt lat="42.93479" lon="0.31434">
        <ele>1411.1999511719</ele>
        <time>2020-05-20T07:23:57Z</time>
      </trkpt>
      <trkpt lat="42.93478" lon="0.31436">
        <ele>1411.5999755859</ele>
        <time>2020-05-20T07:23:58Z</time>
      </trkpt>
      <trkpt lat="42.93477" lon="0.31441">
        <ele>1411.5999755859</ele>
        <time>2020-05-20T07:24:00Z</time>
      </trkpt>
      <trkpt lat="42.93475" lon="0.31455">
        <ele>1411.5999755859</ele>
        <time>2020-05-20T07:24:06Z</time>
      </trkpt>
      <trkpt lat="42.93475" lon="0.31459">
        <ele>1412</ele>
        <time>2020-05-20T07:24:08Z</time>
      </trkpt>
      <trkpt lat="42.93476" lon="0.31461">
        <ele>1412.4000244141</ele>
        <time>2020-05-20T07:24:09Z</time>
      </trkpt>
      <trkpt lat="42.93476" lon="0.31463">
        <ele>1412.8000488281</ele>
        <time>2020-05-20T07:24:10Z</time>
      </trkpt>
      <trkpt lat="42.93476" lon="0.31465">
        <ele>1413.1999511719</ele>
        <time>2020-05-20T07:24:11Z</time>
      </trkpt>
      <trkpt lat="42.93476" lon="0.31467">
        <ele>1413.5999755859</ele>
        <time>2020-05-20T07:24:12Z</time>
      </trkpt>
      <trkpt lat="42.93475" lon="0.31479">
        <ele>1413.5999755859</ele>
        <time>2020-05-20T07:24:18Z</time>
      </trkpt>
      <trkpt lat="42.93476" lon="0.31483">
        <ele>1414</ele>
        <time>2020-05-20T07:24:20Z</time>
      </trkpt>
      <trkpt lat="42.93476" lon="0.31485">
        <ele>1414.4000244141</ele>
        <time>2020-05-20T07:24:21Z</time>
      </trkpt>
      <trkpt lat="42.93476" lon="0.31488">
        <ele>1414.8000488281</ele>
        <time>2020-05-20T07:24:22Z</time>
      </trkpt>
      <trkpt lat="42.93477" lon="0.31491">
        <ele>1415.1999511719</ele>
        <time>2020-05-20T07:24:23Z</time>
      </trkpt>
      <trkpt lat="42.93477" lon="0.31493">
        <ele>1415.5999755859</ele>
        <time>2020-05-20T07:24:24Z</time>
      </trkpt>
      <trkpt lat="42.93476" lon="0.31508">
        <ele>1415.5999755859</ele>
        <time>2020-05-20T07:24:31Z</time>
      </trkpt>
      <trkpt lat="42.93477" lon="0.31517">
        <ele>1416.1999511719</ele>
        <time>2020-05-20T07:24:35Z</time>
      </trkpt>
      <trkpt lat="42.93478" lon="0.31519">
        <ele>1416.5999755859</ele>
        <time>2020-05-20T07:24:36Z</time>
      </trkpt>
      <trkpt lat="42.93478" lon="0.31521">
        <ele>1417</ele>
        <time>2020-05-20T07:24:37Z</time>
      </trkpt>
      <trkpt lat="42.93477" lon="0.31524">
        <ele>1417.4000244141</ele>
        <time>2020-05-20T07:24:38Z</time>
      </trkpt>
      <trkpt lat="42.93478" lon="0.31526">
        <ele>1417.8000488281</ele>
        <time>2020-05-20T07:24:39Z</time>
      </trkpt>
      <trkpt lat="42.93479" lon="0.3154">
        <ele>1417.8000488281</ele>
        <time>2020-05-20T07:24:45Z</time>
      </trkpt>
      <trkpt lat="42.93481" lon="0.31549">
        <ele>1418.1999511719</ele>
        <time>2020-05-20T07:24:49Z</time>
      </trkpt>
      <trkpt lat="42.93482" lon="0.31551">
        <ele>1418.5999755859</ele>
        <time>2020-05-20T07:24:50Z</time>
      </trkpt>
      <trkpt lat="42.93482" lon="0.31553">
        <ele>1419</ele>
        <time>2020-05-20T07:24:51Z</time>
      </trkpt>
      <trkpt lat="42.93483" lon="0.31556">
        <ele>1419.5999755859</ele>
        <time>2020-05-20T07:24:52Z</time>
      </trkpt>
      <trkpt lat="42.93483" lon="0.31559">
        <ele>1420</ele>
        <time>2020-05-20T07:24:53Z</time>
      </trkpt>
      <trkpt lat="42.93483" lon="0.31571">
        <ele>1420</ele>
        <time>2020-05-20T07:24:58Z</time>
      </trkpt>
      <trkpt lat="42.93483" lon="0.31576">
        <ele>1420</ele>
        <time>2020-05-20T07:25:00Z</time>
      </trkpt>
      <trkpt lat="42.93483" lon="0.31585">
        <ele>1420</ele>
        <time>2020-05-20T07:25:03Z</time>
      </trkpt>
      <trkpt lat="42.93483" lon="0.31591">
        <ele>1420.4000244141</ele>
        <time>2020-05-20T07:25:05Z</time>
      </trkpt>
      <trkpt lat="42.93483" lon="0.31593">
        <ele>1420.8000488281</ele>
        <time>2020-05-20T07:25:06Z</time>
      </trkpt>
      <trkpt lat="42.93484" lon="0.31595">
        <ele>1421.1999511719</ele>
        <time>2020-05-20T07:25:07Z</time>
      </trkpt>
      <trkpt lat="42.93484" lon="0.31598">
        <ele>1422</ele>
        <time>2020-05-20T07:25:08Z</time>
      </trkpt>
      <trkpt lat="42.93484" lon="0.316">
        <ele>1422</ele>
        <time>2020-05-20T07:25:09Z</time>
      </trkpt>
      <trkpt lat="42.93485" lon="0.31612">
        <ele>1422</ele>
        <time>2020-05-20T07:25:15Z</time>
      </trkpt>
      <trkpt lat="42.93484" lon="0.31614">
        <ele>1422</ele>
        <time>2020-05-20T07:25:16Z</time>
      </trkpt>
      <trkpt lat="42.93483" lon="0.31616">
        <ele>1422.4000244141</ele>
        <time>2020-05-20T07:25:17Z</time>
      </trkpt>
      <trkpt lat="42.93483" lon="0.31618">
        <ele>1422.8000488281</ele>
        <time>2020-05-20T07:25:18Z</time>
      </trkpt>
      <trkpt lat="42.93482" lon="0.31619">
        <ele>1423.1999511719</ele>
        <time>2020-05-20T07:25:19Z</time>
      </trkpt>
      <trkpt lat="42.93482" lon="0.31621">
        <ele>1423.5999755859</ele>
        <time>2020-05-20T07:25:20Z</time>
      </trkpt>
      <trkpt lat="42.93481" lon="0.31623">
        <ele>1424.1999511719</ele>
        <time>2020-05-20T07:25:21Z</time>
      </trkpt>
      <trkpt lat="42.93481" lon="0.31625">
        <ele>1424.1999511719</ele>
        <time>2020-05-20T07:25:22Z</time>
      </trkpt>
      <trkpt lat="42.93478" lon="0.31636">
        <ele>1424.1999511719</ele>
        <time>2020-05-20T07:25:28Z</time>
      </trkpt>
      <trkpt lat="42.93476" lon="0.31641">
        <ele>1424.5999755859</ele>
        <time>2020-05-20T07:25:31Z</time>
      </trkpt>
      <trkpt lat="42.93476" lon="0.31643">
        <ele>1425</ele>
        <time>2020-05-20T07:25:32Z</time>
      </trkpt>
      <trkpt lat="42.93476" lon="0.31645">
        <ele>1425.4000244141</ele>
        <time>2020-05-20T07:25:33Z</time>
      </trkpt>
      <trkpt lat="42.93476" lon="0.31647">
        <ele>1426.1999511719</ele>
        <time>2020-05-20T07:25:34Z</time>
      </trkpt>
      <trkpt lat="42.93473" lon="0.31658">
        <ele>1426.1999511719</ele>
        <time>2020-05-20T07:25:40Z</time>
      </trkpt>
      <trkpt lat="42.9347" lon="0.31666">
        <ele>1426.5999755859</ele>
        <time>2020-05-20T07:25:44Z</time>
      </trkpt>
      <trkpt lat="42.9347" lon="0.31667">
        <ele>1427</ele>
        <time>2020-05-20T07:25:45Z</time>
      </trkpt>
      <trkpt lat="42.93469" lon="0.31669">
        <ele>1427.4000244141</ele>
        <time>2020-05-20T07:25:46Z</time>
      </trkpt>
      <trkpt lat="42.93468" lon="0.31671">
        <ele>1427.8000488281</ele>
        <time>2020-05-20T07:25:47Z</time>
      </trkpt>
      <trkpt lat="42.93468" lon="0.31673">
        <ele>1428.1999511719</ele>
        <time>2020-05-20T07:25:48Z</time>
      </trkpt>
      <trkpt lat="42.93467" lon="0.3168">
        <ele>1428.1999511719</ele>
        <time>2020-05-20T07:25:52Z</time>
      </trkpt>
      <trkpt lat="42.93466" lon="0.31686">
        <ele>1428.1999511719</ele>
        <time>2020-05-20T07:25:56Z</time>
      </trkpt>
      <trkpt lat="42.93466" lon="0.31688">
        <ele>1428.1999511719</ele>
        <time>2020-05-20T07:25:57Z</time>
      </trkpt>
      <trkpt lat="42.93465" lon="0.31689">
        <ele>1428.5999755859</ele>
        <time>2020-05-20T07:25:58Z</time>
      </trkpt>
      <trkpt lat="42.93465" lon="0.31691">
        <ele>1429</ele>
        <time>2020-05-20T07:25:59Z</time>
      </trkpt>
      <trkpt lat="42.93464" lon="0.31693">
        <ele>1429.5999755859</ele>
        <time>2020-05-20T07:26:00Z</time>
      </trkpt>
      <trkpt lat="42.93463" lon="0.31694">
        <ele>1430</ele>
        <time>2020-05-20T07:26:01Z</time>
      </trkpt>
      <trkpt lat="42.93463" lon="0.31696">
        <ele>1430.4000244141</ele>
        <time>2020-05-20T07:26:02Z</time>
      </trkpt>
      <trkpt lat="42.93462" lon="0.31697">
        <ele>1430.4000244141</ele>
        <time>2020-05-20T07:26:03Z</time>
      </trkpt>
      <trkpt lat="42.93461" lon="0.31706">
        <ele>1430.4000244141</ele>
        <time>2020-05-20T07:26:08Z</time>
      </trkpt>
      <trkpt lat="42.93461" lon="0.31708">
        <ele>1430.4000244141</ele>
        <time>2020-05-20T07:26:09Z</time>
      </trkpt>
      <trkpt lat="42.93462" lon="0.31714">
        <ele>1430.8000488281</ele>
        <time>2020-05-20T07:26:12Z</time>
      </trkpt>
      <trkpt lat="42.93463" lon="0.31715">
        <ele>1431.1999511719</ele>
        <time>2020-05-20T07:26:13Z</time>
      </trkpt>
      <trkpt lat="42.93464" lon="0.31717">
        <ele>1431.5999755859</ele>
        <time>2020-05-20T07:26:14Z</time>
      </trkpt>
      <trkpt lat="42.93464" lon="0.31719">
        <ele>1432</ele>
        <time>2020-05-20T07:26:15Z</time>
      </trkpt>
      <trkpt lat="42.93464" lon="0.3172">
        <ele>1432.4000244141</ele>
        <time>2020-05-20T07:26:16Z</time>
      </trkpt>
      <trkpt lat="42.93465" lon="0.3173">
        <ele>1432.4000244141</ele>
        <time>2020-05-20T07:26:21Z</time>
      </trkpt>
      <trkpt lat="42.93465" lon="0.3174">
        <ele>1432.8000488281</ele>
        <time>2020-05-20T07:26:26Z</time>
      </trkpt>
      <trkpt lat="42.93465" lon="0.31742">
        <ele>1433.1999511719</ele>
        <time>2020-05-20T07:26:27Z</time>
      </trkpt>
      <trkpt lat="42.93465" lon="0.31744">
        <ele>1433.5999755859</ele>
        <time>2020-05-20T07:26:28Z</time>
      </trkpt>
      <trkpt lat="42.93466" lon="0.31745">
        <ele>1434.1999511719</ele>
        <time>2020-05-20T07:26:29Z</time>
      </trkpt>
      <trkpt lat="42.93466" lon="0.31747">
        <ele>1434.5999755859</ele>
        <time>2020-05-20T07:26:30Z</time>
      </trkpt>
      <trkpt lat="42.93466" lon="0.31751">
        <ele>1434.5999755859</ele>
        <time>2020-05-20T07:26:32Z</time>
      </trkpt>
      <trkpt lat="42.93466" lon="0.31752">
        <ele>1434.5999755859</ele>
        <time>2020-05-20T07:26:33Z</time>
      </trkpt>
      <trkpt lat="42.93467" lon="0.31761">
        <ele>1434.5999755859</ele>
        <time>2020-05-20T07:26:37Z</time>
      </trkpt>
      <trkpt lat="42.93467" lon="0.31765">
        <ele>1434.5999755859</ele>
        <time>2020-05-20T07:26:39Z</time>
      </trkpt>
      <trkpt lat="42.93468" lon="0.31771">
        <ele>1435</ele>
        <time>2020-05-20T07:26:42Z</time>
      </trkpt>
      <trkpt lat="42.93469" lon="0.31773">
        <ele>1435.4000244141</ele>
        <time>2020-05-20T07:26:43Z</time>
      </trkpt>
      <trkpt lat="42.93469" lon="0.31775">
        <ele>1435.8000488281</ele>
        <time>2020-05-20T07:26:44Z</time>
      </trkpt>
      <trkpt lat="42.9347" lon="0.31777">
        <ele>1436.1999511719</ele>
        <time>2020-05-20T07:26:45Z</time>
      </trkpt>
      <trkpt lat="42.9347" lon="0.31779">
        <ele>1436.5999755859</ele>
        <time>2020-05-20T07:26:46Z</time>
      </trkpt>
      <trkpt lat="42.93472" lon="0.31794">
        <ele>1436.5999755859</ele>
        <time>2020-05-20T07:26:54Z</time>
      </trkpt>
      <trkpt lat="42.93474" lon="0.31807">
        <ele>1437</ele>
        <time>2020-05-20T07:27:00Z</time>
      </trkpt>
      <trkpt lat="42.93474" lon="0.31809">
        <ele>1437.4000244141</ele>
        <time>2020-05-20T07:27:01Z</time>
      </trkpt>
      <trkpt lat="42.93475" lon="0.31811">
        <ele>1437.8000488281</ele>
        <time>2020-05-20T07:27:02Z</time>
      </trkpt>
      <trkpt lat="42.93476" lon="0.31813">
        <ele>1438.1999511719</ele>
        <time>2020-05-20T07:27:03Z</time>
      </trkpt>
      <trkpt lat="42.93477" lon="0.31815">
        <ele>1438.5999755859</ele>
        <time>2020-05-20T07:27:04Z</time>
      </trkpt>
      <trkpt lat="42.9348" lon="0.31822">
        <ele>1438.5999755859</ele>
        <time>2020-05-20T07:27:08Z</time>
      </trkpt>
      <trkpt lat="42.93484" lon="0.31831">
        <ele>1439</ele>
        <time>2020-05-20T07:27:14Z</time>
      </trkpt>
      <trkpt lat="42.93485" lon="0.31832">
        <ele>1439.4000244141</ele>
        <time>2020-05-20T07:27:15Z</time>
      </trkpt>
      <trkpt lat="42.93485" lon="0.31835">
        <ele>1439.8000488281</ele>
        <time>2020-05-20T07:27:16Z</time>
      </trkpt>
      <trkpt lat="42.93486" lon="0.31836">
        <ele>1440.1999511719</ele>
        <time>2020-05-20T07:27:17Z</time>
      </trkpt>
      <trkpt lat="42.93487" lon="0.31838">
        <ele>1440.5999755859</ele>
        <time>2020-05-20T07:27:18Z</time>
      </trkpt>
      <trkpt lat="42.93491" lon="0.31843">
        <ele>1440.5999755859</ele>
        <time>2020-05-20T07:27:23Z</time>
      </trkpt>
      <trkpt lat="42.93494" lon="0.31851">
        <ele>1441</ele>
        <time>2020-05-20T07:27:28Z</time>
      </trkpt>
      <trkpt lat="42.93495" lon="0.31852">
        <ele>1441.4000244141</ele>
        <time>2020-05-20T07:27:29Z</time>
      </trkpt>
      <trkpt lat="42.93496" lon="0.31853">
        <ele>1441.8000488281</ele>
        <time>2020-05-20T07:27:30Z</time>
      </trkpt>
      <trkpt lat="42.93497" lon="0.31854">
        <ele>1442.1999511719</ele>
        <time>2020-05-20T07:27:31Z</time>
      </trkpt>
      <trkpt lat="42.93498" lon="0.31856">
        <ele>1442.5999755859</ele>
        <time>2020-05-20T07:27:32Z</time>
      </trkpt>
      <trkpt lat="42.93501" lon="0.31861">
        <ele>1442.5999755859</ele>
        <time>2020-05-20T07:27:35Z</time>
      </trkpt>
      <trkpt lat="42.93506" lon="0.31869">
        <ele>1442.5999755859</ele>
        <time>2020-05-20T07:27:40Z</time>
      </trkpt>
      <trkpt lat="42.93508" lon="0.3187">
        <ele>1442.5999755859</ele>
        <time>2020-05-20T07:27:41Z</time>
      </trkpt>
      <trkpt lat="42.9351" lon="0.31872">
        <ele>1443</ele>
        <time>2020-05-20T07:27:43Z</time>
      </trkpt>
      <trkpt lat="42.93511" lon="0.31874">
        <ele>1443.4000244141</ele>
        <time>2020-05-20T07:27:44Z</time>
      </trkpt>
      <trkpt lat="42.93512" lon="0.31876">
        <ele>1444</ele>
        <time>2020-05-20T07:27:45Z</time>
      </trkpt>
      <trkpt lat="42.93513" lon="0.31878">
        <ele>1444.4000244141</ele>
        <time>2020-05-20T07:27:46Z</time>
      </trkpt>
      <trkpt lat="42.93514" lon="0.3188">
        <ele>1444.8000488281</ele>
        <time>2020-05-20T07:27:47Z</time>
      </trkpt>
      <trkpt lat="42.93519" lon="0.31892">
        <ele>1444.8000488281</ele>
        <time>2020-05-20T07:27:54Z</time>
      </trkpt>
      <trkpt lat="42.93525" lon="0.31901">
        <ele>1444.8000488281</ele>
        <time>2020-05-20T07:27:59Z</time>
      </trkpt>
      <trkpt lat="42.93526" lon="0.31907">
        <ele>1445.5999755859</ele>
        <time>2020-05-20T07:28:02Z</time>
      </trkpt>
      <trkpt lat="42.93526" lon="0.31909">
        <ele>1446</ele>
        <time>2020-05-20T07:28:03Z</time>
      </trkpt>
      <trkpt lat="42.93527" lon="0.31911">
        <ele>1446.4000244141</ele>
        <time>2020-05-20T07:28:04Z</time>
      </trkpt>
      <trkpt lat="42.93528" lon="0.31913">
        <ele>1446.8000488281</ele>
        <time>2020-05-20T07:28:05Z</time>
      </trkpt>
      <trkpt lat="42.93529" lon="0.31915">
        <ele>1446.8000488281</ele>
        <time>2020-05-20T07:28:06Z</time>
      </trkpt>
      <trkpt lat="42.93533" lon="0.31929">
        <ele>1446.8000488281</ele>
        <time>2020-05-20T07:28:13Z</time>
      </trkpt>
      <trkpt lat="42.93538" lon="0.31942">
        <ele>1446.8000488281</ele>
        <time>2020-05-20T07:28:19Z</time>
      </trkpt>
      <trkpt lat="42.93547" lon="0.31955">
        <ele>1446.8000488281</ele>
        <time>2020-05-20T07:28:25Z</time>
      </trkpt>
      <trkpt lat="42.93558" lon="0.31969">
        <ele>1446.8000488281</ele>
        <time>2020-05-20T07:28:32Z</time>
      </trkpt>
      <trkpt lat="42.9357" lon="0.31981">
        <ele>1446.8000488281</ele>
        <time>2020-05-20T07:28:39Z</time>
      </trkpt>
      <trkpt lat="42.93575" lon="0.31987">
        <ele>1447.1999511719</ele>
        <time>2020-05-20T07:28:42Z</time>
      </trkpt>
      <trkpt lat="42.93577" lon="0.31988">
        <ele>1447.5999755859</ele>
        <time>2020-05-20T07:28:43Z</time>
      </trkpt>
      <trkpt lat="42.93579" lon="0.3199">
        <ele>1448</ele>
        <time>2020-05-20T07:28:44Z</time>
      </trkpt>
      <trkpt lat="42.93581" lon="0.31992">
        <ele>1448.4000244141</ele>
        <time>2020-05-20T07:28:45Z</time>
      </trkpt>
      <trkpt lat="42.93583" lon="0.31993">
        <ele>1448.8000488281</ele>
        <time>2020-05-20T07:28:46Z</time>
      </trkpt>
      <trkpt lat="42.93584" lon="0.31995">
        <ele>1448.8000488281</ele>
        <time>2020-05-20T07:28:47Z</time>
      </trkpt>
      <trkpt lat="42.93595" lon="0.32003">
        <ele>1448.8000488281</ele>
        <time>2020-05-20T07:28:53Z</time>
      </trkpt>
      <trkpt lat="42.93607" lon="0.32013">
        <ele>1448.8000488281</ele>
        <time>2020-05-20T07:29:00Z</time>
      </trkpt>
      <trkpt lat="42.93618" lon="0.32024">
        <ele>1448.8000488281</ele>
        <time>2020-05-20T07:29:06Z</time>
      </trkpt>
      <trkpt lat="42.93629" lon="0.32033">
        <ele>1448.8000488281</ele>
        <time>2020-05-20T07:29:13Z</time>
      </trkpt>
      <trkpt lat="42.9363" lon="0.32035">
        <ele>1449.1999511719</ele>
        <time>2020-05-20T07:29:14Z</time>
      </trkpt>
      <trkpt lat="42.93632" lon="0.32035">
        <ele>1449.5999755859</ele>
        <time>2020-05-20T07:29:15Z</time>
      </trkpt>
      <trkpt lat="42.93634" lon="0.32036">
        <ele>1450.4000244141</ele>
        <time>2020-05-20T07:29:16Z</time>
      </trkpt>
      <trkpt lat="42.93636" lon="0.32036">
        <ele>1450.8000488281</ele>
        <time>2020-05-20T07:29:17Z</time>
      </trkpt>
      <trkpt lat="42.9364" lon="0.32036">
        <ele>1450.8000488281</ele>
        <time>2020-05-20T07:29:19Z</time>
      </trkpt>
      <trkpt lat="42.93654" lon="0.3203">
        <ele>1450.8000488281</ele>
        <time>2020-05-20T07:29:26Z</time>
      </trkpt>
      <trkpt lat="42.93662" lon="0.32026">
        <ele>1450.8000488281</ele>
        <time>2020-05-20T07:29:31Z</time>
      </trkpt>
      <trkpt lat="42.93665" lon="0.32024">
        <ele>1451.1999511719</ele>
        <time>2020-05-20T07:29:34Z</time>
      </trkpt>
      <trkpt lat="42.93665" lon="0.32024">
        <ele>1451.5999755859</ele>
        <time>2020-05-20T07:29:35Z</time>
      </trkpt>
      <trkpt lat="42.93667" lon="0.32024">
        <ele>1452</ele>
        <time>2020-05-20T07:29:36Z</time>
      </trkpt>
      <trkpt lat="42.93669" lon="0.32023">
        <ele>1452.4000244141</ele>
        <time>2020-05-20T07:29:37Z</time>
      </trkpt>
      <trkpt lat="42.9367" lon="0.32023">
        <ele>1453</ele>
        <time>2020-05-20T07:29:38Z</time>
      </trkpt>
      <trkpt lat="42.93684" lon="0.32016">
        <ele>1453</ele>
        <time>2020-05-20T07:29:44Z</time>
      </trkpt>
      <trkpt lat="42.93693" lon="0.32012">
        <ele>1453</ele>
        <time>2020-05-20T07:29:49Z</time>
      </trkpt>
      <trkpt lat="42.93704" lon="0.32007">
        <ele>1453.4000244141</ele>
        <time>2020-05-20T07:29:55Z</time>
      </trkpt>
      <trkpt lat="42.93706" lon="0.32006">
        <ele>1453.8000488281</ele>
        <time>2020-05-20T07:29:56Z</time>
      </trkpt>
      <trkpt lat="42.9371" lon="0.32004">
        <ele>1454.1999511719</ele>
        <time>2020-05-20T07:29:57Z</time>
      </trkpt>
      <trkpt lat="42.93712" lon="0.32003">
        <ele>1454.5999755859</ele>
        <time>2020-05-20T07:29:58Z</time>
      </trkpt>
      <trkpt lat="42.93713" lon="0.32003">
        <ele>1455</ele>
        <time>2020-05-20T07:29:59Z</time>
      </trkpt>
      <trkpt lat="42.93718" lon="0.32001">
        <ele>1455</ele>
        <time>2020-05-20T07:30:01Z</time>
      </trkpt>
      <trkpt lat="42.93733" lon="0.31994">
        <ele>1455</ele>
        <time>2020-05-20T07:30:09Z</time>
      </trkpt>
      <trkpt lat="42.93746" lon="0.31992">
        <ele>1455.4000244141</ele>
        <time>2020-05-20T07:30:16Z</time>
      </trkpt>
      <trkpt lat="42.93748" lon="0.31993">
        <ele>1455.8000488281</ele>
        <time>2020-05-20T07:30:17Z</time>
      </trkpt>
      <trkpt lat="42.9375" lon="0.31994">
        <ele>1456.1999511719</ele>
        <time>2020-05-20T07:30:18Z</time>
      </trkpt>
      <trkpt lat="42.93752" lon="0.31994">
        <ele>1456.5999755859</ele>
        <time>2020-05-20T07:30:19Z</time>
      </trkpt>
      <trkpt lat="42.93754" lon="0.31994">
        <ele>1457</ele>
        <time>2020-05-20T07:30:20Z</time>
      </trkpt>
      <trkpt lat="42.93755" lon="0.31995">
        <ele>1457</ele>
        <time>2020-05-20T07:30:21Z</time>
      </trkpt>
      <trkpt lat="42.93765" lon="0.31996">
        <ele>1457</ele>
        <time>2020-05-20T07:30:27Z</time>
      </trkpt>
      <trkpt lat="42.93775" lon="0.32001">
        <ele>1457.4000244141</ele>
        <time>2020-05-20T07:30:33Z</time>
      </trkpt>
      <trkpt lat="42.93775" lon="0.32002">
        <ele>1457.8000488281</ele>
        <time>2020-05-20T07:30:34Z</time>
      </trkpt>
      <trkpt lat="42.93776" lon="0.32003">
        <ele>1458.1999511719</ele>
        <time>2020-05-20T07:30:35Z</time>
      </trkpt>
      <trkpt lat="42.93778" lon="0.32004">
        <ele>1458.5999755859</ele>
        <time>2020-05-20T07:30:36Z</time>
      </trkpt>
      <trkpt lat="42.93781" lon="0.32004">
        <ele>1459</ele>
        <time>2020-05-20T07:30:37Z</time>
      </trkpt>
      <trkpt lat="42.93785" lon="0.32006">
        <ele>1459</ele>
        <time>2020-05-20T07:30:39Z</time>
      </trkpt>
      <trkpt lat="42.9379" lon="0.32009">
        <ele>1459</ele>
        <time>2020-05-20T07:30:43Z</time>
      </trkpt>
      <trkpt lat="42.938" lon="0.32012">
        <ele>1459</ele>
        <time>2020-05-20T07:30:47Z</time>
      </trkpt>
      <trkpt lat="42.93808" lon="0.3202">
        <ele>1459.4000244141</ele>
        <time>2020-05-20T07:30:52Z</time>
      </trkpt>
      <trkpt lat="42.93809" lon="0.32022">
        <ele>1459.8000488281</ele>
        <time>2020-05-20T07:30:53Z</time>
      </trkpt>
      <trkpt lat="42.93811" lon="0.32024">
        <ele>1460.4000244141</ele>
        <time>2020-05-20T07:30:54Z</time>
      </trkpt>
      <trkpt lat="42.93813" lon="0.32025">
        <ele>1461.1999511719</ele>
        <time>2020-05-20T07:30:55Z</time>
      </trkpt>
      <trkpt lat="42.93823" lon="0.32034">
        <ele>1461.1999511719</ele>
        <time>2020-05-20T07:31:01Z</time>
      </trkpt>
      <trkpt lat="42.93831" lon="0.32043">
        <ele>1461.1999511719</ele>
        <time>2020-05-20T07:31:07Z</time>
      </trkpt>
      <trkpt lat="42.93835" lon="0.32048">
        <ele>1461.5999755859</ele>
        <time>2020-05-20T07:31:10Z</time>
      </trkpt>
      <trkpt lat="42.93835" lon="0.3205">
        <ele>1462</ele>
        <time>2020-05-20T07:31:11Z</time>
      </trkpt>
      <trkpt lat="42.93836" lon="0.32052">
        <ele>1462.4000244141</ele>
        <time>2020-05-20T07:31:12Z</time>
      </trkpt>
      <trkpt lat="42.93837" lon="0.32053">
        <ele>1462.8000488281</ele>
        <time>2020-05-20T07:31:13Z</time>
      </trkpt>
      <trkpt lat="42.93838" lon="0.32055">
        <ele>1463.1999511719</ele>
        <time>2020-05-20T07:31:14Z</time>
      </trkpt>
      <trkpt lat="42.93845" lon="0.32061">
        <ele>1463.1999511719</ele>
        <time>2020-05-20T07:31:19Z</time>
      </trkpt>
      <trkpt lat="42.93851" lon="0.32071">
        <ele>1463.8000488281</ele>
        <time>2020-05-20T07:31:25Z</time>
      </trkpt>
      <trkpt lat="42.93852" lon="0.32073">
        <ele>1464.1999511719</ele>
        <time>2020-05-20T07:31:26Z</time>
      </trkpt>
      <trkpt lat="42.93853" lon="0.32076">
        <ele>1464.5999755859</ele>
        <time>2020-05-20T07:31:27Z</time>
      </trkpt>
      <trkpt lat="42.93855" lon="0.32077">
        <ele>1465</ele>
        <time>2020-05-20T07:31:28Z</time>
      </trkpt>
      <trkpt lat="42.93856" lon="0.32079">
        <ele>1465.4000244141</ele>
        <time>2020-05-20T07:31:29Z</time>
      </trkpt>
      <trkpt lat="42.9386" lon="0.32087">
        <ele>1465.4000244141</ele>
        <time>2020-05-20T07:31:32Z</time>
      </trkpt>
      <trkpt lat="42.93867" lon="0.32101">
        <ele>1465.4000244141</ele>
        <time>2020-05-20T07:31:38Z</time>
      </trkpt>
      <trkpt lat="42.93873" lon="0.32112">
        <ele>1465.4000244141</ele>
        <time>2020-05-20T07:31:44Z</time>
      </trkpt>
      <trkpt lat="42.93874" lon="0.32116">
        <ele>1465.4000244141</ele>
        <time>2020-05-20T07:31:46Z</time>
      </trkpt>
      <trkpt lat="42.93877" lon="0.32122">
        <ele>1465.4000244141</ele>
        <time>2020-05-20T07:31:49Z</time>
      </trkpt>
      <trkpt lat="42.93884" lon="0.32132">
        <ele>1465.4000244141</ele>
        <time>2020-05-20T07:31:55Z</time>
      </trkpt>
      <trkpt lat="42.93891" lon="0.32142">
        <ele>1465.8000488281</ele>
        <time>2020-05-20T07:32:01Z</time>
      </trkpt>
      <trkpt lat="42.93893" lon="0.32144">
        <ele>1466.1999511719</ele>
        <time>2020-05-20T07:32:02Z</time>
      </trkpt>
      <trkpt lat="42.93894" lon="0.32145">
        <ele>1466.5999755859</ele>
        <time>2020-05-20T07:32:03Z</time>
      </trkpt>
      <trkpt lat="42.93895" lon="0.32147">
        <ele>1467</ele>
        <time>2020-05-20T07:32:04Z</time>
      </trkpt>
      <trkpt lat="42.93897" lon="0.32149">
        <ele>1467.4000244141</ele>
        <time>2020-05-20T07:32:05Z</time>
      </trkpt>
      <trkpt lat="42.93899" lon="0.32151">
        <ele>1467.4000244141</ele>
        <time>2020-05-20T07:32:06Z</time>
      </trkpt>
      <trkpt lat="42.939" lon="0.32152">
        <ele>1467.4000244141</ele>
        <time>2020-05-20T07:32:07Z</time>
      </trkpt>
      <trkpt lat="42.93908" lon="0.32162">
        <ele>1467.4000244141</ele>
        <time>2020-05-20T07:32:12Z</time>
      </trkpt>
      <trkpt lat="42.93918" lon="0.32174">
        <ele>1467.4000244141</ele>
        <time>2020-05-20T07:32:20Z</time>
      </trkpt>
      <trkpt lat="42.93919" lon="0.32176">
        <ele>1467.8000488281</ele>
        <time>2020-05-20T07:32:21Z</time>
      </trkpt>
      <trkpt lat="42.93921" lon="0.32177">
        <ele>1468.1999511719</ele>
        <time>2020-05-20T07:32:22Z</time>
      </trkpt>
      <trkpt lat="42.93922" lon="0.32178">
        <ele>1468.5999755859</ele>
        <time>2020-05-20T07:32:23Z</time>
      </trkpt>
      <trkpt lat="42.93924" lon="0.3218">
        <ele>1469</ele>
        <time>2020-05-20T07:32:24Z</time>
      </trkpt>
      <trkpt lat="42.93925" lon="0.32181">
        <ele>1469.4000244141</ele>
        <time>2020-05-20T07:32:25Z</time>
      </trkpt>
      <trkpt lat="42.93928" lon="0.32183">
        <ele>1469.4000244141</ele>
        <time>2020-05-20T07:32:27Z</time>
      </trkpt>
      <trkpt lat="42.93942" lon="0.32188">
        <ele>1469.4000244141</ele>
        <time>2020-05-20T07:32:33Z</time>
      </trkpt>
      <trkpt lat="42.9395" lon="0.32187">
        <ele>1469.8000488281</ele>
        <time>2020-05-20T07:32:37Z</time>
      </trkpt>
      <trkpt lat="42.93953" lon="0.32187">
        <ele>1470.1999511719</ele>
        <time>2020-05-20T07:32:38Z</time>
      </trkpt>
      <trkpt lat="42.93955" lon="0.32187">
        <ele>1470.5999755859</ele>
        <time>2020-05-20T07:32:39Z</time>
      </trkpt>
      <trkpt lat="42.93958" lon="0.32188">
        <ele>1471.1999511719</ele>
        <time>2020-05-20T07:32:40Z</time>
      </trkpt>
      <trkpt lat="42.93959" lon="0.32188">
        <ele>1471.5999755859</ele>
        <time>2020-05-20T07:32:41Z</time>
      </trkpt>
      <trkpt lat="42.93973" lon="0.32187">
        <ele>1471.5999755859</ele>
        <time>2020-05-20T07:32:47Z</time>
      </trkpt>
      <trkpt lat="42.93984" lon="0.32189">
        <ele>1471.5999755859</ele>
        <time>2020-05-20T07:32:54Z</time>
      </trkpt>
      <trkpt lat="42.93985" lon="0.32189">
        <ele>1472</ele>
        <time>2020-05-20T07:32:55Z</time>
      </trkpt>
      <trkpt lat="42.93987" lon="0.32188">
        <ele>1472.4000244141</ele>
        <time>2020-05-20T07:32:56Z</time>
      </trkpt>
      <trkpt lat="42.93989" lon="0.32188">
        <ele>1472.8000488281</ele>
        <time>2020-05-20T07:32:57Z</time>
      </trkpt>
      <trkpt lat="42.9399" lon="0.32186">
        <ele>1473.1999511719</ele>
        <time>2020-05-20T07:32:58Z</time>
      </trkpt>
      <trkpt lat="42.93992" lon="0.32186">
        <ele>1473.5999755859</ele>
        <time>2020-05-20T07:32:59Z</time>
      </trkpt>
      <trkpt lat="42.94005" lon="0.32182">
        <ele>1473.5999755859</ele>
        <time>2020-05-20T07:33:06Z</time>
      </trkpt>
      <trkpt lat="42.94009" lon="0.32182">
        <ele>1474</ele>
        <time>2020-05-20T07:33:09Z</time>
      </trkpt>
      <trkpt lat="42.94009" lon="0.32182">
        <ele>1474.4000244141</ele>
        <time>2020-05-20T07:33:10Z</time>
      </trkpt>
      <trkpt lat="42.9401" lon="0.32182">
        <ele>1474.8000488281</ele>
        <time>2020-05-20T07:33:11Z</time>
      </trkpt>
      <trkpt lat="42.9401" lon="0.32182">
        <ele>1475.1999511719</ele>
        <time>2020-05-20T07:33:12Z</time>
      </trkpt>
      <trkpt lat="42.94012" lon="0.32181">
        <ele>1475.5999755859</ele>
        <time>2020-05-20T07:33:13Z</time>
      </trkpt>
      <trkpt lat="42.94017" lon="0.32179">
        <ele>1475.5999755859</ele>
        <time>2020-05-20T07:33:18Z</time>
      </trkpt>
      <trkpt lat="42.94025" lon="0.32177">
        <ele>1476</ele>
        <time>2020-05-20T07:33:23Z</time>
      </trkpt>
      <trkpt lat="42.94028" lon="0.32176">
        <ele>1476.4000244141</ele>
        <time>2020-05-20T07:33:24Z</time>
      </trkpt>
      <trkpt lat="42.94031" lon="0.32175">
        <ele>1476.8000488281</ele>
        <time>2020-05-20T07:33:25Z</time>
      </trkpt>
      <trkpt lat="42.94034" lon="0.32174">
        <ele>1477.1999511719</ele>
        <time>2020-05-20T07:33:26Z</time>
      </trkpt>
      <trkpt lat="42.94037" lon="0.32173">
        <ele>1477.5999755859</ele>
        <time>2020-05-20T07:33:27Z</time>
      </trkpt>
      <trkpt lat="42.94051" lon="0.3217">
        <ele>1477.5999755859</ele>
        <time>2020-05-20T07:33:31Z</time>
      </trkpt>
      <trkpt lat="42.94065" lon="0.32171">
        <ele>1477.5999755859</ele>
        <time>2020-05-20T07:33:38Z</time>
      </trkpt>
      <trkpt lat="42.94067" lon="0.32171">
        <ele>1477.5999755859</ele>
        <time>2020-05-20T07:33:39Z</time>
      </trkpt>
      <trkpt lat="42.94081" lon="0.32175">
        <ele>1477.5999755859</ele>
        <time>2020-05-20T07:33:46Z</time>
      </trkpt>
      <trkpt lat="42.94089" lon="0.32181">
        <ele>1477.5999755859</ele>
        <time>2020-05-20T07:33:52Z</time>
      </trkpt>
      <trkpt lat="42.94099" lon="0.32197">
        <ele>1477.5999755859</ele>
        <time>2020-05-20T07:34:00Z</time>
      </trkpt>
      <trkpt lat="42.94103" lon="0.3221">
        <ele>1477.5999755859</ele>
        <time>2020-05-20T07:34:05Z</time>
      </trkpt>
      <trkpt lat="42.94105" lon="0.32226">
        <ele>1477.5999755859</ele>
        <time>2020-05-20T07:34:10Z</time>
      </trkpt>
      <trkpt lat="42.94109" lon="0.32248">
        <ele>1477.5999755859</ele>
        <time>2020-05-20T07:34:16Z</time>
      </trkpt>
      <trkpt lat="42.94114" lon="0.32279">
        <ele>1477.5999755859</ele>
        <time>2020-05-20T07:34:22Z</time>
      </trkpt>
      <trkpt lat="42.94118" lon="0.32298">
        <ele>1477.1999511719</ele>
        <time>2020-05-20T07:34:25Z</time>
      </trkpt>
      <trkpt lat="42.94118" lon="0.32304">
        <ele>1476.8000488281</ele>
        <time>2020-05-20T07:34:26Z</time>
      </trkpt>
      <trkpt lat="42.94119" lon="0.32311">
        <ele>1476.4000244141</ele>
        <time>2020-05-20T07:34:27Z</time>
      </trkpt>
      <trkpt lat="42.9412" lon="0.32318">
        <ele>1476</ele>
        <time>2020-05-20T07:34:28Z</time>
      </trkpt>
      <trkpt lat="42.94121" lon="0.32326">
        <ele>1475.5999755859</ele>
        <time>2020-05-20T07:34:29Z</time>
      </trkpt>
      <trkpt lat="42.94124" lon="0.32354">
        <ele>1475.5999755859</ele>
        <time>2020-05-20T07:34:33Z</time>
      </trkpt>
      <trkpt lat="42.94127" lon="0.32374">
        <ele>1475.5999755859</ele>
        <time>2020-05-20T07:34:36Z</time>
      </trkpt>
      <trkpt lat="42.94131" lon="0.32393">
        <ele>1475.5999755859</ele>
        <time>2020-05-20T07:34:39Z</time>
      </trkpt>
      <trkpt lat="42.94132" lon="0.32408">
        <ele>1475.1999511719</ele>
        <time>2020-05-20T07:34:41Z</time>
      </trkpt>
      <trkpt lat="42.94133" lon="0.32415">
        <ele>1474.8000488281</ele>
        <time>2020-05-20T07:34:42Z</time>
      </trkpt>
      <trkpt lat="42.94134" lon="0.32422">
        <ele>1474.4000244141</ele>
        <time>2020-05-20T07:34:43Z</time>
      </trkpt>
      <trkpt lat="42.94135" lon="0.32429">
        <ele>1473.8000488281</ele>
        <time>2020-05-20T07:34:44Z</time>
      </trkpt>
      <trkpt lat="42.94136" lon="0.32437">
        <ele>1473.4000244141</ele>
        <time>2020-05-20T07:34:45Z</time>
      </trkpt>
      <trkpt lat="42.94137" lon="0.32443">
        <ele>1473.4000244141</ele>
        <time>2020-05-20T07:34:46Z</time>
      </trkpt>
      <trkpt lat="42.94144" lon="0.32486">
        <ele>1473.4000244141</ele>
        <time>2020-05-20T07:34:52Z</time>
      </trkpt>
      <trkpt lat="42.94148" lon="0.325">
        <ele>1473.4000244141</ele>
        <time>2020-05-20T07:34:54Z</time>
      </trkpt>
      <trkpt lat="42.94153" lon="0.32526">
        <ele>1473.4000244141</ele>
        <time>2020-05-20T07:34:58Z</time>
      </trkpt>
      <trkpt lat="42.9416" lon="0.32559">
        <ele>1473.4000244141</ele>
        <time>2020-05-20T07:35:03Z</time>
      </trkpt>
      <trkpt lat="42.94162" lon="0.32565">
        <ele>1473.4000244141</ele>
        <time>2020-05-20T07:35:04Z</time>
      </trkpt>
      <trkpt lat="42.94165" lon="0.32583">
        <ele>1473.4000244141</ele>
        <time>2020-05-20T07:35:07Z</time>
      </trkpt>
      <trkpt lat="42.94166" lon="0.3259">
        <ele>1473.4000244141</ele>
        <time>2020-05-20T07:35:08Z</time>
      </trkpt>
      <trkpt lat="42.94168" lon="0.32596">
        <ele>1473</ele>
        <time>2020-05-20T07:35:09Z</time>
      </trkpt>
      <trkpt lat="42.94169" lon="0.32603">
        <ele>1472.5999755859</ele>
        <time>2020-05-20T07:35:10Z</time>
      </trkpt>
      <trkpt lat="42.9417" lon="0.3261">
        <ele>1472.1999511719</ele>
        <time>2020-05-20T07:35:11Z</time>
      </trkpt>
      <trkpt lat="42.94171" lon="0.32617">
        <ele>1471.8000488281</ele>
        <time>2020-05-20T07:35:12Z</time>
      </trkpt>
      <trkpt lat="42.94173" lon="0.32625">
        <ele>1471.4000244141</ele>
        <time>2020-05-20T07:35:13Z</time>
      </trkpt>
      <trkpt lat="42.94178" lon="0.32644">
        <ele>1471.4000244141</ele>
        <time>2020-05-20T07:35:16Z</time>
      </trkpt>
      <trkpt lat="42.94181" lon="0.32655">
        <ele>1471.4000244141</ele>
        <time>2020-05-20T07:35:18Z</time>
      </trkpt>
      <trkpt lat="42.94187" lon="0.32671">
        <ele>1471.4000244141</ele>
        <time>2020-05-20T07:35:21Z</time>
      </trkpt>
      <trkpt lat="42.94192" lon="0.32684">
        <ele>1471.4000244141</ele>
        <time>2020-05-20T07:35:23Z</time>
      </trkpt>
      <trkpt lat="42.94194" lon="0.3269">
        <ele>1471.4000244141</ele>
        <time>2020-05-20T07:35:24Z</time>
      </trkpt>
      <trkpt lat="42.94199" lon="0.32716">
        <ele>1471.4000244141</ele>
        <time>2020-05-20T07:35:28Z</time>
      </trkpt>
      <trkpt lat="42.94203" lon="0.32729">
        <ele>1471.4000244141</ele>
        <time>2020-05-20T07:35:31Z</time>
      </trkpt>
      <trkpt lat="42.94204" lon="0.32731">
        <ele>1471.4000244141</ele>
        <time>2020-05-20T07:35:32Z</time>
      </trkpt>
      <trkpt lat="42.94211" lon="0.32738">
        <ele>1471.4000244141</ele>
        <time>2020-05-20T07:35:37Z</time>
      </trkpt>
      <trkpt lat="42.9422" lon="0.32737">
        <ele>1471</ele>
        <time>2020-05-20T07:35:42Z</time>
      </trkpt>
      <trkpt lat="42.94222" lon="0.32737">
        <ele>1470.5999755859</ele>
        <time>2020-05-20T07:35:43Z</time>
      </trkpt>
      <trkpt lat="42.94224" lon="0.32736">
        <ele>1470.1999511719</ele>
        <time>2020-05-20T07:35:44Z</time>
      </trkpt>
      <trkpt lat="42.94225" lon="0.32736">
        <ele>1469.4000244141</ele>
        <time>2020-05-20T07:35:45Z</time>
      </trkpt>
      <trkpt lat="42.94232" lon="0.32734">
        <ele>1469.4000244141</ele>
        <time>2020-05-20T07:35:48Z</time>
      </trkpt>
      <trkpt lat="42.94242" lon="0.32731">
        <ele>1469.4000244141</ele>
        <time>2020-05-20T07:35:51Z</time>
      </trkpt>
      <trkpt lat="42.94246" lon="0.32721">
        <ele>1469.4000244141</ele>
        <time>2020-05-20T07:35:54Z</time>
      </trkpt>
      <trkpt lat="42.94258" lon="0.32708">
        <ele>1469.4000244141</ele>
        <time>2020-05-20T07:35:59Z</time>
      </trkpt>
      <trkpt lat="42.94267" lon="0.32698">
        <ele>1469.4000244141</ele>
        <time>2020-05-20T07:36:02Z</time>
      </trkpt>
      <trkpt lat="42.9427" lon="0.32694">
        <ele>1469.4000244141</ele>
        <time>2020-05-20T07:36:03Z</time>
      </trkpt>
      <trkpt lat="42.94274" lon="0.3269">
        <ele>1468.8000488281</ele>
        <time>2020-05-20T07:36:04Z</time>
      </trkpt>
      <trkpt lat="42.94279" lon="0.32686">
        <ele>1468.4000244141</ele>
        <time>2020-05-20T07:36:05Z</time>
      </trkpt>
      <trkpt lat="42.94283" lon="0.32681">
        <ele>1468</ele>
        <time>2020-05-20T07:36:06Z</time>
      </trkpt>
      <trkpt lat="42.94288" lon="0.32675">
        <ele>1467.5999755859</ele>
        <time>2020-05-20T07:36:07Z</time>
      </trkpt>
      <trkpt lat="42.94292" lon="0.32669">
        <ele>1467.1999511719</ele>
        <time>2020-05-20T07:36:08Z</time>
      </trkpt>
      <trkpt lat="42.94297" lon="0.32662">
        <ele>1466.8000488281</ele>
        <time>2020-05-20T07:36:09Z</time>
      </trkpt>
      <trkpt lat="42.94302" lon="0.32654">
        <ele>1465.8000488281</ele>
        <time>2020-05-20T07:36:10Z</time>
      </trkpt>
      <trkpt lat="42.94306" lon="0.32646">
        <ele>1465.4000244141</ele>
        <time>2020-05-20T07:36:11Z</time>
      </trkpt>
      <trkpt lat="42.9431" lon="0.32639">
        <ele>1464.8000488281</ele>
        <time>2020-05-20T07:36:12Z</time>
      </trkpt>
      <trkpt lat="42.94314" lon="0.32632">
        <ele>1464.1999511719</ele>
        <time>2020-05-20T07:36:13Z</time>
      </trkpt>
      <trkpt lat="42.94317" lon="0.32624">
        <ele>1463.5999755859</ele>
        <time>2020-05-20T07:36:14Z</time>
      </trkpt>
      <trkpt lat="42.9432" lon="0.32616">
        <ele>1463.1999511719</ele>
        <time>2020-05-20T07:36:15Z</time>
      </trkpt>
      <trkpt lat="42.94322" lon="0.32607">
        <ele>1462.5999755859</ele>
        <time>2020-05-20T07:36:16Z</time>
      </trkpt>
      <trkpt lat="42.94325" lon="0.32598">
        <ele>1462.1999511719</ele>
        <time>2020-05-20T07:36:17Z</time>
      </trkpt>
      <trkpt lat="42.94327" lon="0.32588">
        <ele>1461.5999755859</ele>
        <time>2020-05-20T07:36:18Z</time>
      </trkpt>
      <trkpt lat="42.94329" lon="0.32577">
        <ele>1461.1999511719</ele>
        <time>2020-05-20T07:36:19Z</time>
      </trkpt>
      <trkpt lat="42.94331" lon="0.32566">
        <ele>1460.8000488281</ele>
        <time>2020-05-20T07:36:20Z</time>
      </trkpt>
      <trkpt lat="42.94333" lon="0.32554">
        <ele>1460.1999511719</ele>
        <time>2020-05-20T07:36:21Z</time>
      </trkpt>
      <trkpt lat="42.94334" lon="0.32542">
        <ele>1459.5999755859</ele>
        <time>2020-05-20T07:36:22Z</time>
      </trkpt>
      <trkpt lat="42.94336" lon="0.3253">
        <ele>1458.8000488281</ele>
        <time>2020-05-20T07:36:23Z</time>
      </trkpt>
      <trkpt lat="42.94338" lon="0.32518">
        <ele>1458</ele>
        <time>2020-05-20T07:36:24Z</time>
      </trkpt>
      <trkpt lat="42.9434" lon="0.32505">
        <ele>1457.1999511719</ele>
        <time>2020-05-20T07:36:25Z</time>
      </trkpt>
      <trkpt lat="42.94342" lon="0.32491">
        <ele>1456.4000244141</ele>
        <time>2020-05-20T07:36:26Z</time>
      </trkpt>
      <trkpt lat="42.94345" lon="0.32477">
        <ele>1455.5999755859</ele>
        <time>2020-05-20T07:36:27Z</time>
      </trkpt>
      <trkpt lat="42.94348" lon="0.32463">
        <ele>1454.8000488281</ele>
        <time>2020-05-20T07:36:28Z</time>
      </trkpt>
      <trkpt lat="42.94351" lon="0.3245">
        <ele>1454</ele>
        <time>2020-05-20T07:36:29Z</time>
      </trkpt>
      <trkpt lat="42.94354" lon="0.32435">
        <ele>1453.4000244141</ele>
        <time>2020-05-20T07:36:30Z</time>
      </trkpt>
      <trkpt lat="42.94356" lon="0.3242">
        <ele>1452.5999755859</ele>
        <time>2020-05-20T07:36:31Z</time>
      </trkpt>
      <trkpt lat="42.94358" lon="0.32405">
        <ele>1451.8000488281</ele>
        <time>2020-05-20T07:36:32Z</time>
      </trkpt>
      <trkpt lat="42.9436" lon="0.32389">
        <ele>1451</ele>
        <time>2020-05-20T07:36:33Z</time>
      </trkpt>
      <trkpt lat="42.94361" lon="0.32373">
        <ele>1450</ele>
        <time>2020-05-20T07:36:34Z</time>
      </trkpt>
      <trkpt lat="42.94362" lon="0.32358">
        <ele>1448.1999511719</ele>
        <time>2020-05-20T07:36:35Z</time>
      </trkpt>
      <trkpt lat="42.94363" lon="0.32342">
        <ele>1447.1999511719</ele>
        <time>2020-05-20T07:36:36Z</time>
      </trkpt>
      <trkpt lat="42.94366" lon="0.32327">
        <ele>1446.4000244141</ele>
        <time>2020-05-20T07:36:37Z</time>
      </trkpt>
      <trkpt lat="42.9437" lon="0.32313">
        <ele>1445.4000244141</ele>
        <time>2020-05-20T07:36:38Z</time>
      </trkpt>
      <trkpt lat="42.94375" lon="0.32299">
        <ele>1444.5999755859</ele>
        <time>2020-05-20T07:36:39Z</time>
      </trkpt>
      <trkpt lat="42.94381" lon="0.32286">
        <ele>1443.8000488281</ele>
        <time>2020-05-20T07:36:40Z</time>
      </trkpt>
      <trkpt lat="42.94388" lon="0.32274">
        <ele>1442.8000488281</ele>
        <time>2020-05-20T07:36:41Z</time>
      </trkpt>
      <trkpt lat="42.94395" lon="0.32261">
        <ele>1442</ele>
        <time>2020-05-20T07:36:42Z</time>
      </trkpt>
      <trkpt lat="42.94402" lon="0.32247">
        <ele>1441</ele>
        <time>2020-05-20T07:36:43Z</time>
      </trkpt>
      <trkpt lat="42.94409" lon="0.32234">
        <ele>1440.1999511719</ele>
        <time>2020-05-20T07:36:44Z</time>
      </trkpt>
      <trkpt lat="42.94416" lon="0.32219">
        <ele>1439.1999511719</ele>
        <time>2020-05-20T07:36:45Z</time>
      </trkpt>
      <trkpt lat="42.94422" lon="0.32205">
        <ele>1438.1999511719</ele>
        <time>2020-05-20T07:36:46Z</time>
      </trkpt>
      <trkpt lat="42.94428" lon="0.3219">
        <ele>1437.4000244141</ele>
        <time>2020-05-20T07:36:47Z</time>
      </trkpt>
      <trkpt lat="42.94434" lon="0.32175">
        <ele>1436.4000244141</ele>
        <time>2020-05-20T07:36:48Z</time>
      </trkpt>
      <trkpt lat="42.9444" lon="0.32161">
        <ele>1435.4000244141</ele>
        <time>2020-05-20T07:36:49Z</time>
      </trkpt>
      <trkpt lat="42.94447" lon="0.32146">
        <ele>1434.4000244141</ele>
        <time>2020-05-20T07:36:50Z</time>
      </trkpt>
      <trkpt lat="42.94453" lon="0.32131">
        <ele>1433.5999755859</ele>
        <time>2020-05-20T07:36:51Z</time>
      </trkpt>
      <trkpt lat="42.94459" lon="0.32116">
        <ele>1432.4000244141</ele>
        <time>2020-05-20T07:36:52Z</time>
      </trkpt>
      <trkpt lat="42.94465" lon="0.32101">
        <ele>1431.4000244141</ele>
        <time>2020-05-20T07:36:53Z</time>
      </trkpt>
      <trkpt lat="42.94471" lon="0.32086">
        <ele>1430.4000244141</ele>
        <time>2020-05-20T07:36:54Z</time>
      </trkpt>
      <trkpt lat="42.94476" lon="0.32071">
        <ele>1429.4000244141</ele>
        <time>2020-05-20T07:36:55Z</time>
      </trkpt>
      <trkpt lat="42.94482" lon="0.32056">
        <ele>1428.5999755859</ele>
        <time>2020-05-20T07:36:56Z</time>
      </trkpt>
      <trkpt lat="42.94488" lon="0.32041">
        <ele>1428</ele>
        <time>2020-05-20T07:36:57Z</time>
      </trkpt>
      <trkpt lat="42.94494" lon="0.32026">
        <ele>1427</ele>
        <time>2020-05-20T07:36:58Z</time>
      </trkpt>
      <trkpt lat="42.94502" lon="0.32012">
        <ele>1425</ele>
        <time>2020-05-20T07:36:59Z</time>
      </trkpt>
      <trkpt lat="42.9451" lon="0.31998">
        <ele>1424</ele>
        <time>2020-05-20T07:37:00Z</time>
      </trkpt>
      <trkpt lat="42.94518" lon="0.31984">
        <ele>1423</ele>
        <time>2020-05-20T07:37:01Z</time>
      </trkpt>
      <trkpt lat="42.94527" lon="0.31971">
        <ele>1422</ele>
        <time>2020-05-20T07:37:02Z</time>
      </trkpt>
      <trkpt lat="42.94535" lon="0.31957">
        <ele>1421.1999511719</ele>
        <time>2020-05-20T07:37:03Z</time>
      </trkpt>
      <trkpt lat="42.94544" lon="0.31943">
        <ele>1420.1999511719</ele>
        <time>2020-05-20T07:37:04Z</time>
      </trkpt>
      <trkpt lat="42.94552" lon="0.3193">
        <ele>1419.1999511719</ele>
        <time>2020-05-20T07:37:05Z</time>
      </trkpt>
      <trkpt lat="42.94561" lon="0.31914">
        <ele>1418.1999511719</ele>
        <time>2020-05-20T07:37:06Z</time>
      </trkpt>
      <trkpt lat="42.94568" lon="0.31897">
        <ele>1417.4000244141</ele>
        <time>2020-05-20T07:37:07Z</time>
      </trkpt>
      <trkpt lat="42.94572" lon="0.31878">
        <ele>1416.4000244141</ele>
        <time>2020-05-20T07:37:08Z</time>
      </trkpt>
      <trkpt lat="42.94577" lon="0.31861">
        <ele>1415.4000244141</ele>
        <time>2020-05-20T07:37:09Z</time>
      </trkpt>
      <trkpt lat="42.94581" lon="0.31844">
        <ele>1414.4000244141</ele>
        <time>2020-05-20T07:37:10Z</time>
      </trkpt>
      <trkpt lat="42.94586" lon="0.31827">
        <ele>1413.4000244141</ele>
        <time>2020-05-20T07:37:11Z</time>
      </trkpt>
      <trkpt lat="42.94592" lon="0.3181">
        <ele>1412.4000244141</ele>
        <time>2020-05-20T07:37:12Z</time>
      </trkpt>
      <trkpt lat="42.94598" lon="0.31794">
        <ele>1411.5999755859</ele>
        <time>2020-05-20T07:37:13Z</time>
      </trkpt>
      <trkpt lat="42.94606" lon="0.31778">
        <ele>1410.5999755859</ele>
        <time>2020-05-20T07:37:14Z</time>
      </trkpt>
      <trkpt lat="42.94613" lon="0.31765">
        <ele>1409.8000488281</ele>
        <time>2020-05-20T07:37:15Z</time>
      </trkpt>
      <trkpt lat="42.94622" lon="0.31754">
        <ele>1409</ele>
        <time>2020-05-20T07:37:16Z</time>
      </trkpt>
      <trkpt lat="42.9463" lon="0.31747">
        <ele>1408</ele>
        <time>2020-05-20T07:37:17Z</time>
      </trkpt>
      <trkpt lat="42.94638" lon="0.31741">
        <ele>1407.1999511719</ele>
        <time>2020-05-20T07:37:18Z</time>
      </trkpt>
      <trkpt lat="42.94645" lon="0.31735">
        <ele>1406.4000244141</ele>
        <time>2020-05-20T07:37:19Z</time>
      </trkpt>
      <trkpt lat="42.94651" lon="0.31728">
        <ele>1405.5999755859</ele>
        <time>2020-05-20T07:37:20Z</time>
      </trkpt>
      <trkpt lat="42.94655" lon="0.31718">
        <ele>1405.5999755859</ele>
        <time>2020-05-20T07:37:21Z</time>
      </trkpt>
      <trkpt lat="42.94658" lon="0.31687">
        <ele>1405.5999755859</ele>
        <time>2020-05-20T07:37:24Z</time>
      </trkpt>
      <trkpt lat="42.94657" lon="0.3166">
        <ele>1405</ele>
        <time>2020-05-20T07:37:27Z</time>
      </trkpt>
      <trkpt lat="42.94653" lon="0.3165">
        <ele>1404.5999755859</ele>
        <time>2020-05-20T07:37:28Z</time>
      </trkpt>
      <trkpt lat="42.94646" lon="0.3164">
        <ele>1404.1999511719</ele>
        <time>2020-05-20T07:37:29Z</time>
      </trkpt>
      <trkpt lat="42.94637" lon="0.31633">
        <ele>1403.4000244141</ele>
        <time>2020-05-20T07:37:30Z</time>
      </trkpt>
      <trkpt lat="42.94628" lon="0.31627">
        <ele>1402.8000488281</ele>
        <time>2020-05-20T07:37:31Z</time>
      </trkpt>
      <trkpt lat="42.94617" lon="0.3162">
        <ele>1402</ele>
        <time>2020-05-20T07:37:32Z</time>
      </trkpt>
      <trkpt lat="42.94603" lon="0.31612">
        <ele>1401.1999511719</ele>
        <time>2020-05-20T07:37:33Z</time>
      </trkpt>
      <trkpt lat="42.94587" lon="0.31604">
        <ele>1400.4000244141</ele>
        <time>2020-05-20T07:37:34Z</time>
      </trkpt>
      <trkpt lat="42.94575" lon="0.31595">
        <ele>1399.4000244141</ele>
        <time>2020-05-20T07:37:35Z</time>
      </trkpt>
      <trkpt lat="42.94563" lon="0.31584">
        <ele>1398.5999755859</ele>
        <time>2020-05-20T07:37:36Z</time>
      </trkpt>
      <trkpt lat="42.94553" lon="0.31573">
        <ele>1397.5999755859</ele>
        <time>2020-05-20T07:37:37Z</time>
      </trkpt>
      <trkpt lat="42.94543" lon="0.31562">
        <ele>1396.5999755859</ele>
        <time>2020-05-20T07:37:38Z</time>
      </trkpt>
      <trkpt lat="42.94534" lon="0.3155">
        <ele>1395.4000244141</ele>
        <time>2020-05-20T07:37:39Z</time>
      </trkpt>
      <trkpt lat="42.94525" lon="0.31538">
        <ele>1394.4000244141</ele>
        <time>2020-05-20T07:37:40Z</time>
      </trkpt>
      <trkpt lat="42.94516" lon="0.31526">
        <ele>1393.4000244141</ele>
        <time>2020-05-20T07:37:41Z</time>
      </trkpt>
      <trkpt lat="42.94507" lon="0.31515">
        <ele>1392.4000244141</ele>
        <time>2020-05-20T07:37:42Z</time>
      </trkpt>
      <trkpt lat="42.94498" lon="0.31503">
        <ele>1391.4000244141</ele>
        <time>2020-05-20T07:37:43Z</time>
      </trkpt>
      <trkpt lat="42.94491" lon="0.31491">
        <ele>1390.5999755859</ele>
        <time>2020-05-20T07:37:44Z</time>
      </trkpt>
      <trkpt lat="42.94485" lon="0.31478">
        <ele>1389.5999755859</ele>
        <time>2020-05-20T07:37:45Z</time>
      </trkpt>
      <trkpt lat="42.9448" lon="0.31464">
        <ele>1389</ele>
        <time>2020-05-20T07:37:46Z</time>
      </trkpt>
      <trkpt lat="42.94477" lon="0.3145">
        <ele>1388.4000244141</ele>
        <time>2020-05-20T07:37:47Z</time>
      </trkpt>
      <trkpt lat="42.94473" lon="0.31435">
        <ele>1387.8000488281</ele>
        <time>2020-05-20T07:37:48Z</time>
      </trkpt>
      <trkpt lat="42.94467" lon="0.31421">
        <ele>1386.1999511719</ele>
        <time>2020-05-20T07:37:49Z</time>
      </trkpt>
      <trkpt lat="42.94461" lon="0.31408">
        <ele>1385.4000244141</ele>
        <time>2020-05-20T07:37:50Z</time>
      </trkpt>
      <trkpt lat="42.94454" lon="0.31395">
        <ele>1384.4000244141</ele>
        <time>2020-05-20T07:37:51Z</time>
      </trkpt>
      <trkpt lat="42.94447" lon="0.31381">
        <ele>1383.4000244141</ele>
        <time>2020-05-20T07:37:52Z</time>
      </trkpt>
      <trkpt lat="42.9444" lon="0.31367">
        <ele>1382.4000244141</ele>
        <time>2020-05-20T07:37:53Z</time>
      </trkpt>
      <trkpt lat="42.94434" lon="0.31353">
        <ele>1381.4000244141</ele>
        <time>2020-05-20T07:37:54Z</time>
      </trkpt>
      <trkpt lat="42.94428" lon="0.31339">
        <ele>1380.4000244141</ele>
        <time>2020-05-20T07:37:55Z</time>
      </trkpt>
      <trkpt lat="42.94422" lon="0.31325">
        <ele>1379.5999755859</ele>
        <time>2020-05-20T07:37:56Z</time>
      </trkpt>
      <trkpt lat="42.94415" lon="0.31311">
        <ele>1378.5999755859</ele>
        <time>2020-05-20T07:37:57Z</time>
      </trkpt>
      <trkpt lat="42.94409" lon="0.31298">
        <ele>1377.8000488281</ele>
        <time>2020-05-20T07:37:58Z</time>
      </trkpt>
      <trkpt lat="42.94401" lon="0.31285">
        <ele>1377</ele>
        <time>2020-05-20T07:37:59Z</time>
      </trkpt>
      <trkpt lat="42.94393" lon="0.31273">
        <ele>1376.1999511719</ele>
        <time>2020-05-20T07:38:00Z</time>
      </trkpt>
      <trkpt lat="42.94383" lon="0.31264">
        <ele>1375.4000244141</ele>
        <time>2020-05-20T07:38:01Z</time>
      </trkpt>
      <trkpt lat="42.94373" lon="0.31255">
        <ele>1374.8000488281</ele>
        <time>2020-05-20T07:38:02Z</time>
      </trkpt>
      <trkpt lat="42.94363" lon="0.31246">
        <ele>1374</ele>
        <time>2020-05-20T07:38:03Z</time>
      </trkpt>
      <trkpt lat="42.94353" lon="0.31236">
        <ele>1373.4000244141</ele>
        <time>2020-05-20T07:38:04Z</time>
      </trkpt>
      <trkpt lat="42.94344" lon="0.31224">
        <ele>1372.8000488281</ele>
        <time>2020-05-20T07:38:05Z</time>
      </trkpt>
      <trkpt lat="42.94336" lon="0.31212">
        <ele>1372</ele>
        <time>2020-05-20T07:38:06Z</time>
      </trkpt>
      <trkpt lat="42.94328" lon="0.312">
        <ele>1371.4000244141</ele>
        <time>2020-05-20T07:38:07Z</time>
      </trkpt>
      <trkpt lat="42.94319" lon="0.31188">
        <ele>1370.4000244141</ele>
        <time>2020-05-20T07:38:08Z</time>
      </trkpt>
      <trkpt lat="42.9431" lon="0.31177">
        <ele>1369.5999755859</ele>
        <time>2020-05-20T07:38:09Z</time>
      </trkpt>
      <trkpt lat="42.94301" lon="0.31167">
        <ele>1368.8000488281</ele>
        <time>2020-05-20T07:38:10Z</time>
      </trkpt>
      <trkpt lat="42.94291" lon="0.3116">
        <ele>1368</ele>
        <time>2020-05-20T07:38:11Z</time>
      </trkpt>
      <trkpt lat="42.94281" lon="0.31155">
        <ele>1367.1999511719</ele>
        <time>2020-05-20T07:38:12Z</time>
      </trkpt>
      <trkpt lat="42.9427" lon="0.31152">
        <ele>1366.5999755859</ele>
        <time>2020-05-20T07:38:13Z</time>
      </trkpt>
      <trkpt lat="42.94261" lon="0.31151">
        <ele>1365.1999511719</ele>
        <time>2020-05-20T07:38:14Z</time>
      </trkpt>
      <trkpt lat="42.94252" lon="0.31147">
        <ele>1364.5999755859</ele>
        <time>2020-05-20T07:38:15Z</time>
      </trkpt>
      <trkpt lat="42.94245" lon="0.3114">
        <ele>1363.8000488281</ele>
        <time>2020-05-20T07:38:16Z</time>
      </trkpt>
      <trkpt lat="42.94239" lon="0.31131">
        <ele>1363.1999511719</ele>
        <time>2020-05-20T07:38:17Z</time>
      </trkpt>
      <trkpt lat="42.94236" lon="0.31121">
        <ele>1362.4000244141</ele>
        <time>2020-05-20T07:38:18Z</time>
      </trkpt>
      <trkpt lat="42.94234" lon="0.3111">
        <ele>1362.4000244141</ele>
        <time>2020-05-20T07:38:19Z</time>
      </trkpt>
      <trkpt lat="42.94234" lon="0.31098">
        <ele>1362</ele>
        <time>2020-05-20T07:38:20Z</time>
      </trkpt>
      <trkpt lat="42.94234" lon="0.31084">
        <ele>1361.4000244141</ele>
        <time>2020-05-20T07:38:21Z</time>
      </trkpt>
      <trkpt lat="42.94235" lon="0.3107">
        <ele>1360.8000488281</ele>
        <time>2020-05-20T07:38:22Z</time>
      </trkpt>
      <trkpt lat="42.94236" lon="0.31056">
        <ele>1360.1999511719</ele>
        <time>2020-05-20T07:38:23Z</time>
      </trkpt>
      <trkpt lat="42.94237" lon="0.31041">
        <ele>1359.4000244141</ele>
        <time>2020-05-20T07:38:24Z</time>
      </trkpt>
      <trkpt lat="42.94239" lon="0.31025">
        <ele>1358.4000244141</ele>
        <time>2020-05-20T07:38:25Z</time>
      </trkpt>
      <trkpt lat="42.94242" lon="0.31009">
        <ele>1357.4000244141</ele>
        <time>2020-05-20T07:38:26Z</time>
      </trkpt>
      <trkpt lat="42.94244" lon="0.30993">
        <ele>1356.4000244141</ele>
        <time>2020-05-20T07:38:27Z</time>
      </trkpt>
      <trkpt lat="42.94246" lon="0.30977">
        <ele>1355.4000244141</ele>
        <time>2020-05-20T07:38:28Z</time>
      </trkpt>
      <trkpt lat="42.94249" lon="0.30959">
        <ele>1354.1999511719</ele>
        <time>2020-05-20T07:38:29Z</time>
      </trkpt>
      <trkpt lat="42.9425" lon="0.30941">
        <ele>1353.1999511719</ele>
        <time>2020-05-20T07:38:30Z</time>
      </trkpt>
      <trkpt lat="42.94253" lon="0.30923">
        <ele>1352</ele>
        <time>2020-05-20T07:38:31Z</time>
      </trkpt>
      <trkpt lat="42.94257" lon="0.30906">
        <ele>1350.8000488281</ele>
        <time>2020-05-20T07:38:32Z</time>
      </trkpt>
      <trkpt lat="42.94261" lon="0.30888">
        <ele>1349.5999755859</ele>
        <time>2020-05-20T07:38:33Z</time>
      </trkpt>
      <trkpt lat="42.94265" lon="0.3087">
        <ele>1348.4000244141</ele>
        <time>2020-05-20T07:38:34Z</time>
      </trkpt>
      <trkpt lat="42.94269" lon="0.30852">
        <ele>1347.1999511719</ele>
        <time>2020-05-20T07:38:35Z</time>
      </trkpt>
      <trkpt lat="42.94272" lon="0.30835">
        <ele>1346.1999511719</ele>
        <time>2020-05-20T07:38:36Z</time>
      </trkpt>
      <trkpt lat="42.94276" lon="0.30818">
        <ele>1344.8000488281</ele>
        <time>2020-05-20T07:38:37Z</time>
      </trkpt>
      <trkpt lat="42.94281" lon="0.30802">
        <ele>1343.5999755859</ele>
        <time>2020-05-20T07:38:38Z</time>
      </trkpt>
      <trkpt lat="42.94285" lon="0.30786">
        <ele>1341.1999511719</ele>
        <time>2020-05-20T07:38:39Z</time>
      </trkpt>
      <trkpt lat="42.9429" lon="0.30771">
        <ele>1340.1999511719</ele>
        <time>2020-05-20T07:38:40Z</time>
      </trkpt>
      <trkpt lat="42.94295" lon="0.30757">
        <ele>1339.1999511719</ele>
        <time>2020-05-20T07:38:41Z</time>
      </trkpt>
      <trkpt lat="42.943" lon="0.30744">
        <ele>1338.1999511719</ele>
        <time>2020-05-20T07:38:42Z</time>
      </trkpt>
      <trkpt lat="42.94304" lon="0.30733">
        <ele>1337.1999511719</ele>
        <time>2020-05-20T07:38:43Z</time>
      </trkpt>
      <trkpt lat="42.94308" lon="0.30722">
        <ele>1336.1999511719</ele>
        <time>2020-05-20T07:38:44Z</time>
      </trkpt>
      <trkpt lat="42.94311" lon="0.30712">
        <ele>1335.1999511719</ele>
        <time>2020-05-20T07:38:45Z</time>
      </trkpt>
      <trkpt lat="42.94309" lon="0.3068">
        <ele>1335.1999511719</ele>
        <time>2020-05-20T07:38:48Z</time>
      </trkpt>
      <trkpt lat="42.94308" lon="0.3067">
        <ele>1334.8000488281</ele>
        <time>2020-05-20T07:38:49Z</time>
      </trkpt>
      <trkpt lat="42.94308" lon="0.30662">
        <ele>1334.4000244141</ele>
        <time>2020-05-20T07:38:50Z</time>
      </trkpt>
      <trkpt lat="42.94309" lon="0.30655">
        <ele>1334</ele>
        <time>2020-05-20T07:38:51Z</time>
      </trkpt>
      <trkpt lat="42.94309" lon="0.30649">
        <ele>1333.5999755859</ele>
        <time>2020-05-20T07:38:52Z</time>
      </trkpt>
      <trkpt lat="42.9431" lon="0.30643">
        <ele>1334</ele>
        <time>2020-05-20T07:38:53Z</time>
      </trkpt>
      <trkpt lat="42.9431" lon="0.3064">
        <ele>1334.4000244141</ele>
        <time>2020-05-20T07:38:54Z</time>
      </trkpt>
      <trkpt lat="42.94311" lon="0.30637">
        <ele>1335</ele>
        <time>2020-05-20T07:38:55Z</time>
      </trkpt>
      <trkpt lat="42.94312" lon="0.30634">
        <ele>1335.4000244141</ele>
        <time>2020-05-20T07:38:56Z</time>
      </trkpt>
      <trkpt lat="42.94313" lon="0.30632">
        <ele>1336</ele>
        <time>2020-05-20T07:38:57Z</time>
      </trkpt>
      <trkpt lat="42.94314" lon="0.3063">
        <ele>1336.5999755859</ele>
        <time>2020-05-20T07:38:58Z</time>
      </trkpt>
      <trkpt lat="42.94315" lon="0.30628">
        <ele>1337</ele>
        <time>2020-05-20T07:38:59Z</time>
      </trkpt>
      <trkpt lat="42.94315" lon="0.30626">
        <ele>1337.5999755859</ele>
        <time>2020-05-20T07:39:00Z</time>
      </trkpt>
      <trkpt lat="42.94316" lon="0.30625">
        <ele>1338.1999511719</ele>
        <time>2020-05-20T07:39:01Z</time>
      </trkpt>
      <trkpt lat="42.94318" lon="0.30614">
        <ele>1338.1999511719</ele>
        <time>2020-05-20T07:39:06Z</time>
      </trkpt>
      <trkpt lat="42.94319" lon="0.30607">
        <ele>1338.5999755859</ele>
        <time>2020-05-20T07:39:09Z</time>
      </trkpt>
      <trkpt lat="42.9432" lon="0.30605">
        <ele>1339</ele>
        <time>2020-05-20T07:39:10Z</time>
      </trkpt>
      <trkpt lat="42.9432" lon="0.30603">
        <ele>1339.4000244141</ele>
        <time>2020-05-20T07:39:11Z</time>
      </trkpt>
      <trkpt lat="42.94321" lon="0.30601">
        <ele>1339.8000488281</ele>
        <time>2020-05-20T07:39:12Z</time>
      </trkpt>
      <trkpt lat="42.94322" lon="0.306">
        <ele>1340.1999511719</ele>
        <time>2020-05-20T07:39:13Z</time>
      </trkpt>
      <trkpt lat="42.94326" lon="0.30588">
        <ele>1340.1999511719</ele>
        <time>2020-05-20T07:39:17Z</time>
      </trkpt>
      <trkpt lat="42.94329" lon="0.30576">
        <ele>1340.8000488281</ele>
        <time>2020-05-20T07:39:21Z</time>
      </trkpt>
      <trkpt lat="42.94329" lon="0.30573">
        <ele>1341.1999511719</ele>
        <time>2020-05-20T07:39:22Z</time>
      </trkpt>
      <trkpt lat="42.9433" lon="0.30571">
        <ele>1341.5999755859</ele>
        <time>2020-05-20T07:39:23Z</time>
      </trkpt>
      <trkpt lat="42.94331" lon="0.30568">
        <ele>1342</ele>
        <time>2020-05-20T07:39:24Z</time>
      </trkpt>
      <trkpt lat="42.94331" lon="0.30566">
        <ele>1342.4000244141</ele>
        <time>2020-05-20T07:39:25Z</time>
      </trkpt>
      <trkpt lat="42.94333" lon="0.30555">
        <ele>1342.4000244141</ele>
        <time>2020-05-20T07:39:28Z</time>
      </trkpt>
      <trkpt lat="42.94336" lon="0.30537">
        <ele>1342.4000244141</ele>
        <time>2020-05-20T07:39:33Z</time>
      </trkpt>
      <trkpt lat="42.94331" lon="0.30522">
        <ele>1342.8000488281</ele>
        <time>2020-05-20T07:39:37Z</time>
      </trkpt>
      <trkpt lat="42.9433" lon="0.30519">
        <ele>1343.1999511719</ele>
        <time>2020-05-20T07:39:38Z</time>
      </trkpt>
      <trkpt lat="42.94329" lon="0.30516">
        <ele>1343.5999755859</ele>
        <time>2020-05-20T07:39:39Z</time>
      </trkpt>
      <trkpt lat="42.94327" lon="0.30514">
        <ele>1344</ele>
        <time>2020-05-20T07:39:40Z</time>
      </trkpt>
      <trkpt lat="42.94324" lon="0.30512">
        <ele>1344.4000244141</ele>
        <time>2020-05-20T07:39:41Z</time>
      </trkpt>
      <trkpt lat="42.94323" lon="0.30511">
        <ele>1344.4000244141</ele>
        <time>2020-05-20T07:39:42Z</time>
      </trkpt>
      <trkpt lat="42.94305" lon="0.30505">
        <ele>1344.4000244141</ele>
        <time>2020-05-20T07:39:49Z</time>
      </trkpt>
      <trkpt lat="42.94291" lon="0.30502">
        <ele>1344.4000244141</ele>
        <time>2020-05-20T07:39:54Z</time>
      </trkpt>
      <trkpt lat="42.9428" lon="0.30491">
        <ele>1344.4000244141</ele>
        <time>2020-05-20T07:39:59Z</time>
      </trkpt>
      <trkpt lat="42.94278" lon="0.30483">
        <ele>1344.8000488281</ele>
        <time>2020-05-20T07:40:01Z</time>
      </trkpt>
      <trkpt lat="42.94276" lon="0.30479">
        <ele>1345.1999511719</ele>
        <time>2020-05-20T07:40:02Z</time>
      </trkpt>
      <trkpt lat="42.94275" lon="0.30475">
        <ele>1345.5999755859</ele>
        <time>2020-05-20T07:40:03Z</time>
      </trkpt>
      <trkpt lat="42.94273" lon="0.30471">
        <ele>1346</ele>
        <time>2020-05-20T07:40:04Z</time>
      </trkpt>
      <trkpt lat="42.94272" lon="0.30467">
        <ele>1346.4000244141</ele>
        <time>2020-05-20T07:40:05Z</time>
      </trkpt>
      <trkpt lat="42.94261" lon="0.30428">
        <ele>1346.4000244141</ele>
        <time>2020-05-20T07:40:14Z</time>
      </trkpt>
      <trkpt lat="42.94251" lon="0.30395">
        <ele>1346.4000244141</ele>
        <time>2020-05-20T07:40:22Z</time>
      </trkpt>
      <trkpt lat="42.9424" lon="0.30359">
        <ele>1346.4000244141</ele>
        <time>2020-05-20T07:40:30Z</time>
      </trkpt>
      <trkpt lat="42.94236" lon="0.30327">
        <ele>1346.4000244141</ele>
        <time>2020-05-20T07:40:37Z</time>
      </trkpt>
      <trkpt lat="42.94229" lon="0.30308">
        <ele>1346.8000488281</ele>
        <time>2020-05-20T07:40:42Z</time>
      </trkpt>
      <trkpt lat="42.94228" lon="0.30304">
        <ele>1347.1999511719</ele>
        <time>2020-05-20T07:40:43Z</time>
      </trkpt>
      <trkpt lat="42.94226" lon="0.303">
        <ele>1347.5999755859</ele>
        <time>2020-05-20T07:40:44Z</time>
      </trkpt>
      <trkpt lat="42.94225" lon="0.30296">
        <ele>1348</ele>
        <time>2020-05-20T07:40:45Z</time>
      </trkpt>
      <trkpt lat="42.94223" lon="0.30292">
        <ele>1348.4000244141</ele>
        <time>2020-05-20T07:40:46Z</time>
      </trkpt>
      <trkpt lat="42.94222" lon="0.30283">
        <ele>1348.4000244141</ele>
        <time>2020-05-20T07:40:48Z</time>
      </trkpt>
      <trkpt lat="42.94218" lon="0.30249">
        <ele>1348.4000244141</ele>
        <time>2020-05-20T07:40:55Z</time>
      </trkpt>
      <trkpt lat="42.94213" lon="0.30224">
        <ele>1348.4000244141</ele>
        <time>2020-05-20T07:41:00Z</time>
      </trkpt>
      <trkpt lat="42.94211" lon="0.30221">
        <ele>1348.4000244141</ele>
        <time>2020-05-20T07:41:01Z</time>
      </trkpt>
      <trkpt lat="42.94202" lon="0.30209">
        <ele>1348.4000244141</ele>
        <time>2020-05-20T07:41:04Z</time>
      </trkpt>
      <trkpt lat="42.94187" lon="0.30186">
        <ele>1348.4000244141</ele>
        <time>2020-05-20T07:41:10Z</time>
      </trkpt>
      <trkpt lat="42.94181" lon="0.30159">
        <ele>1348.4000244141</ele>
        <time>2020-05-20T07:41:16Z</time>
      </trkpt>
      <trkpt lat="42.9418" lon="0.3015">
        <ele>1348.8000488281</ele>
        <time>2020-05-20T07:41:18Z</time>
      </trkpt>
      <trkpt lat="42.9418" lon="0.30146">
        <ele>1349.1999511719</ele>
        <time>2020-05-20T07:41:19Z</time>
      </trkpt>
      <trkpt lat="42.9418" lon="0.30141">
        <ele>1349.8000488281</ele>
        <time>2020-05-20T07:41:20Z</time>
      </trkpt>
      <trkpt lat="42.9418" lon="0.30137">
        <ele>1350.1999511719</ele>
        <time>2020-05-20T07:41:21Z</time>
      </trkpt>
      <trkpt lat="42.9418" lon="0.30133">
        <ele>1350.5999755859</ele>
        <time>2020-05-20T07:41:22Z</time>
      </trkpt>
      <trkpt lat="42.9418" lon="0.30128">
        <ele>1350.5999755859</ele>
        <time>2020-05-20T07:41:23Z</time>
      </trkpt>
      <trkpt lat="42.9418" lon="0.30112">
        <ele>1350.5999755859</ele>
        <time>2020-05-20T07:41:26Z</time>
      </trkpt>
      <trkpt lat="42.94181" lon="0.30097">
        <ele>1350.5999755859</ele>
        <time>2020-05-20T07:41:29Z</time>
      </trkpt>
      <trkpt lat="42.94187" lon="0.30065">
        <ele>1350.5999755859</ele>
        <time>2020-05-20T07:41:36Z</time>
      </trkpt>
      <trkpt lat="42.94197" lon="0.30044">
        <ele>1350.5999755859</ele>
        <time>2020-05-20T07:41:41Z</time>
      </trkpt>
      <trkpt lat="42.94213" lon="0.30031">
        <ele>1350.5999755859</ele>
        <time>2020-05-20T07:41:46Z</time>
      </trkpt>
      <trkpt lat="42.94224" lon="0.30022">
        <ele>1351</ele>
        <time>2020-05-20T07:41:50Z</time>
      </trkpt>
      <trkpt lat="42.94227" lon="0.30021">
        <ele>1351.4000244141</ele>
        <time>2020-05-20T07:41:51Z</time>
      </trkpt>
      <trkpt lat="42.9423" lon="0.30021">
        <ele>1351.8000488281</ele>
        <time>2020-05-20T07:41:52Z</time>
      </trkpt>
      <trkpt lat="42.94232" lon="0.3002">
        <ele>1352.1999511719</ele>
        <time>2020-05-20T07:41:53Z</time>
      </trkpt>
      <trkpt lat="42.94235" lon="0.3002">
        <ele>1352.5999755859</ele>
        <time>2020-05-20T07:41:54Z</time>
      </trkpt>
      <trkpt lat="42.9425" lon="0.30019">
        <ele>1352.5999755859</ele>
        <time>2020-05-20T07:41:59Z</time>
      </trkpt>
      <trkpt lat="42.94263" lon="0.30024">
        <ele>1352.5999755859</ele>
        <time>2020-05-20T07:42:04Z</time>
      </trkpt>
      <trkpt lat="42.94266" lon="0.30026">
        <ele>1353</ele>
        <time>2020-05-20T07:42:06Z</time>
      </trkpt>
      <trkpt lat="42.94268" lon="0.30027">
        <ele>1353.4000244141</ele>
        <time>2020-05-20T07:42:07Z</time>
      </trkpt>
      <trkpt lat="42.94271" lon="0.30027">
        <ele>1353.8000488281</ele>
        <time>2020-05-20T07:42:08Z</time>
      </trkpt>
      <trkpt lat="42.94272" lon="0.30028">
        <ele>1354.1999511719</ele>
        <time>2020-05-20T07:42:09Z</time>
      </trkpt>
      <trkpt lat="42.94274" lon="0.30028">
        <ele>1354.5999755859</ele>
        <time>2020-05-20T07:42:10Z</time>
      </trkpt>
      <trkpt lat="42.94285" lon="0.30029">
        <ele>1354.5999755859</ele>
        <time>2020-05-20T07:42:15Z</time>
      </trkpt>
      <trkpt lat="42.94291" lon="0.3003">
        <ele>1355.1999511719</ele>
        <time>2020-05-20T07:42:18Z</time>
      </trkpt>
      <trkpt lat="42.94293" lon="0.30031">
        <ele>1355.5999755859</ele>
        <time>2020-05-20T07:42:19Z</time>
      </trkpt>
      <trkpt lat="42.94295" lon="0.30031">
        <ele>1356.4000244141</ele>
        <time>2020-05-20T07:42:20Z</time>
      </trkpt>
      <trkpt lat="42.94297" lon="0.30032">
        <ele>1356.8000488281</ele>
        <time>2020-05-20T07:42:21Z</time>
      </trkpt>
      <trkpt lat="42.94313" lon="0.30031">
        <ele>1357.1999511719</ele>
        <time>2020-05-20T07:42:27Z</time>
      </trkpt>
      <trkpt lat="42.94314" lon="0.30031">
        <ele>1357.5999755859</ele>
        <time>2020-05-20T07:42:28Z</time>
      </trkpt>
      <trkpt lat="42.94316" lon="0.30031">
        <ele>1358</ele>
        <time>2020-05-20T07:42:29Z</time>
      </trkpt>
      <trkpt lat="42.94318" lon="0.3003">
        <ele>1358.4000244141</ele>
        <time>2020-05-20T07:42:30Z</time>
      </trkpt>
      <trkpt lat="42.9432" lon="0.3003">
        <ele>1358.8000488281</ele>
        <time>2020-05-20T07:42:31Z</time>
      </trkpt>
      <trkpt lat="42.94322" lon="0.3003">
        <ele>1358.8000488281</ele>
        <time>2020-05-20T07:42:32Z</time>
      </trkpt>
      <trkpt lat="42.94338" lon="0.30031">
        <ele>1359.1999511719</ele>
        <time>2020-05-20T07:42:39Z</time>
      </trkpt>
      <trkpt lat="42.94339" lon="0.30031">
        <ele>1359.5999755859</ele>
        <time>2020-05-20T07:42:40Z</time>
      </trkpt>
      <trkpt lat="42.94341" lon="0.30031">
        <ele>1360</ele>
        <time>2020-05-20T07:42:41Z</time>
      </trkpt>
      <trkpt lat="42.94343" lon="0.30031">
        <ele>1360.4000244141</ele>
        <time>2020-05-20T07:42:42Z</time>
      </trkpt>
      <trkpt lat="42.94345" lon="0.30031">
        <ele>1360.8000488281</ele>
        <time>2020-05-20T07:42:43Z</time>
      </trkpt>
      <trkpt lat="42.94349" lon="0.30031">
        <ele>1360.8000488281</ele>
        <time>2020-05-20T07:42:45Z</time>
      </trkpt>
      <trkpt lat="42.94361" lon="0.30032">
        <ele>1361.1999511719</ele>
        <time>2020-05-20T07:42:50Z</time>
      </trkpt>
      <trkpt lat="42.94362" lon="0.30032">
        <ele>1361.5999755859</ele>
        <time>2020-05-20T07:42:51Z</time>
      </trkpt>
      <trkpt lat="42.94365" lon="0.30033">
        <ele>1362</ele>
        <time>2020-05-20T07:42:52Z</time>
      </trkpt>
      <trkpt lat="42.94367" lon="0.30032">
        <ele>1362.4000244141</ele>
        <time>2020-05-20T07:42:53Z</time>
      </trkpt>
      <trkpt lat="42.94368" lon="0.30033">
        <ele>1362.8000488281</ele>
        <time>2020-05-20T07:42:54Z</time>
      </trkpt>
      <trkpt lat="42.94372" lon="0.30032">
        <ele>1362.8000488281</ele>
        <time>2020-05-20T07:42:56Z</time>
      </trkpt>
      <trkpt lat="42.94381" lon="0.30031">
        <ele>1362.8000488281</ele>
        <time>2020-05-20T07:43:00Z</time>
      </trkpt>
      <trkpt lat="42.94392" lon="0.3003">
        <ele>1363.1999511719</ele>
        <time>2020-05-20T07:43:05Z</time>
      </trkpt>
      <trkpt lat="42.94394" lon="0.3003">
        <ele>1363.5999755859</ele>
        <time>2020-05-20T07:43:06Z</time>
      </trkpt>
      <trkpt lat="42.94397" lon="0.30031">
        <ele>1364</ele>
        <time>2020-05-20T07:43:07Z</time>
      </trkpt>
      <trkpt lat="42.94399" lon="0.30031">
        <ele>1364.5999755859</ele>
        <time>2020-05-20T07:43:08Z</time>
      </trkpt>
      <trkpt lat="42.94402" lon="0.30031">
        <ele>1365</ele>
        <time>2020-05-20T07:43:09Z</time>
      </trkpt>
      <trkpt lat="42.9441" lon="0.30031">
        <ele>1365</ele>
        <time>2020-05-20T07:43:13Z</time>
      </trkpt>
      <trkpt lat="42.94421" lon="0.3003">
        <ele>1365</ele>
        <time>2020-05-20T07:43:19Z</time>
      </trkpt>
      <trkpt lat="42.94427" lon="0.30031">
        <ele>1365.4000244141</ele>
        <time>2020-05-20T07:43:22Z</time>
      </trkpt>
      <trkpt lat="42.94429" lon="0.30031">
        <ele>1365.8000488281</ele>
        <time>2020-05-20T07:43:23Z</time>
      </trkpt>
      <trkpt lat="42.9443" lon="0.30032">
        <ele>1366.1999511719</ele>
        <time>2020-05-20T07:43:24Z</time>
      </trkpt>
      <trkpt lat="42.94433" lon="0.30031">
        <ele>1366.5999755859</ele>
        <time>2020-05-20T07:43:25Z</time>
      </trkpt>
      <trkpt lat="42.94435" lon="0.30032">
        <ele>1367</ele>
        <time>2020-05-20T07:43:26Z</time>
      </trkpt>
      <trkpt lat="42.9444" lon="0.30032">
        <ele>1367</ele>
        <time>2020-05-20T07:43:30Z</time>
      </trkpt>
      <trkpt lat="42.94451" lon="0.30035">
        <ele>1367</ele>
        <time>2020-05-20T07:43:35Z</time>
      </trkpt>
      <trkpt lat="42.94454" lon="0.30036">
        <ele>1367.4000244141</ele>
        <time>2020-05-20T07:43:36Z</time>
      </trkpt>
      <trkpt lat="42.94456" lon="0.30038">
        <ele>1367.8000488281</ele>
        <time>2020-05-20T07:43:37Z</time>
      </trkpt>
      <trkpt lat="42.94458" lon="0.30038">
        <ele>1368.1999511719</ele>
        <time>2020-05-20T07:43:38Z</time>
      </trkpt>
      <trkpt lat="42.94461" lon="0.30039">
        <ele>1368.5999755859</ele>
        <time>2020-05-20T07:43:39Z</time>
      </trkpt>
      <trkpt lat="42.94463" lon="0.3004">
        <ele>1369</ele>
        <time>2020-05-20T07:43:40Z</time>
      </trkpt>
      <trkpt lat="42.94464" lon="0.30041">
        <ele>1369</ele>
        <time>2020-05-20T07:43:41Z</time>
      </trkpt>
      <trkpt lat="42.94477" lon="0.30049">
        <ele>1369</ele>
        <time>2020-05-20T07:43:47Z</time>
      </trkpt>
      <trkpt lat="42.94482" lon="0.30053">
        <ele>1369.5999755859</ele>
        <time>2020-05-20T07:43:50Z</time>
      </trkpt>
      <trkpt lat="42.94484" lon="0.30054">
        <ele>1370</ele>
        <time>2020-05-20T07:43:51Z</time>
      </trkpt>
      <trkpt lat="42.94485" lon="0.30056">
        <ele>1370.4000244141</ele>
        <time>2020-05-20T07:43:52Z</time>
      </trkpt>
      <trkpt lat="42.94487" lon="0.30057">
        <ele>1370.8000488281</ele>
        <time>2020-05-20T07:43:53Z</time>
      </trkpt>
      <trkpt lat="42.94488" lon="0.30058">
        <ele>1371.1999511719</ele>
        <time>2020-05-20T07:43:54Z</time>
      </trkpt>
      <trkpt lat="42.9449" lon="0.30059">
        <ele>1371.1999511719</ele>
        <time>2020-05-20T07:43:55Z</time>
      </trkpt>
      <trkpt lat="42.94503" lon="0.30071">
        <ele>1371.1999511719</ele>
        <time>2020-05-20T07:44:01Z</time>
      </trkpt>
      <trkpt lat="42.94511" lon="0.3008">
        <ele>1371.5999755859</ele>
        <time>2020-05-20T07:44:05Z</time>
      </trkpt>
      <trkpt lat="42.94513" lon="0.30082">
        <ele>1372.1999511719</ele>
        <time>2020-05-20T07:44:06Z</time>
      </trkpt>
      <trkpt lat="42.94515" lon="0.30083">
        <ele>1372.5999755859</ele>
        <time>2020-05-20T07:44:07Z</time>
      </trkpt>
      <trkpt lat="42.94517" lon="0.30085">
        <ele>1373</ele>
        <time>2020-05-20T07:44:08Z</time>
      </trkpt>
      <trkpt lat="42.94518" lon="0.30087">
        <ele>1373.4000244141</ele>
        <time>2020-05-20T07:44:09Z</time>
      </trkpt>
      <trkpt lat="42.94524" lon="0.30094">
        <ele>1373.4000244141</ele>
        <time>2020-05-20T07:44:13Z</time>
      </trkpt>
      <trkpt lat="42.94532" lon="0.30104">
        <ele>1373.4000244141</ele>
        <time>2020-05-20T07:44:19Z</time>
      </trkpt>
      <trkpt lat="42.94533" lon="0.30106">
        <ele>1373.8000488281</ele>
        <time>2020-05-20T07:44:20Z</time>
      </trkpt>
      <trkpt lat="42.94534" lon="0.30107">
        <ele>1374.1999511719</ele>
        <time>2020-05-20T07:44:21Z</time>
      </trkpt>
      <trkpt lat="42.94535" lon="0.30109">
        <ele>1374.8000488281</ele>
        <time>2020-05-20T07:44:22Z</time>
      </trkpt>
      <trkpt lat="42.94536" lon="0.3011">
        <ele>1375.1999511719</ele>
        <time>2020-05-20T07:44:23Z</time>
      </trkpt>
      <trkpt lat="42.94537" lon="0.30113">
        <ele>1375.5999755859</ele>
        <time>2020-05-20T07:44:24Z</time>
      </trkpt>
      <trkpt lat="42.94538" lon="0.30115">
        <ele>1375.5999755859</ele>
        <time>2020-05-20T07:44:25Z</time>
      </trkpt>
      <trkpt lat="42.94553" lon="0.30129">
        <ele>1375.5999755859</ele>
        <time>2020-05-20T07:44:32Z</time>
      </trkpt>
      <trkpt lat="42.94564" lon="0.30144">
        <ele>1376</ele>
        <time>2020-05-20T07:44:38Z</time>
      </trkpt>
      <trkpt lat="42.94566" lon="0.30146">
        <ele>1376.4000244141</ele>
        <time>2020-05-20T07:44:39Z</time>
      </trkpt>
      <trkpt lat="42.94569" lon="0.30148">
        <ele>1376.8000488281</ele>
        <time>2020-05-20T07:44:40Z</time>
      </trkpt>
      <trkpt lat="42.94571" lon="0.30151">
        <ele>1377.1999511719</ele>
        <time>2020-05-20T07:44:41Z</time>
      </trkpt>
      <trkpt lat="42.94573" lon="0.30155">
        <ele>1377.5999755859</ele>
        <time>2020-05-20T07:44:42Z</time>
      </trkpt>
      <trkpt lat="42.9458" lon="0.30164">
        <ele>1377.5999755859</ele>
        <time>2020-05-20T07:44:45Z</time>
      </trkpt>
      <trkpt lat="42.94599" lon="0.30183">
        <ele>1377.5999755859</ele>
        <time>2020-05-20T07:44:52Z</time>
      </trkpt>
      <trkpt lat="42.94609" lon="0.30195">
        <ele>1377.5999755859</ele>
        <time>2020-05-20T07:44:57Z</time>
      </trkpt>
      <trkpt lat="42.9461" lon="0.30197">
        <ele>1377.5999755859</ele>
        <time>2020-05-20T07:44:58Z</time>
      </trkpt>
      <trkpt lat="42.94614" lon="0.30207">
        <ele>1377.5999755859</ele>
        <time>2020-05-20T07:45:01Z</time>
      </trkpt>
      <trkpt lat="42.94617" lon="0.30224">
        <ele>1378</ele>
        <time>2020-05-20T07:45:06Z</time>
      </trkpt>
      <trkpt lat="42.94618" lon="0.30228">
        <ele>1378.4000244141</ele>
        <time>2020-05-20T07:45:07Z</time>
      </trkpt>
      <trkpt lat="42.94617" lon="0.30231">
        <ele>1378.8000488281</ele>
        <time>2020-05-20T07:45:08Z</time>
      </trkpt>
      <trkpt lat="42.94616" lon="0.30234">
        <ele>1379.1999511719</ele>
        <time>2020-05-20T07:45:09Z</time>
      </trkpt>
      <trkpt lat="42.94616" lon="0.30237">
        <ele>1379.5999755859</ele>
        <time>2020-05-20T07:45:10Z</time>
      </trkpt>
      <trkpt lat="42.94616" lon="0.30243">
        <ele>1379.5999755859</ele>
        <time>2020-05-20T07:45:12Z</time>
      </trkpt>
      <trkpt lat="42.94617" lon="0.3027">
        <ele>1379.5999755859</ele>
        <time>2020-05-20T07:45:20Z</time>
      </trkpt>
      <trkpt lat="42.94617" lon="0.30287">
        <ele>1380</ele>
        <time>2020-05-20T07:45:26Z</time>
      </trkpt>
      <trkpt lat="42.94617" lon="0.3029">
        <ele>1380.5999755859</ele>
        <time>2020-05-20T07:45:27Z</time>
      </trkpt>
      <trkpt lat="42.94618" lon="0.30293">
        <ele>1381</ele>
        <time>2020-05-20T07:45:28Z</time>
      </trkpt>
      <trkpt lat="42.94619" lon="0.30297">
        <ele>1381.4000244141</ele>
        <time>2020-05-20T07:45:29Z</time>
      </trkpt>
      <trkpt lat="42.9462" lon="0.303">
        <ele>1381.8000488281</ele>
        <time>2020-05-20T07:45:30Z</time>
      </trkpt>
      <trkpt lat="42.9462" lon="0.30303">
        <ele>1381.8000488281</ele>
        <time>2020-05-20T07:45:31Z</time>
      </trkpt>
      <trkpt lat="42.94626" lon="0.30318">
        <ele>1381.8000488281</ele>
        <time>2020-05-20T07:45:37Z</time>
      </trkpt>
      <trkpt lat="42.94637" lon="0.30328">
        <ele>1381.8000488281</ele>
        <time>2020-05-20T07:45:43Z</time>
      </trkpt>
      <trkpt lat="42.94639" lon="0.3033">
        <ele>1382.1999511719</ele>
        <time>2020-05-20T07:45:44Z</time>
      </trkpt>
      <trkpt lat="42.94641" lon="0.30331">
        <ele>1382.5999755859</ele>
        <time>2020-05-20T07:45:45Z</time>
      </trkpt>
      <trkpt lat="42.94643" lon="0.30332">
        <ele>1383</ele>
        <time>2020-05-20T07:45:46Z</time>
      </trkpt>
      <trkpt lat="42.94644" lon="0.30333">
        <ele>1383.4000244141</ele>
        <time>2020-05-20T07:45:47Z</time>
      </trkpt>
      <trkpt lat="42.94646" lon="0.30334">
        <ele>1383.8000488281</ele>
        <time>2020-05-20T07:45:48Z</time>
      </trkpt>
      <trkpt lat="42.94648" lon="0.30337">
        <ele>1383.8000488281</ele>
        <time>2020-05-20T07:45:50Z</time>
      </trkpt>
      <trkpt lat="42.94665" lon="0.30349">
        <ele>1383.8000488281</ele>
        <time>2020-05-20T07:45:57Z</time>
      </trkpt>
      <trkpt lat="42.9468" lon="0.30362">
        <ele>1383.8000488281</ele>
        <time>2020-05-20T07:46:03Z</time>
      </trkpt>
      <trkpt lat="42.94693" lon="0.3037">
        <ele>1383.8000488281</ele>
        <time>2020-05-20T07:46:09Z</time>
      </trkpt>
      <trkpt lat="42.94712" lon="0.3038">
        <ele>1383.8000488281</ele>
        <time>2020-05-20T07:46:14Z</time>
      </trkpt>
      <trkpt lat="42.94727" lon="0.30388">
        <ele>1383.8000488281</ele>
        <time>2020-05-20T07:46:18Z</time>
      </trkpt>
      <trkpt lat="42.94732" lon="0.30392">
        <ele>1383.8000488281</ele>
        <time>2020-05-20T07:46:19Z</time>
      </trkpt>
      <trkpt lat="42.94745" lon="0.30398">
        <ele>1383.8000488281</ele>
        <time>2020-05-20T07:46:22Z</time>
      </trkpt>
      <trkpt lat="42.94749" lon="0.30402">
        <ele>1383.8000488281</ele>
        <time>2020-05-20T07:46:23Z</time>
      </trkpt>
      <trkpt lat="42.94769" lon="0.30419">
        <ele>1383.8000488281</ele>
        <time>2020-05-20T07:46:28Z</time>
      </trkpt>
      <trkpt lat="42.94774" lon="0.30422">
        <ele>1383.8000488281</ele>
        <time>2020-05-20T07:46:29Z</time>
      </trkpt>
      <trkpt lat="42.94778" lon="0.30425">
        <ele>1383.4000244141</ele>
        <time>2020-05-20T07:46:30Z</time>
      </trkpt>
      <trkpt lat="42.94783" lon="0.30428">
        <ele>1383</ele>
        <time>2020-05-20T07:46:31Z</time>
      </trkpt>
      <trkpt lat="42.94788" lon="0.30431">
        <ele>1382.4000244141</ele>
        <time>2020-05-20T07:46:32Z</time>
      </trkpt>
      <trkpt lat="42.94794" lon="0.30433">
        <ele>1382</ele>
        <time>2020-05-20T07:46:33Z</time>
      </trkpt>
      <trkpt lat="42.948" lon="0.30435">
        <ele>1381.4000244141</ele>
        <time>2020-05-20T07:46:34Z</time>
      </trkpt>
      <trkpt lat="42.94816" lon="0.30441">
        <ele>1381.4000244141</ele>
        <time>2020-05-20T07:46:37Z</time>
      </trkpt>
      <trkpt lat="42.94823" lon="0.30442">
        <ele>1381.4000244141</ele>
        <time>2020-05-20T07:46:38Z</time>
      </trkpt>
      <trkpt lat="42.94848" lon="0.30448">
        <ele>1381</ele>
        <time>2020-05-20T07:46:42Z</time>
      </trkpt>
      <trkpt lat="42.94854" lon="0.30449">
        <ele>1380.5999755859</ele>
        <time>2020-05-20T07:46:43Z</time>
      </trkpt>
      <trkpt lat="42.9486" lon="0.3045">
        <ele>1380.1999511719</ele>
        <time>2020-05-20T07:46:44Z</time>
      </trkpt>
      <trkpt lat="42.94867" lon="0.30451">
        <ele>1379.8000488281</ele>
        <time>2020-05-20T07:46:45Z</time>
      </trkpt>
      <trkpt lat="42.94873" lon="0.30454">
        <ele>1379.4000244141</ele>
        <time>2020-05-20T07:46:46Z</time>
      </trkpt>
      <trkpt lat="42.94879" lon="0.30455">
        <ele>1379.4000244141</ele>
        <time>2020-05-20T07:46:47Z</time>
      </trkpt>
      <trkpt lat="42.949" lon="0.30458">
        <ele>1379.4000244141</ele>
        <time>2020-05-20T07:46:51Z</time>
      </trkpt>
      <trkpt lat="42.94922" lon="0.30463">
        <ele>1379.4000244141</ele>
        <time>2020-05-20T07:46:56Z</time>
      </trkpt>
      <trkpt lat="42.94935" lon="0.30466">
        <ele>1379</ele>
        <time>2020-05-20T07:46:59Z</time>
      </trkpt>
      <trkpt lat="42.9494" lon="0.30468">
        <ele>1378.5999755859</ele>
        <time>2020-05-20T07:47:00Z</time>
      </trkpt>
      <trkpt lat="42.94945" lon="0.3047">
        <ele>1378.1999511719</ele>
        <time>2020-05-20T07:47:01Z</time>
      </trkpt>
      <trkpt lat="42.94949" lon="0.30471">
        <ele>1377.8000488281</ele>
        <time>2020-05-20T07:47:02Z</time>
      </trkpt>
      <trkpt lat="42.94954" lon="0.30474">
        <ele>1377.4000244141</ele>
        <time>2020-05-20T07:47:03Z</time>
      </trkpt>
      <trkpt lat="42.94967" lon="0.30481">
        <ele>1377.4000244141</ele>
        <time>2020-05-20T07:47:06Z</time>
      </trkpt>
      <trkpt lat="42.94976" lon="0.30486">
        <ele>1377.4000244141</ele>
        <time>2020-05-20T07:47:08Z</time>
      </trkpt>
      <trkpt lat="42.94983" lon="0.30493">
        <ele>1377.4000244141</ele>
        <time>2020-05-20T07:47:10Z</time>
      </trkpt>
      <trkpt lat="42.9499" lon="0.30501">
        <ele>1377.4000244141</ele>
        <time>2020-05-20T07:47:12Z</time>
      </trkpt>
      <trkpt lat="42.94992" lon="0.30506">
        <ele>1377.4000244141</ele>
        <time>2020-05-20T07:47:13Z</time>
      </trkpt>
      <trkpt lat="42.94997" lon="0.30522">
        <ele>1377.4000244141</ele>
        <time>2020-05-20T07:47:16Z</time>
      </trkpt>
      <trkpt lat="42.94998" lon="0.30529">
        <ele>1377.4000244141</ele>
        <time>2020-05-20T07:47:17Z</time>
      </trkpt>
      <trkpt lat="42.95003" lon="0.30546">
        <ele>1377.4000244141</ele>
        <time>2020-05-20T07:47:20Z</time>
      </trkpt>
      <trkpt lat="42.95005" lon="0.30552">
        <ele>1377.4000244141</ele>
        <time>2020-05-20T07:47:21Z</time>
      </trkpt>
      <trkpt lat="42.95009" lon="0.30575">
        <ele>1377</ele>
        <time>2020-05-20T07:47:25Z</time>
      </trkpt>
      <trkpt lat="42.9501" lon="0.30581">
        <ele>1376.5999755859</ele>
        <time>2020-05-20T07:47:26Z</time>
      </trkpt>
      <trkpt lat="42.95012" lon="0.30587">
        <ele>1376.1999511719</ele>
        <time>2020-05-20T07:47:27Z</time>
      </trkpt>
      <trkpt lat="42.95012" lon="0.30593">
        <ele>1375.8000488281</ele>
        <time>2020-05-20T07:47:28Z</time>
      </trkpt>
      <trkpt lat="42.95012" lon="0.30598">
        <ele>1375.4000244141</ele>
        <time>2020-05-20T07:47:29Z</time>
      </trkpt>
      <trkpt lat="42.95016" lon="0.30607">
        <ele>1375.4000244141</ele>
        <time>2020-05-20T07:47:31Z</time>
      </trkpt>
      <trkpt lat="42.95025" lon="0.30623">
        <ele>1375.4000244141</ele>
        <time>2020-05-20T07:47:34Z</time>
      </trkpt>
      <trkpt lat="42.9503" lon="0.30624">
        <ele>1375.4000244141</ele>
        <time>2020-05-20T07:47:35Z</time>
      </trkpt>
      <trkpt lat="42.95047" lon="0.30621">
        <ele>1375.4000244141</ele>
        <time>2020-05-20T07:47:39Z</time>
      </trkpt>
      <trkpt lat="42.95054" lon="0.30617">
        <ele>1375.4000244141</ele>
        <time>2020-05-20T07:47:41Z</time>
      </trkpt>
      <trkpt lat="42.95069" lon="0.30606">
        <ele>1375.4000244141</ele>
        <time>2020-05-20T07:47:46Z</time>
      </trkpt>
      <trkpt lat="42.95081" lon="0.306">
        <ele>1375.8000488281</ele>
        <time>2020-05-20T07:47:50Z</time>
      </trkpt>
      <trkpt lat="42.95083" lon="0.30598">
        <ele>1376.1999511719</ele>
        <time>2020-05-20T07:47:51Z</time>
      </trkpt>
      <trkpt lat="42.95085" lon="0.30596">
        <ele>1376.5999755859</ele>
        <time>2020-05-20T07:47:52Z</time>
      </trkpt>
      <trkpt lat="42.95087" lon="0.30594">
        <ele>1377</ele>
        <time>2020-05-20T07:47:53Z</time>
      </trkpt>
      <trkpt lat="42.9509" lon="0.30591">
        <ele>1377.4000244141</ele>
        <time>2020-05-20T07:47:54Z</time>
      </trkpt>
      <trkpt lat="42.95097" lon="0.30584">
        <ele>1377.4000244141</ele>
        <time>2020-05-20T07:47:57Z</time>
      </trkpt>
      <trkpt lat="42.9511" lon="0.30574">
        <ele>1377.8000488281</ele>
        <time>2020-05-20T07:48:01Z</time>
      </trkpt>
      <trkpt lat="42.95113" lon="0.30571">
        <ele>1378.4000244141</ele>
        <time>2020-05-20T07:48:02Z</time>
      </trkpt>
      <trkpt lat="42.95115" lon="0.30568">
        <ele>1378.8000488281</ele>
        <time>2020-05-20T07:48:03Z</time>
      </trkpt>
      <trkpt lat="42.95117" lon="0.30566">
        <ele>1379.1999511719</ele>
        <time>2020-05-20T07:48:04Z</time>
      </trkpt>
      <trkpt lat="42.95119" lon="0.30563">
        <ele>1379.5999755859</ele>
        <time>2020-05-20T07:48:05Z</time>
      </trkpt>
      <trkpt lat="42.95132" lon="0.30552">
        <ele>1379.5999755859</ele>
        <time>2020-05-20T07:48:10Z</time>
      </trkpt>
      <trkpt lat="42.95134" lon="0.3055">
        <ele>1380</ele>
        <time>2020-05-20T07:48:11Z</time>
      </trkpt>
      <trkpt lat="42.95137" lon="0.30548">
        <ele>1380.4000244141</ele>
        <time>2020-05-20T07:48:13Z</time>
      </trkpt>
      <trkpt lat="42.95139" lon="0.30546">
        <ele>1380.8000488281</ele>
        <time>2020-05-20T07:48:14Z</time>
      </trkpt>
      <trkpt lat="42.95141" lon="0.30544">
        <ele>1381.1999511719</ele>
        <time>2020-05-20T07:48:15Z</time>
      </trkpt>
      <trkpt lat="42.95144" lon="0.30542">
        <ele>1381.5999755859</ele>
        <time>2020-05-20T07:48:16Z</time>
      </trkpt>
      <trkpt lat="42.95146" lon="0.3054">
        <ele>1381.5999755859</ele>
        <time>2020-05-20T07:48:17Z</time>
      </trkpt>
      <trkpt lat="42.95167" lon="0.30524">
        <ele>1381.5999755859</ele>
        <time>2020-05-20T07:48:25Z</time>
      </trkpt>
      <trkpt lat="42.95182" lon="0.30514">
        <ele>1382</ele>
        <time>2020-05-20T07:48:30Z</time>
      </trkpt>
      <trkpt lat="42.95184" lon="0.30513">
        <ele>1383</ele>
        <time>2020-05-20T07:48:31Z</time>
      </trkpt>
      <trkpt lat="42.95187" lon="0.30512">
        <ele>1383.4000244141</ele>
        <time>2020-05-20T07:48:32Z</time>
      </trkpt>
      <trkpt lat="42.95189" lon="0.30511">
        <ele>1383.8000488281</ele>
        <time>2020-05-20T07:48:33Z</time>
      </trkpt>
      <trkpt lat="42.95192" lon="0.3051">
        <ele>1383.8000488281</ele>
        <time>2020-05-20T07:48:34Z</time>
      </trkpt>
      <trkpt lat="42.95204" lon="0.30504">
        <ele>1383.8000488281</ele>
        <time>2020-05-20T07:48:39Z</time>
      </trkpt>
      <trkpt lat="42.95206" lon="0.30503">
        <ele>1384.1999511719</ele>
        <time>2020-05-20T07:48:40Z</time>
      </trkpt>
      <trkpt lat="42.95208" lon="0.30502">
        <ele>1384.5999755859</ele>
        <time>2020-05-20T07:48:41Z</time>
      </trkpt>
      <trkpt lat="42.9521" lon="0.30501">
        <ele>1385</ele>
        <time>2020-05-20T07:48:42Z</time>
      </trkpt>
      <trkpt lat="42.95211" lon="0.30501">
        <ele>1385.4000244141</ele>
        <time>2020-05-20T07:48:43Z</time>
      </trkpt>
      <trkpt lat="42.95214" lon="0.305">
        <ele>1385.8000488281</ele>
        <time>2020-05-20T07:48:44Z</time>
      </trkpt>
      <trkpt lat="42.95219" lon="0.30498">
        <ele>1385.8000488281</ele>
        <time>2020-05-20T07:48:46Z</time>
      </trkpt>
      <trkpt lat="42.95234" lon="0.30496">
        <ele>1386.1999511719</ele>
        <time>2020-05-20T07:48:52Z</time>
      </trkpt>
      <trkpt lat="42.95235" lon="0.30496">
        <ele>1386.5999755859</ele>
        <time>2020-05-20T07:48:53Z</time>
      </trkpt>
      <trkpt lat="42.95237" lon="0.30496">
        <ele>1387</ele>
        <time>2020-05-20T07:48:54Z</time>
      </trkpt>
      <trkpt lat="42.95239" lon="0.30497">
        <ele>1387.5999755859</ele>
        <time>2020-05-20T07:48:55Z</time>
      </trkpt>
      <trkpt lat="42.95241" lon="0.30497">
        <ele>1388</ele>
        <time>2020-05-20T07:48:56Z</time>
      </trkpt>
      <trkpt lat="42.95247" lon="0.30497">
        <ele>1388</ele>
        <time>2020-05-20T07:48:58Z</time>
      </trkpt>
      <trkpt lat="42.95262" lon="0.30499">
        <ele>1388.4000244141</ele>
        <time>2020-05-20T07:49:04Z</time>
      </trkpt>
      <trkpt lat="42.95264" lon="0.30499">
        <ele>1388.8000488281</ele>
        <time>2020-05-20T07:49:05Z</time>
      </trkpt>
      <trkpt lat="42.95266" lon="0.305">
        <ele>1389.1999511719</ele>
        <time>2020-05-20T07:49:06Z</time>
      </trkpt>
      <trkpt lat="42.95267" lon="0.305">
        <ele>1389.5999755859</ele>
        <time>2020-05-20T07:49:07Z</time>
      </trkpt>
      <trkpt lat="42.95269" lon="0.30501">
        <ele>1390.1999511719</ele>
        <time>2020-05-20T07:49:08Z</time>
      </trkpt>
      <trkpt lat="42.95275" lon="0.30503">
        <ele>1390.1999511719</ele>
        <time>2020-05-20T07:49:11Z</time>
      </trkpt>
      <trkpt lat="42.95286" lon="0.30506">
        <ele>1390.1999511719</ele>
        <time>2020-05-20T07:49:16Z</time>
      </trkpt>
      <trkpt lat="42.95299" lon="0.30513">
        <ele>1390.5999755859</ele>
        <time>2020-05-20T07:49:21Z</time>
      </trkpt>
      <trkpt lat="42.95301" lon="0.30515">
        <ele>1391</ele>
        <time>2020-05-20T07:49:22Z</time>
      </trkpt>
      <trkpt lat="42.95302" lon="0.30517">
        <ele>1391.4000244141</ele>
        <time>2020-05-20T07:49:23Z</time>
      </trkpt>
      <trkpt lat="42.95304" lon="0.30518">
        <ele>1391.8000488281</ele>
        <time>2020-05-20T07:49:24Z</time>
      </trkpt>
      <trkpt lat="42.95306" lon="0.30519">
        <ele>1392.1999511719</ele>
        <time>2020-05-20T07:49:25Z</time>
      </trkpt>
      <trkpt lat="42.95312" lon="0.30524">
        <ele>1392.1999511719</ele>
        <time>2020-05-20T07:49:28Z</time>
      </trkpt>
      <trkpt lat="42.95318" lon="0.30535">
        <ele>1392.5999755859</ele>
        <time>2020-05-20T07:49:33Z</time>
      </trkpt>
      <trkpt lat="42.95319" lon="0.30537">
        <ele>1393</ele>
        <time>2020-05-20T07:49:34Z</time>
      </trkpt>
      <trkpt lat="42.95321" lon="0.3054">
        <ele>1393.4000244141</ele>
        <time>2020-05-20T07:49:35Z</time>
      </trkpt>
      <trkpt lat="42.95322" lon="0.30543">
        <ele>1393.8000488281</ele>
        <time>2020-05-20T07:49:36Z</time>
      </trkpt>
      <trkpt lat="42.95323" lon="0.30545">
        <ele>1394.1999511719</ele>
        <time>2020-05-20T07:49:37Z</time>
      </trkpt>
      <trkpt lat="42.95327" lon="0.30561">
        <ele>1394.1999511719</ele>
        <time>2020-05-20T07:49:42Z</time>
      </trkpt>
      <trkpt lat="42.95332" lon="0.30571">
        <ele>1394.1999511719</ele>
        <time>2020-05-20T07:49:46Z</time>
      </trkpt>
      <trkpt lat="42.95333" lon="0.30573">
        <ele>1394.1999511719</ele>
        <time>2020-05-20T07:49:47Z</time>
      </trkpt>
      <trkpt lat="42.95337" lon="0.30576">
        <ele>1394.5999755859</ele>
        <time>2020-05-20T07:49:49Z</time>
      </trkpt>
      <trkpt lat="42.95339" lon="0.30578">
        <ele>1395</ele>
        <time>2020-05-20T07:49:50Z</time>
      </trkpt>
      <trkpt lat="42.95341" lon="0.30579">
        <ele>1395.4000244141</ele>
        <time>2020-05-20T07:49:51Z</time>
      </trkpt>
      <trkpt lat="42.95343" lon="0.30581">
        <ele>1395.8000488281</ele>
        <time>2020-05-20T07:49:52Z</time>
      </trkpt>
      <trkpt lat="42.95344" lon="0.30583">
        <ele>1396.1999511719</ele>
        <time>2020-05-20T07:49:53Z</time>
      </trkpt>
      <trkpt lat="42.9535" lon="0.30589">
        <ele>1396.1999511719</ele>
        <time>2020-05-20T07:49:57Z</time>
      </trkpt>
      <trkpt lat="42.95361" lon="0.30603">
        <ele>1396.8000488281</ele>
        <time>2020-05-20T07:50:04Z</time>
      </trkpt>
      <trkpt lat="42.95363" lon="0.30604">
        <ele>1397.1999511719</ele>
        <time>2020-05-20T07:50:05Z</time>
      </trkpt>
      <trkpt lat="42.95364" lon="0.30606">
        <ele>1397.5999755859</ele>
        <time>2020-05-20T07:50:06Z</time>
      </trkpt>
      <trkpt lat="42.95366" lon="0.30608">
        <ele>1398</ele>
        <time>2020-05-20T07:50:07Z</time>
      </trkpt>
      <trkpt lat="42.95367" lon="0.3061">
        <ele>1398.4000244141</ele>
        <time>2020-05-20T07:50:08Z</time>
      </trkpt>
      <trkpt lat="42.9537" lon="0.30614">
        <ele>1398.4000244141</ele>
        <time>2020-05-20T07:50:10Z</time>
      </trkpt>
      <trkpt lat="42.9538" lon="0.30626">
        <ele>1398.4000244141</ele>
        <time>2020-05-20T07:50:17Z</time>
      </trkpt>
      <trkpt lat="42.95383" lon="0.3063">
        <ele>1398.8000488281</ele>
        <time>2020-05-20T07:50:19Z</time>
      </trkpt>
      <trkpt lat="42.95385" lon="0.30632">
        <ele>1399.1999511719</ele>
        <time>2020-05-20T07:50:20Z</time>
      </trkpt>
      <trkpt lat="42.95386" lon="0.30634">
        <ele>1399.5999755859</ele>
        <time>2020-05-20T07:50:21Z</time>
      </trkpt>
      <trkpt lat="42.95388" lon="0.30636">
        <ele>1400.1999511719</ele>
        <time>2020-05-20T07:50:22Z</time>
      </trkpt>
      <trkpt lat="42.95389" lon="0.30638">
        <ele>1400.5999755859</ele>
        <time>2020-05-20T07:50:23Z</time>
      </trkpt>
      <trkpt lat="42.954" lon="0.3065">
        <ele>1400.5999755859</ele>
        <time>2020-05-20T07:50:29Z</time>
      </trkpt>
      <trkpt lat="42.95405" lon="0.30656">
        <ele>1400.5999755859</ele>
        <time>2020-05-20T07:50:32Z</time>
      </trkpt>
      <trkpt lat="42.95407" lon="0.30659">
        <ele>1400.5999755859</ele>
        <time>2020-05-20T07:50:33Z</time>
      </trkpt>
      <trkpt lat="42.95409" lon="0.30661">
        <ele>1401</ele>
        <time>2020-05-20T07:50:34Z</time>
      </trkpt>
      <trkpt lat="42.95411" lon="0.30663">
        <ele>1401.4000244141</ele>
        <time>2020-05-20T07:50:35Z</time>
      </trkpt>
      <trkpt lat="42.95413" lon="0.30666">
        <ele>1401.8000488281</ele>
        <time>2020-05-20T07:50:36Z</time>
      </trkpt>
      <trkpt lat="42.95415" lon="0.30668">
        <ele>1402.1999511719</ele>
        <time>2020-05-20T07:50:37Z</time>
      </trkpt>
      <trkpt lat="42.95417" lon="0.3067">
        <ele>1402.5999755859</ele>
        <time>2020-05-20T07:50:38Z</time>
      </trkpt>
      <trkpt lat="42.95419" lon="0.30673">
        <ele>1402.5999755859</ele>
        <time>2020-05-20T07:50:40Z</time>
      </trkpt>
      <trkpt lat="42.95426" lon="0.30685">
        <ele>1402.5999755859</ele>
        <time>2020-05-20T07:50:46Z</time>
      </trkpt>
      <trkpt lat="42.95428" lon="0.30689">
        <ele>1403</ele>
        <time>2020-05-20T07:50:48Z</time>
      </trkpt>
      <trkpt lat="42.95429" lon="0.30692">
        <ele>1403.4000244141</ele>
        <time>2020-05-20T07:50:49Z</time>
      </trkpt>
      <trkpt lat="42.95431" lon="0.30695">
        <ele>1404</ele>
        <time>2020-05-20T07:50:50Z</time>
      </trkpt>
      <trkpt lat="42.95433" lon="0.30697">
        <ele>1404.4000244141</ele>
        <time>2020-05-20T07:50:51Z</time>
      </trkpt>
      <trkpt lat="42.95434" lon="0.307">
        <ele>1404.8000488281</ele>
        <time>2020-05-20T07:50:52Z</time>
      </trkpt>
      <trkpt lat="42.95442" lon="0.30714">
        <ele>1404.8000488281</ele>
        <time>2020-05-20T07:50:58Z</time>
      </trkpt>
      <trkpt lat="42.95448" lon="0.30728">
        <ele>1404.8000488281</ele>
        <time>2020-05-20T07:51:04Z</time>
      </trkpt>
      <trkpt lat="42.9545" lon="0.3073">
        <ele>1405.1999511719</ele>
        <time>2020-05-20T07:51:05Z</time>
      </trkpt>
      <trkpt lat="42.95451" lon="0.30733">
        <ele>1405.5999755859</ele>
        <time>2020-05-20T07:51:06Z</time>
      </trkpt>
      <trkpt lat="42.95452" lon="0.30735">
        <ele>1406</ele>
        <time>2020-05-20T07:51:07Z</time>
      </trkpt>
      <trkpt lat="42.95454" lon="0.30737">
        <ele>1406.4000244141</ele>
        <time>2020-05-20T07:51:08Z</time>
      </trkpt>
      <trkpt lat="42.95456" lon="0.30739">
        <ele>1406.8000488281</ele>
        <time>2020-05-20T07:51:09Z</time>
      </trkpt>
      <trkpt lat="42.95458" lon="0.30744">
        <ele>1406.8000488281</ele>
        <time>2020-05-20T07:51:11Z</time>
      </trkpt>
      <trkpt lat="42.95465" lon="0.30756">
        <ele>1406.8000488281</ele>
        <time>2020-05-20T07:51:16Z</time>
      </trkpt>
      <trkpt lat="42.95475" lon="0.30775">
        <ele>1406.8000488281</ele>
        <time>2020-05-20T07:51:22Z</time>
      </trkpt>
      <trkpt lat="42.95487" lon="0.30793">
        <ele>1406.8000488281</ele>
        <time>2020-05-20T07:51:28Z</time>
      </trkpt>
      <trkpt lat="42.95496" lon="0.30804">
        <ele>1406.8000488281</ele>
        <time>2020-05-20T07:51:33Z</time>
      </trkpt>
      <trkpt lat="42.95497" lon="0.30806">
        <ele>1406.8000488281</ele>
        <time>2020-05-20T07:51:34Z</time>
      </trkpt>
      <trkpt lat="42.9551" lon="0.30816">
        <ele>1406.8000488281</ele>
        <time>2020-05-20T07:51:39Z</time>
      </trkpt>
      <trkpt lat="42.95519" lon="0.30818">
        <ele>1406.8000488281</ele>
        <time>2020-05-20T07:51:42Z</time>
      </trkpt>
      <trkpt lat="42.95524" lon="0.30816">
        <ele>1406.8000488281</ele>
        <time>2020-05-20T07:51:44Z</time>
      </trkpt>
      <trkpt lat="42.95539" lon="0.30805">
        <ele>1406.8000488281</ele>
        <time>2020-05-20T07:51:48Z</time>
      </trkpt>
      <trkpt lat="42.95542" lon="0.30801">
        <ele>1406.8000488281</ele>
        <time>2020-05-20T07:51:49Z</time>
      </trkpt>
      <trkpt lat="42.95555" lon="0.30778">
        <ele>1406.8000488281</ele>
        <time>2020-05-20T07:51:55Z</time>
      </trkpt>
      <trkpt lat="42.95572" lon="0.30751">
        <ele>1406.8000488281</ele>
        <time>2020-05-20T07:52:02Z</time>
      </trkpt>
      <trkpt lat="42.95585" lon="0.30717">
        <ele>1406.8000488281</ele>
        <time>2020-05-20T07:52:09Z</time>
      </trkpt>
      <trkpt lat="42.95586" lon="0.30711">
        <ele>1406.8000488281</ele>
        <time>2020-05-20T07:52:10Z</time>
      </trkpt>
      <trkpt lat="42.95592" lon="0.30685">
        <ele>1406.8000488281</ele>
        <time>2020-05-20T07:52:15Z</time>
      </trkpt>
      <trkpt lat="42.95594" lon="0.30675">
        <ele>1407.1999511719</ele>
        <time>2020-05-20T07:52:17Z</time>
      </trkpt>
      <trkpt lat="42.95595" lon="0.3067">
        <ele>1407.5999755859</ele>
        <time>2020-05-20T07:52:18Z</time>
      </trkpt>
      <trkpt lat="42.95596" lon="0.30665">
        <ele>1408</ele>
        <time>2020-05-20T07:52:19Z</time>
      </trkpt>
      <trkpt lat="42.95597" lon="0.3066">
        <ele>1408.4000244141</ele>
        <time>2020-05-20T07:52:20Z</time>
      </trkpt>
      <trkpt lat="42.95598" lon="0.30655">
        <ele>1408.8000488281</ele>
        <time>2020-05-20T07:52:21Z</time>
      </trkpt>
      <trkpt lat="42.95606" lon="0.30627">
        <ele>1408.8000488281</ele>
        <time>2020-05-20T07:52:27Z</time>
      </trkpt>
      <trkpt lat="42.95611" lon="0.30605">
        <ele>1409.1999511719</ele>
        <time>2020-05-20T07:52:32Z</time>
      </trkpt>
      <trkpt lat="42.95612" lon="0.30601">
        <ele>1409.5999755859</ele>
        <time>2020-05-20T07:52:33Z</time>
      </trkpt>
      <trkpt lat="42.95613" lon="0.30596">
        <ele>1410</ele>
        <time>2020-05-20T07:52:34Z</time>
      </trkpt>
      <trkpt lat="42.95614" lon="0.30592">
        <ele>1410.4000244141</ele>
        <time>2020-05-20T07:52:35Z</time>
      </trkpt>
      <trkpt lat="42.95615" lon="0.30587">
        <ele>1410.8000488281</ele>
        <time>2020-05-20T07:52:36Z</time>
      </trkpt>
      <trkpt lat="42.95618" lon="0.30569">
        <ele>1410.8000488281</ele>
        <time>2020-05-20T07:52:40Z</time>
      </trkpt>
      <trkpt lat="42.95619" lon="0.30556">
        <ele>1411.1999511719</ele>
        <time>2020-05-20T07:52:43Z</time>
      </trkpt>
      <trkpt lat="42.95619" lon="0.30552">
        <ele>1411.5999755859</ele>
        <time>2020-05-20T07:52:44Z</time>
      </trkpt>
      <trkpt lat="42.95619" lon="0.30547">
        <ele>1412</ele>
        <time>2020-05-20T07:52:45Z</time>
      </trkpt>
      <trkpt lat="42.9562" lon="0.30543">
        <ele>1412.4000244141</ele>
        <time>2020-05-20T07:52:46Z</time>
      </trkpt>
      <trkpt lat="42.9562" lon="0.30539">
        <ele>1412.8000488281</ele>
        <time>2020-05-20T07:52:47Z</time>
      </trkpt>
      <trkpt lat="42.95621" lon="0.30535">
        <ele>1412.8000488281</ele>
        <time>2020-05-20T07:52:48Z</time>
      </trkpt>
      <trkpt lat="42.95629" lon="0.3051">
        <ele>1412.8000488281</ele>
        <time>2020-05-20T07:52:54Z</time>
      </trkpt>
      <trkpt lat="42.95641" lon="0.30488">
        <ele>1413.4000244141</ele>
        <time>2020-05-20T07:53:00Z</time>
      </trkpt>
      <trkpt lat="42.95643" lon="0.30485">
        <ele>1413.8000488281</ele>
        <time>2020-05-20T07:53:01Z</time>
      </trkpt>
      <trkpt lat="42.95645" lon="0.30482">
        <ele>1414.1999511719</ele>
        <time>2020-05-20T07:53:02Z</time>
      </trkpt>
      <trkpt lat="42.95646" lon="0.30479">
        <ele>1415</ele>
        <time>2020-05-20T07:53:03Z</time>
      </trkpt>
      <trkpt lat="42.95656" lon="0.30465">
        <ele>1415</ele>
        <time>2020-05-20T07:53:08Z</time>
      </trkpt>
      <trkpt lat="42.95662" lon="0.30456">
        <ele>1415.4000244141</ele>
        <time>2020-05-20T07:53:11Z</time>
      </trkpt>
      <trkpt lat="42.95663" lon="0.30454">
        <ele>1415.8000488281</ele>
        <time>2020-05-20T07:53:12Z</time>
      </trkpt>
      <trkpt lat="42.95665" lon="0.30451">
        <ele>1416.1999511719</ele>
        <time>2020-05-20T07:53:13Z</time>
      </trkpt>
      <trkpt lat="42.95667" lon="0.30448">
        <ele>1416.5999755859</ele>
        <time>2020-05-20T07:53:14Z</time>
      </trkpt>
      <trkpt lat="42.95669" lon="0.30446">
        <ele>1417</ele>
        <time>2020-05-20T07:53:15Z</time>
      </trkpt>
      <trkpt lat="42.95678" lon="0.30434">
        <ele>1417</ele>
        <time>2020-05-20T07:53:20Z</time>
      </trkpt>
      <trkpt lat="42.95686" lon="0.30423">
        <ele>1417.4000244141</ele>
        <time>2020-05-20T07:53:25Z</time>
      </trkpt>
      <trkpt lat="42.95688" lon="0.3042">
        <ele>1418</ele>
        <time>2020-05-20T07:53:26Z</time>
      </trkpt>
      <trkpt lat="42.9569" lon="0.30418">
        <ele>1418.8000488281</ele>
        <time>2020-05-20T07:53:27Z</time>
      </trkpt>
      <trkpt lat="42.95692" lon="0.30415">
        <ele>1419.1999511719</ele>
        <time>2020-05-20T07:53:28Z</time>
      </trkpt>
      <trkpt lat="42.95701" lon="0.30405">
        <ele>1419.1999511719</ele>
        <time>2020-05-20T07:53:32Z</time>
      </trkpt>
      <trkpt lat="42.95717" lon="0.30389">
        <ele>1419.1999511719</ele>
        <time>2020-05-20T07:53:39Z</time>
      </trkpt>
      <trkpt lat="42.9572" lon="0.30384">
        <ele>1419.5999755859</ele>
        <time>2020-05-20T07:53:41Z</time>
      </trkpt>
      <trkpt lat="42.95722" lon="0.30382">
        <ele>1420</ele>
        <time>2020-05-20T07:53:42Z</time>
      </trkpt>
      <trkpt lat="42.95724" lon="0.3038">
        <ele>1420.4000244141</ele>
        <time>2020-05-20T07:53:43Z</time>
      </trkpt>
      <trkpt lat="42.95726" lon="0.30378">
        <ele>1420.8000488281</ele>
        <time>2020-05-20T07:53:44Z</time>
      </trkpt>
      <trkpt lat="42.95728" lon="0.30377">
        <ele>1421.1999511719</ele>
        <time>2020-05-20T07:53:45Z</time>
      </trkpt>
      <trkpt lat="42.95742" lon="0.30363">
        <ele>1421.1999511719</ele>
        <time>2020-05-20T07:53:51Z</time>
      </trkpt>
      <trkpt lat="42.95752" lon="0.30353">
        <ele>1421.5999755859</ele>
        <time>2020-05-20T07:53:55Z</time>
      </trkpt>
      <trkpt lat="42.95754" lon="0.30351">
        <ele>1422</ele>
        <time>2020-05-20T07:53:56Z</time>
      </trkpt>
      <trkpt lat="42.95756" lon="0.30349">
        <ele>1422.5999755859</ele>
        <time>2020-05-20T07:53:57Z</time>
      </trkpt>
      <trkpt lat="42.95758" lon="0.30346">
        <ele>1423</ele>
        <time>2020-05-20T07:53:58Z</time>
      </trkpt>
      <trkpt lat="42.9576" lon="0.30344">
        <ele>1423.4000244141</ele>
        <time>2020-05-20T07:53:59Z</time>
      </trkpt>
      <trkpt lat="42.95768" lon="0.30334">
        <ele>1423.4000244141</ele>
        <time>2020-05-20T07:54:03Z</time>
      </trkpt>
      <trkpt lat="42.95778" lon="0.30322">
        <ele>1423.4000244141</ele>
        <time>2020-05-20T07:54:08Z</time>
      </trkpt>
      <trkpt lat="42.95786" lon="0.30317">
        <ele>1423.8000488281</ele>
        <time>2020-05-20T07:54:11Z</time>
      </trkpt>
      <trkpt lat="42.95789" lon="0.30315">
        <ele>1424.1999511719</ele>
        <time>2020-05-20T07:54:12Z</time>
      </trkpt>
      <trkpt lat="42.95791" lon="0.30313">
        <ele>1424.5999755859</ele>
        <time>2020-05-20T07:54:13Z</time>
      </trkpt>
      <trkpt lat="42.95794" lon="0.30311">
        <ele>1425</ele>
        <time>2020-05-20T07:54:14Z</time>
      </trkpt>
      <trkpt lat="42.95797" lon="0.3031">
        <ele>1425.4000244141</ele>
        <time>2020-05-20T07:54:15Z</time>
      </trkpt>
      <trkpt lat="42.9581" lon="0.30307">
        <ele>1425.4000244141</ele>
        <time>2020-05-20T07:54:20Z</time>
      </trkpt>
      <trkpt lat="42.95819" lon="0.30308">
        <ele>1425.8000488281</ele>
        <time>2020-05-20T07:54:24Z</time>
      </trkpt>
      <trkpt lat="42.95821" lon="0.30309">
        <ele>1426.1999511719</ele>
        <time>2020-05-20T07:54:25Z</time>
      </trkpt>
      <trkpt lat="42.95823" lon="0.30309">
        <ele>1426.5999755859</ele>
        <time>2020-05-20T07:54:26Z</time>
      </trkpt>
      <trkpt lat="42.95824" lon="0.30309">
        <ele>1427</ele>
        <time>2020-05-20T07:54:27Z</time>
      </trkpt>
      <trkpt lat="42.95826" lon="0.30309">
        <ele>1427.4000244141</ele>
        <time>2020-05-20T07:54:28Z</time>
      </trkpt>
      <trkpt lat="42.95834" lon="0.30313">
        <ele>1427.4000244141</ele>
        <time>2020-05-20T07:54:32Z</time>
      </trkpt>
      <trkpt lat="42.95844" lon="0.3032">
        <ele>1427.4000244141</ele>
        <time>2020-05-20T07:54:38Z</time>
      </trkpt>
      <trkpt lat="42.95854" lon="0.30324">
        <ele>1427.4000244141</ele>
        <time>2020-05-20T07:54:43Z</time>
      </trkpt>
      <trkpt lat="42.95871" lon="0.30337">
        <ele>1427.4000244141</ele>
        <time>2020-05-20T07:54:49Z</time>
      </trkpt>
      <trkpt lat="42.95884" lon="0.3035">
        <ele>1427.4000244141</ele>
        <time>2020-05-20T07:54:55Z</time>
      </trkpt>
      <trkpt lat="42.95891" lon="0.30362">
        <ele>1427.4000244141</ele>
        <time>2020-05-20T07:55:00Z</time>
      </trkpt>
      <trkpt lat="42.95892" lon="0.30363">
        <ele>1427.4000244141</ele>
        <time>2020-05-20T07:55:01Z</time>
      </trkpt>
      <trkpt lat="42.95896" lon="0.3037">
        <ele>1427.4000244141</ele>
        <time>2020-05-20T07:55:07Z</time>
      </trkpt>
      <trkpt lat="42.95896" lon="0.3037">
        <ele>1427.8000488281</ele>
        <time>2020-05-20T07:55:10Z</time>
      </trkpt>
      <trkpt lat="42.95896" lon="0.3037">
        <ele>1428.1999511719</ele>
        <time>2020-05-20T07:55:11Z</time>
      </trkpt>
      <trkpt lat="42.95896" lon="0.3037">
        <ele>1428.5999755859</ele>
        <time>2020-05-20T07:55:12Z</time>
      </trkpt>
      <trkpt lat="42.95896" lon="0.3037">
        <ele>1429</ele>
        <time>2020-05-20T07:55:13Z</time>
      </trkpt>
      <trkpt lat="42.95896" lon="0.3037">
        <ele>1429.4000244141</ele>
        <time>2020-05-20T07:55:14Z</time>
      </trkpt>
      <trkpt lat="42.95896" lon="0.3037">
        <ele>1429.4000244141</ele>
        <time>2020-05-20T07:55:26Z</time>
      </trkpt>
      <trkpt lat="42.95898" lon="0.30372">
        <ele>1429.4000244141</ele>
        <time>2020-05-20T07:55:29Z</time>
      </trkpt>
      <trkpt lat="42.959" lon="0.30374">
        <ele>1429.4000244141</ele>
        <time>2020-05-20T07:55:31Z</time>
      </trkpt>
      <trkpt lat="42.95905" lon="0.30383">
        <ele>1429.4000244141</ele>
        <time>2020-05-20T07:55:36Z</time>
      </trkpt>
      <trkpt lat="42.95916" lon="0.30403">
        <ele>1429.4000244141</ele>
        <time>2020-05-20T07:55:42Z</time>
      </trkpt>
      <trkpt lat="42.9592" lon="0.30412">
        <ele>1429</ele>
        <time>2020-05-20T07:55:44Z</time>
      </trkpt>
      <trkpt lat="42.95923" lon="0.30418">
        <ele>1428.5999755859</ele>
        <time>2020-05-20T07:55:45Z</time>
      </trkpt>
      <trkpt lat="42.95926" lon="0.30424">
        <ele>1428.1999511719</ele>
        <time>2020-05-20T07:55:46Z</time>
      </trkpt>
      <trkpt lat="42.9593" lon="0.3043">
        <ele>1427.8000488281</ele>
        <time>2020-05-20T07:55:47Z</time>
      </trkpt>
      <trkpt lat="42.95934" lon="0.30437">
        <ele>1427.4000244141</ele>
        <time>2020-05-20T07:55:48Z</time>
      </trkpt>
      <trkpt lat="42.95937" lon="0.30443">
        <ele>1426.8000488281</ele>
        <time>2020-05-20T07:55:49Z</time>
      </trkpt>
      <trkpt lat="42.95941" lon="0.3045">
        <ele>1426.4000244141</ele>
        <time>2020-05-20T07:55:50Z</time>
      </trkpt>
      <trkpt lat="42.95945" lon="0.30457">
        <ele>1425.8000488281</ele>
        <time>2020-05-20T07:55:51Z</time>
      </trkpt>
      <trkpt lat="42.9595" lon="0.30464">
        <ele>1425.4000244141</ele>
        <time>2020-05-20T07:55:52Z</time>
      </trkpt>
      <trkpt lat="42.95955" lon="0.30471">
        <ele>1424.8000488281</ele>
        <time>2020-05-20T07:55:53Z</time>
      </trkpt>
      <trkpt lat="42.9596" lon="0.30478">
        <ele>1424</ele>
        <time>2020-05-20T07:55:54Z</time>
      </trkpt>
      <trkpt lat="42.95965" lon="0.30485">
        <ele>1423.4000244141</ele>
        <time>2020-05-20T07:55:55Z</time>
      </trkpt>
      <trkpt lat="42.95971" lon="0.30494">
        <ele>1423</ele>
        <time>2020-05-20T07:55:56Z</time>
      </trkpt>
      <trkpt lat="42.95976" lon="0.30502">
        <ele>1422.5999755859</ele>
        <time>2020-05-20T07:55:57Z</time>
      </trkpt>
      <trkpt lat="42.95982" lon="0.3051">
        <ele>1422.1999511719</ele>
        <time>2020-05-20T07:55:58Z</time>
      </trkpt>
      <trkpt lat="42.95988" lon="0.30518">
        <ele>1421.5999755859</ele>
        <time>2020-05-20T07:55:59Z</time>
      </trkpt>
      <trkpt lat="42.95993" lon="0.30526">
        <ele>1421.1999511719</ele>
        <time>2020-05-20T07:56:00Z</time>
      </trkpt>
      <trkpt lat="42.95998" lon="0.30535">
        <ele>1420.8000488281</ele>
        <time>2020-05-20T07:56:01Z</time>
      </trkpt>
      <trkpt lat="42.96004" lon="0.30543">
        <ele>1420.1999511719</ele>
        <time>2020-05-20T07:56:02Z</time>
      </trkpt>
      <trkpt lat="42.9601" lon="0.30553">
        <ele>1419.8000488281</ele>
        <time>2020-05-20T07:56:03Z</time>
      </trkpt>
      <trkpt lat="42.96016" lon="0.30561">
        <ele>1419.1999511719</ele>
        <time>2020-05-20T07:56:04Z</time>
      </trkpt>
      <trkpt lat="42.96021" lon="0.3057">
        <ele>1418.5999755859</ele>
        <time>2020-05-20T07:56:05Z</time>
      </trkpt>
      <trkpt lat="42.96027" lon="0.30578">
        <ele>1418</ele>
        <time>2020-05-20T07:56:06Z</time>
      </trkpt>
      <trkpt lat="42.96033" lon="0.30587">
        <ele>1417.1999511719</ele>
        <time>2020-05-20T07:56:07Z</time>
      </trkpt>
      <trkpt lat="42.96039" lon="0.30595">
        <ele>1416.5999755859</ele>
        <time>2020-05-20T07:56:08Z</time>
      </trkpt>
      <trkpt lat="42.96045" lon="0.30604">
        <ele>1416</ele>
        <time>2020-05-20T07:56:09Z</time>
      </trkpt>
      <trkpt lat="42.96051" lon="0.30613">
        <ele>1415.5999755859</ele>
        <time>2020-05-20T07:56:10Z</time>
      </trkpt>
      <trkpt lat="42.96058" lon="0.30622">
        <ele>1415</ele>
        <time>2020-05-20T07:56:11Z</time>
      </trkpt>
      <trkpt lat="42.96064" lon="0.30632">
        <ele>1414.5999755859</ele>
        <time>2020-05-20T07:56:12Z</time>
      </trkpt>
      <trkpt lat="42.96069" lon="0.30642">
        <ele>1414</ele>
        <time>2020-05-20T07:56:13Z</time>
      </trkpt>
      <trkpt lat="42.96075" lon="0.30652">
        <ele>1413.4000244141</ele>
        <time>2020-05-20T07:56:14Z</time>
      </trkpt>
      <trkpt lat="42.96081" lon="0.30662">
        <ele>1412.8000488281</ele>
        <time>2020-05-20T07:56:15Z</time>
      </trkpt>
      <trkpt lat="42.96086" lon="0.30672">
        <ele>1412.1999511719</ele>
        <time>2020-05-20T07:56:16Z</time>
      </trkpt>
      <trkpt lat="42.96092" lon="0.30681">
        <ele>1411.5999755859</ele>
        <time>2020-05-20T07:56:17Z</time>
      </trkpt>
      <trkpt lat="42.96098" lon="0.30691">
        <ele>1411</ele>
        <time>2020-05-20T07:56:18Z</time>
      </trkpt>
      <trkpt lat="42.96103" lon="0.30702">
        <ele>1409.8000488281</ele>
        <time>2020-05-20T07:56:19Z</time>
      </trkpt>
      <trkpt lat="42.96109" lon="0.30712">
        <ele>1409.1999511719</ele>
        <time>2020-05-20T07:56:20Z</time>
      </trkpt>
      <trkpt lat="42.96115" lon="0.30721">
        <ele>1408.5999755859</ele>
        <time>2020-05-20T07:56:21Z</time>
      </trkpt>
      <trkpt lat="42.96121" lon="0.30731">
        <ele>1407.8000488281</ele>
        <time>2020-05-20T07:56:22Z</time>
      </trkpt>
      <trkpt lat="42.96128" lon="0.30741">
        <ele>1407.1999511719</ele>
        <time>2020-05-20T07:56:23Z</time>
      </trkpt>
      <trkpt lat="42.96135" lon="0.30751">
        <ele>1406.5999755859</ele>
        <time>2020-05-20T07:56:24Z</time>
      </trkpt>
      <trkpt lat="42.96142" lon="0.30761">
        <ele>1405.8000488281</ele>
        <time>2020-05-20T07:56:25Z</time>
      </trkpt>
      <trkpt lat="42.9615" lon="0.30771">
        <ele>1405</ele>
        <time>2020-05-20T07:56:26Z</time>
      </trkpt>
      <trkpt lat="42.96158" lon="0.3078">
        <ele>1404.1999511719</ele>
        <time>2020-05-20T07:56:27Z</time>
      </trkpt>
      <trkpt lat="42.96166" lon="0.30788">
        <ele>1403.1999511719</ele>
        <time>2020-05-20T07:56:28Z</time>
      </trkpt>
      <trkpt lat="42.96175" lon="0.30796">
        <ele>1402.4000244141</ele>
        <time>2020-05-20T07:56:29Z</time>
      </trkpt>
      <trkpt lat="42.96183" lon="0.30804">
        <ele>1401.5999755859</ele>
        <time>2020-05-20T07:56:30Z</time>
      </trkpt>
      <trkpt lat="42.96199" lon="0.3082">
        <ele>1401</ele>
        <time>2020-05-20T07:56:32Z</time>
      </trkpt>
      <trkpt lat="42.96207" lon="0.30827">
        <ele>1400.5999755859</ele>
        <time>2020-05-20T07:56:33Z</time>
      </trkpt>
      <trkpt lat="42.96213" lon="0.30834">
        <ele>1400</ele>
        <time>2020-05-20T07:56:34Z</time>
      </trkpt>
      <trkpt lat="42.96218" lon="0.3084">
        <ele>1399.5999755859</ele>
        <time>2020-05-20T07:56:35Z</time>
      </trkpt>
      <trkpt lat="42.96223" lon="0.30844">
        <ele>1399.1999511719</ele>
        <time>2020-05-20T07:56:36Z</time>
      </trkpt>
      <trkpt lat="42.96226" lon="0.30847">
        <ele>1399.1999511719</ele>
        <time>2020-05-20T07:56:37Z</time>
      </trkpt>
      <trkpt lat="42.96233" lon="0.30854">
        <ele>1399.1999511719</ele>
        <time>2020-05-20T07:56:41Z</time>
      </trkpt>
      <trkpt lat="42.96233" lon="0.30854">
        <ele>1399.1999511719</ele>
        <time>2020-05-20T07:56:48Z</time>
      </trkpt>
      <trkpt lat="42.96235" lon="0.30857">
        <ele>1399.1999511719</ele>
        <time>2020-05-20T07:56:59Z</time>
      </trkpt>
      <trkpt lat="42.9625" lon="0.3087">
        <ele>1399.1999511719</ele>
        <time>2020-05-20T07:57:04Z</time>
      </trkpt>
      <trkpt lat="42.96272" lon="0.30888">
        <ele>1399.1999511719</ele>
        <time>2020-05-20T07:57:11Z</time>
      </trkpt>
      <trkpt lat="42.96282" lon="0.30897">
        <ele>1399.1999511719</ele>
        <time>2020-05-20T07:57:16Z</time>
      </trkpt>
      <trkpt lat="42.96287" lon="0.30911">
        <ele>1399.1999511719</ele>
        <time>2020-05-20T07:57:21Z</time>
      </trkpt>
      <trkpt lat="42.96289" lon="0.30913">
        <ele>1399.1999511719</ele>
        <time>2020-05-20T07:57:23Z</time>
      </trkpt>
      <trkpt lat="42.96292" lon="0.3091">
        <ele>1399.1999511719</ele>
        <time>2020-05-20T07:57:26Z</time>
      </trkpt>
      <trkpt lat="42.96288" lon="0.30908">
        <ele>1399.1999511719</ele>
        <time>2020-05-20T07:57:30Z</time>
      </trkpt>
      <trkpt lat="42.9629" lon="0.30913">
        <ele>1399.1999511719</ele>
        <time>2020-05-20T07:57:33Z</time>
      </trkpt>
      <trkpt lat="42.96294" lon="0.30914">
        <ele>1399.1999511719</ele>
        <time>2020-05-20T07:57:35Z</time>
      </trkpt>
      <trkpt lat="42.96298" lon="0.30915">
        <ele>1399.1999511719</ele>
        <time>2020-05-20T07:57:39Z</time>
      </trkpt>
      <trkpt lat="42.96297" lon="0.30915">
        <ele>1399.5999755859</ele>
        <time>2020-05-20T07:57:40Z</time>
      </trkpt>
      <trkpt lat="42.96297" lon="0.30915">
        <ele>1400</ele>
        <time>2020-05-20T07:57:41Z</time>
      </trkpt>
      <trkpt lat="42.96297" lon="0.30915">
        <ele>1400.4000244141</ele>
        <time>2020-05-20T07:57:42Z</time>
      </trkpt>
      <trkpt lat="42.96297" lon="0.30915">
        <ele>1400.8000488281</ele>
        <time>2020-05-20T07:57:43Z</time>
      </trkpt>
      <trkpt lat="42.96297" lon="0.30915">
        <ele>1401.1999511719</ele>
        <time>2020-05-20T07:57:44Z</time>
      </trkpt>
      <trkpt lat="42.96297" lon="0.30915">
        <ele>1401.1999511719</ele>
        <time>2020-05-20T07:57:47Z</time>
      </trkpt>
      <trkpt lat="42.96298" lon="0.30915">
        <ele>1401.5999755859</ele>
        <time>2020-05-20T07:57:59Z</time>
      </trkpt>
      <trkpt lat="42.96298" lon="0.30915">
        <ele>1402</ele>
        <time>2020-05-20T07:58:00Z</time>
      </trkpt>
      <trkpt lat="42.96298" lon="0.30915">
        <ele>1402.1999511719</ele>
        <time>2020-05-20T07:58:01Z</time>
      </trkpt>
      <trkpt lat="42.96297" lon="0.30914">
        <ele>1402</ele>
        <time>2020-05-20T07:58:02Z</time>
      </trkpt>
      <trkpt lat="42.96297" lon="0.30913">
        <ele>1401.8000488281</ele>
        <time>2020-05-20T07:58:03Z</time>
      </trkpt>
      <trkpt lat="42.96297" lon="0.30912">
        <ele>1401.4000244141</ele>
        <time>2020-05-20T07:58:04Z</time>
      </trkpt>
      <trkpt lat="42.96296" lon="0.3091">
        <ele>1401.1999511719</ele>
        <time>2020-05-20T07:58:05Z</time>
      </trkpt>
      <trkpt lat="42.96294" lon="0.30909">
        <ele>1401.1999511719</ele>
        <time>2020-05-20T07:58:06Z</time>
      </trkpt>
      <trkpt lat="42.96285" lon="0.30898">
        <ele>1401.1999511719</ele>
        <time>2020-05-20T07:58:11Z</time>
      </trkpt>
      <trkpt lat="42.96286" lon="0.30879">
        <ele>1401.1999511719</ele>
        <time>2020-05-20T07:58:15Z</time>
      </trkpt>
      <trkpt lat="42.96288" lon="0.30874">
        <ele>1401.1999511719</ele>
        <time>2020-05-20T07:58:16Z</time>
      </trkpt>
      <trkpt lat="42.96296" lon="0.30858">
        <ele>1400.8000488281</ele>
        <time>2020-05-20T07:58:19Z</time>
      </trkpt>
      <trkpt lat="42.96299" lon="0.30853">
        <ele>1400.4000244141</ele>
        <time>2020-05-20T07:58:20Z</time>
      </trkpt>
      <trkpt lat="42.96302" lon="0.30847">
        <ele>1400</ele>
        <time>2020-05-20T07:58:21Z</time>
      </trkpt>
      <trkpt lat="42.96305" lon="0.30841">
        <ele>1399.5999755859</ele>
        <time>2020-05-20T07:58:22Z</time>
      </trkpt>
      <trkpt lat="42.96309" lon="0.30836">
        <ele>1399.1999511719</ele>
        <time>2020-05-20T07:58:23Z</time>
      </trkpt>
      <trkpt lat="42.96321" lon="0.30819">
        <ele>1398.8000488281</ele>
        <time>2020-05-20T07:58:26Z</time>
      </trkpt>
      <trkpt lat="42.96326" lon="0.30814">
        <ele>1398.4000244141</ele>
        <time>2020-05-20T07:58:27Z</time>
      </trkpt>
      <trkpt lat="42.96331" lon="0.30808">
        <ele>1398</ele>
        <time>2020-05-20T07:58:28Z</time>
      </trkpt>
      <trkpt lat="42.96337" lon="0.30803">
        <ele>1397.5999755859</ele>
        <time>2020-05-20T07:58:29Z</time>
      </trkpt>
      <trkpt lat="42.96344" lon="0.30799">
        <ele>1397.1999511719</ele>
        <time>2020-05-20T07:58:30Z</time>
      </trkpt>
      <trkpt lat="42.96351" lon="0.30795">
        <ele>1396.5999755859</ele>
        <time>2020-05-20T07:58:31Z</time>
      </trkpt>
      <trkpt lat="42.96359" lon="0.3079">
        <ele>1396.1999511719</ele>
        <time>2020-05-20T07:58:32Z</time>
      </trkpt>
      <trkpt lat="42.96367" lon="0.30786">
        <ele>1395.5999755859</ele>
        <time>2020-05-20T07:58:33Z</time>
      </trkpt>
      <trkpt lat="42.96375" lon="0.30782">
        <ele>1395.1999511719</ele>
        <time>2020-05-20T07:58:34Z</time>
      </trkpt>
      <trkpt lat="42.96382" lon="0.30777">
        <ele>1394.8000488281</ele>
        <time>2020-05-20T07:58:35Z</time>
      </trkpt>
      <trkpt lat="42.96397" lon="0.30768">
        <ele>1394.1999511719</ele>
        <time>2020-05-20T07:58:37Z</time>
      </trkpt>
      <trkpt lat="42.96403" lon="0.30762">
        <ele>1393.8000488281</ele>
        <time>2020-05-20T07:58:38Z</time>
      </trkpt>
      <trkpt lat="42.96408" lon="0.30753">
        <ele>1393.4000244141</ele>
        <time>2020-05-20T07:58:39Z</time>
      </trkpt>
      <trkpt lat="42.96412" lon="0.30743">
        <ele>1392.8000488281</ele>
        <time>2020-05-20T07:58:40Z</time>
      </trkpt>
      <trkpt lat="42.96414" lon="0.30732">
        <ele>1392.4000244141</ele>
        <time>2020-05-20T07:58:41Z</time>
      </trkpt>
      <trkpt lat="42.96414" lon="0.30708">
        <ele>1392.4000244141</ele>
        <time>2020-05-20T07:58:43Z</time>
      </trkpt>
      <trkpt lat="42.96414" lon="0.30696">
        <ele>1392</ele>
        <time>2020-05-20T07:58:44Z</time>
      </trkpt>
      <trkpt lat="42.96414" lon="0.30684">
        <ele>1391.5999755859</ele>
        <time>2020-05-20T07:58:45Z</time>
      </trkpt>
      <trkpt lat="42.96414" lon="0.30671">
        <ele>1391.1999511719</ele>
        <time>2020-05-20T07:58:46Z</time>
      </trkpt>
      <trkpt lat="42.96416" lon="0.30658">
        <ele>1390.5999755859</ele>
        <time>2020-05-20T07:58:47Z</time>
      </trkpt>
      <trkpt lat="42.96419" lon="0.30644">
        <ele>1390</ele>
        <time>2020-05-20T07:58:48Z</time>
      </trkpt>
      <trkpt lat="42.96423" lon="0.30632">
        <ele>1389.4000244141</ele>
        <time>2020-05-20T07:58:49Z</time>
      </trkpt>
      <trkpt lat="42.96426" lon="0.30618">
        <ele>1388.8000488281</ele>
        <time>2020-05-20T07:58:50Z</time>
      </trkpt>
      <trkpt lat="42.96426" lon="0.30604">
        <ele>1387.1999511719</ele>
        <time>2020-05-20T07:58:51Z</time>
      </trkpt>
      <trkpt lat="42.96425" lon="0.30589">
        <ele>1386.5999755859</ele>
        <time>2020-05-20T07:58:52Z</time>
      </trkpt>
      <trkpt lat="42.96423" lon="0.30575">
        <ele>1385.8000488281</ele>
        <time>2020-05-20T07:58:53Z</time>
      </trkpt>
      <trkpt lat="42.96422" lon="0.3056">
        <ele>1385</ele>
        <time>2020-05-20T07:58:54Z</time>
      </trkpt>
      <trkpt lat="42.96423" lon="0.30545">
        <ele>1384.1999511719</ele>
        <time>2020-05-20T07:58:55Z</time>
      </trkpt>
      <trkpt lat="42.96423" lon="0.30529">
        <ele>1383.4000244141</ele>
        <time>2020-05-20T07:58:56Z</time>
      </trkpt>
      <trkpt lat="42.96422" lon="0.30513">
        <ele>1382.5999755859</ele>
        <time>2020-05-20T07:58:57Z</time>
      </trkpt>
      <trkpt lat="42.96419" lon="0.30499">
        <ele>1381.8000488281</ele>
        <time>2020-05-20T07:58:58Z</time>
      </trkpt>
      <trkpt lat="42.96415" lon="0.30485">
        <ele>1380.8000488281</ele>
        <time>2020-05-20T07:58:59Z</time>
      </trkpt>
      <trkpt lat="42.96411" lon="0.30472">
        <ele>1380</ele>
        <time>2020-05-20T07:59:00Z</time>
      </trkpt>
      <trkpt lat="42.96409" lon="0.30459">
        <ele>1379.1999511719</ele>
        <time>2020-05-20T07:59:01Z</time>
      </trkpt>
      <trkpt lat="42.96407" lon="0.30447">
        <ele>1378.5999755859</ele>
        <time>2020-05-20T07:59:02Z</time>
      </trkpt>
      <trkpt lat="42.96407" lon="0.30436">
        <ele>1377.8000488281</ele>
        <time>2020-05-20T07:59:03Z</time>
      </trkpt>
      <trkpt lat="42.96408" lon="0.30424">
        <ele>1377</ele>
        <time>2020-05-20T07:59:04Z</time>
      </trkpt>
      <trkpt lat="42.96411" lon="0.30413">
        <ele>1376.1999511719</ele>
        <time>2020-05-20T07:59:05Z</time>
      </trkpt>
      <trkpt lat="42.96414" lon="0.30403">
        <ele>1375.8000488281</ele>
        <time>2020-05-20T07:59:06Z</time>
      </trkpt>
      <trkpt lat="42.96418" lon="0.30392">
        <ele>1375.4000244141</ele>
        <time>2020-05-20T07:59:07Z</time>
      </trkpt>
      <trkpt lat="42.9642" lon="0.30383">
        <ele>1375</ele>
        <time>2020-05-20T07:59:08Z</time>
      </trkpt>
      <trkpt lat="42.96421" lon="0.30374">
        <ele>1374.4000244141</ele>
        <time>2020-05-20T07:59:09Z</time>
      </trkpt>
      <trkpt lat="42.96421" lon="0.30368">
        <ele>1373.8000488281</ele>
        <time>2020-05-20T07:59:10Z</time>
      </trkpt>
      <trkpt lat="42.96421" lon="0.3036">
        <ele>1373</ele>
        <time>2020-05-20T07:59:11Z</time>
      </trkpt>
      <trkpt lat="42.96423" lon="0.30353">
        <ele>1372.4000244141</ele>
        <time>2020-05-20T07:59:12Z</time>
      </trkpt>
      <trkpt lat="42.96426" lon="0.30346">
        <ele>1371.8000488281</ele>
        <time>2020-05-20T07:59:13Z</time>
      </trkpt>
      <trkpt lat="42.9643" lon="0.30342">
        <ele>1371.8000488281</ele>
        <time>2020-05-20T07:59:14Z</time>
      </trkpt>
      <trkpt lat="42.96433" lon="0.30338">
        <ele>1371.8000488281</ele>
        <time>2020-05-20T07:59:15Z</time>
      </trkpt>
      <trkpt lat="42.96436" lon="0.30333">
        <ele>1371.8000488281</ele>
        <time>2020-05-20T07:59:16Z</time>
      </trkpt>
      <trkpt lat="42.96439" lon="0.30322">
        <ele>1371.8000488281</ele>
        <time>2020-05-20T07:59:18Z</time>
      </trkpt>
      <trkpt lat="42.9644" lon="0.30313">
        <ele>1371.8000488281</ele>
        <time>2020-05-20T07:59:20Z</time>
      </trkpt>
      <trkpt lat="42.9644" lon="0.30304">
        <ele>1371.8000488281</ele>
        <time>2020-05-20T07:59:23Z</time>
      </trkpt>
      <trkpt lat="42.9644" lon="0.3029">
        <ele>1372.1999511719</ele>
        <time>2020-05-20T07:59:28Z</time>
      </trkpt>
      <trkpt lat="42.9644" lon="0.30287">
        <ele>1372.5999755859</ele>
        <time>2020-05-20T07:59:29Z</time>
      </trkpt>
      <trkpt lat="42.9644" lon="0.30284">
        <ele>1373</ele>
        <time>2020-05-20T07:59:30Z</time>
      </trkpt>
      <trkpt lat="42.96441" lon="0.30282">
        <ele>1373.4000244141</ele>
        <time>2020-05-20T07:59:31Z</time>
      </trkpt>
      <trkpt lat="42.96441" lon="0.30279">
        <ele>1373.8000488281</ele>
        <time>2020-05-20T07:59:32Z</time>
      </trkpt>
      <trkpt lat="42.96441" lon="0.30267">
        <ele>1373.8000488281</ele>
        <time>2020-05-20T07:59:36Z</time>
      </trkpt>
      <trkpt lat="42.96441" lon="0.30262">
        <ele>1374.1999511719</ele>
        <time>2020-05-20T07:59:38Z</time>
      </trkpt>
      <trkpt lat="42.96441" lon="0.30259">
        <ele>1374.5999755859</ele>
        <time>2020-05-20T07:59:39Z</time>
      </trkpt>
      <trkpt lat="42.96441" lon="0.30257">
        <ele>1375.5999755859</ele>
        <time>2020-05-20T07:59:40Z</time>
      </trkpt>
      <trkpt lat="42.96441" lon="0.30254">
        <ele>1376</ele>
        <time>2020-05-20T07:59:41Z</time>
      </trkpt>
      <trkpt lat="42.96441" lon="0.30248">
        <ele>1376</ele>
        <time>2020-05-20T07:59:43Z</time>
      </trkpt>
      <trkpt lat="42.9644" lon="0.30231">
        <ele>1376.4000244141</ele>
        <time>2020-05-20T07:59:49Z</time>
      </trkpt>
      <trkpt lat="42.9644" lon="0.30229">
        <ele>1376.8000488281</ele>
        <time>2020-05-20T07:59:50Z</time>
      </trkpt>
      <trkpt lat="42.9644" lon="0.30226">
        <ele>1377.1999511719</ele>
        <time>2020-05-20T07:59:51Z</time>
      </trkpt>
      <trkpt lat="42.96439" lon="0.30224">
        <ele>1377.5999755859</ele>
        <time>2020-05-20T07:59:52Z</time>
      </trkpt>
      <trkpt lat="42.96438" lon="0.30222">
        <ele>1378</ele>
        <time>2020-05-20T07:59:53Z</time>
      </trkpt>
      <trkpt lat="42.96436" lon="0.30216">
        <ele>1378</ele>
        <time>2020-05-20T07:59:56Z</time>
      </trkpt>
      <trkpt lat="42.96434" lon="0.30209">
        <ele>1378.4000244141</ele>
        <time>2020-05-20T07:59:59Z</time>
      </trkpt>
      <trkpt lat="42.96434" lon="0.30207">
        <ele>1378.8000488281</ele>
        <time>2020-05-20T08:00:00Z</time>
      </trkpt>
      <trkpt lat="42.96433" lon="0.30205">
        <ele>1379.1999511719</ele>
        <time>2020-05-20T08:00:01Z</time>
      </trkpt>
      <trkpt lat="42.96433" lon="0.30203">
        <ele>1379.5999755859</ele>
        <time>2020-05-20T08:00:02Z</time>
      </trkpt>
      <trkpt lat="42.96432" lon="0.302">
        <ele>1380</ele>
        <time>2020-05-20T08:00:03Z</time>
      </trkpt>
      <trkpt lat="42.96426" lon="0.3018">
        <ele>1380</ele>
        <time>2020-05-20T08:00:12Z</time>
      </trkpt>
      <trkpt lat="42.96425" lon="0.30176">
        <ele>1380.4000244141</ele>
        <time>2020-05-20T08:00:14Z</time>
      </trkpt>
      <trkpt lat="42.96425" lon="0.30174">
        <ele>1380.8000488281</ele>
        <time>2020-05-20T08:00:15Z</time>
      </trkpt>
      <trkpt lat="42.96424" lon="0.30172">
        <ele>1381.4000244141</ele>
        <time>2020-05-20T08:00:16Z</time>
      </trkpt>
      <trkpt lat="42.96423" lon="0.30169">
        <ele>1381.8000488281</ele>
        <time>2020-05-20T08:00:17Z</time>
      </trkpt>
      <trkpt lat="42.96423" lon="0.30167">
        <ele>1382.1999511719</ele>
        <time>2020-05-20T08:00:18Z</time>
      </trkpt>
      <trkpt lat="42.96423" lon="0.30164">
        <ele>1382.1999511719</ele>
        <time>2020-05-20T08:00:19Z</time>
      </trkpt>
      <trkpt lat="42.9642" lon="0.30146">
        <ele>1382.1999511719</ele>
        <time>2020-05-20T08:00:27Z</time>
      </trkpt>
      <trkpt lat="42.9642" lon="0.30143">
        <ele>1382.5999755859</ele>
        <time>2020-05-20T08:00:28Z</time>
      </trkpt>
      <trkpt lat="42.9642" lon="0.30141">
        <ele>1383.4000244141</ele>
        <time>2020-05-20T08:00:29Z</time>
      </trkpt>
      <trkpt lat="42.96419" lon="0.30139">
        <ele>1383.8000488281</ele>
        <time>2020-05-20T08:00:30Z</time>
      </trkpt>
      <trkpt lat="42.96419" lon="0.30137">
        <ele>1384.1999511719</ele>
        <time>2020-05-20T08:00:31Z</time>
      </trkpt>
      <trkpt lat="42.96419" lon="0.30135">
        <ele>1384.1999511719</ele>
        <time>2020-05-20T08:00:32Z</time>
      </trkpt>
      <trkpt lat="42.96419" lon="0.30119">
        <ele>1384.1999511719</ele>
        <time>2020-05-20T08:00:39Z</time>
      </trkpt>
      <trkpt lat="42.96419" lon="0.30117">
        <ele>1384.5999755859</ele>
        <time>2020-05-20T08:00:40Z</time>
      </trkpt>
      <trkpt lat="42.96419" lon="0.30115">
        <ele>1385</ele>
        <time>2020-05-20T08:00:41Z</time>
      </trkpt>
      <trkpt lat="42.96419" lon="0.30112">
        <ele>1385.4000244141</ele>
        <time>2020-05-20T08:00:42Z</time>
      </trkpt>
      <trkpt lat="42.96419" lon="0.3011">
        <ele>1385.8000488281</ele>
        <time>2020-05-20T08:00:43Z</time>
      </trkpt>
      <trkpt lat="42.96419" lon="0.30108">
        <ele>1386.1999511719</ele>
        <time>2020-05-20T08:00:44Z</time>
      </trkpt>
      <trkpt lat="42.96417" lon="0.30099">
        <ele>1386.1999511719</ele>
        <time>2020-05-20T08:00:48Z</time>
      </trkpt>
      <trkpt lat="42.96417" lon="0.3009">
        <ele>1386.5999755859</ele>
        <time>2020-05-20T08:00:52Z</time>
      </trkpt>
      <trkpt lat="42.96417" lon="0.30088">
        <ele>1387</ele>
        <time>2020-05-20T08:00:53Z</time>
      </trkpt>
      <trkpt lat="42.96417" lon="0.30086">
        <ele>1387.8000488281</ele>
        <time>2020-05-20T08:00:54Z</time>
      </trkpt>
      <trkpt lat="42.96417" lon="0.30083">
        <ele>1388.1999511719</ele>
        <time>2020-05-20T08:00:55Z</time>
      </trkpt>
      <trkpt lat="42.96417" lon="0.30081">
        <ele>1388.1999511719</ele>
        <time>2020-05-20T08:00:56Z</time>
      </trkpt>
      <trkpt lat="42.96419" lon="0.30068">
        <ele>1388.1999511719</ele>
        <time>2020-05-20T08:01:02Z</time>
      </trkpt>
      <trkpt lat="42.96419" lon="0.30057">
        <ele>1388.5999755859</ele>
        <time>2020-05-20T08:01:06Z</time>
      </trkpt>
      <trkpt lat="42.9642" lon="0.30055">
        <ele>1389</ele>
        <time>2020-05-20T08:01:07Z</time>
      </trkpt>
      <trkpt lat="42.96421" lon="0.30053">
        <ele>1389.5999755859</ele>
        <time>2020-05-20T08:01:08Z</time>
      </trkpt>
      <trkpt lat="42.96421" lon="0.30051">
        <ele>1390</ele>
        <time>2020-05-20T08:01:09Z</time>
      </trkpt>
      <trkpt lat="42.96421" lon="0.30049">
        <ele>1390.4000244141</ele>
        <time>2020-05-20T08:01:10Z</time>
      </trkpt>
      <trkpt lat="42.96419" lon="0.30042">
        <ele>1390.4000244141</ele>
        <time>2020-05-20T08:01:14Z</time>
      </trkpt>
      <trkpt lat="42.9641" lon="0.30021">
        <ele>1390.8000488281</ele>
        <time>2020-05-20T08:01:21Z</time>
      </trkpt>
      <trkpt lat="42.96409" lon="0.30018">
        <ele>1391.1999511719</ele>
        <time>2020-05-20T08:01:22Z</time>
      </trkpt>
      <trkpt lat="42.96408" lon="0.30016">
        <ele>1391.5999755859</ele>
        <time>2020-05-20T08:01:23Z</time>
      </trkpt>
      <trkpt lat="42.96407" lon="0.30013">
        <ele>1392</ele>
        <time>2020-05-20T08:01:24Z</time>
      </trkpt>
      <trkpt lat="42.96406" lon="0.30011">
        <ele>1392.5999755859</ele>
        <time>2020-05-20T08:01:25Z</time>
      </trkpt>
      <trkpt lat="42.96405" lon="0.30007">
        <ele>1392.5999755859</ele>
        <time>2020-05-20T08:01:27Z</time>
      </trkpt>
      <trkpt lat="42.96402" lon="0.29997">
        <ele>1392.5999755859</ele>
        <time>2020-05-20T08:01:32Z</time>
      </trkpt>
      <trkpt lat="42.96402" lon="0.29994">
        <ele>1392.5999755859</ele>
        <time>2020-05-20T08:01:33Z</time>
      </trkpt>
      <trkpt lat="42.96398" lon="0.29985">
        <ele>1393</ele>
        <time>2020-05-20T08:01:37Z</time>
      </trkpt>
      <trkpt lat="42.96397" lon="0.29983">
        <ele>1393.4000244141</ele>
        <time>2020-05-20T08:01:38Z</time>
      </trkpt>
      <trkpt lat="42.96396" lon="0.29981">
        <ele>1393.8000488281</ele>
        <time>2020-05-20T08:01:39Z</time>
      </trkpt>
      <trkpt lat="42.96395" lon="0.29979">
        <ele>1394.1999511719</ele>
        <time>2020-05-20T08:01:40Z</time>
      </trkpt>
      <trkpt lat="42.96394" lon="0.29977">
        <ele>1394.5999755859</ele>
        <time>2020-05-20T08:01:41Z</time>
      </trkpt>
      <trkpt lat="42.96389" lon="0.29963">
        <ele>1394.5999755859</ele>
        <time>2020-05-20T08:01:47Z</time>
      </trkpt>
      <trkpt lat="42.96389" lon="0.29958">
        <ele>1395</ele>
        <time>2020-05-20T08:01:49Z</time>
      </trkpt>
      <trkpt lat="42.96388" lon="0.29955">
        <ele>1395.4000244141</ele>
        <time>2020-05-20T08:01:50Z</time>
      </trkpt>
      <trkpt lat="42.96388" lon="0.29952">
        <ele>1396</ele>
        <time>2020-05-20T08:01:51Z</time>
      </trkpt>
      <trkpt lat="42.96387" lon="0.29949">
        <ele>1396.4000244141</ele>
        <time>2020-05-20T08:01:52Z</time>
      </trkpt>
      <trkpt lat="42.96386" lon="0.29947">
        <ele>1396.8000488281</ele>
        <time>2020-05-20T08:01:53Z</time>
      </trkpt>
      <trkpt lat="42.96385" lon="0.29943">
        <ele>1396.8000488281</ele>
        <time>2020-05-20T08:01:54Z</time>
      </trkpt>
      <trkpt lat="42.96386" lon="0.29935">
        <ele>1396.8000488281</ele>
        <time>2020-05-20T08:01:57Z</time>
      </trkpt>
      <trkpt lat="42.96386" lon="0.29929">
        <ele>1396.8000488281</ele>
        <time>2020-05-20T08:01:59Z</time>
      </trkpt>
      <trkpt lat="42.96387" lon="0.29918">
        <ele>1397.1999511719</ele>
        <time>2020-05-20T08:02:03Z</time>
      </trkpt>
      <trkpt lat="42.96387" lon="0.29915">
        <ele>1397.5999755859</ele>
        <time>2020-05-20T08:02:04Z</time>
      </trkpt>
      <trkpt lat="42.96387" lon="0.29912">
        <ele>1398</ele>
        <time>2020-05-20T08:02:05Z</time>
      </trkpt>
      <trkpt lat="42.96387" lon="0.2991">
        <ele>1398.4000244141</ele>
        <time>2020-05-20T08:02:06Z</time>
      </trkpt>
      <trkpt lat="42.96388" lon="0.29907">
        <ele>1398.8000488281</ele>
        <time>2020-05-20T08:02:07Z</time>
      </trkpt>
      <trkpt lat="42.96392" lon="0.2989">
        <ele>1398.8000488281</ele>
        <time>2020-05-20T08:02:13Z</time>
      </trkpt>
      <trkpt lat="42.96393" lon="0.29881">
        <ele>1399.1999511719</ele>
        <time>2020-05-20T08:02:16Z</time>
      </trkpt>
      <trkpt lat="42.96393" lon="0.29878">
        <ele>1399.5999755859</ele>
        <time>2020-05-20T08:02:17Z</time>
      </trkpt>
      <trkpt lat="42.96393" lon="0.29875">
        <ele>1400</ele>
        <time>2020-05-20T08:02:18Z</time>
      </trkpt>
      <trkpt lat="42.96393" lon="0.29873">
        <ele>1400.4000244141</ele>
        <time>2020-05-20T08:02:19Z</time>
      </trkpt>
      <trkpt lat="42.96393" lon="0.2987">
        <ele>1400.8000488281</ele>
        <time>2020-05-20T08:02:20Z</time>
      </trkpt>
      <trkpt lat="42.96392" lon="0.29846">
        <ele>1400.8000488281</ele>
        <time>2020-05-20T08:02:28Z</time>
      </trkpt>
      <trkpt lat="42.96394" lon="0.29832">
        <ele>1401.1999511719</ele>
        <time>2020-05-20T08:02:33Z</time>
      </trkpt>
      <trkpt lat="42.96395" lon="0.2983">
        <ele>1401.5999755859</ele>
        <time>2020-05-20T08:02:34Z</time>
      </trkpt>
      <trkpt lat="42.96396" lon="0.29827">
        <ele>1402</ele>
        <time>2020-05-20T08:02:35Z</time>
      </trkpt>
      <trkpt lat="42.96395" lon="0.29824">
        <ele>1402.4000244141</ele>
        <time>2020-05-20T08:02:36Z</time>
      </trkpt>
      <trkpt lat="42.96396" lon="0.29821">
        <ele>1402.8000488281</ele>
        <time>2020-05-20T08:02:37Z</time>
      </trkpt>
      <trkpt lat="42.96396" lon="0.29815">
        <ele>1402.8000488281</ele>
        <time>2020-05-20T08:02:39Z</time>
      </trkpt>
      <trkpt lat="42.96398" lon="0.29798">
        <ele>1402.8000488281</ele>
        <time>2020-05-20T08:02:45Z</time>
      </trkpt>
      <trkpt lat="42.96398" lon="0.29789">
        <ele>1402.8000488281</ele>
        <time>2020-05-20T08:02:48Z</time>
      </trkpt>
      <trkpt lat="42.96398" lon="0.29774">
        <ele>1402.8000488281</ele>
        <time>2020-05-20T08:02:53Z</time>
      </trkpt>
      <trkpt lat="42.964" lon="0.29768">
        <ele>1403.4000244141</ele>
        <time>2020-05-20T08:02:55Z</time>
      </trkpt>
      <trkpt lat="42.96401" lon="0.29765">
        <ele>1403.8000488281</ele>
        <time>2020-05-20T08:02:56Z</time>
      </trkpt>
      <trkpt lat="42.96402" lon="0.29762">
        <ele>1404.1999511719</ele>
        <time>2020-05-20T08:02:57Z</time>
      </trkpt>
      <trkpt lat="42.96403" lon="0.29758">
        <ele>1405</ele>
        <time>2020-05-20T08:02:58Z</time>
      </trkpt>
      <trkpt lat="42.96405" lon="0.29752">
        <ele>1405</ele>
        <time>2020-05-20T08:03:00Z</time>
      </trkpt>
      <trkpt lat="42.96408" lon="0.29733">
        <ele>1405</ele>
        <time>2020-05-20T08:03:06Z</time>
      </trkpt>
      <trkpt lat="42.96411" lon="0.29702">
        <ele>1405</ele>
        <time>2020-05-20T08:03:15Z</time>
      </trkpt>
      <trkpt lat="42.96413" lon="0.29686">
        <ele>1405.4000244141</ele>
        <time>2020-05-20T08:03:20Z</time>
      </trkpt>
      <trkpt lat="42.96414" lon="0.29683">
        <ele>1406</ele>
        <time>2020-05-20T08:03:21Z</time>
      </trkpt>
      <trkpt lat="42.96414" lon="0.29679">
        <ele>1406.8000488281</ele>
        <time>2020-05-20T08:03:22Z</time>
      </trkpt>
      <trkpt lat="42.96415" lon="0.29676">
        <ele>1407.1999511719</ele>
        <time>2020-05-20T08:03:23Z</time>
      </trkpt>
      <trkpt lat="42.96421" lon="0.29656">
        <ele>1407.1999511719</ele>
        <time>2020-05-20T08:03:30Z</time>
      </trkpt>
      <trkpt lat="42.96428" lon="0.29644">
        <ele>1407.5999755859</ele>
        <time>2020-05-20T08:03:35Z</time>
      </trkpt>
      <trkpt lat="42.9643" lon="0.29642">
        <ele>1408</ele>
        <time>2020-05-20T08:03:36Z</time>
      </trkpt>
      <trkpt lat="42.96432" lon="0.2964">
        <ele>1408.4000244141</ele>
        <time>2020-05-20T08:03:37Z</time>
      </trkpt>
      <trkpt lat="42.96433" lon="0.29638">
        <ele>1408.8000488281</ele>
        <time>2020-05-20T08:03:38Z</time>
      </trkpt>
      <trkpt lat="42.96434" lon="0.29636">
        <ele>1409.1999511719</ele>
        <time>2020-05-20T08:03:39Z</time>
      </trkpt>
      <trkpt lat="42.96439" lon="0.29627">
        <ele>1409.1999511719</ele>
        <time>2020-05-20T08:03:43Z</time>
      </trkpt>
      <trkpt lat="42.96445" lon="0.29621">
        <ele>1410</ele>
        <time>2020-05-20T08:03:47Z</time>
      </trkpt>
      <trkpt lat="42.96447" lon="0.29619">
        <ele>1410.5999755859</ele>
        <time>2020-05-20T08:03:48Z</time>
      </trkpt>
      <trkpt lat="42.96449" lon="0.29618">
        <ele>1411</ele>
        <time>2020-05-20T08:03:49Z</time>
      </trkpt>
      <trkpt lat="42.96451" lon="0.29617">
        <ele>1411.4000244141</ele>
        <time>2020-05-20T08:03:50Z</time>
      </trkpt>
      <trkpt lat="42.96462" lon="0.29609">
        <ele>1411.4000244141</ele>
        <time>2020-05-20T08:03:56Z</time>
      </trkpt>
      <trkpt lat="42.96471" lon="0.29595">
        <ele>1411.4000244141</ele>
        <time>2020-05-20T08:04:02Z</time>
      </trkpt>
      <trkpt lat="42.96472" lon="0.29593">
        <ele>1411.8000488281</ele>
        <time>2020-05-20T08:04:03Z</time>
      </trkpt>
      <trkpt lat="42.96472" lon="0.29591">
        <ele>1412.1999511719</ele>
        <time>2020-05-20T08:04:04Z</time>
      </trkpt>
      <trkpt lat="42.96473" lon="0.29588">
        <ele>1412.5999755859</ele>
        <time>2020-05-20T08:04:05Z</time>
      </trkpt>
      <trkpt lat="42.96473" lon="0.29586">
        <ele>1413</ele>
        <time>2020-05-20T08:04:06Z</time>
      </trkpt>
      <trkpt lat="42.96474" lon="0.29583">
        <ele>1413.4000244141</ele>
        <time>2020-05-20T08:04:07Z</time>
      </trkpt>
      <trkpt lat="42.96474" lon="0.29581">
        <ele>1413.4000244141</ele>
        <time>2020-05-20T08:04:08Z</time>
      </trkpt>
      <trkpt lat="42.96473" lon="0.29563">
        <ele>1413.8000488281</ele>
        <time>2020-05-20T08:04:15Z</time>
      </trkpt>
      <trkpt lat="42.96472" lon="0.29561">
        <ele>1414.1999511719</ele>
        <time>2020-05-20T08:04:16Z</time>
      </trkpt>
      <trkpt lat="42.96472" lon="0.29558">
        <ele>1414.5999755859</ele>
        <time>2020-05-20T08:04:17Z</time>
      </trkpt>
      <trkpt lat="42.96471" lon="0.29556">
        <ele>1415</ele>
        <time>2020-05-20T08:04:18Z</time>
      </trkpt>
      <trkpt lat="42.9647" lon="0.29554">
        <ele>1415.4000244141</ele>
        <time>2020-05-20T08:04:19Z</time>
      </trkpt>
      <trkpt lat="42.96468" lon="0.29544">
        <ele>1415.4000244141</ele>
        <time>2020-05-20T08:04:23Z</time>
      </trkpt>
      <trkpt lat="42.96463" lon="0.29529">
        <ele>1415.8000488281</ele>
        <time>2020-05-20T08:04:30Z</time>
      </trkpt>
      <trkpt lat="42.96463" lon="0.29526">
        <ele>1416.4000244141</ele>
        <time>2020-05-20T08:04:31Z</time>
      </trkpt>
      <trkpt lat="42.96462" lon="0.29524">
        <ele>1416.8000488281</ele>
        <time>2020-05-20T08:04:32Z</time>
      </trkpt>
      <trkpt lat="42.96462" lon="0.29521">
        <ele>1417.1999511719</ele>
        <time>2020-05-20T08:04:33Z</time>
      </trkpt>
      <trkpt lat="42.96462" lon="0.29519">
        <ele>1417.5999755859</ele>
        <time>2020-05-20T08:04:34Z</time>
      </trkpt>
      <trkpt lat="42.9646" lon="0.29509">
        <ele>1417.5999755859</ele>
        <time>2020-05-20T08:04:39Z</time>
      </trkpt>
      <trkpt lat="42.96462" lon="0.29505">
        <ele>1417.5999755859</ele>
        <time>2020-05-20T08:04:41Z</time>
      </trkpt>
      <trkpt lat="42.96463" lon="0.29501">
        <ele>1418</ele>
        <time>2020-05-20T08:04:43Z</time>
      </trkpt>
      <trkpt lat="42.96463" lon="0.29499">
        <ele>1418.4000244141</ele>
        <time>2020-05-20T08:04:44Z</time>
      </trkpt>
      <trkpt lat="42.96464" lon="0.29497">
        <ele>1418.8000488281</ele>
        <time>2020-05-20T08:04:45Z</time>
      </trkpt>
      <trkpt lat="42.96464" lon="0.29495">
        <ele>1419.1999511719</ele>
        <time>2020-05-20T08:04:46Z</time>
      </trkpt>
      <trkpt lat="42.96465" lon="0.29493">
        <ele>1419.5999755859</ele>
        <time>2020-05-20T08:04:47Z</time>
      </trkpt>
      <trkpt lat="42.96472" lon="0.29487">
        <ele>1419.5999755859</ele>
        <time>2020-05-20T08:04:52Z</time>
      </trkpt>
      <trkpt lat="42.9648" lon="0.29485">
        <ele>1420</ele>
        <time>2020-05-20T08:04:57Z</time>
      </trkpt>
      <trkpt lat="42.96482" lon="0.29486">
        <ele>1420.4000244141</ele>
        <time>2020-05-20T08:04:58Z</time>
      </trkpt>
      <trkpt lat="42.96484" lon="0.29487">
        <ele>1420.8000488281</ele>
        <time>2020-05-20T08:04:59Z</time>
      </trkpt>
      <trkpt lat="42.96485" lon="0.29488">
        <ele>1421.5999755859</ele>
        <time>2020-05-20T08:05:00Z</time>
      </trkpt>
      <trkpt lat="42.96495" lon="0.29499">
        <ele>1421.5999755859</ele>
        <time>2020-05-20T08:05:07Z</time>
      </trkpt>
      <trkpt lat="42.96499" lon="0.29512">
        <ele>1421.5999755859</ele>
        <time>2020-05-20T08:05:13Z</time>
      </trkpt>
      <trkpt lat="42.965" lon="0.29516">
        <ele>1422.1999511719</ele>
        <time>2020-05-20T08:05:15Z</time>
      </trkpt>
      <trkpt lat="42.96501" lon="0.29519">
        <ele>1422.5999755859</ele>
        <time>2020-05-20T08:05:16Z</time>
      </trkpt>
      <trkpt lat="42.96501" lon="0.29521">
        <ele>1423</ele>
        <time>2020-05-20T08:05:17Z</time>
      </trkpt>
      <trkpt lat="42.96502" lon="0.29523">
        <ele>1423.4000244141</ele>
        <time>2020-05-20T08:05:18Z</time>
      </trkpt>
      <trkpt lat="42.96502" lon="0.29525">
        <ele>1423.8000488281</ele>
        <time>2020-05-20T08:05:19Z</time>
      </trkpt>
      <trkpt lat="42.96502" lon="0.29528">
        <ele>1423.8000488281</ele>
        <time>2020-05-20T08:05:20Z</time>
      </trkpt>
      <trkpt lat="42.96508" lon="0.29545">
        <ele>1424.1999511719</ele>
        <time>2020-05-20T08:05:28Z</time>
      </trkpt>
      <trkpt lat="42.96508" lon="0.29547">
        <ele>1424.5999755859</ele>
        <time>2020-05-20T08:05:29Z</time>
      </trkpt>
      <trkpt lat="42.96509" lon="0.29549">
        <ele>1425</ele>
        <time>2020-05-20T08:05:30Z</time>
      </trkpt>
      <trkpt lat="42.96509" lon="0.29552">
        <ele>1425.4000244141</ele>
        <time>2020-05-20T08:05:31Z</time>
      </trkpt>
      <trkpt lat="42.9651" lon="0.29555">
        <ele>1425.8000488281</ele>
        <time>2020-05-20T08:05:32Z</time>
      </trkpt>
      <trkpt lat="42.96514" lon="0.29568">
        <ele>1425.8000488281</ele>
        <time>2020-05-20T08:05:38Z</time>
      </trkpt>
      <trkpt lat="42.96516" lon="0.29579">
        <ele>1426.1999511719</ele>
        <time>2020-05-20T08:05:43Z</time>
      </trkpt>
      <trkpt lat="42.96518" lon="0.29581">
        <ele>1426.5999755859</ele>
        <time>2020-05-20T08:05:44Z</time>
      </trkpt>
      <trkpt lat="42.96519" lon="0.29583">
        <ele>1427.1999511719</ele>
        <time>2020-05-20T08:05:45Z</time>
      </trkpt>
      <trkpt lat="42.9652" lon="0.29584">
        <ele>1427.5999755859</ele>
        <time>2020-05-20T08:05:46Z</time>
      </trkpt>
      <trkpt lat="42.96521" lon="0.29585">
        <ele>1428</ele>
        <time>2020-05-20T08:05:47Z</time>
      </trkpt>
      <trkpt lat="42.96523" lon="0.29586">
        <ele>1428</ele>
        <time>2020-05-20T08:05:48Z</time>
      </trkpt>
      <trkpt lat="42.96524" lon="0.29586">
        <ele>1428</ele>
        <time>2020-05-20T08:05:49Z</time>
      </trkpt>
      <trkpt lat="42.9653" lon="0.29584">
        <ele>1428.4000244141</ele>
        <time>2020-05-20T08:05:54Z</time>
      </trkpt>
      <trkpt lat="42.96531" lon="0.29583">
        <ele>1428.8000488281</ele>
        <time>2020-05-20T08:05:55Z</time>
      </trkpt>
      <trkpt lat="42.96532" lon="0.29581">
        <ele>1429.1999511719</ele>
        <time>2020-05-20T08:05:56Z</time>
      </trkpt>
      <trkpt lat="42.96532" lon="0.29579">
        <ele>1429.5999755859</ele>
        <time>2020-05-20T08:05:57Z</time>
      </trkpt>
      <trkpt lat="42.96532" lon="0.29577">
        <ele>1430</ele>
        <time>2020-05-20T08:05:58Z</time>
      </trkpt>
      <trkpt lat="42.96532" lon="0.29568">
        <ele>1430</ele>
        <time>2020-05-20T08:06:02Z</time>
      </trkpt>
      <trkpt lat="42.9653" lon="0.29563">
        <ele>1430</ele>
        <time>2020-05-20T08:06:04Z</time>
      </trkpt>
      <trkpt lat="42.96528" lon="0.29553">
        <ele>1430</ele>
        <time>2020-05-20T08:06:08Z</time>
      </trkpt>
      <trkpt lat="42.96527" lon="0.29543">
        <ele>1430.4000244141</ele>
        <time>2020-05-20T08:06:12Z</time>
      </trkpt>
      <trkpt lat="42.96527" lon="0.29541">
        <ele>1430.8000488281</ele>
        <time>2020-05-20T08:06:13Z</time>
      </trkpt>
      <trkpt lat="42.96527" lon="0.29538">
        <ele>1431.1999511719</ele>
        <time>2020-05-20T08:06:14Z</time>
      </trkpt>
      <trkpt lat="42.96527" lon="0.29535">
        <ele>1431.5999755859</ele>
        <time>2020-05-20T08:06:15Z</time>
      </trkpt>
      <trkpt lat="42.96527" lon="0.29533">
        <ele>1432.1999511719</ele>
        <time>2020-05-20T08:06:16Z</time>
      </trkpt>
      <trkpt lat="42.96527" lon="0.29526">
        <ele>1432.1999511719</ele>
        <time>2020-05-20T08:06:19Z</time>
      </trkpt>
      <trkpt lat="42.9653" lon="0.29511">
        <ele>1432.5999755859</ele>
        <time>2020-05-20T08:06:26Z</time>
      </trkpt>
      <trkpt lat="42.9653" lon="0.29509">
        <ele>1433</ele>
        <time>2020-05-20T08:06:27Z</time>
      </trkpt>
      <trkpt lat="42.9653" lon="0.29507">
        <ele>1433.4000244141</ele>
        <time>2020-05-20T08:06:28Z</time>
      </trkpt>
      <trkpt lat="42.96531" lon="0.29505">
        <ele>1433.8000488281</ele>
        <time>2020-05-20T08:06:29Z</time>
      </trkpt>
      <trkpt lat="42.96532" lon="0.29503">
        <ele>1434.1999511719</ele>
        <time>2020-05-20T08:06:30Z</time>
      </trkpt>
      <trkpt lat="42.96533" lon="0.29492">
        <ele>1434.1999511719</ele>
        <time>2020-05-20T08:06:35Z</time>
      </trkpt>
      <trkpt lat="42.96537" lon="0.29481">
        <ele>1434.5999755859</ele>
        <time>2020-05-20T08:06:41Z</time>
      </trkpt>
      <trkpt lat="42.96538" lon="0.29479">
        <ele>1435.1999511719</ele>
        <time>2020-05-20T08:06:42Z</time>
      </trkpt>
      <trkpt lat="42.96539" lon="0.29477">
        <ele>1435.5999755859</ele>
        <time>2020-05-20T08:06:43Z</time>
      </trkpt>
      <trkpt lat="42.9654" lon="0.29475">
        <ele>1436</ele>
        <time>2020-05-20T08:06:44Z</time>
      </trkpt>
      <trkpt lat="42.9654" lon="0.29473">
        <ele>1436.4000244141</ele>
        <time>2020-05-20T08:06:45Z</time>
      </trkpt>
      <trkpt lat="42.96544" lon="0.29463">
        <ele>1436.4000244141</ele>
        <time>2020-05-20T08:06:50Z</time>
      </trkpt>
      <trkpt lat="42.96547" lon="0.29458">
        <ele>1436.8000488281</ele>
        <time>2020-05-20T08:06:53Z</time>
      </trkpt>
      <trkpt lat="42.96548" lon="0.29456">
        <ele>1437.1999511719</ele>
        <time>2020-05-20T08:06:54Z</time>
      </trkpt>
      <trkpt lat="42.96549" lon="0.29454">
        <ele>1437.5999755859</ele>
        <time>2020-05-20T08:06:55Z</time>
      </trkpt>
      <trkpt lat="42.96549" lon="0.29453">
        <ele>1438</ele>
        <time>2020-05-20T08:06:56Z</time>
      </trkpt>
      <trkpt lat="42.9655" lon="0.29451">
        <ele>1438.4000244141</ele>
        <time>2020-05-20T08:06:57Z</time>
      </trkpt>
      <trkpt lat="42.96551" lon="0.29449">
        <ele>1438.4000244141</ele>
        <time>2020-05-20T08:06:58Z</time>
      </trkpt>
      <trkpt lat="42.96553" lon="0.29435">
        <ele>1438.8000488281</ele>
        <time>2020-05-20T08:07:05Z</time>
      </trkpt>
      <trkpt lat="42.96552" lon="0.29433">
        <ele>1439.1999511719</ele>
        <time>2020-05-20T08:07:06Z</time>
      </trkpt>
      <trkpt lat="42.96551" lon="0.29431">
        <ele>1439.5999755859</ele>
        <time>2020-05-20T08:07:07Z</time>
      </trkpt>
      <trkpt lat="42.9655" lon="0.29429">
        <ele>1440.1999511719</ele>
        <time>2020-05-20T08:07:08Z</time>
      </trkpt>
      <trkpt lat="42.96549" lon="0.29427">
        <ele>1440.5999755859</ele>
        <time>2020-05-20T08:07:09Z</time>
      </trkpt>
      <trkpt lat="42.96545" lon="0.2942">
        <ele>1440.5999755859</ele>
        <time>2020-05-20T08:07:13Z</time>
      </trkpt>
      <trkpt lat="42.96543" lon="0.29414">
        <ele>1440.5999755859</ele>
        <time>2020-05-20T08:07:16Z</time>
      </trkpt>
      <trkpt lat="42.9654" lon="0.29413">
        <ele>1440.5999755859</ele>
        <time>2020-05-20T08:07:18Z</time>
      </trkpt>
      <trkpt lat="42.96535" lon="0.29409">
        <ele>1441</ele>
        <time>2020-05-20T08:07:21Z</time>
      </trkpt>
      <trkpt lat="42.96534" lon="0.29408">
        <ele>1441.4000244141</ele>
        <time>2020-05-20T08:07:22Z</time>
      </trkpt>
      <trkpt lat="42.96532" lon="0.29406">
        <ele>1441.8000488281</ele>
        <time>2020-05-20T08:07:23Z</time>
      </trkpt>
      <trkpt lat="42.96531" lon="0.29405">
        <ele>1442.1999511719</ele>
        <time>2020-05-20T08:07:24Z</time>
      </trkpt>
      <trkpt lat="42.96529" lon="0.29404">
        <ele>1442.5999755859</ele>
        <time>2020-05-20T08:07:25Z</time>
      </trkpt>
      <trkpt lat="42.96522" lon="0.29401">
        <ele>1443</ele>
        <time>2020-05-20T08:07:30Z</time>
      </trkpt>
      <trkpt lat="42.9652" lon="0.294">
        <ele>1443.4000244141</ele>
        <time>2020-05-20T08:07:31Z</time>
      </trkpt>
      <trkpt lat="42.96518" lon="0.29399">
        <ele>1443.8000488281</ele>
        <time>2020-05-20T08:07:32Z</time>
      </trkpt>
      <trkpt lat="42.96516" lon="0.29399">
        <ele>1444.1999511719</ele>
        <time>2020-05-20T08:07:33Z</time>
      </trkpt>
      <trkpt lat="42.96515" lon="0.29398">
        <ele>1444.5999755859</ele>
        <time>2020-05-20T08:07:34Z</time>
      </trkpt>
      <trkpt lat="42.96507" lon="0.29399">
        <ele>1444.5999755859</ele>
        <time>2020-05-20T08:07:39Z</time>
      </trkpt>
      <trkpt lat="42.96497" lon="0.294">
        <ele>1445</ele>
        <time>2020-05-20T08:07:45Z</time>
      </trkpt>
      <trkpt lat="42.96495" lon="0.294">
        <ele>1445.4000244141</ele>
        <time>2020-05-20T08:07:46Z</time>
      </trkpt>
      <trkpt lat="42.96494" lon="0.29401">
        <ele>1445.8000488281</ele>
        <time>2020-05-20T08:07:47Z</time>
      </trkpt>
      <trkpt lat="42.96492" lon="0.29401">
        <ele>1446.1999511719</ele>
        <time>2020-05-20T08:07:48Z</time>
      </trkpt>
      <trkpt lat="42.96491" lon="0.29401">
        <ele>1446.5999755859</ele>
        <time>2020-05-20T08:07:49Z</time>
      </trkpt>
      <trkpt lat="42.9648" lon="0.29401">
        <ele>1446.5999755859</ele>
        <time>2020-05-20T08:07:56Z</time>
      </trkpt>
      <trkpt lat="42.96477" lon="0.294">
        <ele>1447</ele>
        <time>2020-05-20T08:07:58Z</time>
      </trkpt>
      <trkpt lat="42.96475" lon="0.294">
        <ele>1447.4000244141</ele>
        <time>2020-05-20T08:07:59Z</time>
      </trkpt>
      <trkpt lat="42.96473" lon="0.294">
        <ele>1447.8000488281</ele>
        <time>2020-05-20T08:08:00Z</time>
      </trkpt>
      <trkpt lat="42.96472" lon="0.294">
        <ele>1448.1999511719</ele>
        <time>2020-05-20T08:08:01Z</time>
      </trkpt>
      <trkpt lat="42.9647" lon="0.29399">
        <ele>1448.5999755859</ele>
        <time>2020-05-20T08:08:02Z</time>
      </trkpt>
      <trkpt lat="42.96459" lon="0.29397">
        <ele>1448.5999755859</ele>
        <time>2020-05-20T08:08:09Z</time>
      </trkpt>
      <trkpt lat="42.96452" lon="0.29396">
        <ele>1449</ele>
        <time>2020-05-20T08:08:14Z</time>
      </trkpt>
      <trkpt lat="42.9645" lon="0.29395">
        <ele>1449.4000244141</ele>
        <time>2020-05-20T08:08:15Z</time>
      </trkpt>
      <trkpt lat="42.96449" lon="0.29394">
        <ele>1449.8000488281</ele>
        <time>2020-05-20T08:08:16Z</time>
      </trkpt>
      <trkpt lat="42.96448" lon="0.29393">
        <ele>1450.4000244141</ele>
        <time>2020-05-20T08:08:17Z</time>
      </trkpt>
      <trkpt lat="42.96446" lon="0.29392">
        <ele>1450.8000488281</ele>
        <time>2020-05-20T08:08:18Z</time>
      </trkpt>
      <trkpt lat="42.9644" lon="0.29384">
        <ele>1450.8000488281</ele>
        <time>2020-05-20T08:08:24Z</time>
      </trkpt>
      <trkpt lat="42.96439" lon="0.29382">
        <ele>1451.1999511719</ele>
        <time>2020-05-20T08:08:25Z</time>
      </trkpt>
      <trkpt lat="42.96438" lon="0.2938">
        <ele>1451.5999755859</ele>
        <time>2020-05-20T08:08:26Z</time>
      </trkpt>
      <trkpt lat="42.96437" lon="0.29378">
        <ele>1452</ele>
        <time>2020-05-20T08:08:27Z</time>
      </trkpt>
      <trkpt lat="42.96437" lon="0.29376">
        <ele>1452.4000244141</ele>
        <time>2020-05-20T08:08:28Z</time>
      </trkpt>
      <trkpt lat="42.96436" lon="0.29374">
        <ele>1452.8000488281</ele>
        <time>2020-05-20T08:08:29Z</time>
      </trkpt>
      <trkpt lat="42.96436" lon="0.29372">
        <ele>1452.8000488281</ele>
        <time>2020-05-20T08:08:30Z</time>
      </trkpt>
      <trkpt lat="42.96435" lon="0.2937">
        <ele>1452.8000488281</ele>
        <time>2020-05-20T08:08:31Z</time>
      </trkpt>
      <trkpt lat="42.96434" lon="0.29357">
        <ele>1452.8000488281</ele>
        <time>2020-05-20T08:08:37Z</time>
      </trkpt>
      <trkpt lat="42.96434" lon="0.29355">
        <ele>1453.1999511719</ele>
        <time>2020-05-20T08:08:38Z</time>
      </trkpt>
      <trkpt lat="42.96434" lon="0.29352">
        <ele>1453.5999755859</ele>
        <time>2020-05-20T08:08:39Z</time>
      </trkpt>
      <trkpt lat="42.96434" lon="0.2935">
        <ele>1454</ele>
        <time>2020-05-20T08:08:40Z</time>
      </trkpt>
      <trkpt lat="42.96435" lon="0.29348">
        <ele>1454.5999755859</ele>
        <time>2020-05-20T08:08:41Z</time>
      </trkpt>
      <trkpt lat="42.96435" lon="0.29346">
        <ele>1455</ele>
        <time>2020-05-20T08:08:42Z</time>
      </trkpt>
      <trkpt lat="42.96435" lon="0.29339">
        <ele>1455</ele>
        <time>2020-05-20T08:08:45Z</time>
      </trkpt>
      <trkpt lat="42.96436" lon="0.29326">
        <ele>1455.4000244141</ele>
        <time>2020-05-20T08:08:51Z</time>
      </trkpt>
      <trkpt lat="42.96436" lon="0.29324">
        <ele>1455.8000488281</ele>
        <time>2020-05-20T08:08:52Z</time>
      </trkpt>
      <trkpt lat="42.96437" lon="0.29322">
        <ele>1456.1999511719</ele>
        <time>2020-05-20T08:08:53Z</time>
      </trkpt>
      <trkpt lat="42.96437" lon="0.29319">
        <ele>1456.5999755859</ele>
        <time>2020-05-20T08:08:54Z</time>
      </trkpt>
      <trkpt lat="42.96437" lon="0.29317">
        <ele>1457</ele>
        <time>2020-05-20T08:08:55Z</time>
      </trkpt>
      <trkpt lat="42.96438" lon="0.29304">
        <ele>1457</ele>
        <time>2020-05-20T08:09:01Z</time>
      </trkpt>
      <trkpt lat="42.96438" lon="0.29294">
        <ele>1457.4000244141</ele>
        <time>2020-05-20T08:09:06Z</time>
      </trkpt>
      <trkpt lat="42.96438" lon="0.29292">
        <ele>1457.8000488281</ele>
        <time>2020-05-20T08:09:07Z</time>
      </trkpt>
      <trkpt lat="42.96439" lon="0.2929">
        <ele>1458.1999511719</ele>
        <time>2020-05-20T08:09:08Z</time>
      </trkpt>
      <trkpt lat="42.96439" lon="0.29288">
        <ele>1459.1999511719</ele>
        <time>2020-05-20T08:09:09Z</time>
      </trkpt>
      <trkpt lat="42.96439" lon="0.29286">
        <ele>1459.1999511719</ele>
        <time>2020-05-20T08:09:10Z</time>
      </trkpt>
      <trkpt lat="42.96442" lon="0.29268">
        <ele>1459.1999511719</ele>
        <time>2020-05-20T08:09:18Z</time>
      </trkpt>
      <trkpt lat="42.96443" lon="0.29264">
        <ele>1459.5999755859</ele>
        <time>2020-05-20T08:09:20Z</time>
      </trkpt>
      <trkpt lat="42.96444" lon="0.29262">
        <ele>1460</ele>
        <time>2020-05-20T08:09:21Z</time>
      </trkpt>
      <trkpt lat="42.96444" lon="0.2926">
        <ele>1460.4000244141</ele>
        <time>2020-05-20T08:09:22Z</time>
      </trkpt>
      <trkpt lat="42.96445" lon="0.29258">
        <ele>1460.8000488281</ele>
        <time>2020-05-20T08:09:23Z</time>
      </trkpt>
      <trkpt lat="42.96446" lon="0.29256">
        <ele>1461.4000244141</ele>
        <time>2020-05-20T08:09:24Z</time>
      </trkpt>
      <trkpt lat="42.96447" lon="0.29251">
        <ele>1461.4000244141</ele>
        <time>2020-05-20T08:09:26Z</time>
      </trkpt>
      <trkpt lat="42.96456" lon="0.29238">
        <ele>1461.4000244141</ele>
        <time>2020-05-20T08:09:34Z</time>
      </trkpt>
      <trkpt lat="42.9646" lon="0.29234">
        <ele>1461.8000488281</ele>
        <time>2020-05-20T08:09:37Z</time>
      </trkpt>
      <trkpt lat="42.96462" lon="0.29232">
        <ele>1462.1999511719</ele>
        <time>2020-05-20T08:09:38Z</time>
      </trkpt>
      <trkpt lat="42.96463" lon="0.29231">
        <ele>1462.5999755859</ele>
        <time>2020-05-20T08:09:39Z</time>
      </trkpt>
      <trkpt lat="42.96465" lon="0.2923">
        <ele>1463</ele>
        <time>2020-05-20T08:09:40Z</time>
      </trkpt>
      <trkpt lat="42.96467" lon="0.29229">
        <ele>1463.4000244141</ele>
        <time>2020-05-20T08:09:41Z</time>
      </trkpt>
      <trkpt lat="42.96469" lon="0.29228">
        <ele>1463.4000244141</ele>
        <time>2020-05-20T08:09:42Z</time>
      </trkpt>
      <trkpt lat="42.96486" lon="0.29217">
        <ele>1463.8000488281</ele>
        <time>2020-05-20T08:09:53Z</time>
      </trkpt>
      <trkpt lat="42.96488" lon="0.29216">
        <ele>1464.1999511719</ele>
        <time>2020-05-20T08:09:54Z</time>
      </trkpt>
      <trkpt lat="42.96489" lon="0.29214">
        <ele>1464.5999755859</ele>
        <time>2020-05-20T08:09:55Z</time>
      </trkpt>
      <trkpt lat="42.96491" lon="0.29212">
        <ele>1465</ele>
        <time>2020-05-20T08:09:56Z</time>
      </trkpt>
      <trkpt lat="42.96492" lon="0.29211">
        <ele>1465.4000244141</ele>
        <time>2020-05-20T08:09:57Z</time>
      </trkpt>
      <trkpt lat="42.96499" lon="0.29204">
        <ele>1465.4000244141</ele>
        <time>2020-05-20T08:10:02Z</time>
      </trkpt>
      <trkpt lat="42.96509" lon="0.29191">
        <ele>1465.4000244141</ele>
        <time>2020-05-20T08:10:10Z</time>
      </trkpt>
      <trkpt lat="42.96511" lon="0.29187">
        <ele>1465.8000488281</ele>
        <time>2020-05-20T08:10:12Z</time>
      </trkpt>
      <trkpt lat="42.96512" lon="0.29185">
        <ele>1466.1999511719</ele>
        <time>2020-05-20T08:10:13Z</time>
      </trkpt>
      <trkpt lat="42.96513" lon="0.29183">
        <ele>1466.5999755859</ele>
        <time>2020-05-20T08:10:14Z</time>
      </trkpt>
      <trkpt lat="42.96514" lon="0.29181">
        <ele>1467</ele>
        <time>2020-05-20T08:10:15Z</time>
      </trkpt>
      <trkpt lat="42.96515" lon="0.29179">
        <ele>1467.4000244141</ele>
        <time>2020-05-20T08:10:16Z</time>
      </trkpt>
      <trkpt lat="42.96517" lon="0.29176">
        <ele>1467.4000244141</ele>
        <time>2020-05-20T08:10:18Z</time>
      </trkpt>
      <trkpt lat="42.96519" lon="0.29162">
        <ele>1467.4000244141</ele>
        <time>2020-05-20T08:10:24Z</time>
      </trkpt>
      <trkpt lat="42.96519" lon="0.2916">
        <ele>1467.4000244141</ele>
        <time>2020-05-20T08:10:28Z</time>
      </trkpt>
      <trkpt lat="42.96519" lon="0.2916">
        <ele>1467.4000244141</ele>
        <time>2020-05-20T08:10:33Z</time>
      </trkpt>
      <trkpt lat="42.96519" lon="0.2916">
        <ele>1467.4000244141</ele>
        <time>2020-05-20T08:10:39Z</time>
      </trkpt>
      <trkpt lat="42.9652" lon="0.29159">
        <ele>1467.4000244141</ele>
        <time>2020-05-20T08:10:40Z</time>
      </trkpt>
      <trkpt lat="42.96521" lon="0.29154">
        <ele>1467.4000244141</ele>
        <time>2020-05-20T08:10:43Z</time>
      </trkpt>
      <trkpt lat="42.96521" lon="0.29151">
        <ele>1467.4000244141</ele>
        <time>2020-05-20T08:10:44Z</time>
      </trkpt>
      <trkpt lat="42.96522" lon="0.2914">
        <ele>1467.8000488281</ele>
        <time>2020-05-20T08:10:48Z</time>
      </trkpt>
      <trkpt lat="42.96523" lon="0.29137">
        <ele>1468.1999511719</ele>
        <time>2020-05-20T08:10:49Z</time>
      </trkpt>
      <trkpt lat="42.96523" lon="0.29135">
        <ele>1468.8000488281</ele>
        <time>2020-05-20T08:10:50Z</time>
      </trkpt>
      <trkpt lat="42.96524" lon="0.29132">
        <ele>1469.1999511719</ele>
        <time>2020-05-20T08:10:51Z</time>
      </trkpt>
      <trkpt lat="42.96524" lon="0.29129">
        <ele>1469.5999755859</ele>
        <time>2020-05-20T08:10:52Z</time>
      </trkpt>
      <trkpt lat="42.96527" lon="0.29107">
        <ele>1469.5999755859</ele>
        <time>2020-05-20T08:10:59Z</time>
      </trkpt>
      <trkpt lat="42.96532" lon="0.29084">
        <ele>1469.5999755859</ele>
        <time>2020-05-20T08:11:07Z</time>
      </trkpt>
      <trkpt lat="42.96536" lon="0.29073">
        <ele>1470</ele>
        <time>2020-05-20T08:11:11Z</time>
      </trkpt>
      <trkpt lat="42.96537" lon="0.2907">
        <ele>1470.4000244141</ele>
        <time>2020-05-20T08:11:12Z</time>
      </trkpt>
      <trkpt lat="42.96538" lon="0.29067">
        <ele>1471.1999511719</ele>
        <time>2020-05-20T08:11:13Z</time>
      </trkpt>
      <trkpt lat="42.96539" lon="0.29065">
        <ele>1471.5999755859</ele>
        <time>2020-05-20T08:11:14Z</time>
      </trkpt>
      <trkpt lat="42.96547" lon="0.29047">
        <ele>1471.5999755859</ele>
        <time>2020-05-20T08:11:21Z</time>
      </trkpt>
      <trkpt lat="42.96555" lon="0.29028">
        <ele>1471.5999755859</ele>
        <time>2020-05-20T08:11:29Z</time>
      </trkpt>
      <trkpt lat="42.96563" lon="0.29012">
        <ele>1471.5999755859</ele>
        <time>2020-05-20T08:11:36Z</time>
      </trkpt>
      <trkpt lat="42.96565" lon="0.2901">
        <ele>1472</ele>
        <time>2020-05-20T08:11:37Z</time>
      </trkpt>
      <trkpt lat="42.96566" lon="0.29008">
        <ele>1472.8000488281</ele>
        <time>2020-05-20T08:11:38Z</time>
      </trkpt>
      <trkpt lat="42.96568" lon="0.29006">
        <ele>1473.1999511719</ele>
        <time>2020-05-20T08:11:39Z</time>
      </trkpt>
      <trkpt lat="42.96569" lon="0.29003">
        <ele>1473.5999755859</ele>
        <time>2020-05-20T08:11:40Z</time>
      </trkpt>
      <trkpt lat="42.96575" lon="0.28995">
        <ele>1473.5999755859</ele>
        <time>2020-05-20T08:11:44Z</time>
      </trkpt>
      <trkpt lat="42.96582" lon="0.28983">
        <ele>1473.5999755859</ele>
        <time>2020-05-20T08:11:51Z</time>
      </trkpt>
      <trkpt lat="42.96591" lon="0.28973">
        <ele>1473.5999755859</ele>
        <time>2020-05-20T08:11:57Z</time>
      </trkpt>
      <trkpt lat="42.96603" lon="0.28953">
        <ele>1473.5999755859</ele>
        <time>2020-05-20T08:12:03Z</time>
      </trkpt>
      <trkpt lat="42.96621" lon="0.28927">
        <ele>1473.5999755859</ele>
        <time>2020-05-20T08:12:10Z</time>
      </trkpt>
      <trkpt lat="42.96627" lon="0.2892">
        <ele>1473.1999511719</ele>
        <time>2020-05-20T08:12:12Z</time>
      </trkpt>
      <trkpt lat="42.9663" lon="0.28916">
        <ele>1472.8000488281</ele>
        <time>2020-05-20T08:12:13Z</time>
      </trkpt>
      <trkpt lat="42.96633" lon="0.28912">
        <ele>1472.4000244141</ele>
        <time>2020-05-20T08:12:14Z</time>
      </trkpt>
      <trkpt lat="42.96637" lon="0.28908">
        <ele>1471.8000488281</ele>
        <time>2020-05-20T08:12:15Z</time>
      </trkpt>
      <trkpt lat="42.9664" lon="0.28905">
        <ele>1471.4000244141</ele>
        <time>2020-05-20T08:12:16Z</time>
      </trkpt>
      <trkpt lat="42.96643" lon="0.28902">
        <ele>1471.4000244141</ele>
        <time>2020-05-20T08:12:17Z</time>
      </trkpt>
      <trkpt lat="42.96653" lon="0.2889">
        <ele>1471.4000244141</ele>
        <time>2020-05-20T08:12:22Z</time>
      </trkpt>
      <trkpt lat="42.96653" lon="0.28888">
        <ele>1471</ele>
        <time>2020-05-20T08:12:23Z</time>
      </trkpt>
      <trkpt lat="42.96653" lon="0.28888">
        <ele>1470.5999755859</ele>
        <time>2020-05-20T08:12:24Z</time>
      </trkpt>
      <trkpt lat="42.96653" lon="0.28888">
        <ele>1470.1999511719</ele>
        <time>2020-05-20T08:12:25Z</time>
      </trkpt>
      <trkpt lat="42.96653" lon="0.28888">
        <ele>1469.8000488281</ele>
        <time>2020-05-20T08:12:26Z</time>
      </trkpt>
      <trkpt lat="42.96653" lon="0.28888">
        <ele>1469.4000244141</ele>
        <time>2020-05-20T08:12:27Z</time>
      </trkpt>
      <trkpt lat="42.96653" lon="0.28888">
        <ele>1469.4000244141</ele>
        <time>2020-05-20T08:12:32Z</time>
      </trkpt>
      <trkpt lat="42.96653" lon="0.28888">
        <ele>1469.4000244141</ele>
        <time>2020-05-20T08:12:40Z</time>
      </trkpt>
      <trkpt lat="42.96653" lon="0.28888">
        <ele>1469.4000244141</ele>
        <time>2020-05-20T08:12:55Z</time>
      </trkpt>
      <trkpt lat="42.96653" lon="0.28888">
        <ele>1469.4000244141</ele>
        <time>2020-05-20T08:13:07Z</time>
      </trkpt>
      <trkpt lat="42.96653" lon="0.28888">
        <ele>1469.4000244141</ele>
        <time>2020-05-20T08:13:21Z</time>
      </trkpt>
      <trkpt lat="42.96653" lon="0.28888">
        <ele>1469.4000244141</ele>
        <time>2020-05-20T08:13:37Z</time>
      </trkpt>
      <trkpt lat="42.96653" lon="0.28888">
        <ele>1469.4000244141</ele>
        <time>2020-05-20T08:13:58Z</time>
      </trkpt>
      <trkpt lat="42.96653" lon="0.28888">
        <ele>1469.4000244141</ele>
        <time>2020-05-20T08:14:17Z</time>
      </trkpt>
      <trkpt lat="42.96653" lon="0.28888">
        <ele>1469.4000244141</ele>
        <time>2020-05-20T08:14:37Z</time>
      </trkpt>
      <trkpt lat="42.96653" lon="0.28888">
        <ele>1469.4000244141</ele>
        <time>2020-05-20T08:14:55Z</time>
      </trkpt>
      <trkpt lat="42.96653" lon="0.28888">
        <ele>1469.4000244141</ele>
        <time>2020-05-20T08:15:13Z</time>
      </trkpt>
      <trkpt lat="42.96653" lon="0.28888">
        <ele>1469.4000244141</ele>
        <time>2020-05-20T08:15:31Z</time>
      </trkpt>
      <trkpt lat="42.96653" lon="0.28888">
        <ele>1469.4000244141</ele>
        <time>2020-05-20T08:15:39Z</time>
      </trkpt>
      <trkpt lat="42.96653" lon="0.28888">
        <ele>1469.4000244141</ele>
        <time>2020-05-20T08:15:49Z</time>
      </trkpt>
      <trkpt lat="42.96653" lon="0.28888">
        <ele>1469.4000244141</ele>
        <time>2020-05-20T08:16:09Z</time>
      </trkpt>
      <trkpt lat="42.96653" lon="0.28888">
        <ele>1469.4000244141</ele>
        <time>2020-05-20T08:16:30Z</time>
      </trkpt>
      <trkpt lat="42.96653" lon="0.28888">
        <ele>1469.4000244141</ele>
        <time>2020-05-20T08:16:46Z</time>
      </trkpt>
      <trkpt lat="42.96653" lon="0.28888">
        <ele>1469.4000244141</ele>
        <time>2020-05-20T08:17:05Z</time>
      </trkpt>
      <trkpt lat="42.96652" lon="0.28888">
        <ele>1469.4000244141</ele>
        <time>2020-05-20T08:17:25Z</time>
      </trkpt>
      <trkpt lat="42.96652" lon="0.28888">
        <ele>1469.4000244141</ele>
        <time>2020-05-20T08:17:44Z</time>
      </trkpt>
      <trkpt lat="42.96652" lon="0.28888">
        <ele>1469.4000244141</ele>
        <time>2020-05-20T08:18:02Z</time>
      </trkpt>
      <trkpt lat="42.96652" lon="0.28887">
        <ele>1469.4000244141</ele>
        <time>2020-05-20T08:18:15Z</time>
      </trkpt>
      <trkpt lat="42.96654" lon="0.28887">
        <ele>1469.4000244141</ele>
        <time>2020-05-20T08:18:22Z</time>
      </trkpt>
      <trkpt lat="42.96654" lon="0.28887">
        <ele>1469.4000244141</ele>
        <time>2020-05-20T08:18:32Z</time>
      </trkpt>
      <trkpt lat="42.96653" lon="0.28886">
        <ele>1469.4000244141</ele>
        <time>2020-05-20T08:18:39Z</time>
      </trkpt>
      <trkpt lat="42.96653" lon="0.28885">
        <ele>1469.4000244141</ele>
        <time>2020-05-20T08:18:40Z</time>
      </trkpt>
      <trkpt lat="42.96653" lon="0.28885">
        <ele>1469.4000244141</ele>
        <time>2020-05-20T08:18:47Z</time>
      </trkpt>
      <trkpt lat="42.96653" lon="0.28885">
        <ele>1469.4000244141</ele>
        <time>2020-05-20T08:19:02Z</time>
      </trkpt>
      <trkpt lat="42.96653" lon="0.28885">
        <ele>1469.4000244141</ele>
        <time>2020-05-20T08:19:15Z</time>
      </trkpt>
      <trkpt lat="42.96653" lon="0.28885">
        <ele>1469.4000244141</ele>
        <time>2020-05-20T08:19:29Z</time>
      </trkpt>
      <trkpt lat="42.96653" lon="0.28885">
        <ele>1469.4000244141</ele>
        <time>2020-05-20T08:19:43Z</time>
      </trkpt>
      <trkpt lat="42.96653" lon="0.28885">
        <ele>1469.4000244141</ele>
        <time>2020-05-20T08:19:57Z</time>
      </trkpt>
      <trkpt lat="42.96655" lon="0.28884">
        <ele>1469.4000244141</ele>
        <time>2020-05-20T08:20:03Z</time>
      </trkpt>
      <trkpt lat="42.96656" lon="0.28884">
        <ele>1469.4000244141</ele>
        <time>2020-05-20T08:20:08Z</time>
      </trkpt>
      <trkpt lat="42.96656" lon="0.28884">
        <ele>1469.4000244141</ele>
        <time>2020-05-20T08:20:18Z</time>
      </trkpt>
      <trkpt lat="42.96662" lon="0.2888">
        <ele>1469.4000244141</ele>
        <time>2020-05-20T08:20:28Z</time>
      </trkpt>
      <trkpt lat="42.96671" lon="0.28871">
        <ele>1469.4000244141</ele>
        <time>2020-05-20T08:20:31Z</time>
      </trkpt>
      <trkpt lat="42.96674" lon="0.28867">
        <ele>1469.4000244141</ele>
        <time>2020-05-20T08:20:32Z</time>
      </trkpt>
      <trkpt lat="42.96683" lon="0.28857">
        <ele>1469</ele>
        <time>2020-05-20T08:20:34Z</time>
      </trkpt>
      <trkpt lat="42.96688" lon="0.28852">
        <ele>1468.5999755859</ele>
        <time>2020-05-20T08:20:35Z</time>
      </trkpt>
      <trkpt lat="42.96693" lon="0.28846">
        <ele>1468.1999511719</ele>
        <time>2020-05-20T08:20:36Z</time>
      </trkpt>
      <trkpt lat="42.96699" lon="0.28841">
        <ele>1467.5999755859</ele>
        <time>2020-05-20T08:20:37Z</time>
      </trkpt>
      <trkpt lat="42.96705" lon="0.28835">
        <ele>1467</ele>
        <time>2020-05-20T08:20:38Z</time>
      </trkpt>
      <trkpt lat="42.96711" lon="0.28829">
        <ele>1466.4000244141</ele>
        <time>2020-05-20T08:20:39Z</time>
      </trkpt>
      <trkpt lat="42.96717" lon="0.28823">
        <ele>1465.8000488281</ele>
        <time>2020-05-20T08:20:40Z</time>
      </trkpt>
      <trkpt lat="42.96723" lon="0.28816">
        <ele>1464.1999511719</ele>
        <time>2020-05-20T08:20:41Z</time>
      </trkpt>
      <trkpt lat="42.96731" lon="0.2881">
        <ele>1463.4000244141</ele>
        <time>2020-05-20T08:20:42Z</time>
      </trkpt>
      <trkpt lat="42.96738" lon="0.28802">
        <ele>1462.4000244141</ele>
        <time>2020-05-20T08:20:43Z</time>
      </trkpt>
      <trkpt lat="42.96745" lon="0.28795">
        <ele>1461.5999755859</ele>
        <time>2020-05-20T08:20:44Z</time>
      </trkpt>
      <trkpt lat="42.96752" lon="0.28788">
        <ele>1460.8000488281</ele>
        <time>2020-05-20T08:20:45Z</time>
      </trkpt>
      <trkpt lat="42.96759" lon="0.28781">
        <ele>1459.8000488281</ele>
        <time>2020-05-20T08:20:46Z</time>
      </trkpt>
      <trkpt lat="42.96766" lon="0.28774">
        <ele>1459</ele>
        <time>2020-05-20T08:20:47Z</time>
      </trkpt>
      <trkpt lat="42.96774" lon="0.28767">
        <ele>1458.1999511719</ele>
        <time>2020-05-20T08:20:48Z</time>
      </trkpt>
      <trkpt lat="42.96781" lon="0.28761">
        <ele>1457.4000244141</ele>
        <time>2020-05-20T08:20:49Z</time>
      </trkpt>
      <trkpt lat="42.96788" lon="0.28755">
        <ele>1456.5999755859</ele>
        <time>2020-05-20T08:20:50Z</time>
      </trkpt>
      <trkpt lat="42.96796" lon="0.28749">
        <ele>1455.8000488281</ele>
        <time>2020-05-20T08:20:51Z</time>
      </trkpt>
      <trkpt lat="42.96803" lon="0.28743">
        <ele>1455.1999511719</ele>
        <time>2020-05-20T08:20:52Z</time>
      </trkpt>
      <trkpt lat="42.96811" lon="0.28737">
        <ele>1454.4000244141</ele>
        <time>2020-05-20T08:20:53Z</time>
      </trkpt>
      <trkpt lat="42.96819" lon="0.28731">
        <ele>1453.5999755859</ele>
        <time>2020-05-20T08:20:54Z</time>
      </trkpt>
      <trkpt lat="42.96827" lon="0.28725">
        <ele>1452.8000488281</ele>
        <time>2020-05-20T08:20:55Z</time>
      </trkpt>
      <trkpt lat="42.96836" lon="0.28719">
        <ele>1452</ele>
        <time>2020-05-20T08:20:56Z</time>
      </trkpt>
      <trkpt lat="42.96846" lon="0.28712">
        <ele>1451</ele>
        <time>2020-05-20T08:20:57Z</time>
      </trkpt>
      <trkpt lat="42.96855" lon="0.28706">
        <ele>1450.1999511719</ele>
        <time>2020-05-20T08:20:58Z</time>
      </trkpt>
      <trkpt lat="42.96864" lon="0.28699">
        <ele>1449.4000244141</ele>
        <time>2020-05-20T08:20:59Z</time>
      </trkpt>
      <trkpt lat="42.96873" lon="0.28693">
        <ele>1448.4000244141</ele>
        <time>2020-05-20T08:21:00Z</time>
      </trkpt>
      <trkpt lat="42.96882" lon="0.28688">
        <ele>1447.5999755859</ele>
        <time>2020-05-20T08:21:01Z</time>
      </trkpt>
      <trkpt lat="42.96891" lon="0.28684">
        <ele>1446.5999755859</ele>
        <time>2020-05-20T08:21:02Z</time>
      </trkpt>
      <trkpt lat="42.969" lon="0.28682">
        <ele>1445.8000488281</ele>
        <time>2020-05-20T08:21:03Z</time>
      </trkpt>
      <trkpt lat="42.96909" lon="0.28679">
        <ele>1445</ele>
        <time>2020-05-20T08:21:04Z</time>
      </trkpt>
      <trkpt lat="42.96917" lon="0.28678">
        <ele>1444.1999511719</ele>
        <time>2020-05-20T08:21:05Z</time>
      </trkpt>
      <trkpt lat="42.96925" lon="0.28677">
        <ele>1442.4000244141</ele>
        <time>2020-05-20T08:21:06Z</time>
      </trkpt>
      <trkpt lat="42.96938" lon="0.28672">
        <ele>1442.4000244141</ele>
        <time>2020-05-20T08:21:08Z</time>
      </trkpt>
      <trkpt lat="42.96943" lon="0.28668">
        <ele>1442.4000244141</ele>
        <time>2020-05-20T08:21:09Z</time>
      </trkpt>
      <trkpt lat="42.96945" lon="0.2865">
        <ele>1442.4000244141</ele>
        <time>2020-05-20T08:21:12Z</time>
      </trkpt>
      <trkpt lat="42.96936" lon="0.28645">
        <ele>1442</ele>
        <time>2020-05-20T08:21:14Z</time>
      </trkpt>
      <trkpt lat="42.96931" lon="0.28646">
        <ele>1441.5999755859</ele>
        <time>2020-05-20T08:21:15Z</time>
      </trkpt>
      <trkpt lat="42.96926" lon="0.28648">
        <ele>1441.1999511719</ele>
        <time>2020-05-20T08:21:16Z</time>
      </trkpt>
      <trkpt lat="42.9692" lon="0.2865">
        <ele>1440.5999755859</ele>
        <time>2020-05-20T08:21:17Z</time>
      </trkpt>
      <trkpt lat="42.96914" lon="0.28651">
        <ele>1440.1999511719</ele>
        <time>2020-05-20T08:21:18Z</time>
      </trkpt>
      <trkpt lat="42.96906" lon="0.28651">
        <ele>1439.8000488281</ele>
        <time>2020-05-20T08:21:19Z</time>
      </trkpt>
      <trkpt lat="42.96898" lon="0.28651">
        <ele>1439.1999511719</ele>
        <time>2020-05-20T08:21:20Z</time>
      </trkpt>
      <trkpt lat="42.9689" lon="0.28651">
        <ele>1438.8000488281</ele>
        <time>2020-05-20T08:21:21Z</time>
      </trkpt>
      <trkpt lat="42.96882" lon="0.28651">
        <ele>1437.8000488281</ele>
        <time>2020-05-20T08:21:22Z</time>
      </trkpt>
      <trkpt lat="42.96874" lon="0.28651">
        <ele>1437</ele>
        <time>2020-05-20T08:21:23Z</time>
      </trkpt>
      <trkpt lat="42.96865" lon="0.28652">
        <ele>1436</ele>
        <time>2020-05-20T08:21:24Z</time>
      </trkpt>
      <trkpt lat="42.96857" lon="0.28653">
        <ele>1435.1999511719</ele>
        <time>2020-05-20T08:21:25Z</time>
      </trkpt>
      <trkpt lat="42.96848" lon="0.28654">
        <ele>1434.1999511719</ele>
        <time>2020-05-20T08:21:26Z</time>
      </trkpt>
      <trkpt lat="42.96839" lon="0.28654">
        <ele>1433.1999511719</ele>
        <time>2020-05-20T08:21:27Z</time>
      </trkpt>
      <trkpt lat="42.9683" lon="0.28654">
        <ele>1432.1999511719</ele>
        <time>2020-05-20T08:21:28Z</time>
      </trkpt>
      <trkpt lat="42.96821" lon="0.28653">
        <ele>1431.4000244141</ele>
        <time>2020-05-20T08:21:29Z</time>
      </trkpt>
      <trkpt lat="42.96812" lon="0.28651">
        <ele>1429.5999755859</ele>
        <time>2020-05-20T08:21:30Z</time>
      </trkpt>
      <trkpt lat="42.96803" lon="0.28649">
        <ele>1428.8000488281</ele>
        <time>2020-05-20T08:21:31Z</time>
      </trkpt>
      <trkpt lat="42.96794" lon="0.28648">
        <ele>1427.8000488281</ele>
        <time>2020-05-20T08:21:32Z</time>
      </trkpt>
      <trkpt lat="42.96786" lon="0.28645">
        <ele>1426.8000488281</ele>
        <time>2020-05-20T08:21:34Z</time>
      </trkpt>
      <trkpt lat="42.96777" lon="0.28645">
        <ele>1426</ele>
        <time>2020-05-20T08:21:35Z</time>
      </trkpt>
      <trkpt lat="42.96769" lon="0.28646">
        <ele>1425.1999511719</ele>
        <time>2020-05-20T08:21:36Z</time>
      </trkpt>
      <trkpt lat="42.96761" lon="0.28649">
        <ele>1424.4000244141</ele>
        <time>2020-05-20T08:21:37Z</time>
      </trkpt>
      <trkpt lat="42.96752" lon="0.28652">
        <ele>1423.4000244141</ele>
        <time>2020-05-20T08:21:38Z</time>
      </trkpt>
      <trkpt lat="42.96744" lon="0.28656">
        <ele>1422.8000488281</ele>
        <time>2020-05-20T08:21:39Z</time>
      </trkpt>
      <trkpt lat="42.96737" lon="0.28661">
        <ele>1422</ele>
        <time>2020-05-20T08:21:40Z</time>
      </trkpt>
      <trkpt lat="42.96731" lon="0.28663">
        <ele>1421.1999511719</ele>
        <time>2020-05-20T08:21:41Z</time>
      </trkpt>
      <trkpt lat="42.96726" lon="0.28663">
        <ele>1420.4000244141</ele>
        <time>2020-05-20T08:21:42Z</time>
      </trkpt>
      <trkpt lat="42.96723" lon="0.28659">
        <ele>1419.5999755859</ele>
        <time>2020-05-20T08:21:43Z</time>
      </trkpt>
      <trkpt lat="42.96724" lon="0.28647">
        <ele>1419.5999755859</ele>
        <time>2020-05-20T08:21:45Z</time>
      </trkpt>
      <trkpt lat="42.96731" lon="0.28642">
        <ele>1419.5999755859</ele>
        <time>2020-05-20T08:21:47Z</time>
      </trkpt>
      <trkpt lat="42.96734" lon="0.28639">
        <ele>1419.1999511719</ele>
        <time>2020-05-20T08:21:48Z</time>
      </trkpt>
      <trkpt lat="42.96738" lon="0.28636">
        <ele>1418.8000488281</ele>
        <time>2020-05-20T08:21:49Z</time>
      </trkpt>
      <trkpt lat="42.96742" lon="0.28632">
        <ele>1418.4000244141</ele>
        <time>2020-05-20T08:21:50Z</time>
      </trkpt>
      <trkpt lat="42.96746" lon="0.28627">
        <ele>1418</ele>
        <time>2020-05-20T08:21:51Z</time>
      </trkpt>
      <trkpt lat="42.9675" lon="0.2862">
        <ele>1417.5999755859</ele>
        <time>2020-05-20T08:21:52Z</time>
      </trkpt>
      <trkpt lat="42.96755" lon="0.28615">
        <ele>1417.1999511719</ele>
        <time>2020-05-20T08:21:53Z</time>
      </trkpt>
      <trkpt lat="42.96761" lon="0.28612">
        <ele>1416.8000488281</ele>
        <time>2020-05-20T08:21:54Z</time>
      </trkpt>
      <trkpt lat="42.96767" lon="0.28608">
        <ele>1416.4000244141</ele>
        <time>2020-05-20T08:21:55Z</time>
      </trkpt>
      <trkpt lat="42.96773" lon="0.28606">
        <ele>1415.4000244141</ele>
        <time>2020-05-20T08:21:56Z</time>
      </trkpt>
      <trkpt lat="42.96778" lon="0.28603">
        <ele>1415</ele>
        <time>2020-05-20T08:21:57Z</time>
      </trkpt>
      <trkpt lat="42.96782" lon="0.286">
        <ele>1414.4000244141</ele>
        <time>2020-05-20T08:21:58Z</time>
      </trkpt>
      <trkpt lat="42.96785" lon="0.28596">
        <ele>1414</ele>
        <time>2020-05-20T08:21:59Z</time>
      </trkpt>
      <trkpt lat="42.96786" lon="0.28593">
        <ele>1413.4000244141</ele>
        <time>2020-05-20T08:22:00Z</time>
      </trkpt>
      <trkpt lat="42.96787" lon="0.2859">
        <ele>1413</ele>
        <time>2020-05-20T08:22:01Z</time>
      </trkpt>
      <trkpt lat="42.96787" lon="0.28588">
        <ele>1413</ele>
        <time>2020-05-20T08:22:02Z</time>
      </trkpt>
      <trkpt lat="42.96779" lon="0.28583">
        <ele>1413</ele>
        <time>2020-05-20T08:22:05Z</time>
      </trkpt>
      <trkpt lat="42.96775" lon="0.28583">
        <ele>1412.5999755859</ele>
        <time>2020-05-20T08:22:06Z</time>
      </trkpt>
      <trkpt lat="42.96771" lon="0.28584">
        <ele>1412.1999511719</ele>
        <time>2020-05-20T08:22:07Z</time>
      </trkpt>
      <trkpt lat="42.96766" lon="0.28584">
        <ele>1411.8000488281</ele>
        <time>2020-05-20T08:22:08Z</time>
      </trkpt>
      <trkpt lat="42.96761" lon="0.28585">
        <ele>1411.1999511719</ele>
        <time>2020-05-20T08:22:09Z</time>
      </trkpt>
      <trkpt lat="42.96755" lon="0.28587">
        <ele>1410.8000488281</ele>
        <time>2020-05-20T08:22:10Z</time>
      </trkpt>
      <trkpt lat="42.9675" lon="0.2859">
        <ele>1410.4000244141</ele>
        <time>2020-05-20T08:22:11Z</time>
      </trkpt>
      <trkpt lat="42.96744" lon="0.28593">
        <ele>1410</ele>
        <time>2020-05-20T08:22:12Z</time>
      </trkpt>
      <trkpt lat="42.96738" lon="0.28597">
        <ele>1409.5999755859</ele>
        <time>2020-05-20T08:22:13Z</time>
      </trkpt>
      <trkpt lat="42.96733" lon="0.28601">
        <ele>1409.1999511719</ele>
        <time>2020-05-20T08:22:14Z</time>
      </trkpt>
      <trkpt lat="42.96728" lon="0.28603">
        <ele>1408.5999755859</ele>
        <time>2020-05-20T08:22:15Z</time>
      </trkpt>
      <trkpt lat="42.96724" lon="0.28604">
        <ele>1408.1999511719</ele>
        <time>2020-05-20T08:22:16Z</time>
      </trkpt>
      <trkpt lat="42.9672" lon="0.28601">
        <ele>1407.5999755859</ele>
        <time>2020-05-20T08:22:17Z</time>
      </trkpt>
      <trkpt lat="42.96718" lon="0.28595">
        <ele>1407.1999511719</ele>
        <time>2020-05-20T08:22:18Z</time>
      </trkpt>
      <trkpt lat="42.96716" lon="0.28588">
        <ele>1406.5999755859</ele>
        <time>2020-05-20T08:22:19Z</time>
      </trkpt>
      <trkpt lat="42.96716" lon="0.28579">
        <ele>1405.8000488281</ele>
        <time>2020-05-20T08:22:20Z</time>
      </trkpt>
      <trkpt lat="42.96716" lon="0.2857">
        <ele>1405.4000244141</ele>
        <time>2020-05-20T08:22:21Z</time>
      </trkpt>
      <trkpt lat="42.96716" lon="0.28561">
        <ele>1404.8000488281</ele>
        <time>2020-05-20T08:22:22Z</time>
      </trkpt>
      <trkpt lat="42.96715" lon="0.28551">
        <ele>1404.1999511719</ele>
        <time>2020-05-20T08:22:23Z</time>
      </trkpt>
      <trkpt lat="42.96715" lon="0.28541">
        <ele>1403.5999755859</ele>
        <time>2020-05-20T08:22:24Z</time>
      </trkpt>
      <trkpt lat="42.96714" lon="0.28531">
        <ele>1402.8000488281</ele>
        <time>2020-05-20T08:22:25Z</time>
      </trkpt>
      <trkpt lat="42.96712" lon="0.28521">
        <ele>1402</ele>
        <time>2020-05-20T08:22:26Z</time>
      </trkpt>
      <trkpt lat="42.9671" lon="0.28511">
        <ele>1401.4000244141</ele>
        <time>2020-05-20T08:22:27Z</time>
      </trkpt>
      <trkpt lat="42.96707" lon="0.285">
        <ele>1400.4000244141</ele>
        <time>2020-05-20T08:22:28Z</time>
      </trkpt>
      <trkpt lat="42.96704" lon="0.28491">
        <ele>1399.5999755859</ele>
        <time>2020-05-20T08:22:29Z</time>
      </trkpt>
      <trkpt lat="42.96701" lon="0.28482">
        <ele>1398.5999755859</ele>
        <time>2020-05-20T08:22:30Z</time>
      </trkpt>
      <trkpt lat="42.96697" lon="0.28473">
        <ele>1397.8000488281</ele>
        <time>2020-05-20T08:22:31Z</time>
      </trkpt>
      <trkpt lat="42.96693" lon="0.28464">
        <ele>1397.1999511719</ele>
        <time>2020-05-20T08:22:32Z</time>
      </trkpt>
      <trkpt lat="42.96689" lon="0.28455">
        <ele>1396.4000244141</ele>
        <time>2020-05-20T08:22:33Z</time>
      </trkpt>
      <trkpt lat="42.96684" lon="0.28446">
        <ele>1395.8000488281</ele>
        <time>2020-05-20T08:22:34Z</time>
      </trkpt>
      <trkpt lat="42.96678" lon="0.28436">
        <ele>1395</ele>
        <time>2020-05-20T08:22:35Z</time>
      </trkpt>
      <trkpt lat="42.96671" lon="0.28427">
        <ele>1394.1999511719</ele>
        <time>2020-05-20T08:22:36Z</time>
      </trkpt>
      <trkpt lat="42.96665" lon="0.28418">
        <ele>1393.1999511719</ele>
        <time>2020-05-20T08:22:37Z</time>
      </trkpt>
      <trkpt lat="42.96658" lon="0.28408">
        <ele>1392.1999511719</ele>
        <time>2020-05-20T08:22:38Z</time>
      </trkpt>
      <trkpt lat="42.96651" lon="0.28398">
        <ele>1391</ele>
        <time>2020-05-20T08:22:39Z</time>
      </trkpt>
      <trkpt lat="42.96644" lon="0.28388">
        <ele>1389.8000488281</ele>
        <time>2020-05-20T08:22:40Z</time>
      </trkpt>
      <trkpt lat="42.96637" lon="0.28377">
        <ele>1388.8000488281</ele>
        <time>2020-05-20T08:22:41Z</time>
      </trkpt>
      <trkpt lat="42.9663" lon="0.28366">
        <ele>1387.5999755859</ele>
        <time>2020-05-20T08:22:42Z</time>
      </trkpt>
      <trkpt lat="42.96624" lon="0.28354">
        <ele>1386.5999755859</ele>
        <time>2020-05-20T08:22:43Z</time>
      </trkpt>
      <trkpt lat="42.96619" lon="0.28345">
        <ele>1385.4000244141</ele>
        <time>2020-05-20T08:22:44Z</time>
      </trkpt>
      <trkpt lat="42.96614" lon="0.28336">
        <ele>1383.4000244141</ele>
        <time>2020-05-20T08:22:45Z</time>
      </trkpt>
      <trkpt lat="42.96608" lon="0.28327">
        <ele>1382.4000244141</ele>
        <time>2020-05-20T08:22:46Z</time>
      </trkpt>
      <trkpt lat="42.96602" lon="0.28318">
        <ele>1381.4000244141</ele>
        <time>2020-05-20T08:22:47Z</time>
      </trkpt>
      <trkpt lat="42.96595" lon="0.28308">
        <ele>1380.4000244141</ele>
        <time>2020-05-20T08:22:48Z</time>
      </trkpt>
      <trkpt lat="42.96588" lon="0.28297">
        <ele>1379.1999511719</ele>
        <time>2020-05-20T08:22:49Z</time>
      </trkpt>
      <trkpt lat="42.96579" lon="0.28285">
        <ele>1378.1999511719</ele>
        <time>2020-05-20T08:22:50Z</time>
      </trkpt>
      <trkpt lat="42.96572" lon="0.28273">
        <ele>1376.8000488281</ele>
        <time>2020-05-20T08:22:51Z</time>
      </trkpt>
      <trkpt lat="42.96564" lon="0.28261">
        <ele>1375.5999755859</ele>
        <time>2020-05-20T08:22:52Z</time>
      </trkpt>
      <trkpt lat="42.96556" lon="0.28249">
        <ele>1374</ele>
        <time>2020-05-20T08:22:53Z</time>
      </trkpt>
      <trkpt lat="42.96549" lon="0.28238">
        <ele>1372.5999755859</ele>
        <time>2020-05-20T08:22:54Z</time>
      </trkpt>
      <trkpt lat="42.96542" lon="0.28227">
        <ele>1371.4000244141</ele>
        <time>2020-05-20T08:22:55Z</time>
      </trkpt>
      <trkpt lat="42.96534" lon="0.28216">
        <ele>1370.1999511719</ele>
        <time>2020-05-20T08:22:56Z</time>
      </trkpt>
      <trkpt lat="42.96526" lon="0.28205">
        <ele>1369</ele>
        <time>2020-05-20T08:22:57Z</time>
      </trkpt>
      <trkpt lat="42.96518" lon="0.28194">
        <ele>1367.8000488281</ele>
        <time>2020-05-20T08:22:58Z</time>
      </trkpt>
      <trkpt lat="42.96511" lon="0.28182">
        <ele>1366.5999755859</ele>
        <time>2020-05-20T08:22:59Z</time>
      </trkpt>
      <trkpt lat="42.96505" lon="0.28172">
        <ele>1365.4000244141</ele>
        <time>2020-05-20T08:23:00Z</time>
      </trkpt>
      <trkpt lat="42.96498" lon="0.28162">
        <ele>1364.1999511719</ele>
        <time>2020-05-20T08:23:01Z</time>
      </trkpt>
      <trkpt lat="42.96491" lon="0.28151">
        <ele>1363.1999511719</ele>
        <time>2020-05-20T08:23:02Z</time>
      </trkpt>
      <trkpt lat="42.96483" lon="0.2814">
        <ele>1362.1999511719</ele>
        <time>2020-05-20T08:23:03Z</time>
      </trkpt>
      <trkpt lat="42.96476" lon="0.2813">
        <ele>1361.4000244141</ele>
        <time>2020-05-20T08:23:04Z</time>
      </trkpt>
      <trkpt lat="42.96469" lon="0.2812">
        <ele>1360.4000244141</ele>
        <time>2020-05-20T08:23:05Z</time>
      </trkpt>
      <trkpt lat="42.96461" lon="0.2811">
        <ele>1359.4000244141</ele>
        <time>2020-05-20T08:23:06Z</time>
      </trkpt>
      <trkpt lat="42.96454" lon="0.28099">
        <ele>1358.1999511719</ele>
        <time>2020-05-20T08:23:07Z</time>
      </trkpt>
      <trkpt lat="42.96448" lon="0.28087">
        <ele>1357.1999511719</ele>
        <time>2020-05-20T08:23:08Z</time>
      </trkpt>
      <trkpt lat="42.96442" lon="0.28075">
        <ele>1356.1999511719</ele>
        <time>2020-05-20T08:23:09Z</time>
      </trkpt>
      <trkpt lat="42.96436" lon="0.28064">
        <ele>1354</ele>
        <time>2020-05-20T08:23:10Z</time>
      </trkpt>
      <trkpt lat="42.96431" lon="0.28054">
        <ele>1353</ele>
        <time>2020-05-20T08:23:11Z</time>
      </trkpt>
      <trkpt lat="42.96424" lon="0.28044">
        <ele>1352</ele>
        <time>2020-05-20T08:23:12Z</time>
      </trkpt>
      <trkpt lat="42.96418" lon="0.28035">
        <ele>1351</ele>
        <time>2020-05-20T08:23:13Z</time>
      </trkpt>
      <trkpt lat="42.96411" lon="0.28028">
        <ele>1350</ele>
        <time>2020-05-20T08:23:14Z</time>
      </trkpt>
      <trkpt lat="42.96405" lon="0.28023">
        <ele>1349</ele>
        <time>2020-05-20T08:23:15Z</time>
      </trkpt>
      <trkpt lat="42.96398" lon="0.2802">
        <ele>1348.5999755859</ele>
        <time>2020-05-20T08:23:16Z</time>
      </trkpt>
      <trkpt lat="42.96392" lon="0.28019">
        <ele>1348.1999511719</ele>
        <time>2020-05-20T08:23:17Z</time>
      </trkpt>
      <trkpt lat="42.96386" lon="0.28017">
        <ele>1347.8000488281</ele>
        <time>2020-05-20T08:23:18Z</time>
      </trkpt>
      <trkpt lat="42.96381" lon="0.28014">
        <ele>1347.4000244141</ele>
        <time>2020-05-20T08:23:19Z</time>
      </trkpt>
      <trkpt lat="42.96375" lon="0.28011">
        <ele>1347</ele>
        <time>2020-05-20T08:23:20Z</time>
      </trkpt>
      <trkpt lat="42.96367" lon="0.27998">
        <ele>1346.5999755859</ele>
        <time>2020-05-20T08:23:23Z</time>
      </trkpt>
      <trkpt lat="42.9637" lon="0.27995">
        <ele>1346.1999511719</ele>
        <time>2020-05-20T08:23:24Z</time>
      </trkpt>
      <trkpt lat="42.96374" lon="0.27992">
        <ele>1345.8000488281</ele>
        <time>2020-05-20T08:23:25Z</time>
      </trkpt>
      <trkpt lat="42.96378" lon="0.27989">
        <ele>1345.1999511719</ele>
        <time>2020-05-20T08:23:26Z</time>
      </trkpt>
      <trkpt lat="42.96382" lon="0.27988">
        <ele>1344.8000488281</ele>
        <time>2020-05-20T08:23:27Z</time>
      </trkpt>
      <trkpt lat="42.96386" lon="0.27987">
        <ele>1344.4000244141</ele>
        <time>2020-05-20T08:23:28Z</time>
      </trkpt>
      <trkpt lat="42.96391" lon="0.27986">
        <ele>1344</ele>
        <time>2020-05-20T08:23:29Z</time>
      </trkpt>
      <trkpt lat="42.96396" lon="0.27985">
        <ele>1343.5999755859</ele>
        <time>2020-05-20T08:23:30Z</time>
      </trkpt>
      <trkpt lat="42.96402" lon="0.27985">
        <ele>1343.1999511719</ele>
        <time>2020-05-20T08:23:31Z</time>
      </trkpt>
      <trkpt lat="42.96408" lon="0.27985">
        <ele>1342.5999755859</ele>
        <time>2020-05-20T08:23:32Z</time>
      </trkpt>
      <trkpt lat="42.96415" lon="0.27985">
        <ele>1342.1999511719</ele>
        <time>2020-05-20T08:23:33Z</time>
      </trkpt>
      <trkpt lat="42.96421" lon="0.27986">
        <ele>1341.5999755859</ele>
        <time>2020-05-20T08:23:34Z</time>
      </trkpt>
      <trkpt lat="42.96429" lon="0.27986">
        <ele>1340.1999511719</ele>
        <time>2020-05-20T08:23:35Z</time>
      </trkpt>
      <trkpt lat="42.96436" lon="0.27987">
        <ele>1339.1999511719</ele>
        <time>2020-05-20T08:23:36Z</time>
      </trkpt>
      <trkpt lat="42.96444" lon="0.27989">
        <ele>1338.4000244141</ele>
        <time>2020-05-20T08:23:37Z</time>
      </trkpt>
      <trkpt lat="42.96453" lon="0.27989">
        <ele>1337.4000244141</ele>
        <time>2020-05-20T08:23:38Z</time>
      </trkpt>
      <trkpt lat="42.96462" lon="0.2799">
        <ele>1336.4000244141</ele>
        <time>2020-05-20T08:23:39Z</time>
      </trkpt>
      <trkpt lat="42.96471" lon="0.2799">
        <ele>1335.1999511719</ele>
        <time>2020-05-20T08:23:40Z</time>
      </trkpt>
      <trkpt lat="42.9648" lon="0.27991">
        <ele>1334.4000244141</ele>
        <time>2020-05-20T08:23:41Z</time>
      </trkpt>
      <trkpt lat="42.96488" lon="0.27993">
        <ele>1333.4000244141</ele>
        <time>2020-05-20T08:23:42Z</time>
      </trkpt>
      <trkpt lat="42.96495" lon="0.27993">
        <ele>1332.5999755859</ele>
        <time>2020-05-20T08:23:43Z</time>
      </trkpt>
      <trkpt lat="42.96501" lon="0.27994">
        <ele>1331.5999755859</ele>
        <time>2020-05-20T08:23:44Z</time>
      </trkpt>
      <trkpt lat="42.96506" lon="0.27991">
        <ele>1330.8000488281</ele>
        <time>2020-05-20T08:23:45Z</time>
      </trkpt>
      <trkpt lat="42.9651" lon="0.27986">
        <ele>1330.8000488281</ele>
        <time>2020-05-20T08:23:46Z</time>
      </trkpt>
      <trkpt lat="42.96512" lon="0.27974">
        <ele>1330.4000244141</ele>
        <time>2020-05-20T08:23:48Z</time>
      </trkpt>
      <trkpt lat="42.96509" lon="0.2797">
        <ele>1330</ele>
        <time>2020-05-20T08:23:49Z</time>
      </trkpt>
      <trkpt lat="42.96506" lon="0.27965">
        <ele>1329.5999755859</ele>
        <time>2020-05-20T08:23:50Z</time>
      </trkpt>
      <trkpt lat="42.96502" lon="0.2796">
        <ele>1329.1999511719</ele>
        <time>2020-05-20T08:23:51Z</time>
      </trkpt>
      <trkpt lat="42.96496" lon="0.27958">
        <ele>1328.5999755859</ele>
        <time>2020-05-20T08:23:52Z</time>
      </trkpt>
      <trkpt lat="42.9649" lon="0.27954">
        <ele>1328</ele>
        <time>2020-05-20T08:23:53Z</time>
      </trkpt>
      <trkpt lat="42.96483" lon="0.27949">
        <ele>1327.5999755859</ele>
        <time>2020-05-20T08:23:54Z</time>
      </trkpt>
      <trkpt lat="42.96477" lon="0.27944">
        <ele>1327</ele>
        <time>2020-05-20T08:23:55Z</time>
      </trkpt>
      <trkpt lat="42.96471" lon="0.27937">
        <ele>1326.4000244141</ele>
        <time>2020-05-20T08:23:56Z</time>
      </trkpt>
      <trkpt lat="42.96464" lon="0.2793">
        <ele>1325.8000488281</ele>
        <time>2020-05-20T08:23:57Z</time>
      </trkpt>
      <trkpt lat="42.96457" lon="0.27922">
        <ele>1325.1999511719</ele>
        <time>2020-05-20T08:23:58Z</time>
      </trkpt>
      <trkpt lat="42.96451" lon="0.27915">
        <ele>1323.8000488281</ele>
        <time>2020-05-20T08:23:59Z</time>
      </trkpt>
      <trkpt lat="42.96444" lon="0.27909">
        <ele>1323</ele>
        <time>2020-05-20T08:24:00Z</time>
      </trkpt>
      <trkpt lat="42.96437" lon="0.27905">
        <ele>1322.1999511719</ele>
        <time>2020-05-20T08:24:01Z</time>
      </trkpt>
      <trkpt lat="42.96428" lon="0.279">
        <ele>1321.4000244141</ele>
        <time>2020-05-20T08:24:02Z</time>
      </trkpt>
      <trkpt lat="42.9642" lon="0.27895">
        <ele>1320.5999755859</ele>
        <time>2020-05-20T08:24:03Z</time>
      </trkpt>
      <trkpt lat="42.96412" lon="0.27891">
        <ele>1319.5999755859</ele>
        <time>2020-05-20T08:24:04Z</time>
      </trkpt>
      <trkpt lat="42.964" lon="0.27888">
        <ele>1318.5999755859</ele>
        <time>2020-05-20T08:24:05Z</time>
      </trkpt>
      <trkpt lat="42.9639" lon="0.27887">
        <ele>1317.5999755859</ele>
        <time>2020-05-20T08:24:06Z</time>
      </trkpt>
      <trkpt lat="42.96379" lon="0.27886">
        <ele>1316.5999755859</ele>
        <time>2020-05-20T08:24:07Z</time>
      </trkpt>
      <trkpt lat="42.96368" lon="0.27887">
        <ele>1315.5999755859</ele>
        <time>2020-05-20T08:24:08Z</time>
      </trkpt>
      <trkpt lat="42.96358" lon="0.27888">
        <ele>1314.4000244141</ele>
        <time>2020-05-20T08:24:09Z</time>
      </trkpt>
      <trkpt lat="42.96348" lon="0.27887">
        <ele>1313.4000244141</ele>
        <time>2020-05-20T08:24:10Z</time>
      </trkpt>
      <trkpt lat="42.96338" lon="0.27887">
        <ele>1312.4000244141</ele>
        <time>2020-05-20T08:24:11Z</time>
      </trkpt>
      <trkpt lat="42.96329" lon="0.27887">
        <ele>1311.4000244141</ele>
        <time>2020-05-20T08:24:12Z</time>
      </trkpt>
      <trkpt lat="42.96321" lon="0.27887">
        <ele>1310.5999755859</ele>
        <time>2020-05-20T08:24:13Z</time>
      </trkpt>
      <trkpt lat="42.96312" lon="0.27887">
        <ele>1309.5999755859</ele>
        <time>2020-05-20T08:24:14Z</time>
      </trkpt>
      <trkpt lat="42.96303" lon="0.27888">
        <ele>1308.8000488281</ele>
        <time>2020-05-20T08:24:15Z</time>
      </trkpt>
      <trkpt lat="42.96293" lon="0.2789">
        <ele>1308</ele>
        <time>2020-05-20T08:24:16Z</time>
      </trkpt>
      <trkpt lat="42.96284" lon="0.27893">
        <ele>1307.1999511719</ele>
        <time>2020-05-20T08:24:17Z</time>
      </trkpt>
      <trkpt lat="42.96273" lon="0.27896">
        <ele>1306.4000244141</ele>
        <time>2020-05-20T08:24:18Z</time>
      </trkpt>
      <trkpt lat="42.96263" lon="0.27899">
        <ele>1305.5999755859</ele>
        <time>2020-05-20T08:24:19Z</time>
      </trkpt>
      <trkpt lat="42.96252" lon="0.27903">
        <ele>1304.5999755859</ele>
        <time>2020-05-20T08:24:20Z</time>
      </trkpt>
      <trkpt lat="42.96242" lon="0.27907">
        <ele>1303.5999755859</ele>
        <time>2020-05-20T08:24:21Z</time>
      </trkpt>
      <trkpt lat="42.96231" lon="0.27911">
        <ele>1302.5999755859</ele>
        <time>2020-05-20T08:24:22Z</time>
      </trkpt>
      <trkpt lat="42.9622" lon="0.27914">
        <ele>1301.5999755859</ele>
        <time>2020-05-20T08:24:23Z</time>
      </trkpt>
      <trkpt lat="42.9621" lon="0.27917">
        <ele>1299.5999755859</ele>
        <time>2020-05-20T08:24:24Z</time>
      </trkpt>
      <trkpt lat="42.96199" lon="0.27918">
        <ele>1298.8000488281</ele>
        <time>2020-05-20T08:24:25Z</time>
      </trkpt>
      <trkpt lat="42.96188" lon="0.27917">
        <ele>1297.8000488281</ele>
        <time>2020-05-20T08:24:26Z</time>
      </trkpt>
      <trkpt lat="42.96177" lon="0.27917">
        <ele>1296.8000488281</ele>
        <time>2020-05-20T08:24:27Z</time>
      </trkpt>
      <trkpt lat="42.96166" lon="0.27916">
        <ele>1296</ele>
        <time>2020-05-20T08:24:28Z</time>
      </trkpt>
      <trkpt lat="42.96156" lon="0.27916">
        <ele>1294.8000488281</ele>
        <time>2020-05-20T08:24:29Z</time>
      </trkpt>
      <trkpt lat="42.96146" lon="0.27915">
        <ele>1293.8000488281</ele>
        <time>2020-05-20T08:24:30Z</time>
      </trkpt>
      <trkpt lat="42.96137" lon="0.27915">
        <ele>1292.8000488281</ele>
        <time>2020-05-20T08:24:31Z</time>
      </trkpt>
      <trkpt lat="42.96127" lon="0.27915">
        <ele>1292</ele>
        <time>2020-05-20T08:24:32Z</time>
      </trkpt>
      <trkpt lat="42.96118" lon="0.27916">
        <ele>1291</ele>
        <time>2020-05-20T08:24:33Z</time>
      </trkpt>
      <trkpt lat="42.96108" lon="0.27918">
        <ele>1290</ele>
        <time>2020-05-20T08:24:34Z</time>
      </trkpt>
      <trkpt lat="42.96098" lon="0.27919">
        <ele>1289.1999511719</ele>
        <time>2020-05-20T08:24:35Z</time>
      </trkpt>
      <trkpt lat="42.96088" lon="0.27921">
        <ele>1288.4000244141</ele>
        <time>2020-05-20T08:24:36Z</time>
      </trkpt>
      <trkpt lat="42.96077" lon="0.27922">
        <ele>1287.4000244141</ele>
        <time>2020-05-20T08:24:37Z</time>
      </trkpt>
      <trkpt lat="42.96067" lon="0.27923">
        <ele>1286.5999755859</ele>
        <time>2020-05-20T08:24:38Z</time>
      </trkpt>
      <trkpt lat="42.96056" lon="0.27923">
        <ele>1285.5999755859</ele>
        <time>2020-05-20T08:24:39Z</time>
      </trkpt>
      <trkpt lat="42.96045" lon="0.27924">
        <ele>1284.4000244141</ele>
        <time>2020-05-20T08:24:40Z</time>
      </trkpt>
      <trkpt lat="42.96035" lon="0.27925">
        <ele>1283.4000244141</ele>
        <time>2020-05-20T08:24:41Z</time>
      </trkpt>
      <trkpt lat="42.96025" lon="0.27926">
        <ele>1282.4000244141</ele>
        <time>2020-05-20T08:24:42Z</time>
      </trkpt>
      <trkpt lat="42.96014" lon="0.27928">
        <ele>1281.1999511719</ele>
        <time>2020-05-20T08:24:43Z</time>
      </trkpt>
      <trkpt lat="42.96005" lon="0.27931">
        <ele>1280.1999511719</ele>
        <time>2020-05-20T08:24:44Z</time>
      </trkpt>
      <trkpt lat="42.95995" lon="0.27933">
        <ele>1279</ele>
        <time>2020-05-20T08:24:45Z</time>
      </trkpt>
      <trkpt lat="42.95985" lon="0.27934">
        <ele>1278</ele>
        <time>2020-05-20T08:24:46Z</time>
      </trkpt>
      <trkpt lat="42.95975" lon="0.27935">
        <ele>1276.8000488281</ele>
        <time>2020-05-20T08:24:47Z</time>
      </trkpt>
      <trkpt lat="42.95965" lon="0.27935">
        <ele>1275.8000488281</ele>
        <time>2020-05-20T08:24:48Z</time>
      </trkpt>
      <trkpt lat="42.95956" lon="0.27936">
        <ele>1273.8000488281</ele>
        <time>2020-05-20T08:24:49Z</time>
      </trkpt>
      <trkpt lat="42.95946" lon="0.27936">
        <ele>1273.1999511719</ele>
        <time>2020-05-20T08:24:50Z</time>
      </trkpt>
      <trkpt lat="42.95936" lon="0.27936">
        <ele>1272.1999511719</ele>
        <time>2020-05-20T08:24:51Z</time>
      </trkpt>
      <trkpt lat="42.95926" lon="0.27939">
        <ele>1271.4000244141</ele>
        <time>2020-05-20T08:24:52Z</time>
      </trkpt>
      <trkpt lat="42.95915" lon="0.27941">
        <ele>1270.1999511719</ele>
        <time>2020-05-20T08:24:53Z</time>
      </trkpt>
      <trkpt lat="42.95904" lon="0.27942">
        <ele>1269.1999511719</ele>
        <time>2020-05-20T08:24:54Z</time>
      </trkpt>
      <trkpt lat="42.95893" lon="0.2794">
        <ele>1268.1999511719</ele>
        <time>2020-05-20T08:24:55Z</time>
      </trkpt>
      <trkpt lat="42.95882" lon="0.27938">
        <ele>1267.1999511719</ele>
        <time>2020-05-20T08:24:56Z</time>
      </trkpt>
      <trkpt lat="42.95872" lon="0.27935">
        <ele>1266.1999511719</ele>
        <time>2020-05-20T08:24:57Z</time>
      </trkpt>
      <trkpt lat="42.95861" lon="0.27933">
        <ele>1265.1999511719</ele>
        <time>2020-05-20T08:24:58Z</time>
      </trkpt>
      <trkpt lat="42.95851" lon="0.27934">
        <ele>1264.4000244141</ele>
        <time>2020-05-20T08:24:59Z</time>
      </trkpt>
      <trkpt lat="42.95841" lon="0.27935">
        <ele>1263.5999755859</ele>
        <time>2020-05-20T08:25:00Z</time>
      </trkpt>
      <trkpt lat="42.95831" lon="0.27938">
        <ele>1262.5999755859</ele>
        <time>2020-05-20T08:25:01Z</time>
      </trkpt>
      <trkpt lat="42.95821" lon="0.27939">
        <ele>1261.8000488281</ele>
        <time>2020-05-20T08:25:02Z</time>
      </trkpt>
      <trkpt lat="42.95811" lon="0.27939">
        <ele>1260.8000488281</ele>
        <time>2020-05-20T08:25:03Z</time>
      </trkpt>
      <trkpt lat="42.95801" lon="0.27937">
        <ele>1259.8000488281</ele>
        <time>2020-05-20T08:25:04Z</time>
      </trkpt>
      <trkpt lat="42.95792" lon="0.27934">
        <ele>1259</ele>
        <time>2020-05-20T08:25:05Z</time>
      </trkpt>
      <trkpt lat="42.9578" lon="0.27931">
        <ele>1258.1999511719</ele>
        <time>2020-05-20T08:25:06Z</time>
      </trkpt>
      <trkpt lat="42.95769" lon="0.27928">
        <ele>1257.1999511719</ele>
        <time>2020-05-20T08:25:07Z</time>
      </trkpt>
      <trkpt lat="42.95758" lon="0.27923">
        <ele>1256.1999511719</ele>
        <time>2020-05-20T08:25:08Z</time>
      </trkpt>
      <trkpt lat="42.95747" lon="0.27918">
        <ele>1255</ele>
        <time>2020-05-20T08:25:09Z</time>
      </trkpt>
      <trkpt lat="42.95736" lon="0.27914">
        <ele>1254</ele>
        <time>2020-05-20T08:25:10Z</time>
      </trkpt>
      <trkpt lat="42.95725" lon="0.2791">
        <ele>1252.8000488281</ele>
        <time>2020-05-20T08:25:11Z</time>
      </trkpt>
      <trkpt lat="42.95715" lon="0.27906">
        <ele>1251.8000488281</ele>
        <time>2020-05-20T08:25:12Z</time>
      </trkpt>
      <trkpt lat="42.95705" lon="0.27903">
        <ele>1250.8000488281</ele>
        <time>2020-05-20T08:25:13Z</time>
      </trkpt>
      <trkpt lat="42.95695" lon="0.27899">
        <ele>1249</ele>
        <time>2020-05-20T08:25:14Z</time>
      </trkpt>
      <trkpt lat="42.95686" lon="0.27896">
        <ele>1248.1999511719</ele>
        <time>2020-05-20T08:25:15Z</time>
      </trkpt>
      <trkpt lat="42.95677" lon="0.27892">
        <ele>1247.4000244141</ele>
        <time>2020-05-20T08:25:16Z</time>
      </trkpt>
      <trkpt lat="42.95669" lon="0.27889">
        <ele>1246.5999755859</ele>
        <time>2020-05-20T08:25:17Z</time>
      </trkpt>
      <trkpt lat="42.9566" lon="0.27886">
        <ele>1246</ele>
        <time>2020-05-20T08:25:18Z</time>
      </trkpt>
      <trkpt lat="42.95651" lon="0.27884">
        <ele>1245.1999511719</ele>
        <time>2020-05-20T08:25:19Z</time>
      </trkpt>
      <trkpt lat="42.95643" lon="0.27882">
        <ele>1244.5999755859</ele>
        <time>2020-05-20T08:25:20Z</time>
      </trkpt>
      <trkpt lat="42.95634" lon="0.27881">
        <ele>1243.8000488281</ele>
        <time>2020-05-20T08:25:21Z</time>
      </trkpt>
      <trkpt lat="42.95625" lon="0.2788">
        <ele>1243</ele>
        <time>2020-05-20T08:25:22Z</time>
      </trkpt>
      <trkpt lat="42.95616" lon="0.27881">
        <ele>1242.4000244141</ele>
        <time>2020-05-20T08:25:23Z</time>
      </trkpt>
      <trkpt lat="42.95608" lon="0.27882">
        <ele>1241.5999755859</ele>
        <time>2020-05-20T08:25:24Z</time>
      </trkpt>
      <trkpt lat="42.95599" lon="0.27883">
        <ele>1240.8000488281</ele>
        <time>2020-05-20T08:25:25Z</time>
      </trkpt>
      <trkpt lat="42.9559" lon="0.27887">
        <ele>1240</ele>
        <time>2020-05-20T08:25:26Z</time>
      </trkpt>
      <trkpt lat="42.95582" lon="0.27889">
        <ele>1239.1999511719</ele>
        <time>2020-05-20T08:25:27Z</time>
      </trkpt>
      <trkpt lat="42.95574" lon="0.27892">
        <ele>1238.4000244141</ele>
        <time>2020-05-20T08:25:28Z</time>
      </trkpt>
      <trkpt lat="42.95566" lon="0.27895">
        <ele>1237.5999755859</ele>
        <time>2020-05-20T08:25:29Z</time>
      </trkpt>
      <trkpt lat="42.9556" lon="0.279">
        <ele>1236.8000488281</ele>
        <time>2020-05-20T08:25:30Z</time>
      </trkpt>
      <trkpt lat="42.95554" lon="0.27907">
        <ele>1236</ele>
        <time>2020-05-20T08:25:31Z</time>
      </trkpt>
      <trkpt lat="42.95549" lon="0.27915">
        <ele>1235.4000244141</ele>
        <time>2020-05-20T08:25:32Z</time>
      </trkpt>
      <trkpt lat="42.95544" lon="0.27924">
        <ele>1234.4000244141</ele>
        <time>2020-05-20T08:25:33Z</time>
      </trkpt>
      <trkpt lat="42.95539" lon="0.27932">
        <ele>1233.5999755859</ele>
        <time>2020-05-20T08:25:34Z</time>
      </trkpt>
      <trkpt lat="42.95532" lon="0.27941">
        <ele>1232.8000488281</ele>
        <time>2020-05-20T08:25:35Z</time>
      </trkpt>
      <trkpt lat="42.95525" lon="0.27949">
        <ele>1232</ele>
        <time>2020-05-20T08:25:36Z</time>
      </trkpt>
      <trkpt lat="42.95518" lon="0.27957">
        <ele>1231.1999511719</ele>
        <time>2020-05-20T08:25:37Z</time>
      </trkpt>
      <trkpt lat="42.95511" lon="0.27965">
        <ele>1229.4000244141</ele>
        <time>2020-05-20T08:25:38Z</time>
      </trkpt>
      <trkpt lat="42.95503" lon="0.27973">
        <ele>1228.4000244141</ele>
        <time>2020-05-20T08:25:39Z</time>
      </trkpt>
      <trkpt lat="42.95497" lon="0.27982">
        <ele>1227.4000244141</ele>
        <time>2020-05-20T08:25:40Z</time>
      </trkpt>
      <trkpt lat="42.9549" lon="0.27991">
        <ele>1226.4000244141</ele>
        <time>2020-05-20T08:25:41Z</time>
      </trkpt>
      <trkpt lat="42.95485" lon="0.27996">
        <ele>1225.5999755859</ele>
        <time>2020-05-20T08:25:42Z</time>
      </trkpt>
      <trkpt lat="42.95479" lon="0.28">
        <ele>1224.5999755859</ele>
        <time>2020-05-20T08:25:43Z</time>
      </trkpt>
      <trkpt lat="42.95474" lon="0.28003">
        <ele>1223.5999755859</ele>
        <time>2020-05-20T08:25:44Z</time>
      </trkpt>
      <trkpt lat="42.95471" lon="0.28003">
        <ele>1223.5999755859</ele>
        <time>2020-05-20T08:25:45Z</time>
      </trkpt>
      <trkpt lat="42.95464" lon="0.27993">
        <ele>1223.5999755859</ele>
        <time>2020-05-20T08:25:47Z</time>
      </trkpt>
      <trkpt lat="42.95461" lon="0.27971">
        <ele>1223.5999755859</ele>
        <time>2020-05-20T08:25:49Z</time>
      </trkpt>
      <trkpt lat="42.95461" lon="0.27959">
        <ele>1223.5999755859</ele>
        <time>2020-05-20T08:25:50Z</time>
      </trkpt>
      <trkpt lat="42.95459" lon="0.27948">
        <ele>1223</ele>
        <time>2020-05-20T08:25:51Z</time>
      </trkpt>
      <trkpt lat="42.95456" lon="0.27937">
        <ele>1222.5999755859</ele>
        <time>2020-05-20T08:25:52Z</time>
      </trkpt>
      <trkpt lat="42.95456" lon="0.27923">
        <ele>1221.8000488281</ele>
        <time>2020-05-20T08:25:53Z</time>
      </trkpt>
      <trkpt lat="42.95457" lon="0.2791">
        <ele>1221</ele>
        <time>2020-05-20T08:25:54Z</time>
      </trkpt>
      <trkpt lat="42.95455" lon="0.27896">
        <ele>1220.1999511719</ele>
        <time>2020-05-20T08:25:55Z</time>
      </trkpt>
      <trkpt lat="42.95454" lon="0.27882">
        <ele>1219.4000244141</ele>
        <time>2020-05-20T08:25:56Z</time>
      </trkpt>
      <trkpt lat="42.95453" lon="0.27869">
        <ele>1218.4000244141</ele>
        <time>2020-05-20T08:25:57Z</time>
      </trkpt>
      <trkpt lat="42.9545" lon="0.27856">
        <ele>1217.5999755859</ele>
        <time>2020-05-20T08:25:58Z</time>
      </trkpt>
      <trkpt lat="42.95448" lon="0.27843">
        <ele>1216.8000488281</ele>
        <time>2020-05-20T08:25:59Z</time>
      </trkpt>
      <trkpt lat="42.95444" lon="0.27831">
        <ele>1215.8000488281</ele>
        <time>2020-05-20T08:26:00Z</time>
      </trkpt>
      <trkpt lat="42.95441" lon="0.27818">
        <ele>1214.8000488281</ele>
        <time>2020-05-20T08:26:01Z</time>
      </trkpt>
      <trkpt lat="42.95437" lon="0.27806">
        <ele>1213.8000488281</ele>
        <time>2020-05-20T08:26:02Z</time>
      </trkpt>
      <trkpt lat="42.95432" lon="0.27794">
        <ele>1211.8000488281</ele>
        <time>2020-05-20T08:26:03Z</time>
      </trkpt>
      <trkpt lat="42.95426" lon="0.27783">
        <ele>1210.5999755859</ele>
        <time>2020-05-20T08:26:04Z</time>
      </trkpt>
      <trkpt lat="42.9542" lon="0.27773">
        <ele>1209.5999755859</ele>
        <time>2020-05-20T08:26:05Z</time>
      </trkpt>
      <trkpt lat="42.95411" lon="0.27764">
        <ele>1208.5999755859</ele>
        <time>2020-05-20T08:26:06Z</time>
      </trkpt>
      <trkpt lat="42.95401" lon="0.27757">
        <ele>1207.8000488281</ele>
        <time>2020-05-20T08:26:07Z</time>
      </trkpt>
      <trkpt lat="42.95392" lon="0.27751">
        <ele>1207</ele>
        <time>2020-05-20T08:26:08Z</time>
      </trkpt>
      <trkpt lat="42.95383" lon="0.27745">
        <ele>1206.1999511719</ele>
        <time>2020-05-20T08:26:09Z</time>
      </trkpt>
      <trkpt lat="42.95374" lon="0.27737">
        <ele>1205.4000244141</ele>
        <time>2020-05-20T08:26:10Z</time>
      </trkpt>
      <trkpt lat="42.95366" lon="0.27727">
        <ele>1204.4000244141</ele>
        <time>2020-05-20T08:26:11Z</time>
      </trkpt>
      <trkpt lat="42.95359" lon="0.27717">
        <ele>1203.4000244141</ele>
        <time>2020-05-20T08:26:12Z</time>
      </trkpt>
      <trkpt lat="42.95351" lon="0.27707">
        <ele>1202.5999755859</ele>
        <time>2020-05-20T08:26:13Z</time>
      </trkpt>
      <trkpt lat="42.95343" lon="0.27698">
        <ele>1201.5999755859</ele>
        <time>2020-05-20T08:26:14Z</time>
      </trkpt>
      <trkpt lat="42.95336" lon="0.27689">
        <ele>1200.5999755859</ele>
        <time>2020-05-20T08:26:15Z</time>
      </trkpt>
      <trkpt lat="42.95329" lon="0.27681">
        <ele>1199.4000244141</ele>
        <time>2020-05-20T08:26:16Z</time>
      </trkpt>
      <trkpt lat="42.95321" lon="0.27672">
        <ele>1198.1999511719</ele>
        <time>2020-05-20T08:26:17Z</time>
      </trkpt>
      <trkpt lat="42.95314" lon="0.27663">
        <ele>1197</ele>
        <time>2020-05-20T08:26:18Z</time>
      </trkpt>
      <trkpt lat="42.95306" lon="0.27653">
        <ele>1196</ele>
        <time>2020-05-20T08:26:19Z</time>
      </trkpt>
      <trkpt lat="42.95299" lon="0.27643">
        <ele>1195.1999511719</ele>
        <time>2020-05-20T08:26:20Z</time>
      </trkpt>
      <trkpt lat="42.95294" lon="0.27632">
        <ele>1194.1999511719</ele>
        <time>2020-05-20T08:26:21Z</time>
      </trkpt>
      <trkpt lat="42.9529" lon="0.2762">
        <ele>1193.1999511719</ele>
        <time>2020-05-20T08:26:22Z</time>
      </trkpt>
      <trkpt lat="42.95287" lon="0.27607">
        <ele>1192.1999511719</ele>
        <time>2020-05-20T08:26:23Z</time>
      </trkpt>
      <trkpt lat="42.95285" lon="0.27593">
        <ele>1191.4000244141</ele>
        <time>2020-05-20T08:26:24Z</time>
      </trkpt>
      <trkpt lat="42.95284" lon="0.27578">
        <ele>1190.5999755859</ele>
        <time>2020-05-20T08:26:25Z</time>
      </trkpt>
      <trkpt lat="42.95283" lon="0.27563">
        <ele>1188.5999755859</ele>
        <time>2020-05-20T08:26:26Z</time>
      </trkpt>
      <trkpt lat="42.95281" lon="0.27547">
        <ele>1187.5999755859</ele>
        <time>2020-05-20T08:26:27Z</time>
      </trkpt>
      <trkpt lat="42.9528" lon="0.27532">
        <ele>1186.4000244141</ele>
        <time>2020-05-20T08:26:28Z</time>
      </trkpt>
      <trkpt lat="42.95281" lon="0.27516">
        <ele>1185.4000244141</ele>
        <time>2020-05-20T08:26:29Z</time>
      </trkpt>
      <trkpt lat="42.95281" lon="0.27501">
        <ele>1184.1999511719</ele>
        <time>2020-05-20T08:26:30Z</time>
      </trkpt>
      <trkpt lat="42.95281" lon="0.27486">
        <ele>1183.1999511719</ele>
        <time>2020-05-20T08:26:31Z</time>
      </trkpt>
      <trkpt lat="42.95281" lon="0.27471">
        <ele>1182.1999511719</ele>
        <time>2020-05-20T08:26:32Z</time>
      </trkpt>
      <trkpt lat="42.95282" lon="0.27457">
        <ele>1181.4000244141</ele>
        <time>2020-05-20T08:26:33Z</time>
      </trkpt>
      <trkpt lat="42.95282" lon="0.27442">
        <ele>1180.4000244141</ele>
        <time>2020-05-20T08:26:34Z</time>
      </trkpt>
      <trkpt lat="42.95283" lon="0.27429">
        <ele>1179.5999755859</ele>
        <time>2020-05-20T08:26:35Z</time>
      </trkpt>
      <trkpt lat="42.95282" lon="0.27416">
        <ele>1178.5999755859</ele>
        <time>2020-05-20T08:26:36Z</time>
      </trkpt>
      <trkpt lat="42.95281" lon="0.27406">
        <ele>1177.8000488281</ele>
        <time>2020-05-20T08:26:37Z</time>
      </trkpt>
      <trkpt lat="42.95279" lon="0.27396">
        <ele>1177</ele>
        <time>2020-05-20T08:26:38Z</time>
      </trkpt>
      <trkpt lat="42.95277" lon="0.27386">
        <ele>1176</ele>
        <time>2020-05-20T08:26:39Z</time>
      </trkpt>
      <trkpt lat="42.95274" lon="0.27377">
        <ele>1175.4000244141</ele>
        <time>2020-05-20T08:26:40Z</time>
      </trkpt>
      <trkpt lat="42.95269" lon="0.27369">
        <ele>1175</ele>
        <time>2020-05-20T08:26:41Z</time>
      </trkpt>
      <trkpt lat="42.95264" lon="0.27362">
        <ele>1174.4000244141</ele>
        <time>2020-05-20T08:26:42Z</time>
      </trkpt>
      <trkpt lat="42.95258" lon="0.27357">
        <ele>1173.8000488281</ele>
        <time>2020-05-20T08:26:43Z</time>
      </trkpt>
      <trkpt lat="42.95254" lon="0.2735">
        <ele>1173.1999511719</ele>
        <time>2020-05-20T08:26:44Z</time>
      </trkpt>
      <trkpt lat="42.95248" lon="0.27347">
        <ele>1172.5999755859</ele>
        <time>2020-05-20T08:26:45Z</time>
      </trkpt>
      <trkpt lat="42.95244" lon="0.27344">
        <ele>1171.8000488281</ele>
        <time>2020-05-20T08:26:46Z</time>
      </trkpt>
      <trkpt lat="42.95239" lon="0.27341">
        <ele>1171.1999511719</ele>
        <time>2020-05-20T08:26:47Z</time>
      </trkpt>
      <trkpt lat="42.95236" lon="0.2734">
        <ele>1170.8000488281</ele>
        <time>2020-05-20T08:26:48Z</time>
      </trkpt>
      <trkpt lat="42.95233" lon="0.27338">
        <ele>1170.1999511719</ele>
        <time>2020-05-20T08:26:49Z</time>
      </trkpt>
      <trkpt lat="42.95231" lon="0.27336">
        <ele>1169.8000488281</ele>
        <time>2020-05-20T08:26:50Z</time>
      </trkpt>
      <trkpt lat="42.95227" lon="0.27333">
        <ele>1168.8000488281</ele>
        <time>2020-05-20T08:26:51Z</time>
      </trkpt>
      <trkpt lat="42.95224" lon="0.2733">
        <ele>1168.8000488281</ele>
        <time>2020-05-20T08:26:52Z</time>
      </trkpt>
      <trkpt lat="42.95213" lon="0.27323">
        <ele>1168.8000488281</ele>
        <time>2020-05-20T08:26:55Z</time>
      </trkpt>
      <trkpt lat="42.95211" lon="0.27319">
        <ele>1168.4000244141</ele>
        <time>2020-05-20T08:26:56Z</time>
      </trkpt>
      <trkpt lat="42.95207" lon="0.27317">
        <ele>1168</ele>
        <time>2020-05-20T08:26:57Z</time>
      </trkpt>
      <trkpt lat="42.95206" lon="0.27315">
        <ele>1167.5999755859</ele>
        <time>2020-05-20T08:26:58Z</time>
      </trkpt>
      <trkpt lat="42.952" lon="0.27315">
        <ele>1167</ele>
        <time>2020-05-20T08:26:59Z</time>
      </trkpt>
      <trkpt lat="42.95195" lon="0.27315">
        <ele>1166.5999755859</ele>
        <time>2020-05-20T08:27:00Z</time>
      </trkpt>
      <trkpt lat="42.95188" lon="0.27316">
        <ele>1166.5999755859</ele>
        <time>2020-05-20T08:27:02Z</time>
      </trkpt>
      <trkpt lat="42.95179" lon="0.27317">
        <ele>1166.5999755859</ele>
        <time>2020-05-20T08:27:07Z</time>
      </trkpt>
      <trkpt lat="42.95179" lon="0.27317">
        <ele>1166.5999755859</ele>
        <time>2020-05-20T08:27:15Z</time>
      </trkpt>
      <trkpt lat="42.95178" lon="0.27318">
        <ele>1166.5999755859</ele>
        <time>2020-05-20T08:27:21Z</time>
      </trkpt>
      <trkpt lat="42.95178" lon="0.27318">
        <ele>1166.5999755859</ele>
        <time>2020-05-20T08:27:31Z</time>
      </trkpt>
      <trkpt lat="42.95171" lon="0.27323">
        <ele>1166.5999755859</ele>
        <time>2020-05-20T08:27:37Z</time>
      </trkpt>
      <trkpt lat="42.95167" lon="0.27329">
        <ele>1166.5999755859</ele>
        <time>2020-05-20T08:27:42Z</time>
      </trkpt>
      <trkpt lat="42.95162" lon="0.27332">
        <ele>1166.5999755859</ele>
        <time>2020-05-20T08:27:47Z</time>
      </trkpt>
      <trkpt lat="42.95159" lon="0.27332">
        <ele>1167</ele>
        <time>2020-05-20T08:27:49Z</time>
      </trkpt>
      <trkpt lat="42.95158" lon="0.27333">
        <ele>1167.4000244141</ele>
        <time>2020-05-20T08:27:50Z</time>
      </trkpt>
      <trkpt lat="42.95158" lon="0.27333">
        <ele>1167.8000488281</ele>
        <time>2020-05-20T08:27:51Z</time>
      </trkpt>
      <trkpt lat="42.95158" lon="0.27333">
        <ele>1168.1999511719</ele>
        <time>2020-05-20T08:27:52Z</time>
      </trkpt>
      <trkpt lat="42.95158" lon="0.27333">
        <ele>1168.5999755859</ele>
        <time>2020-05-20T08:27:53Z</time>
      </trkpt>
      <trkpt lat="42.95152" lon="0.27336">
        <ele>1168.5999755859</ele>
        <time>2020-05-20T08:28:01Z</time>
      </trkpt>
      <trkpt lat="42.95144" lon="0.27342">
        <ele>1168.5999755859</ele>
        <time>2020-05-20T08:28:06Z</time>
      </trkpt>
      <trkpt lat="42.95136" lon="0.27344">
        <ele>1169.1999511719</ele>
        <time>2020-05-20T08:28:08Z</time>
      </trkpt>
      <trkpt lat="42.95132" lon="0.27345">
        <ele>1169.5999755859</ele>
        <time>2020-05-20T08:28:09Z</time>
      </trkpt>
      <trkpt lat="42.95128" lon="0.27346">
        <ele>1170</ele>
        <time>2020-05-20T08:28:10Z</time>
      </trkpt>
      <trkpt lat="42.95124" lon="0.27347">
        <ele>1170.4000244141</ele>
        <time>2020-05-20T08:28:11Z</time>
      </trkpt>
      <trkpt lat="42.95121" lon="0.27348">
        <ele>1170.8000488281</ele>
        <time>2020-05-20T08:28:12Z</time>
      </trkpt>
      <trkpt lat="42.95115" lon="0.27354">
        <ele>1170.8000488281</ele>
        <time>2020-05-20T08:28:17Z</time>
      </trkpt>
      <trkpt lat="42.95107" lon="0.27364">
        <ele>1170.8000488281</ele>
        <time>2020-05-20T08:28:25Z</time>
      </trkpt>
      <trkpt lat="42.95105" lon="0.27364">
        <ele>1171.5999755859</ele>
        <time>2020-05-20T08:28:27Z</time>
      </trkpt>
      <trkpt lat="42.95105" lon="0.27364">
        <ele>1172</ele>
        <time>2020-05-20T08:28:28Z</time>
      </trkpt>
      <trkpt lat="42.95103" lon="0.27364">
        <ele>1172.5999755859</ele>
        <time>2020-05-20T08:28:29Z</time>
      </trkpt>
      <trkpt lat="42.95102" lon="0.27364">
        <ele>1173</ele>
        <time>2020-05-20T08:28:30Z</time>
      </trkpt>
      <trkpt lat="42.95102" lon="0.27364">
        <ele>1173</ele>
        <time>2020-05-20T08:28:31Z</time>
      </trkpt>
      <trkpt lat="42.95097" lon="0.2737">
        <ele>1173</ele>
        <time>2020-05-20T08:28:37Z</time>
      </trkpt>
      <trkpt lat="42.95092" lon="0.27372">
        <ele>1173</ele>
        <time>2020-05-20T08:28:42Z</time>
      </trkpt>
      <trkpt lat="42.9509" lon="0.27374">
        <ele>1173.4000244141</ele>
        <time>2020-05-20T08:28:43Z</time>
      </trkpt>
      <trkpt lat="42.95088" lon="0.27374">
        <ele>1173.8000488281</ele>
        <time>2020-05-20T08:28:44Z</time>
      </trkpt>
      <trkpt lat="42.95088" lon="0.27374">
        <ele>1174.1999511719</ele>
        <time>2020-05-20T08:28:45Z</time>
      </trkpt>
      <trkpt lat="42.95087" lon="0.27375">
        <ele>1174.5999755859</ele>
        <time>2020-05-20T08:28:46Z</time>
      </trkpt>
      <trkpt lat="42.95084" lon="0.27376">
        <ele>1175</ele>
        <time>2020-05-20T08:28:47Z</time>
      </trkpt>
      <trkpt lat="42.95075" lon="0.27379">
        <ele>1175</ele>
        <time>2020-05-20T08:28:52Z</time>
      </trkpt>
      <trkpt lat="42.95071" lon="0.27378">
        <ele>1175.4000244141</ele>
        <time>2020-05-20T08:28:57Z</time>
      </trkpt>
      <trkpt lat="42.95069" lon="0.27378">
        <ele>1175.8000488281</ele>
        <time>2020-05-20T08:28:58Z</time>
      </trkpt>
      <trkpt lat="42.95068" lon="0.27377">
        <ele>1176.4000244141</ele>
        <time>2020-05-20T08:28:59Z</time>
      </trkpt>
      <trkpt lat="42.95066" lon="0.27377">
        <ele>1176.8000488281</ele>
        <time>2020-05-20T08:29:00Z</time>
      </trkpt>
      <trkpt lat="42.95065" lon="0.27377">
        <ele>1177.1999511719</ele>
        <time>2020-05-20T08:29:01Z</time>
      </trkpt>
      <trkpt lat="42.95062" lon="0.27376">
        <ele>1177.1999511719</ele>
        <time>2020-05-20T08:29:03Z</time>
      </trkpt>
      <trkpt lat="42.95052" lon="0.27376">
        <ele>1177.1999511719</ele>
        <time>2020-05-20T08:29:10Z</time>
      </trkpt>
      <trkpt lat="42.95048" lon="0.27375">
        <ele>1177.1999511719</ele>
        <time>2020-05-20T08:29:13Z</time>
      </trkpt>
      <trkpt lat="42.95045" lon="0.27375">
        <ele>1177.5999755859</ele>
        <time>2020-05-20T08:29:15Z</time>
      </trkpt>
      <trkpt lat="42.95043" lon="0.27375">
        <ele>1178</ele>
        <time>2020-05-20T08:29:16Z</time>
      </trkpt>
      <trkpt lat="42.95042" lon="0.27374">
        <ele>1178.5999755859</ele>
        <time>2020-05-20T08:29:17Z</time>
      </trkpt>
      <trkpt lat="42.9504" lon="0.27373">
        <ele>1179</ele>
        <time>2020-05-20T08:29:18Z</time>
      </trkpt>
      <trkpt lat="42.95039" lon="0.27373">
        <ele>1179.4000244141</ele>
        <time>2020-05-20T08:29:19Z</time>
      </trkpt>
      <trkpt lat="42.95033" lon="0.2737">
        <ele>1179.4000244141</ele>
        <time>2020-05-20T08:29:23Z</time>
      </trkpt>
      <trkpt lat="42.95024" lon="0.27368">
        <ele>1179.4000244141</ele>
        <time>2020-05-20T08:29:29Z</time>
      </trkpt>
      <trkpt lat="42.95016" lon="0.27368">
        <ele>1179.8000488281</ele>
        <time>2020-05-20T08:29:35Z</time>
      </trkpt>
      <trkpt lat="42.95015" lon="0.27368">
        <ele>1180.1999511719</ele>
        <time>2020-05-20T08:29:36Z</time>
      </trkpt>
      <trkpt lat="42.95013" lon="0.27367">
        <ele>1181</ele>
        <time>2020-05-20T08:29:37Z</time>
      </trkpt>
      <trkpt lat="42.95012" lon="0.27367">
        <ele>1181.4000244141</ele>
        <time>2020-05-20T08:29:38Z</time>
      </trkpt>
      <trkpt lat="42.95006" lon="0.27365">
        <ele>1181.4000244141</ele>
        <time>2020-05-20T08:29:42Z</time>
      </trkpt>
      <trkpt lat="42.94998" lon="0.27366">
        <ele>1181.8000488281</ele>
        <time>2020-05-20T08:29:48Z</time>
      </trkpt>
      <trkpt lat="42.94997" lon="0.27366">
        <ele>1182.4000244141</ele>
        <time>2020-05-20T08:29:49Z</time>
      </trkpt>
      <trkpt lat="42.94996" lon="0.27366">
        <ele>1182.8000488281</ele>
        <time>2020-05-20T08:29:50Z</time>
      </trkpt>
      <trkpt lat="42.94994" lon="0.27365">
        <ele>1183.1999511719</ele>
        <time>2020-05-20T08:29:51Z</time>
      </trkpt>
      <trkpt lat="42.94993" lon="0.27365">
        <ele>1183.5999755859</ele>
        <time>2020-05-20T08:29:52Z</time>
      </trkpt>
      <trkpt lat="42.9499" lon="0.27367">
        <ele>1183.5999755859</ele>
        <time>2020-05-20T08:29:54Z</time>
      </trkpt>
      <trkpt lat="42.94986" lon="0.27366">
        <ele>1183.5999755859</ele>
        <time>2020-05-20T08:29:56Z</time>
      </trkpt>
      <trkpt lat="42.94976" lon="0.27366">
        <ele>1183.5999755859</ele>
        <time>2020-05-20T08:30:01Z</time>
      </trkpt>
      <trkpt lat="42.94971" lon="0.27364">
        <ele>1183.5999755859</ele>
        <time>2020-05-20T08:30:05Z</time>
      </trkpt>
      <trkpt lat="42.94969" lon="0.27364">
        <ele>1184</ele>
        <time>2020-05-20T08:30:07Z</time>
      </trkpt>
      <trkpt lat="42.94967" lon="0.27364">
        <ele>1184.4000244141</ele>
        <time>2020-05-20T08:30:08Z</time>
      </trkpt>
      <trkpt lat="42.94966" lon="0.27363">
        <ele>1184.8000488281</ele>
        <time>2020-05-20T08:30:09Z</time>
      </trkpt>
      <trkpt lat="42.94964" lon="0.27364">
        <ele>1185.1999511719</ele>
        <time>2020-05-20T08:30:10Z</time>
      </trkpt>
      <trkpt lat="42.94962" lon="0.27364">
        <ele>1185.5999755859</ele>
        <time>2020-05-20T08:30:11Z</time>
      </trkpt>
      <trkpt lat="42.94958" lon="0.27363">
        <ele>1185.5999755859</ele>
        <time>2020-05-20T08:30:14Z</time>
      </trkpt>
      <trkpt lat="42.94957" lon="0.27363">
        <ele>1185.5999755859</ele>
        <time>2020-05-20T08:30:15Z</time>
      </trkpt>
      <trkpt lat="42.94947" lon="0.27359">
        <ele>1185.5999755859</ele>
        <time>2020-05-20T08:30:22Z</time>
      </trkpt>
      <trkpt lat="42.94946" lon="0.27358">
        <ele>1185.5999755859</ele>
        <time>2020-05-20T08:30:23Z</time>
      </trkpt>
      <trkpt lat="42.94943" lon="0.27356">
        <ele>1185.5999755859</ele>
        <time>2020-05-20T08:30:26Z</time>
      </trkpt>
      <trkpt lat="42.9494" lon="0.27354">
        <ele>1185.5999755859</ele>
        <time>2020-05-20T08:30:28Z</time>
      </trkpt>
      <trkpt lat="42.94937" lon="0.27352">
        <ele>1185.5999755859</ele>
        <time>2020-05-20T08:30:30Z</time>
      </trkpt>
      <trkpt lat="42.94934" lon="0.2735">
        <ele>1186.1999511719</ele>
        <time>2020-05-20T08:30:32Z</time>
      </trkpt>
      <trkpt lat="42.94933" lon="0.2735">
        <ele>1186.5999755859</ele>
        <time>2020-05-20T08:30:33Z</time>
      </trkpt>
      <trkpt lat="42.94931" lon="0.27348">
        <ele>1187</ele>
        <time>2020-05-20T08:30:34Z</time>
      </trkpt>
      <trkpt lat="42.9493" lon="0.27348">
        <ele>1187.4000244141</ele>
        <time>2020-05-20T08:30:35Z</time>
      </trkpt>
      <trkpt lat="42.94928" lon="0.27347">
        <ele>1187.8000488281</ele>
        <time>2020-05-20T08:30:36Z</time>
      </trkpt>
      <trkpt lat="42.94925" lon="0.27347">
        <ele>1187.8000488281</ele>
        <time>2020-05-20T08:30:37Z</time>
      </trkpt>
      <trkpt lat="42.94914" lon="0.27347">
        <ele>1187.8000488281</ele>
        <time>2020-05-20T08:30:43Z</time>
      </trkpt>
      <trkpt lat="42.94912" lon="0.27348">
        <ele>1187.8000488281</ele>
        <time>2020-05-20T08:30:44Z</time>
      </trkpt>
      <trkpt lat="42.94907" lon="0.27349">
        <ele>1187.8000488281</ele>
        <time>2020-05-20T08:30:48Z</time>
      </trkpt>
      <trkpt lat="42.94904" lon="0.27349">
        <ele>1187.8000488281</ele>
        <time>2020-05-20T08:30:50Z</time>
      </trkpt>
      <trkpt lat="42.94901" lon="0.27349">
        <ele>1187.8000488281</ele>
        <time>2020-05-20T08:30:52Z</time>
      </trkpt>
      <trkpt lat="42.949" lon="0.27349">
        <ele>1188.1999511719</ele>
        <time>2020-05-20T08:30:53Z</time>
      </trkpt>
      <trkpt lat="42.94898" lon="0.27349">
        <ele>1188.5999755859</ele>
        <time>2020-05-20T08:30:54Z</time>
      </trkpt>
      <trkpt lat="42.94897" lon="0.27349">
        <ele>1189</ele>
        <time>2020-05-20T08:30:55Z</time>
      </trkpt>
      <trkpt lat="42.94896" lon="0.27348">
        <ele>1189.4000244141</ele>
        <time>2020-05-20T08:30:56Z</time>
      </trkpt>
      <trkpt lat="42.94894" lon="0.27348">
        <ele>1189.8000488281</ele>
        <time>2020-05-20T08:30:57Z</time>
      </trkpt>
      <trkpt lat="42.9489" lon="0.27348">
        <ele>1189.8000488281</ele>
        <time>2020-05-20T08:31:00Z</time>
      </trkpt>
      <trkpt lat="42.94884" lon="0.27345">
        <ele>1189.8000488281</ele>
        <time>2020-05-20T08:31:05Z</time>
      </trkpt>
      <trkpt lat="42.94883" lon="0.27344">
        <ele>1189.8000488281</ele>
        <time>2020-05-20T08:31:06Z</time>
      </trkpt>
      <trkpt lat="42.94877" lon="0.27345">
        <ele>1189.8000488281</ele>
        <time>2020-05-20T08:31:10Z</time>
      </trkpt>
      <trkpt lat="42.94873" lon="0.27346">
        <ele>1190.1999511719</ele>
        <time>2020-05-20T08:31:12Z</time>
      </trkpt>
      <trkpt lat="42.94872" lon="0.27347">
        <ele>1190.5999755859</ele>
        <time>2020-05-20T08:31:13Z</time>
      </trkpt>
      <trkpt lat="42.9487" lon="0.27348">
        <ele>1191</ele>
        <time>2020-05-20T08:31:14Z</time>
      </trkpt>
      <trkpt lat="42.94869" lon="0.27349">
        <ele>1191.4000244141</ele>
        <time>2020-05-20T08:31:15Z</time>
      </trkpt>
      <trkpt lat="42.94869" lon="0.27349">
        <ele>1191.8000488281</ele>
        <time>2020-05-20T08:31:16Z</time>
      </trkpt>
      <trkpt lat="42.94861" lon="0.27352">
        <ele>1191.8000488281</ele>
        <time>2020-05-20T08:31:22Z</time>
      </trkpt>
      <trkpt lat="42.94851" lon="0.27355">
        <ele>1191.8000488281</ele>
        <time>2020-05-20T08:31:27Z</time>
      </trkpt>
      <trkpt lat="42.94849" lon="0.27355">
        <ele>1191.8000488281</ele>
        <time>2020-05-20T08:31:28Z</time>
      </trkpt>
      <trkpt lat="42.94847" lon="0.27355">
        <ele>1192.4000244141</ele>
        <time>2020-05-20T08:31:29Z</time>
      </trkpt>
      <trkpt lat="42.94846" lon="0.27356">
        <ele>1192.8000488281</ele>
        <time>2020-05-20T08:31:30Z</time>
      </trkpt>
      <trkpt lat="42.94845" lon="0.27357">
        <ele>1193.1999511719</ele>
        <time>2020-05-20T08:31:31Z</time>
      </trkpt>
      <trkpt lat="42.94843" lon="0.27358">
        <ele>1193.5999755859</ele>
        <time>2020-05-20T08:31:32Z</time>
      </trkpt>
      <trkpt lat="42.94842" lon="0.27358">
        <ele>1194</ele>
        <time>2020-05-20T08:31:33Z</time>
      </trkpt>
      <trkpt lat="42.9484" lon="0.27359">
        <ele>1194</ele>
        <time>2020-05-20T08:31:35Z</time>
      </trkpt>
      <trkpt lat="42.94836" lon="0.27363">
        <ele>1194</ele>
        <time>2020-05-20T08:31:39Z</time>
      </trkpt>
      <trkpt lat="42.94835" lon="0.27367">
        <ele>1194</ele>
        <time>2020-05-20T08:31:42Z</time>
      </trkpt>
      <trkpt lat="42.94831" lon="0.27372">
        <ele>1194.4000244141</ele>
        <time>2020-05-20T08:31:46Z</time>
      </trkpt>
      <trkpt lat="42.9483" lon="0.27373">
        <ele>1194.8000488281</ele>
        <time>2020-05-20T08:31:47Z</time>
      </trkpt>
      <trkpt lat="42.94829" lon="0.27375">
        <ele>1195.1999511719</ele>
        <time>2020-05-20T08:31:48Z</time>
      </trkpt>
      <trkpt lat="42.94827" lon="0.27376">
        <ele>1195.8000488281</ele>
        <time>2020-05-20T08:31:49Z</time>
      </trkpt>
      <trkpt lat="42.94826" lon="0.27378">
        <ele>1196.1999511719</ele>
        <time>2020-05-20T08:31:50Z</time>
      </trkpt>
      <trkpt lat="42.94823" lon="0.27382">
        <ele>1196.1999511719</ele>
        <time>2020-05-20T08:31:52Z</time>
      </trkpt>
      <trkpt lat="42.94815" lon="0.274">
        <ele>1196.1999511719</ele>
        <time>2020-05-20T08:32:01Z</time>
      </trkpt>
      <trkpt lat="42.94814" lon="0.27401">
        <ele>1196.1999511719</ele>
        <time>2020-05-20T08:32:02Z</time>
      </trkpt>
      <trkpt lat="42.94811" lon="0.27409">
        <ele>1197</ele>
        <time>2020-05-20T08:32:06Z</time>
      </trkpt>
      <trkpt lat="42.94811" lon="0.27411">
        <ele>1197.4000244141</ele>
        <time>2020-05-20T08:32:07Z</time>
      </trkpt>
      <trkpt lat="42.9481" lon="0.27413">
        <ele>1197.8000488281</ele>
        <time>2020-05-20T08:32:08Z</time>
      </trkpt>
      <trkpt lat="42.94809" lon="0.27414">
        <ele>1198.1999511719</ele>
        <time>2020-05-20T08:32:09Z</time>
      </trkpt>
      <trkpt lat="42.94806" lon="0.27421">
        <ele>1198.1999511719</ele>
        <time>2020-05-20T08:32:13Z</time>
      </trkpt>
      <trkpt lat="42.94803" lon="0.2743">
        <ele>1198.1999511719</ele>
        <time>2020-05-20T08:32:18Z</time>
      </trkpt>
      <trkpt lat="42.94802" lon="0.27433">
        <ele>1198.1999511719</ele>
        <time>2020-05-20T08:32:20Z</time>
      </trkpt>
      <trkpt lat="42.94801" lon="0.27438">
        <ele>1198.5999755859</ele>
        <time>2020-05-20T08:32:23Z</time>
      </trkpt>
      <trkpt lat="42.94801" lon="0.2744">
        <ele>1199</ele>
        <time>2020-05-20T08:32:24Z</time>
      </trkpt>
      <trkpt lat="42.94801" lon="0.27442">
        <ele>1199.4000244141</ele>
        <time>2020-05-20T08:32:25Z</time>
      </trkpt>
      <trkpt lat="42.94801" lon="0.27444">
        <ele>1199.8000488281</ele>
        <time>2020-05-20T08:32:26Z</time>
      </trkpt>
      <trkpt lat="42.94802" lon="0.27447">
        <ele>1200.1999511719</ele>
        <time>2020-05-20T08:32:27Z</time>
      </trkpt>
      <trkpt lat="42.94801" lon="0.27463">
        <ele>1200.1999511719</ele>
        <time>2020-05-20T08:32:33Z</time>
      </trkpt>
      <trkpt lat="42.94798" lon="0.27481">
        <ele>1200.5999755859</ele>
        <time>2020-05-20T08:32:40Z</time>
      </trkpt>
      <trkpt lat="42.94798" lon="0.27483">
        <ele>1201.1999511719</ele>
        <time>2020-05-20T08:32:41Z</time>
      </trkpt>
      <trkpt lat="42.94798" lon="0.27486">
        <ele>1201.5999755859</ele>
        <time>2020-05-20T08:32:42Z</time>
      </trkpt>
      <trkpt lat="42.94797" lon="0.27488">
        <ele>1202</ele>
        <time>2020-05-20T08:32:43Z</time>
      </trkpt>
      <trkpt lat="42.94797" lon="0.27491">
        <ele>1202.4000244141</ele>
        <time>2020-05-20T08:32:44Z</time>
      </trkpt>
      <trkpt lat="42.94798" lon="0.27496">
        <ele>1202.4000244141</ele>
        <time>2020-05-20T08:32:46Z</time>
      </trkpt>
      <trkpt lat="42.94802" lon="0.27512">
        <ele>1202.4000244141</ele>
        <time>2020-05-20T08:32:50Z</time>
      </trkpt>
      <trkpt lat="42.94804" lon="0.27517">
        <ele>1202.4000244141</ele>
        <time>2020-05-20T08:32:51Z</time>
      </trkpt>
      <trkpt lat="42.94807" lon="0.27523">
        <ele>1202</ele>
        <time>2020-05-20T08:32:52Z</time>
      </trkpt>
      <trkpt lat="42.94809" lon="0.27528">
        <ele>1201.4000244141</ele>
        <time>2020-05-20T08:32:53Z</time>
      </trkpt>
      <trkpt lat="42.94811" lon="0.27532">
        <ele>1201</ele>
        <time>2020-05-20T08:32:54Z</time>
      </trkpt>
      <trkpt lat="42.94812" lon="0.27537">
        <ele>1200.1999511719</ele>
        <time>2020-05-20T08:32:55Z</time>
      </trkpt>
      <trkpt lat="42.94813" lon="0.27541">
        <ele>1200.1999511719</ele>
        <time>2020-05-20T08:32:56Z</time>
      </trkpt>
      <trkpt lat="42.94817" lon="0.27555">
        <ele>1199.8000488281</ele>
        <time>2020-05-20T08:33:00Z</time>
      </trkpt>
      <trkpt lat="42.94816" lon="0.27558">
        <ele>1199.4000244141</ele>
        <time>2020-05-20T08:33:01Z</time>
      </trkpt>
      <trkpt lat="42.94816" lon="0.27561">
        <ele>1199</ele>
        <time>2020-05-20T08:33:02Z</time>
      </trkpt>
      <trkpt lat="42.94815" lon="0.27563">
        <ele>1198.5999755859</ele>
        <time>2020-05-20T08:33:03Z</time>
      </trkpt>
      <trkpt lat="42.94815" lon="0.27566">
        <ele>1198.1999511719</ele>
        <time>2020-05-20T08:33:04Z</time>
      </trkpt>
      <trkpt lat="42.94817" lon="0.27577">
        <ele>1198.1999511719</ele>
        <time>2020-05-20T08:33:06Z</time>
      </trkpt>
      <trkpt lat="42.94817" lon="0.27582">
        <ele>1198.1999511719</ele>
        <time>2020-05-20T08:33:07Z</time>
      </trkpt>
      <trkpt lat="42.94817" lon="0.27593">
        <ele>1198.1999511719</ele>
        <time>2020-05-20T08:33:10Z</time>
      </trkpt>
      <trkpt lat="42.94818" lon="0.27608">
        <ele>1198.1999511719</ele>
        <time>2020-05-20T08:33:15Z</time>
      </trkpt>
      <trkpt lat="42.9482" lon="0.27623">
        <ele>1199</ele>
        <time>2020-05-20T08:33:20Z</time>
      </trkpt>
      <trkpt lat="42.94821" lon="0.27626">
        <ele>1199.4000244141</ele>
        <time>2020-05-20T08:33:21Z</time>
      </trkpt>
      <trkpt lat="42.94822" lon="0.27629">
        <ele>1199.8000488281</ele>
        <time>2020-05-20T08:33:22Z</time>
      </trkpt>
      <trkpt lat="42.94825" lon="0.27634">
        <ele>1200.1999511719</ele>
        <time>2020-05-20T08:33:23Z</time>
      </trkpt>
      <trkpt lat="42.94827" lon="0.27653">
        <ele>1200.1999511719</ele>
        <time>2020-05-20T08:33:27Z</time>
      </trkpt>
      <trkpt lat="42.94826" lon="0.27659">
        <ele>1199.8000488281</ele>
        <time>2020-05-20T08:33:28Z</time>
      </trkpt>
      <trkpt lat="42.94825" lon="0.27662">
        <ele>1199.4000244141</ele>
        <time>2020-05-20T08:33:29Z</time>
      </trkpt>
      <trkpt lat="42.94824" lon="0.27665">
        <ele>1199</ele>
        <time>2020-05-20T08:33:30Z</time>
      </trkpt>
      <trkpt lat="42.94822" lon="0.27668">
        <ele>1198.5999755859</ele>
        <time>2020-05-20T08:33:31Z</time>
      </trkpt>
      <trkpt lat="42.94821" lon="0.2767">
        <ele>1198.1999511719</ele>
        <time>2020-05-20T08:33:32Z</time>
      </trkpt>
      <trkpt lat="42.94815" lon="0.27681">
        <ele>1198.1999511719</ele>
        <time>2020-05-20T08:33:37Z</time>
      </trkpt>
      <trkpt lat="42.94813" lon="0.27686">
        <ele>1198.5999755859</ele>
        <time>2020-05-20T08:33:39Z</time>
      </trkpt>
      <trkpt lat="42.94812" lon="0.27689">
        <ele>1199</ele>
        <time>2020-05-20T08:33:40Z</time>
      </trkpt>
      <trkpt lat="42.94811" lon="0.27692">
        <ele>1199.4000244141</ele>
        <time>2020-05-20T08:33:41Z</time>
      </trkpt>
      <trkpt lat="42.94809" lon="0.27694">
        <ele>1199.8000488281</ele>
        <time>2020-05-20T08:33:42Z</time>
      </trkpt>
      <trkpt lat="42.94808" lon="0.27696">
        <ele>1200.4000244141</ele>
        <time>2020-05-20T08:33:43Z</time>
      </trkpt>
      <trkpt lat="42.94801" lon="0.27704">
        <ele>1200.4000244141</ele>
        <time>2020-05-20T08:33:49Z</time>
      </trkpt>
      <trkpt lat="42.94799" lon="0.27707">
        <ele>1200.8000488281</ele>
        <time>2020-05-20T08:33:51Z</time>
      </trkpt>
      <trkpt lat="42.94798" lon="0.27708">
        <ele>1201.1999511719</ele>
        <time>2020-05-20T08:33:52Z</time>
      </trkpt>
      <trkpt lat="42.94796" lon="0.2771">
        <ele>1201.5999755859</ele>
        <time>2020-05-20T08:33:53Z</time>
      </trkpt>
      <trkpt lat="42.94794" lon="0.27711">
        <ele>1202</ele>
        <time>2020-05-20T08:33:54Z</time>
      </trkpt>
      <trkpt lat="42.94793" lon="0.27713">
        <ele>1202.4000244141</ele>
        <time>2020-05-20T08:33:55Z</time>
      </trkpt>
      <trkpt lat="42.94789" lon="0.2772">
        <ele>1202.4000244141</ele>
        <time>2020-05-20T08:33:59Z</time>
      </trkpt>
      <trkpt lat="42.94787" lon="0.27722">
        <ele>1202.4000244141</ele>
        <time>2020-05-20T08:34:00Z</time>
      </trkpt>
      <trkpt lat="42.94782" lon="0.27731">
        <ele>1202.4000244141</ele>
        <time>2020-05-20T08:34:04Z</time>
      </trkpt>
      <trkpt lat="42.94779" lon="0.27738">
        <ele>1202.8000488281</ele>
        <time>2020-05-20T08:34:07Z</time>
      </trkpt>
      <trkpt lat="42.94778" lon="0.2774">
        <ele>1203.1999511719</ele>
        <time>2020-05-20T08:34:08Z</time>
      </trkpt>
      <trkpt lat="42.94777" lon="0.27742">
        <ele>1204</ele>
        <time>2020-05-20T08:34:09Z</time>
      </trkpt>
      <trkpt lat="42.94776" lon="0.27744">
        <ele>1204.4000244141</ele>
        <time>2020-05-20T08:34:10Z</time>
      </trkpt>
      <trkpt lat="42.94775" lon="0.27745">
        <ele>1204.4000244141</ele>
        <time>2020-05-20T08:34:11Z</time>
      </trkpt>
      <trkpt lat="42.9477" lon="0.27757">
        <ele>1204.4000244141</ele>
        <time>2020-05-20T08:34:17Z</time>
      </trkpt>
      <trkpt lat="42.94767" lon="0.27761">
        <ele>1204.8000488281</ele>
        <time>2020-05-20T08:34:20Z</time>
      </trkpt>
      <trkpt lat="42.94766" lon="0.27762">
        <ele>1205.1999511719</ele>
        <time>2020-05-20T08:34:21Z</time>
      </trkpt>
      <trkpt lat="42.94765" lon="0.27764">
        <ele>1205.5999755859</ele>
        <time>2020-05-20T08:34:22Z</time>
      </trkpt>
      <trkpt lat="42.94764" lon="0.27765">
        <ele>1206</ele>
        <time>2020-05-20T08:34:23Z</time>
      </trkpt>
      <trkpt lat="42.94763" lon="0.27767">
        <ele>1206.4000244141</ele>
        <time>2020-05-20T08:34:24Z</time>
      </trkpt>
      <trkpt lat="42.94758" lon="0.27777">
        <ele>1206.4000244141</ele>
        <time>2020-05-20T08:34:28Z</time>
      </trkpt>
      <trkpt lat="42.94756" lon="0.27781">
        <ele>1206.4000244141</ele>
        <time>2020-05-20T08:34:30Z</time>
      </trkpt>
      <trkpt lat="42.94753" lon="0.27784">
        <ele>1206.4000244141</ele>
        <time>2020-05-20T08:34:33Z</time>
      </trkpt>
      <trkpt lat="42.94751" lon="0.27786">
        <ele>1206.8000488281</ele>
        <time>2020-05-20T08:34:35Z</time>
      </trkpt>
      <trkpt lat="42.9475" lon="0.27787">
        <ele>1207.1999511719</ele>
        <time>2020-05-20T08:34:36Z</time>
      </trkpt>
      <trkpt lat="42.94749" lon="0.27789">
        <ele>1207.5999755859</ele>
        <time>2020-05-20T08:34:37Z</time>
      </trkpt>
      <trkpt lat="42.94748" lon="0.27791">
        <ele>1208</ele>
        <time>2020-05-20T08:34:38Z</time>
      </trkpt>
      <trkpt lat="42.94746" lon="0.27792">
        <ele>1208.4000244141</ele>
        <time>2020-05-20T08:34:39Z</time>
      </trkpt>
      <trkpt lat="42.94744" lon="0.27793">
        <ele>1208.4000244141</ele>
        <time>2020-05-20T08:34:40Z</time>
      </trkpt>
      <trkpt lat="42.94736" lon="0.278">
        <ele>1208.4000244141</ele>
        <time>2020-05-20T08:34:45Z</time>
      </trkpt>
      <trkpt lat="42.94726" lon="0.27811">
        <ele>1208.4000244141</ele>
        <time>2020-05-20T08:34:50Z</time>
      </trkpt>
      <trkpt lat="42.94719" lon="0.27815">
        <ele>1208.4000244141</ele>
        <time>2020-05-20T08:34:52Z</time>
      </trkpt>
      <trkpt lat="42.94711" lon="0.27818">
        <ele>1208.4000244141</ele>
        <time>2020-05-20T08:34:54Z</time>
      </trkpt>
      <trkpt lat="42.94701" lon="0.27822">
        <ele>1208</ele>
        <time>2020-05-20T08:34:56Z</time>
      </trkpt>
      <trkpt lat="42.94697" lon="0.27824">
        <ele>1207.5999755859</ele>
        <time>2020-05-20T08:34:57Z</time>
      </trkpt>
      <trkpt lat="42.94691" lon="0.27825">
        <ele>1207</ele>
        <time>2020-05-20T08:34:58Z</time>
      </trkpt>
      <trkpt lat="42.94687" lon="0.27826">
        <ele>1206.1999511719</ele>
        <time>2020-05-20T08:34:59Z</time>
      </trkpt>
      <trkpt lat="42.94678" lon="0.27827">
        <ele>1205.5999755859</ele>
        <time>2020-05-20T08:35:01Z</time>
      </trkpt>
      <trkpt lat="42.94675" lon="0.27828">
        <ele>1205.1999511719</ele>
        <time>2020-05-20T08:35:02Z</time>
      </trkpt>
      <trkpt lat="42.94671" lon="0.2783">
        <ele>1204.8000488281</ele>
        <time>2020-05-20T08:35:03Z</time>
      </trkpt>
      <trkpt lat="42.94666" lon="0.27832">
        <ele>1204.4000244141</ele>
        <time>2020-05-20T08:35:04Z</time>
      </trkpt>
      <trkpt lat="42.94662" lon="0.27834">
        <ele>1203.8000488281</ele>
        <time>2020-05-20T08:35:05Z</time>
      </trkpt>
      <trkpt lat="42.94659" lon="0.27837">
        <ele>1203.4000244141</ele>
        <time>2020-05-20T08:35:06Z</time>
      </trkpt>
      <trkpt lat="42.94654" lon="0.27839">
        <ele>1203</ele>
        <time>2020-05-20T08:35:07Z</time>
      </trkpt>
      <trkpt lat="42.9465" lon="0.27841">
        <ele>1202.4000244141</ele>
        <time>2020-05-20T08:35:08Z</time>
      </trkpt>
      <trkpt lat="42.94646" lon="0.27842">
        <ele>1202</ele>
        <time>2020-05-20T08:35:09Z</time>
      </trkpt>
      <trkpt lat="42.94642" lon="0.27842">
        <ele>1201.4000244141</ele>
        <time>2020-05-20T08:35:10Z</time>
      </trkpt>
      <trkpt lat="42.94638" lon="0.27843">
        <ele>1200.8000488281</ele>
        <time>2020-05-20T08:35:11Z</time>
      </trkpt>
      <trkpt lat="42.94634" lon="0.27844">
        <ele>1200.1999511719</ele>
        <time>2020-05-20T08:35:12Z</time>
      </trkpt>
      <trkpt lat="42.9463" lon="0.27845">
        <ele>1199.5999755859</ele>
        <time>2020-05-20T08:35:13Z</time>
      </trkpt>
      <trkpt lat="42.94628" lon="0.27847">
        <ele>1198.8000488281</ele>
        <time>2020-05-20T08:35:14Z</time>
      </trkpt>
      <trkpt lat="42.94625" lon="0.27848">
        <ele>1198.1999511719</ele>
        <time>2020-05-20T08:35:15Z</time>
      </trkpt>
      <trkpt lat="42.94621" lon="0.27849">
        <ele>1197.4000244141</ele>
        <time>2020-05-20T08:35:16Z</time>
      </trkpt>
      <trkpt lat="42.94618" lon="0.27851">
        <ele>1196.5999755859</ele>
        <time>2020-05-20T08:35:17Z</time>
      </trkpt>
      <trkpt lat="42.94614" lon="0.27854">
        <ele>1196</ele>
        <time>2020-05-20T08:35:18Z</time>
      </trkpt>
      <trkpt lat="42.94611" lon="0.27857">
        <ele>1195.1999511719</ele>
        <time>2020-05-20T08:35:19Z</time>
      </trkpt>
      <trkpt lat="42.94608" lon="0.2786">
        <ele>1194.4000244141</ele>
        <time>2020-05-20T08:35:20Z</time>
      </trkpt>
      <trkpt lat="42.94605" lon="0.27862">
        <ele>1193.8000488281</ele>
        <time>2020-05-20T08:35:21Z</time>
      </trkpt>
      <trkpt lat="42.94602" lon="0.27866">
        <ele>1193</ele>
        <time>2020-05-20T08:35:22Z</time>
      </trkpt>
      <trkpt lat="42.946" lon="0.27869">
        <ele>1192.4000244141</ele>
        <time>2020-05-20T08:35:23Z</time>
      </trkpt>
      <trkpt lat="42.94598" lon="0.27873">
        <ele>1191.1999511719</ele>
        <time>2020-05-20T08:35:24Z</time>
      </trkpt>
      <trkpt lat="42.94595" lon="0.27877">
        <ele>1190.5999755859</ele>
        <time>2020-05-20T08:35:25Z</time>
      </trkpt>
      <trkpt lat="42.94593" lon="0.27882">
        <ele>1190</ele>
        <time>2020-05-20T08:35:26Z</time>
      </trkpt>
      <trkpt lat="42.94587" lon="0.27896">
        <ele>1189.5999755859</ele>
        <time>2020-05-20T08:35:28Z</time>
      </trkpt>
      <trkpt lat="42.94585" lon="0.27903">
        <ele>1189</ele>
        <time>2020-05-20T08:35:29Z</time>
      </trkpt>
      <trkpt lat="42.94585" lon="0.27909">
        <ele>1188.5999755859</ele>
        <time>2020-05-20T08:35:30Z</time>
      </trkpt>
      <trkpt lat="42.94585" lon="0.27914">
        <ele>1188.1999511719</ele>
        <time>2020-05-20T08:35:31Z</time>
      </trkpt>
      <trkpt lat="42.94587" lon="0.27919">
        <ele>1187.8000488281</ele>
        <time>2020-05-20T08:35:32Z</time>
      </trkpt>
      <trkpt lat="42.94589" lon="0.27922">
        <ele>1187.8000488281</ele>
        <time>2020-05-20T08:35:33Z</time>
      </trkpt>
      <trkpt lat="42.94593" lon="0.2793">
        <ele>1187.1999511719</ele>
        <time>2020-05-20T08:35:35Z</time>
      </trkpt>
      <trkpt lat="42.94595" lon="0.27934">
        <ele>1186.8000488281</ele>
        <time>2020-05-20T08:35:36Z</time>
      </trkpt>
      <trkpt lat="42.94597" lon="0.27937">
        <ele>1186.4000244141</ele>
        <time>2020-05-20T08:35:37Z</time>
      </trkpt>
      <trkpt lat="42.94598" lon="0.2794">
        <ele>1185.8000488281</ele>
        <time>2020-05-20T08:35:38Z</time>
      </trkpt>
      <trkpt lat="42.946" lon="0.27944">
        <ele>1185.1999511719</ele>
        <time>2020-05-20T08:35:39Z</time>
      </trkpt>
      <trkpt lat="42.94602" lon="0.27949">
        <ele>1184.8000488281</ele>
        <time>2020-05-20T08:35:40Z</time>
      </trkpt>
      <trkpt lat="42.94603" lon="0.27953">
        <ele>1184.1999511719</ele>
        <time>2020-05-20T08:35:41Z</time>
      </trkpt>
      <trkpt lat="42.94605" lon="0.27957">
        <ele>1183.5999755859</ele>
        <time>2020-05-20T08:35:42Z</time>
      </trkpt>
      <trkpt lat="42.94607" lon="0.27961">
        <ele>1183</ele>
        <time>2020-05-20T08:35:43Z</time>
      </trkpt>
      <trkpt lat="42.94608" lon="0.27967">
        <ele>1182.4000244141</ele>
        <time>2020-05-20T08:35:44Z</time>
      </trkpt>
      <trkpt lat="42.94608" lon="0.27972">
        <ele>1181.8000488281</ele>
        <time>2020-05-20T08:35:45Z</time>
      </trkpt>
      <trkpt lat="42.94609" lon="0.27977">
        <ele>1181.1999511719</ele>
        <time>2020-05-20T08:35:46Z</time>
      </trkpt>
      <trkpt lat="42.9461" lon="0.27983">
        <ele>1180.4000244141</ele>
        <time>2020-05-20T08:35:47Z</time>
      </trkpt>
      <trkpt lat="42.94611" lon="0.27987">
        <ele>1179.5999755859</ele>
        <time>2020-05-20T08:35:48Z</time>
      </trkpt>
      <trkpt lat="42.94613" lon="0.27992">
        <ele>1179</ele>
        <time>2020-05-20T08:35:49Z</time>
      </trkpt>
      <trkpt lat="42.94616" lon="0.27999">
        <ele>1178.5999755859</ele>
        <time>2020-05-20T08:35:50Z</time>
      </trkpt>
      <trkpt lat="42.9462" lon="0.28005">
        <ele>1178</ele>
        <time>2020-05-20T08:35:51Z</time>
      </trkpt>
      <trkpt lat="42.94623" lon="0.2801">
        <ele>1177.4000244141</ele>
        <time>2020-05-20T08:35:52Z</time>
      </trkpt>
      <trkpt lat="42.94627" lon="0.28016">
        <ele>1176.8000488281</ele>
        <time>2020-05-20T08:35:53Z</time>
      </trkpt>
      <trkpt lat="42.9463" lon="0.28021">
        <ele>1176.1999511719</ele>
        <time>2020-05-20T08:35:54Z</time>
      </trkpt>
      <trkpt lat="42.94633" lon="0.28026">
        <ele>1175.5999755859</ele>
        <time>2020-05-20T08:35:55Z</time>
      </trkpt>
      <trkpt lat="42.94637" lon="0.2803">
        <ele>1175</ele>
        <time>2020-05-20T08:35:56Z</time>
      </trkpt>
      <trkpt lat="42.9464" lon="0.28034">
        <ele>1174.5999755859</ele>
        <time>2020-05-20T08:35:57Z</time>
      </trkpt>
      <trkpt lat="42.94643" lon="0.28038">
        <ele>1174.1999511719</ele>
        <time>2020-05-20T08:35:58Z</time>
      </trkpt>
      <trkpt lat="42.94647" lon="0.28044">
        <ele>1173.8000488281</ele>
        <time>2020-05-20T08:35:59Z</time>
      </trkpt>
      <trkpt lat="42.9465" lon="0.2805">
        <ele>1173</ele>
        <time>2020-05-20T08:36:00Z</time>
      </trkpt>
      <trkpt lat="42.94653" lon="0.28055">
        <ele>1172.4000244141</ele>
        <time>2020-05-20T08:36:01Z</time>
      </trkpt>
      <trkpt lat="42.94656" lon="0.28061">
        <ele>1171.8000488281</ele>
        <time>2020-05-20T08:36:02Z</time>
      </trkpt>
      <trkpt lat="42.94659" lon="0.28065">
        <ele>1171</ele>
        <time>2020-05-20T08:36:03Z</time>
      </trkpt>
      <trkpt lat="42.94661" lon="0.28069">
        <ele>1170.4000244141</ele>
        <time>2020-05-20T08:36:04Z</time>
      </trkpt>
      <trkpt lat="42.94663" lon="0.28071">
        <ele>1169.8000488281</ele>
        <time>2020-05-20T08:36:05Z</time>
      </trkpt>
      <trkpt lat="42.94664" lon="0.28074">
        <ele>1169</ele>
        <time>2020-05-20T08:36:06Z</time>
      </trkpt>
      <trkpt lat="42.94664" lon="0.28076">
        <ele>1168.4000244141</ele>
        <time>2020-05-20T08:36:07Z</time>
      </trkpt>
      <trkpt lat="42.94664" lon="0.28078">
        <ele>1168.4000244141</ele>
        <time>2020-05-20T08:36:08Z</time>
      </trkpt>
      <trkpt lat="42.94663" lon="0.28081">
        <ele>1168.4000244141</ele>
        <time>2020-05-20T08:36:09Z</time>
      </trkpt>
      <trkpt lat="42.94658" lon="0.28093">
        <ele>1168.4000244141</ele>
        <time>2020-05-20T08:36:13Z</time>
      </trkpt>
      <trkpt lat="42.94652" lon="0.28098">
        <ele>1168.4000244141</ele>
        <time>2020-05-20T08:36:18Z</time>
      </trkpt>
      <trkpt lat="42.94651" lon="0.28099">
        <ele>1168.4000244141</ele>
        <time>2020-05-20T08:36:19Z</time>
      </trkpt>
      <trkpt lat="42.94646" lon="0.28104">
        <ele>1168.8000488281</ele>
        <time>2020-05-20T08:36:24Z</time>
      </trkpt>
      <trkpt lat="42.94645" lon="0.28104">
        <ele>1169.1999511719</ele>
        <time>2020-05-20T08:36:25Z</time>
      </trkpt>
      <trkpt lat="42.94644" lon="0.28105">
        <ele>1169.5999755859</ele>
        <time>2020-05-20T08:36:26Z</time>
      </trkpt>
      <trkpt lat="42.94642" lon="0.28106">
        <ele>1170</ele>
        <time>2020-05-20T08:36:27Z</time>
      </trkpt>
      <trkpt lat="42.94641" lon="0.28107">
        <ele>1170.4000244141</ele>
        <time>2020-05-20T08:36:28Z</time>
      </trkpt>
      <trkpt lat="42.94639" lon="0.28109">
        <ele>1170.4000244141</ele>
        <time>2020-05-20T08:36:30Z</time>
      </trkpt>
      <trkpt lat="42.94636" lon="0.2811">
        <ele>1170.4000244141</ele>
        <time>2020-05-20T08:36:32Z</time>
      </trkpt>
      <trkpt lat="42.94626" lon="0.28117">
        <ele>1170.4000244141</ele>
        <time>2020-05-20T08:36:36Z</time>
      </trkpt>
      <trkpt lat="42.94614" lon="0.28126">
        <ele>1170.4000244141</ele>
        <time>2020-05-20T08:36:41Z</time>
      </trkpt>
      <trkpt lat="42.94601" lon="0.28132">
        <ele>1170</ele>
        <time>2020-05-20T08:36:44Z</time>
      </trkpt>
      <trkpt lat="42.94597" lon="0.28135">
        <ele>1169.5999755859</ele>
        <time>2020-05-20T08:36:45Z</time>
      </trkpt>
      <trkpt lat="42.94593" lon="0.28138">
        <ele>1169</ele>
        <time>2020-05-20T08:36:46Z</time>
      </trkpt>
      <trkpt lat="42.94588" lon="0.28141">
        <ele>1168.5999755859</ele>
        <time>2020-05-20T08:36:47Z</time>
      </trkpt>
      <trkpt lat="42.94584" lon="0.28143">
        <ele>1168.1999511719</ele>
        <time>2020-05-20T08:36:48Z</time>
      </trkpt>
      <trkpt lat="42.94579" lon="0.28146">
        <ele>1167.8000488281</ele>
        <time>2020-05-20T08:36:49Z</time>
      </trkpt>
      <trkpt lat="42.94574" lon="0.28148">
        <ele>1167.4000244141</ele>
        <time>2020-05-20T08:36:50Z</time>
      </trkpt>
      <trkpt lat="42.94569" lon="0.28151">
        <ele>1166.8000488281</ele>
        <time>2020-05-20T08:36:51Z</time>
      </trkpt>
      <trkpt lat="42.94565" lon="0.28154">
        <ele>1166.4000244141</ele>
        <time>2020-05-20T08:36:52Z</time>
      </trkpt>
      <trkpt lat="42.94562" lon="0.28157">
        <ele>1166</ele>
        <time>2020-05-20T08:36:53Z</time>
      </trkpt>
      <trkpt lat="42.94559" lon="0.2816">
        <ele>1166</ele>
        <time>2020-05-20T08:36:54Z</time>
      </trkpt>
      <trkpt lat="42.94552" lon="0.28171">
        <ele>1166</ele>
        <time>2020-05-20T08:36:59Z</time>
      </trkpt>
      <trkpt lat="42.9455" lon="0.28173">
        <ele>1166</ele>
        <time>2020-05-20T08:37:00Z</time>
      </trkpt>
      <trkpt lat="42.94544" lon="0.28184">
        <ele>1166</ele>
        <time>2020-05-20T08:37:04Z</time>
      </trkpt>
      <trkpt lat="42.94535" lon="0.28199">
        <ele>1166</ele>
        <time>2020-05-20T08:37:10Z</time>
      </trkpt>
      <trkpt lat="42.94531" lon="0.28205">
        <ele>1166.4000244141</ele>
        <time>2020-05-20T08:37:13Z</time>
      </trkpt>
      <trkpt lat="42.9453" lon="0.28207">
        <ele>1166.8000488281</ele>
        <time>2020-05-20T08:37:14Z</time>
      </trkpt>
      <trkpt lat="42.94529" lon="0.2821">
        <ele>1167.4000244141</ele>
        <time>2020-05-20T08:37:15Z</time>
      </trkpt>
      <trkpt lat="42.94528" lon="0.28212">
        <ele>1167.8000488281</ele>
        <time>2020-05-20T08:37:16Z</time>
      </trkpt>
      <trkpt lat="42.94527" lon="0.28214">
        <ele>1168.1999511719</ele>
        <time>2020-05-20T08:37:17Z</time>
      </trkpt>
      <trkpt lat="42.94519" lon="0.28228">
        <ele>1168.1999511719</ele>
        <time>2020-05-20T08:37:23Z</time>
      </trkpt>
      <trkpt lat="42.94508" lon="0.28245">
        <ele>1168.1999511719</ele>
        <time>2020-05-20T08:37:30Z</time>
      </trkpt>
      <trkpt lat="42.94502" lon="0.28257">
        <ele>1168.5999755859</ele>
        <time>2020-05-20T08:37:36Z</time>
      </trkpt>
      <trkpt lat="42.94501" lon="0.28259">
        <ele>1169</ele>
        <time>2020-05-20T08:37:37Z</time>
      </trkpt>
      <trkpt lat="42.945" lon="0.28262">
        <ele>1169.4000244141</ele>
        <time>2020-05-20T08:37:38Z</time>
      </trkpt>
      <trkpt lat="42.94499" lon="0.28264">
        <ele>1169.8000488281</ele>
        <time>2020-05-20T08:37:39Z</time>
      </trkpt>
      <trkpt lat="42.94499" lon="0.28266">
        <ele>1170.4000244141</ele>
        <time>2020-05-20T08:37:40Z</time>
      </trkpt>
      <trkpt lat="42.94498" lon="0.28272">
        <ele>1170.4000244141</ele>
        <time>2020-05-20T08:37:43Z</time>
      </trkpt>
      <trkpt lat="42.94498" lon="0.28273">
        <ele>1170.4000244141</ele>
        <time>2020-05-20T08:37:44Z</time>
      </trkpt>
      <trkpt lat="42.94495" lon="0.28278">
        <ele>1170.4000244141</ele>
        <time>2020-05-20T08:37:48Z</time>
      </trkpt>
      <trkpt lat="42.94489" lon="0.2829">
        <ele>1170.4000244141</ele>
        <time>2020-05-20T08:37:55Z</time>
      </trkpt>
      <trkpt lat="42.94477" lon="0.28307">
        <ele>1170.4000244141</ele>
        <time>2020-05-20T08:38:01Z</time>
      </trkpt>
      <trkpt lat="42.94465" lon="0.28316">
        <ele>1170</ele>
        <time>2020-05-20T08:38:05Z</time>
      </trkpt>
      <trkpt lat="42.94462" lon="0.2832">
        <ele>1169.4000244141</ele>
        <time>2020-05-20T08:38:06Z</time>
      </trkpt>
      <trkpt lat="42.94459" lon="0.28324">
        <ele>1169</ele>
        <time>2020-05-20T08:38:07Z</time>
      </trkpt>
      <trkpt lat="42.94456" lon="0.2833">
        <ele>1168.5999755859</ele>
        <time>2020-05-20T08:38:08Z</time>
      </trkpt>
      <trkpt lat="42.94453" lon="0.28335">
        <ele>1168.1999511719</ele>
        <time>2020-05-20T08:38:09Z</time>
      </trkpt>
      <trkpt lat="42.94449" lon="0.28341">
        <ele>1167.5999755859</ele>
        <time>2020-05-20T08:38:10Z</time>
      </trkpt>
      <trkpt lat="42.94445" lon="0.28347">
        <ele>1167.1999511719</ele>
        <time>2020-05-20T08:38:11Z</time>
      </trkpt>
      <trkpt lat="42.94442" lon="0.28353">
        <ele>1166.5999755859</ele>
        <time>2020-05-20T08:38:12Z</time>
      </trkpt>
      <trkpt lat="42.94439" lon="0.2836">
        <ele>1166</ele>
        <time>2020-05-20T08:38:13Z</time>
      </trkpt>
      <trkpt lat="42.94436" lon="0.28366">
        <ele>1165.4000244141</ele>
        <time>2020-05-20T08:38:14Z</time>
      </trkpt>
      <trkpt lat="42.94433" lon="0.28373">
        <ele>1164.8000488281</ele>
        <time>2020-05-20T08:38:15Z</time>
      </trkpt>
      <trkpt lat="42.9443" lon="0.2838">
        <ele>1163.5999755859</ele>
        <time>2020-05-20T08:38:16Z</time>
      </trkpt>
      <trkpt lat="42.94428" lon="0.28388">
        <ele>1162.8000488281</ele>
        <time>2020-05-20T08:38:17Z</time>
      </trkpt>
      <trkpt lat="42.94426" lon="0.28395">
        <ele>1162.1999511719</ele>
        <time>2020-05-20T08:38:18Z</time>
      </trkpt>
      <trkpt lat="42.94424" lon="0.28402">
        <ele>1161.5999755859</ele>
        <time>2020-05-20T08:38:19Z</time>
      </trkpt>
      <trkpt lat="42.94423" lon="0.28409">
        <ele>1161.1999511719</ele>
        <time>2020-05-20T08:38:20Z</time>
      </trkpt>
      <trkpt lat="42.94422" lon="0.28415">
        <ele>1160.5999755859</ele>
        <time>2020-05-20T08:38:21Z</time>
      </trkpt>
      <trkpt lat="42.94421" lon="0.2842">
        <ele>1160.1999511719</ele>
        <time>2020-05-20T08:38:22Z</time>
      </trkpt>
      <trkpt lat="42.9442" lon="0.28424">
        <ele>1159.8000488281</ele>
        <time>2020-05-20T08:38:23Z</time>
      </trkpt>
      <trkpt lat="42.9442" lon="0.28428">
        <ele>1159.4000244141</ele>
        <time>2020-05-20T08:38:24Z</time>
      </trkpt>
      <trkpt lat="42.94419" lon="0.2844">
        <ele>1159.4000244141</ele>
        <time>2020-05-20T08:38:29Z</time>
      </trkpt>
      <trkpt lat="42.9442" lon="0.28442">
        <ele>1159</ele>
        <time>2020-05-20T08:38:30Z</time>
      </trkpt>
      <trkpt lat="42.9442" lon="0.28442">
        <ele>1158.5999755859</ele>
        <time>2020-05-20T08:38:31Z</time>
      </trkpt>
      <trkpt lat="42.9442" lon="0.28442">
        <ele>1158.1999511719</ele>
        <time>2020-05-20T08:38:32Z</time>
      </trkpt>
      <trkpt lat="42.9442" lon="0.28442">
        <ele>1157.8000488281</ele>
        <time>2020-05-20T08:38:33Z</time>
      </trkpt>
      <trkpt lat="42.9442" lon="0.28442">
        <ele>1157.4000244141</ele>
        <time>2020-05-20T08:38:34Z</time>
      </trkpt>
      <trkpt lat="42.9442" lon="0.28442">
        <ele>1157.4000244141</ele>
        <time>2020-05-20T08:38:46Z</time>
      </trkpt>
      <trkpt lat="42.9442" lon="0.28442">
        <ele>1157.4000244141</ele>
        <time>2020-05-20T08:39:02Z</time>
      </trkpt>
      <trkpt lat="42.9442" lon="0.28442">
        <ele>1157.4000244141</ele>
        <time>2020-05-20T08:39:03Z</time>
      </trkpt>
      <trkpt lat="42.94419" lon="0.2845">
        <ele>1157.4000244141</ele>
        <time>2020-05-20T08:39:06Z</time>
      </trkpt>
      <trkpt lat="42.94422" lon="0.28465">
        <ele>1157</ele>
        <time>2020-05-20T08:39:09Z</time>
      </trkpt>
      <trkpt lat="42.94423" lon="0.28472">
        <ele>1156.5999755859</ele>
        <time>2020-05-20T08:39:10Z</time>
      </trkpt>
      <trkpt lat="42.94425" lon="0.28479">
        <ele>1156.1999511719</ele>
        <time>2020-05-20T08:39:11Z</time>
      </trkpt>
      <trkpt lat="42.94427" lon="0.28487">
        <ele>1155.4000244141</ele>
        <time>2020-05-20T08:39:12Z</time>
      </trkpt>
      <trkpt lat="42.94429" lon="0.28495">
        <ele>1154.8000488281</ele>
        <time>2020-05-20T08:39:13Z</time>
      </trkpt>
      <trkpt lat="42.9443" lon="0.28504">
        <ele>1154</ele>
        <time>2020-05-20T08:39:14Z</time>
      </trkpt>
      <trkpt lat="42.94432" lon="0.28513">
        <ele>1153.1999511719</ele>
        <time>2020-05-20T08:39:15Z</time>
      </trkpt>
      <trkpt lat="42.94434" lon="0.28521">
        <ele>1152.4000244141</ele>
        <time>2020-05-20T08:39:16Z</time>
      </trkpt>
      <trkpt lat="42.94435" lon="0.28529">
        <ele>1151.5999755859</ele>
        <time>2020-05-20T08:39:17Z</time>
      </trkpt>
      <trkpt lat="42.94437" lon="0.28536">
        <ele>1150.8000488281</ele>
        <time>2020-05-20T08:39:18Z</time>
      </trkpt>
      <trkpt lat="42.94439" lon="0.28542">
        <ele>1150</ele>
        <time>2020-05-20T08:39:19Z</time>
      </trkpt>
      <trkpt lat="42.94441" lon="0.28547">
        <ele>1149.1999511719</ele>
        <time>2020-05-20T08:39:20Z</time>
      </trkpt>
      <trkpt lat="42.94442" lon="0.28551">
        <ele>1148.5999755859</ele>
        <time>2020-05-20T08:39:21Z</time>
      </trkpt>
      <trkpt lat="42.94443" lon="0.28554">
        <ele>1147.8000488281</ele>
        <time>2020-05-20T08:39:22Z</time>
      </trkpt>
      <trkpt lat="42.94444" lon="0.28557">
        <ele>1147.4000244141</ele>
        <time>2020-05-20T08:39:23Z</time>
      </trkpt>
      <trkpt lat="42.94445" lon="0.2856">
        <ele>1146.8000488281</ele>
        <time>2020-05-20T08:39:24Z</time>
      </trkpt>
      <trkpt lat="42.94447" lon="0.28563">
        <ele>1146.4000244141</ele>
        <time>2020-05-20T08:39:25Z</time>
      </trkpt>
      <trkpt lat="42.9445" lon="0.28566">
        <ele>1146</ele>
        <time>2020-05-20T08:39:26Z</time>
      </trkpt>
      <trkpt lat="42.94453" lon="0.2857">
        <ele>1145.4000244141</ele>
        <time>2020-05-20T08:39:27Z</time>
      </trkpt>
      <trkpt lat="42.94456" lon="0.28574">
        <ele>1145</ele>
        <time>2020-05-20T08:39:28Z</time>
      </trkpt>
      <trkpt lat="42.94461" lon="0.28579">
        <ele>1144.4000244141</ele>
        <time>2020-05-20T08:39:29Z</time>
      </trkpt>
      <trkpt lat="42.94466" lon="0.28583">
        <ele>1142.8000488281</ele>
        <time>2020-05-20T08:39:30Z</time>
      </trkpt>
      <trkpt lat="42.94471" lon="0.28587">
        <ele>1142</ele>
        <time>2020-05-20T08:39:31Z</time>
      </trkpt>
      <trkpt lat="42.94476" lon="0.28591">
        <ele>1141.4000244141</ele>
        <time>2020-05-20T08:39:32Z</time>
      </trkpt>
      <trkpt lat="42.94481" lon="0.28594">
        <ele>1140.5999755859</ele>
        <time>2020-05-20T08:39:33Z</time>
      </trkpt>
      <trkpt lat="42.94486" lon="0.28597">
        <ele>1140</ele>
        <time>2020-05-20T08:39:34Z</time>
      </trkpt>
      <trkpt lat="42.94492" lon="0.286">
        <ele>1139.1999511719</ele>
        <time>2020-05-20T08:39:35Z</time>
      </trkpt>
      <trkpt lat="42.94497" lon="0.28602">
        <ele>1138.4000244141</ele>
        <time>2020-05-20T08:39:36Z</time>
      </trkpt>
      <trkpt lat="42.94503" lon="0.28604">
        <ele>1137.4000244141</ele>
        <time>2020-05-20T08:39:37Z</time>
      </trkpt>
      <trkpt lat="42.94509" lon="0.28607">
        <ele>1136.5999755859</ele>
        <time>2020-05-20T08:39:38Z</time>
      </trkpt>
      <trkpt lat="42.94515" lon="0.2861">
        <ele>1135.5999755859</ele>
        <time>2020-05-20T08:39:39Z</time>
      </trkpt>
      <trkpt lat="42.94521" lon="0.28612">
        <ele>1134.5999755859</ele>
        <time>2020-05-20T08:39:40Z</time>
      </trkpt>
      <trkpt lat="42.94527" lon="0.28615">
        <ele>1133.5999755859</ele>
        <time>2020-05-20T08:39:41Z</time>
      </trkpt>
      <trkpt lat="42.94531" lon="0.28617">
        <ele>1132.5999755859</ele>
        <time>2020-05-20T08:39:42Z</time>
      </trkpt>
      <trkpt lat="42.94536" lon="0.28619">
        <ele>1131.8000488281</ele>
        <time>2020-05-20T08:39:43Z</time>
      </trkpt>
      <trkpt lat="42.94541" lon="0.2862">
        <ele>1131</ele>
        <time>2020-05-20T08:39:44Z</time>
      </trkpt>
      <trkpt lat="42.94545" lon="0.2862">
        <ele>1130.4000244141</ele>
        <time>2020-05-20T08:39:45Z</time>
      </trkpt>
      <trkpt lat="42.9455" lon="0.2862">
        <ele>1129.4000244141</ele>
        <time>2020-05-20T08:39:46Z</time>
      </trkpt>
      <trkpt lat="42.94556" lon="0.2862">
        <ele>1128.5999755859</ele>
        <time>2020-05-20T08:39:47Z</time>
      </trkpt>
      <trkpt lat="42.94562" lon="0.28619">
        <ele>1127.5999755859</ele>
        <time>2020-05-20T08:39:48Z</time>
      </trkpt>
      <trkpt lat="42.94566" lon="0.28621">
        <ele>1126.8000488281</ele>
        <time>2020-05-20T08:39:49Z</time>
      </trkpt>
      <trkpt lat="42.94571" lon="0.28626">
        <ele>1126</ele>
        <time>2020-05-20T08:39:50Z</time>
      </trkpt>
      <trkpt lat="42.94573" lon="0.28631">
        <ele>1125</ele>
        <time>2020-05-20T08:39:51Z</time>
      </trkpt>
      <trkpt lat="42.94575" lon="0.28637">
        <ele>1124.1999511719</ele>
        <time>2020-05-20T08:39:52Z</time>
      </trkpt>
      <trkpt lat="42.94576" lon="0.28644">
        <ele>1123.4000244141</ele>
        <time>2020-05-20T08:39:53Z</time>
      </trkpt>
      <trkpt lat="42.94576" lon="0.2865">
        <ele>1123</ele>
        <time>2020-05-20T08:39:54Z</time>
      </trkpt>
      <trkpt lat="42.94574" lon="0.28656">
        <ele>1122</ele>
        <time>2020-05-20T08:39:55Z</time>
      </trkpt>
      <trkpt lat="42.9457" lon="0.28663">
        <ele>1121.5999755859</ele>
        <time>2020-05-20T08:39:56Z</time>
      </trkpt>
      <trkpt lat="42.94567" lon="0.2867">
        <ele>1121</ele>
        <time>2020-05-20T08:39:57Z</time>
      </trkpt>
      <trkpt lat="42.94563" lon="0.28678">
        <ele>1120.4000244141</ele>
        <time>2020-05-20T08:39:58Z</time>
      </trkpt>
      <trkpt lat="42.94559" lon="0.28684">
        <ele>1119.8000488281</ele>
        <time>2020-05-20T08:39:59Z</time>
      </trkpt>
      <trkpt lat="42.94555" lon="0.2869">
        <ele>1119.4000244141</ele>
        <time>2020-05-20T08:40:00Z</time>
      </trkpt>
      <trkpt lat="42.94551" lon="0.28694">
        <ele>1118.8000488281</ele>
        <time>2020-05-20T08:40:01Z</time>
      </trkpt>
      <trkpt lat="42.94547" lon="0.28699">
        <ele>1118.4000244141</ele>
        <time>2020-05-20T08:40:02Z</time>
      </trkpt>
      <trkpt lat="42.94544" lon="0.28703">
        <ele>1117.8000488281</ele>
        <time>2020-05-20T08:40:03Z</time>
      </trkpt>
      <trkpt lat="42.94541" lon="0.28706">
        <ele>1117.1999511719</ele>
        <time>2020-05-20T08:40:04Z</time>
      </trkpt>
      <trkpt lat="42.94538" lon="0.2871">
        <ele>1116.8000488281</ele>
        <time>2020-05-20T08:40:05Z</time>
      </trkpt>
      <trkpt lat="42.94534" lon="0.28714">
        <ele>1116.1999511719</ele>
        <time>2020-05-20T08:40:06Z</time>
      </trkpt>
      <trkpt lat="42.94531" lon="0.28718">
        <ele>1115.5999755859</ele>
        <time>2020-05-20T08:40:07Z</time>
      </trkpt>
      <trkpt lat="42.94528" lon="0.28723">
        <ele>1115</ele>
        <time>2020-05-20T08:40:08Z</time>
      </trkpt>
      <trkpt lat="42.94525" lon="0.28727">
        <ele>1114.5999755859</ele>
        <time>2020-05-20T08:40:09Z</time>
      </trkpt>
      <trkpt lat="42.94524" lon="0.28732">
        <ele>1114</ele>
        <time>2020-05-20T08:40:10Z</time>
      </trkpt>
      <trkpt lat="42.94523" lon="0.28737">
        <ele>1113.5999755859</ele>
        <time>2020-05-20T08:40:11Z</time>
      </trkpt>
      <trkpt lat="42.94523" lon="0.28742">
        <ele>1113</ele>
        <time>2020-05-20T08:40:12Z</time>
      </trkpt>
      <trkpt lat="42.94525" lon="0.28748">
        <ele>1112.5999755859</ele>
        <time>2020-05-20T08:40:13Z</time>
      </trkpt>
      <trkpt lat="42.94528" lon="0.28754">
        <ele>1112</ele>
        <time>2020-05-20T08:40:14Z</time>
      </trkpt>
      <trkpt lat="42.94534" lon="0.28767">
        <ele>1111.5999755859</ele>
        <time>2020-05-20T08:40:16Z</time>
      </trkpt>
      <trkpt lat="42.94536" lon="0.28775">
        <ele>1111</ele>
        <time>2020-05-20T08:40:17Z</time>
      </trkpt>
      <trkpt lat="42.94537" lon="0.28784">
        <ele>1110.5999755859</ele>
        <time>2020-05-20T08:40:18Z</time>
      </trkpt>
      <trkpt lat="42.94538" lon="0.28792">
        <ele>1110</ele>
        <time>2020-05-20T08:40:19Z</time>
      </trkpt>
      <trkpt lat="42.94537" lon="0.288">
        <ele>1108.5999755859</ele>
        <time>2020-05-20T08:40:20Z</time>
      </trkpt>
      <trkpt lat="42.94534" lon="0.28805">
        <ele>1107.8000488281</ele>
        <time>2020-05-20T08:40:21Z</time>
      </trkpt>
      <trkpt lat="42.94528" lon="0.28809">
        <ele>1107.1999511719</ele>
        <time>2020-05-20T08:40:22Z</time>
      </trkpt>
      <trkpt lat="42.94522" lon="0.28813">
        <ele>1106.5999755859</ele>
        <time>2020-05-20T08:40:23Z</time>
      </trkpt>
      <trkpt lat="42.94516" lon="0.28816">
        <ele>1106</ele>
        <time>2020-05-20T08:40:24Z</time>
      </trkpt>
      <trkpt lat="42.94509" lon="0.28819">
        <ele>1105.4000244141</ele>
        <time>2020-05-20T08:40:25Z</time>
      </trkpt>
      <trkpt lat="42.94501" lon="0.28821">
        <ele>1104.5999755859</ele>
        <time>2020-05-20T08:40:26Z</time>
      </trkpt>
      <trkpt lat="42.94493" lon="0.28823">
        <ele>1103.8000488281</ele>
        <time>2020-05-20T08:40:27Z</time>
      </trkpt>
      <trkpt lat="42.94486" lon="0.28823">
        <ele>1103</ele>
        <time>2020-05-20T08:40:28Z</time>
      </trkpt>
      <trkpt lat="42.94479" lon="0.28822">
        <ele>1102</ele>
        <time>2020-05-20T08:40:29Z</time>
      </trkpt>
      <trkpt lat="42.94474" lon="0.28819">
        <ele>1101.1999511719</ele>
        <time>2020-05-20T08:40:30Z</time>
      </trkpt>
      <trkpt lat="42.9447" lon="0.28816">
        <ele>1100.1999511719</ele>
        <time>2020-05-20T08:40:31Z</time>
      </trkpt>
      <trkpt lat="42.94466" lon="0.28814">
        <ele>1099.4000244141</ele>
        <time>2020-05-20T08:40:32Z</time>
      </trkpt>
      <trkpt lat="42.94457" lon="0.28811">
        <ele>1099.4000244141</ele>
        <time>2020-05-20T08:40:35Z</time>
      </trkpt>
      <trkpt lat="42.94446" lon="0.28802">
        <ele>1099.4000244141</ele>
        <time>2020-05-20T08:40:40Z</time>
      </trkpt>
      <trkpt lat="42.94433" lon="0.28792">
        <ele>1099.4000244141</ele>
        <time>2020-05-20T08:40:44Z</time>
      </trkpt>
      <trkpt lat="42.94422" lon="0.28772">
        <ele>1098.8000488281</ele>
        <time>2020-05-20T08:40:48Z</time>
      </trkpt>
      <trkpt lat="42.94419" lon="0.28765">
        <ele>1098.4000244141</ele>
        <time>2020-05-20T08:40:49Z</time>
      </trkpt>
      <trkpt lat="42.94416" lon="0.28758">
        <ele>1098</ele>
        <time>2020-05-20T08:40:50Z</time>
      </trkpt>
      <trkpt lat="42.94413" lon="0.28752">
        <ele>1097.4000244141</ele>
        <time>2020-05-20T08:40:51Z</time>
      </trkpt>
      <trkpt lat="42.94409" lon="0.28744">
        <ele>1097</ele>
        <time>2020-05-20T08:40:52Z</time>
      </trkpt>
      <trkpt lat="42.94401" lon="0.28731">
        <ele>1097</ele>
        <time>2020-05-20T08:40:54Z</time>
      </trkpt>
      <trkpt lat="42.94396" lon="0.28725">
        <ele>1096.5999755859</ele>
        <time>2020-05-20T08:40:55Z</time>
      </trkpt>
      <trkpt lat="42.94392" lon="0.28718">
        <ele>1096</ele>
        <time>2020-05-20T08:40:56Z</time>
      </trkpt>
      <trkpt lat="42.94388" lon="0.2871">
        <ele>1095.5999755859</ele>
        <time>2020-05-20T08:40:57Z</time>
      </trkpt>
      <trkpt lat="42.94383" lon="0.28703">
        <ele>1095.1999511719</ele>
        <time>2020-05-20T08:40:58Z</time>
      </trkpt>
      <trkpt lat="42.94378" lon="0.28695">
        <ele>1094.5999755859</ele>
        <time>2020-05-20T08:40:59Z</time>
      </trkpt>
      <trkpt lat="42.94374" lon="0.28688">
        <ele>1094.5999755859</ele>
        <time>2020-05-20T08:41:00Z</time>
      </trkpt>
      <trkpt lat="42.9435" lon="0.28645">
        <ele>1094.1999511719</ele>
        <time>2020-05-20T08:41:05Z</time>
      </trkpt>
      <trkpt lat="42.94344" lon="0.28636">
        <ele>1093.5999755859</ele>
        <time>2020-05-20T08:41:06Z</time>
      </trkpt>
      <trkpt lat="42.94338" lon="0.28625">
        <ele>1093.1999511719</ele>
        <time>2020-05-20T08:41:07Z</time>
      </trkpt>
      <trkpt lat="42.94333" lon="0.28615">
        <ele>1092.5999755859</ele>
        <time>2020-05-20T08:41:08Z</time>
      </trkpt>
      <trkpt lat="42.94328" lon="0.28605">
        <ele>1092.1999511719</ele>
        <time>2020-05-20T08:41:09Z</time>
      </trkpt>
      <trkpt lat="42.94322" lon="0.28595">
        <ele>1091.4000244141</ele>
        <time>2020-05-20T08:41:10Z</time>
      </trkpt>
      <trkpt lat="42.94317" lon="0.28585">
        <ele>1090.8000488281</ele>
        <time>2020-05-20T08:41:11Z</time>
      </trkpt>
      <trkpt lat="42.94311" lon="0.28574">
        <ele>1090.4000244141</ele>
        <time>2020-05-20T08:41:12Z</time>
      </trkpt>
      <trkpt lat="42.94306" lon="0.28564">
        <ele>1090</ele>
        <time>2020-05-20T08:41:13Z</time>
      </trkpt>
      <trkpt lat="42.943" lon="0.28553">
        <ele>1089.5999755859</ele>
        <time>2020-05-20T08:41:14Z</time>
      </trkpt>
      <trkpt lat="42.94295" lon="0.28543">
        <ele>1089.1999511719</ele>
        <time>2020-05-20T08:41:15Z</time>
      </trkpt>
      <trkpt lat="42.94292" lon="0.28532">
        <ele>1088.8000488281</ele>
        <time>2020-05-20T08:41:16Z</time>
      </trkpt>
      <trkpt lat="42.94289" lon="0.28521">
        <ele>1088.4000244141</ele>
        <time>2020-05-20T08:41:17Z</time>
      </trkpt>
      <trkpt lat="42.94287" lon="0.28509">
        <ele>1088</ele>
        <time>2020-05-20T08:41:18Z</time>
      </trkpt>
      <trkpt lat="42.94281" lon="0.2848">
        <ele>1088</ele>
        <time>2020-05-20T08:41:21Z</time>
      </trkpt>
      <trkpt lat="42.94275" lon="0.28462">
        <ele>1088</ele>
        <time>2020-05-20T08:41:23Z</time>
      </trkpt>
      <trkpt lat="42.94267" lon="0.28452">
        <ele>1088</ele>
        <time>2020-05-20T08:41:25Z</time>
      </trkpt>
      <trkpt lat="42.94254" lon="0.28455">
        <ele>1088</ele>
        <time>2020-05-20T08:41:28Z</time>
      </trkpt>
      <trkpt lat="42.94247" lon="0.28465">
        <ele>1088</ele>
        <time>2020-05-20T08:41:30Z</time>
      </trkpt>
      <trkpt lat="42.9424" lon="0.28476">
        <ele>1088</ele>
        <time>2020-05-20T08:41:32Z</time>
      </trkpt>
      <trkpt lat="42.94237" lon="0.28481">
        <ele>1088</ele>
        <time>2020-05-20T08:41:33Z</time>
      </trkpt>
      <trkpt lat="42.94231" lon="0.28491">
        <ele>1088</ele>
        <time>2020-05-20T08:41:36Z</time>
      </trkpt>
      <trkpt lat="42.94232" lon="0.28492">
        <ele>1088</ele>
        <time>2020-05-20T08:41:39Z</time>
      </trkpt>
      <trkpt lat="42.94232" lon="0.28492">
        <ele>1088.4000244141</ele>
        <time>2020-05-20T08:41:47Z</time>
      </trkpt>
      <trkpt lat="42.94232" lon="0.28492">
        <ele>1088.8000488281</ele>
        <time>2020-05-20T08:41:48Z</time>
      </trkpt>
    </trkseg>
  </trk>
</gpx>